<
# Wetter Temperatur Luftdruck Luftfeuchtigkeit Sichtweite Windgeschwindigkeit Windrichtung Zeit
1 Clouds 3 1013 96 903 7.34 201 06:38 02.10.2022
2 Clouds 2 1013 97 70 7.41 197 02:54 02.10.2022
3 Clouds 1 1014 94 2135 7.71 199 00:45 02.10.2022
4 Clouds 1 1014 90 10000 7.51 197 23:43 01.10.2022
5 Clouds 1 1015 89 10000 7.68 195 22:31 01.10.2022
6 Snow 2 1016 91 10000 7.84 191 19:58 01.10.2022
7 Snow 1 1017 93 10000 7.18 191 17:49 01.10.2022
8 Clouds 1 1018 93 2241 6.93 191 16:29 01.10.2022
9 Clouds 1 1019 90 7497 6.54 184 14:19 01.10.2022
10 Snow 1 1020 92 5456 5.76 180 12:57 01.10.2022
11 Snow 1 1020 96 251 5.51 185 12:29 01.10.2022
12 Snow 1 1020 96 251 5.51 185 12:29 01.10.2022
13 Snow 1 1021 93 1011 5.89 190 11:19 01.10.2022
14 Snow 1 1021 93 1011 5.89 190 10:31 01.10.2022
15 Clouds 1 1022 66 10000 6.2 194 09:27 01.10.2022
16 Clouds 1 1022 66 10000 6.2 194 08:57 01.10.2022
17 Clouds 0 1023 66 10000 6.71 195 03:59 01.10.2022
18 Clouds -1 1024 67 10000 6.48 196 03:28 01.10.2022
19 Clouds -1 1025 73 10000 6.45 194 23:47 30.09.2022
20 Clouds -1 1025 75 10000 6.75 196 22:32 30.09.2022
21 Clouds 0 1026 74 10000 6.86 197 21:22 30.09.2022
22 Clouds 0 1026 74 10000 6.86 197 20:43 30.09.2022
23 Clouds 0 1027 71 10000 6.68 199 19:32 30.09.2022
24 Clouds 0 1027 67 10000 6.29 202 17:27 30.09.2022
25 Clouds 1 1028 68 10000 6.09 209 15:26 30.09.2022
26 Clouds 2 1028 67 10000 6.55 211 13:27 30.09.2022
27 Clouds 2 1028 67 10000 6.83 215 11:56 30.09.2022
28 Clouds 2 1029 69 10000 6.88 218 10:18 30.09.2022
29 Clouds 1 1029 76 10000 7.07 214 08:21 30.09.2022
30 Clouds -1 1029 83 10000 6.71 204 04:31 30.09.2022
31 Clouds -1 1030 79 10000 6.4 201 02:27 30.09.2022
32 Clear -1 1031 74 10000 5.52 206 22:24 29.09.2022
33 Clear 0 1031 74 10000 5.09 204 21:26 29.09.2022
34 Clear 0 1031 72 10000 5.24 207 20:31 29.09.2022
35 Clear 0 1031 71 10000 4.33 206 18:32 29.09.2022
36 Clouds 0 1032 69 10000 3.59 210 16:56 29.09.2022
37 Clouds 0 1032 69 10000 3.7 216 16:26 29.09.2022
38 Clouds 0 1032 69 10000 3.7 216 15:35 29.09.2022
39 Clouds 2 1032 56 10000 2.85 195 13:28 29.09.2022
40 Clouds 1 1033 61 10000 2.41 186 09:21 29.09.2022
41 Clouds -1 1033 73 10000 2.47 202 05:42 29.09.2022
42 Clouds -2 1033 80 10000 2.72 190 02:44 29.09.2022
43 Clouds -1 1033 78 10000 2.78 189 23:32 28.09.2022
44 Clouds -1 1033 78 10000 2.69 189 22:32 28.09.2022
45 Clouds 0 1033 73 10000 2.31 158 21:29 28.09.2022
46 Clouds 0 1033 73 10000 2.44 143 20:20 28.09.2022
47 Clouds 2 1033 70 10000 2.87 100 18:20 28.09.2022
48 Clouds 2 1033 76 10000 3.23 83 14:50 28.09.2022
49 Clouds 3 1032 77 10000 2.79 76 12:40 28.09.2022
50 Clouds 3 1032 74 10000 2.29 77 10:24 28.09.2022
51 Clouds 3 1032 77 10000 3 78 08:25 28.09.2022
52 Clouds 3 1032 75 10000 3.14 74 06:45 28.09.2022
53 Clouds 2 1032 75 10000 2.74 35 01:54 28.09.2022
54 Clouds 2 1032 75 10000 2.74 35 01:30 28.09.2022
55 Clouds 2 1032 73 10000 2.34 57 23:19 27.09.2022
56 Clouds 2 1032 73 10000 2.68 59 21:40 27.09.2022
57 Clouds 2 1032 71 10000 2.99 66 20:37 27.09.2022
58 Clouds 2 1032 72 10000 3.5 74 19:47 27.09.2022
59 Clouds 2 1032 68 10000 4.2 80 18:31 27.09.2022
60 Clouds 2 1032 66 10000 4.37 82 17:43 27.09.2022
61 Clouds 2 1032 71 10000 4.09 69 15:27 27.09.2022
62 Clouds 2 1032 71 10000 4.09 69 14:41 27.09.2022
63 Clouds 2 1032 70 10000 4.34 73 12:40 27.09.2022
64 Clouds 2 1032 67 10000 4.9 73 10:53 27.09.2022
65 Clouds 2 1031 60 10000 4.07 80 08:46 27.09.2022
66 Clouds 2 1031 68 10000 3.65 100 06:27 27.09.2022
67 Clouds 2 1030 85 10000 1.81 7 01:45 27.09.2022
68 Clouds 1 1031 86 10000 1.11 347 01:27 27.09.2022
69 Clouds 1 1031 85 10000 0.53 192 23:25 26.09.2022
70 Clouds 0 1030 85 10000 1.01 162 22:24 26.09.2022
71 Clouds 0 1031 85 10000 2.47 132 20:29 26.09.2022
72 Clouds 0 1031 85 10000 2.47 132 19:30 26.09.2022
73 Clouds 0 1031 85 10000 3.23 129 18:31 26.09.2022
74 Clouds 1 1030 75 10000 3.44 111 15:52 26.09.2022
75 Clouds 3 1030 70 10000 3.29 102 13:30 26.09.2022
76 Clouds 3 1030 69 10000 3.02 100 11:29 26.09.2022
77 Clouds 3 1030 69 10000 3.02 100 10:37 26.09.2022
78 Clouds 2 1030 69 10000 2.49 112 10:19 26.09.2022
79 Clouds 2 1030 69 10000 2.49 112 09:53 26.09.2022
80 Clouds 2 1030 71 10000 2.43 122 09:22 26.09.2022
81 Clouds 1 1030 74 10000 2 145 06:28 26.09.2022
82 Clouds 0 1030 75 10000 2.19 143 02:44 26.09.2022
83 Clouds 0 1031 76 10000 2.73 170 23:28 25.09.2022
84 Clouds 0 1031 76 10000 2.86 170 21:49 25.09.2022
85 Clouds 0 1031 76 10000 2.86 171 21:25 25.09.2022
86 Clouds 0 1031 76 10000 2.86 171 20:44 25.09.2022
87 Clouds 1 1031 76 10000 2.8 160 19:31 25.09.2022
88 Clouds 1 1031 75 10000 3.12 148 18:34 25.09.2022
89 Clouds 1 1031 74 10000 3.44 136 17:49 25.09.2022
90 Clouds 2 1031 71 10000 3.7 108 16:22 25.09.2022
91 Clouds 2 1031 71 10000 3.7 108 15:35 25.09.2022
92 Clouds 3 1032 66 10000 3.52 84 14:21 25.09.2022
93 Clouds 3 1032 65 10000 3.37 84 12:44 25.09.2022
94 Clouds 3 1032 65 10000 2.94 58 10:20 25.09.2022
95 Clouds 3 1031 62 10000 3.13 56 07:47 25.09.2022
96 Clouds 3 1031 62 10000 2.44 45 05:31 25.09.2022
97 Clouds 2 1031 66 10000 2.82 61 00:36 25.09.2022
98 Clouds 2 1030 66 10000 3.16 48 22:34 24.09.2022
99 Clouds 3 1030 68 10000 3.66 56 20:36 24.09.2022
100 Clouds 2 1030 69 10000 4.18 47 19:20 24.09.2022
101 Clouds 3 1030 71 10000 4.22 41 16:59 24.09.2022
102 Clouds 3 1030 72 10000 4.4 32 16:23 24.09.2022
103 Rain 3 1030 72 10000 4.46 23 15:19 24.09.2022
104 Clouds 4 1030 67 10000 4.97 32 13:23 24.09.2022
105 Clouds 4 1030 67 10000 4.97 32 12:40 24.09.2022
106 Rain 3 1029 71 10000 5.97 30 10:18 24.09.2022
107 Clouds 4 1029 72 7727 6.21 27 09:22 24.09.2022
108 Clouds 4 1029 72 7727 6.21 27 09:22 24.09.2022
109 Clouds 4 1029 72 7727 6.21 27 08:42 24.09.2022
110 Clouds 3 1028 73 9689 7.62 26 04:58 24.09.2022
111 Clouds 3 1028 73 9689 7.62 26 04:31 24.09.2022
112 Rain 4 1026 73 10000 7.68 26 23:47 23.09.2022
113 Clouds 4 1025 73 10000 7.22 30 21:44 23.09.2022
114 Clouds 4 1024 73 10000 7.51 31 21:24 23.09.2022
115 Clouds 4 1024 73 10000 7.51 31 20:54 23.09.2022
116 Clouds 4 1023 72 10000 8.19 24 19:20 23.09.2022
117 Clouds 4 1023 73 10000 8.64 21 17:50 23.09.2022
118 Rain 4 1020 78 10000 9.24 14 13:41 23.09.2022
119 Rain 3 1018 96 486 8.64 8 10:24 23.09.2022
120 Rain 3 1017 96 529 8.63 2 07:43 23.09.2022
121 Rain 3 1014 82 3188 8.79 350 02:32 23.09.2022
122 Rain 4 1012 79 10000 9.58 338 23:29 22.09.2022
123 Rain 4 1011 78 10000 9.89 337 22:28 22.09.2022
124 Rain 4 1011 78 10000 9.89 337 21:35 22.09.2022
125 Rain 3 1009 83 3361 10.18 340 20:23 22.09.2022
126 Rain 3 1008 85 3294 10.82 338 18:57 22.09.2022
127 Rain 3 1005 89 3530 13.32 327 15:23 22.09.2022
128 Rain 3 1002 81 5859 14.99 309 10:48 22.09.2022
129 Clouds 3 1001 78 9753 15.01 309 10:19 22.09.2022
130 Clouds 3 1001 76 10000 15.28 310 07:55 22.09.2022
131 Clouds 3 998 80 10000 16.73 310 04:56 22.09.2022
132 Rain 3 995 86 4873 18.85 308 00:37 22.09.2022
133 Rain 2 994 96 584 17.82 299 22:29 21.09.2022
134 Rain 2 994 96 621 17.75 298 21:18 21.09.2022
135 Rain 3 993 87 3885 16.25 298 18:50 21.09.2022
136 Rain 3 993 85 5481 15.63 292 17:41 21.09.2022
137 Rain 3 994 83 7480 15.61 288 15:35 21.09.2022
138 Rain 4 993 80 6114 14.48 292 13:41 21.09.2022
139 Clouds 4 991 80 8882 13.78 295 11:42 21.09.2022
140 Rain 4 990 80 10000 13.1 297 10:54 21.09.2022
141 Rain 4 990 80 10000 12.54 299 09:39 21.09.2022
142 Rain 4 990 80 10000 12.54 299 09:39 21.09.2022
143 Rain 4 989 81 10000 12.1 304 08:31 21.09.2022
144 Rain 8 985 94 10000 8.56 222 03:51 21.09.2022
145 Rain 8 986 94 10000 8.07 221 02:38 21.09.2022
146 Rain 8 987 94 10000 8.28 221 01:52 21.09.2022
147 Clouds 9 988 92 10000 8.03 216 00:19 21.09.2022
148 Rain 9 989 94 10000 8.14 217 21:52 20.09.2022
149 Rain 9 990 95 10000 7.74 211 20:32 20.09.2022
150 Clouds 10 992 90 10000 8.89 189 17:54 20.09.2022
151 Rain 9 994 93 10000 5.82 167 15:37 20.09.2022
152 Rain 7 997 91 10000 8.61 123 14:18 20.09.2022
153 Rain 8 1003 83 10000 7.72 114 11:29 20.09.2022
154 Clouds 7 1006 84 10000 8.93 111 08:38 20.09.2022
155 Clouds 7 1007 86 10000 8.04 110 07:37 20.09.2022
156 Clouds 6 1010 90 10000 6.96 118 04:37 20.09.2022
157 Clouds 5 1013 90 10000 6.91 111 01:42 20.09.2022
158 Rain 5 1015 90 10000 6.42 117 22:42 19.09.2022
159 Rain 5 1015 92 10000 7.42 112 21:28 19.09.2022
160 Rain 5 1015 92 10000 7.42 112 20:40 19.09.2022
161 Clouds 5 1016 90 10000 6.74 113 18:45 19.09.2022
162 Clouds 5 1016 89 10000 6.31 105 17:20 19.09.2022
163 Clouds 5 1015 89 10000 6.23 92 13:47 19.09.2022
164 Clouds 5 1014 88 10000 5.99 88 11:57 19.09.2022
165 Clouds 5 1013 89 10000 6.3 81 09:44 19.09.2022
166 Clouds 6 1012 86 10000 6.09 81 08:36 19.09.2022
167 Clouds 5 1009 88 10000 6.81 69 03:39 19.09.2022
168 Clouds 5 1007 90 10000 6.96 64 00:48 19.09.2022
169 Clouds 6 1006 95 2569 7.34 61 22:33 18.09.2022
170 Clouds 6 1004 96 10000 7.16 58 21:26 18.09.2022
171 Clouds 6 1004 94 10000 7.8 63 19:40 18.09.2022
172 Clouds 6 1003 95 10000 8.49 66 17:52 18.09.2022
173 Clouds 7 1003 96 8027 8.32 66 16:49 18.09.2022
174 Clouds 7 1004 98 2834 7.7 63 14:51 18.09.2022
175 Clouds 8 1004 95 10000 7.07 71 13:35 18.09.2022
176 Clouds 8 1003 88 10000 6.65 71 12:20 18.09.2022
177 Clouds 9 1004 87 10000 4.59 75 09:44 18.09.2022
178 Clouds 9 1006 85 10000 1.96 158 01:44 18.09.2022
179 Clouds 9 1006 86 10000 2.27 178 01:20 18.09.2022
180 Clouds 10 1006 87 10000 2.54 181 22:57 17.09.2022
181 Rain 10 1007 90 10000 2.18 167 20:55 17.09.2022
182 Clouds 10 1007 86 10000 1.99 170 19:39 17.09.2022
183 Clouds 10 1007 87 10000 1.49 170 18:21 17.09.2022
184 Clouds 10 1008 91 10000 2.66 211 14:27 17.09.2022
185 Clouds 10 1008 91 10000 2.66 211 13:32 17.09.2022
186 Clouds 10 1008 89 10000 3.78 218 10:49 17.09.2022
187 Clouds 9 1008 88 10000 3.82 207 07:28 17.09.2022
188 Clouds 9 1008 90 10000 3.49 194 06:19 17.09.2022
189 Clouds 9 1009 93 10000 3.98 163 23:41 16.09.2022
190 Rain 9 1010 93 10000 4.78 169 22:27 16.09.2022
191 Rain 9 1010 92 10000 4.51 163 20:54 16.09.2022
192 Rain 8 1011 93 10000 4.71 139 19:35 16.09.2022
193 Rain 7 1012 96 10000 4.37 118 16:24 16.09.2022
194 Rain 7 1013 97 10000 4.76 124 14:52 16.09.2022
195 Rain 6 1013 96 10000 6.51 111 13:21 16.09.2022
196 Rain 6 1014 93 10000 6.71 114 10:24 16.09.2022
197 Rain 5 1015 89 10000 7.34 114 07:26 16.09.2022
198 Rain 5 1015 89 10000 7.34 114 06:48 16.09.2022
199 Clouds 5 1015 88 10000 7.46 114 05:57 16.09.2022
200 Rain 5 1016 89 10000 6.3 111 02:30 16.09.2022
201 Clouds 4 1016 84 10000 3.51 121 21:47 15.09.2022
202 Clouds 5 1016 81 10000 3.17 124 20:38 15.09.2022
203 Clouds 5 1016 78 10000 2.38 107 19:31 15.09.2022
204 Clouds 5 1016 77 10000 1.14 45 17:41 15.09.2022
205 Clouds 5 1015 78 10000 1.42 2 17:22 15.09.2022
206 Clouds 5 1015 78 10000 2.69 352 15:38 15.09.2022
207 Clouds 8 1014 70 10000 6.4 315 12:51 15.09.2022
208 Clouds 8 1013 67 10000 7.03 293 11:48 15.09.2022
209 Clouds 8 1012 67 10000 8.8 279 09:45 15.09.2022
210 Clouds 7 1011 72 10000 9.33 269 06:58 15.09.2022
211 Clouds 5 1010 81 10000 7.43 270 03:46 15.09.2022
212 Rain 8 1007 93 10000 8.88 293 23:22 14.09.2022
213 Rain 9 1006 87 10000 12.55 237 20:37 14.09.2022
214 Rain 9 1007 89 10000 11.99 231 19:33 14.09.2022
215 Rain 9 1008 88 10000 10.07 212 17:47 14.09.2022
216 Clouds 8 1009 84 10000 9.35 209 16:36 14.09.2022
217 Clouds 7 1010 77 10000 6.43 207 14:56 14.09.2022
218 Clouds 7 1011 76 10000 5.79 234 12:40 14.09.2022
219 Clouds 6 1011 85 10000 2.22 277 09:52 14.09.2022
220 Clouds 5 1010 91 10000 0.96 281 08:38 14.09.2022
221 Rain 5 1009 94 10000 2.45 127 06:50 14.09.2022
222 Rain 5 1009 95 10000 2.49 116 06:29 14.09.2022
223 Clouds 4 1010 87 10000 2.33 170 02:43 14.09.2022
224 Rain 3 1011 87 10000 3.15 182 01:36 14.09.2022
225 Clouds 3 1011 88 10000 3.04 195 00:53 14.09.2022
226 Clouds 3 1011 89 10000 3.29 202 23:55 13.09.2022
227 Clouds 3 1011 89 10000 3.29 202 23:36 13.09.2022
228 Clouds 3 1011 90 10000 3.66 208 23:18 13.09.2022
229 Clouds 3 1011 88 10000 3.7 210 22:28 13.09.2022
230 Clouds 3 1011 88 10000 3.7 210 21:38 13.09.2022
231 Clouds 3 1011 81 10000 3.12 235 18:56 13.09.2022
232 Clouds 4 1011 79 10000 3.98 238 16:39 13.09.2022
233 Clouds 6 1011 72 10000 4.83 244 15:19 13.09.2022
234 Clouds 6 1011 73 10000 5.15 251 13:40 13.09.2022
235 Clouds 7 1010 64 10000 5.43 268 10:30 13.09.2022
236 Clouds 6 1010 64 10000 5.21 269 07:56 13.09.2022
237 Clouds 2 1009 79 10000 4.78 265 02:22 13.09.2022
238 Clouds 3 1008 76 10000 5 269 23:22 12.09.2022
239 Clouds 3 1008 76 10000 5 269 22:40 12.09.2022
240 Clouds 3 1008 79 10000 4.92 266 21:21 12.09.2022
241 Clouds 3 1008 79 10000 4.77 260 19:58 12.09.2022
242 Clouds 3 1008 70 10000 4.53 268 18:22 12.09.2022
243 Clouds 5 1008 63 10000 4.29 296 15:50 12.09.2022
244 Clouds 6 1008 61 10000 5.34 309 12:30 12.09.2022
245 Rain 6 1008 64 10000 5.19 288 10:30 12.09.2022
246 Clouds 5 1008 64 10000 4.85 269 07:33 12.09.2022
247 Clouds 3 1008 75 10000 5.53 266 04:36 12.09.2022
248 Clouds 3 1008 76 10000 7.03 274 02:24 12.09.2022
249 Clouds 4 1008 70 10000 8.22 290 22:46 11.09.2022
250 Clouds 5 1007 68 10000 9.5 301 21:27 11.09.2022
251 Clouds 5 1007 68 10000 9.5 301 20:44 11.09.2022
252 Clouds 6 1006 68 10000 8.92 300 19:39 11.09.2022
253 Clouds 6 1006 68 10000 8.84 295 19:19 11.09.2022
254 Rain 6 1005 73 10000 8.4 287 17:28 11.09.2022
255 Clouds 6 1005 76 10000 9.02 285 15:51 11.09.2022
256 Clouds 8 1004 80 10000 9.51 267 13:26 11.09.2022
257 Clouds 8 1004 78 10000 9.16 267 11:26 11.09.2022
258 Rain 8 1004 84 10000 8.96 260 08:25 11.09.2022
259 Rain 9 1004 83 10000 8.34 253 05:30 11.09.2022
260 Clouds 6 1009 86 10000 6.65 217 00:23 11.09.2022
261 Clouds 4 1010 86 10000 5.12 229 22:23 10.09.2022
262 Clouds 5 1011 85 10000 4.89 231 20:34 10.09.2022
263 Clouds 5 1011 86 10000 4.41 234 19:44 10.09.2022
264 Clouds 5 1011 85 10000 4.35 240 19:25 10.09.2022
265 Clouds 5 1011 82 10000 3.92 232 17:49 10.09.2022
266 Clouds 6 1012 69 10000 1.39 277 15:37 10.09.2022
267 Clouds 6 1012 65 10000 2.62 328 13:55 10.09.2022
268 Clouds 6 1012 64 10000 3.57 323 12:51 10.09.2022
269 Clouds 6 1012 65 10000 4.12 315 10:34 10.09.2022
270 Clouds 6 1012 69 10000 3.46 327 08:42 10.09.2022
271 Clouds 6 1011 71 10000 3.48 332 08:22 10.09.2022
272 Clouds 6 1010 78 10000 4.09 356 04:30 10.09.2022
273 Clouds 5 1009 86 10000 3.22 285 23:38 09.09.2022
274 Rain 5 1009 86 10000 3.06 263 22:36 09.09.2022
275 Clouds 5 1009 88 10000 3.28 237 20:59 09.09.2022
276 Clouds 5 1009 83 10000 2.8 240 20:20 09.09.2022
277 Clouds 5 1008 81 10000 1.62 242 19:23 09.09.2022
278 Clouds 5 1008 80 10000 0.37 312 17:50 09.09.2022
279 Clouds 6 1008 77 10000 2.58 33 15:23 09.09.2022
280 Clouds 6 1007 78 10000 3.21 32 13:43 09.09.2022
281 Clouds 6 1006 77 10000 3.13 17 11:38 09.09.2022
282 Clouds 5 1005 83 10000 1.99 329 07:58 09.09.2022
283 Rain 5 1005 91 10000 2.95 286 03:39 09.09.2022
284 Clouds 3 1006 96 1440 3.15 220 00:21 09.09.2022
285 Clouds 3 1006 91 10000 3.78 238 21:52 08.09.2022
286 Clouds 4 1006 89 10000 4.03 252 20:49 08.09.2022
287 Clouds 4 1006 88 10000 4.03 252 20:29 08.09.2022
288 Clouds 4 1007 88 10000 4.31 265 19:25 08.09.2022
289 Rain 4 1007 94 4608 3.83 250 17:29 08.09.2022
290 Clouds 5 1008 81 10000 3.85 262 15:53 08.09.2022
291 Clouds 5 1007 76 10000 3.31 287 13:30 08.09.2022
292 Clouds 6 1008 73 10000 3.87 297 12:42 08.09.2022
293 Clouds 6 1008 67 10000 4.27 316 11:23 08.09.2022
294 Clouds 6 1008 67 10000 4.48 324 09:46 08.09.2022
295 Rain 6 1007 68 10000 4.89 342 07:25 08.09.2022
296 Rain 5 1007 70 10000 4.4 349 04:44 08.09.2022
297 Rain 5 1007 72 10000 4.71 355 02:36 08.09.2022
298 Clouds 5 1008 70 10000 5.07 360 02:18 08.09.2022
299 Rain 5 1008 68 10000 5.66 11 23:25 07.09.2022
300 Rain 5 1008 68 10000 5.84 12 21:46 07.09.2022
301 Clouds 5 1008 68 10000 6.06 12 21:24 07.09.2022
302 Clouds 5 1008 66 10000 6.82 11 20:28 07.09.2022
303 Clouds 5 1008 66 10000 7 15 19:20 07.09.2022
304 Rain 5 1008 69 10000 6.77 10 16:24 07.09.2022
305 Rain 6 1008 66 10000 4.48 1 10:52 07.09.2022
306 Rain 6 1008 66 10000 4.48 1 10:32 07.09.2022
307 Clouds 6 1008 62 10000 6.58 23 08:26 07.09.2022
308 Rain 6 1008 64 10000 6.66 32 05:46 07.09.2022
309 Rain 6 1007 69 10000 5.91 16 00:31 07.09.2022
310 Rain 5 1007 69 10000 6.4 18 21:56 06.09.2022
311 Rain 5 1007 69 10000 6.4 18 21:33 06.09.2022
312 Rain 6 1007 66 10000 6.2 25 19:39 06.09.2022
313 Rain 5 1007 67 10000 5.62 26 18:39 06.09.2022
314 Clouds 5 1007 67 10000 5.76 27 17:39 06.09.2022
315 Rain 5 1007 65 10000 6.38 29 16:47 06.09.2022
316 Clouds 6 1007 64 10000 6.6 35 15:58 06.09.2022
317 Clouds 6 1006 64 10000 5.67 40 13:48 06.09.2022
318 Clouds 6 1006 64 10000 5.41 46 13:27 06.09.2022
319 Clouds 6 1006 64 10000 5.41 46 12:57 06.09.2022
320 Clouds 6 1006 63 10000 6.18 61 10:55 06.09.2022
321 Clouds 6 1005 63 10000 7.73 66 09:18 06.09.2022
322 Clouds 6 1005 66 10000 7.49 67 07:52 06.09.2022
323 Clouds 6 1005 66 10000 7.49 67 07:52 06.09.2022
324 Rain 6 1004 80 10000 8.79 73 06:18 06.09.2022
325 Rain 5 1002 91 10000 4.55 66 00:54 06.09.2022
326 Rain 5 1001 90 10000 4.39 67 22:49 05.09.2022
327 Rain 6 1001 89 10000 3.86 60 21:38 05.09.2022
328 Clouds 6 1001 78 10000 2.1 17 20:18 05.09.2022
329 Clouds 6 1002 74 10000 1.97 349 18:53 05.09.2022
330 Clouds 6 1001 73 10000 2.36 349 18:24 05.09.2022
331 Clouds 6 1001 73 10000 2.36 349 17:47 05.09.2022
332 Clouds 7 1001 70 10000 2.1 334 15:53 05.09.2022
333 Clouds 7 1003 70 10000 2.17 333 14:34 05.09.2022
334 Clouds 7 1003 70 10000 2.76 324 12:51 05.09.2022
335 Clouds 8 1004 69 10000 3.67 323 10:35 05.09.2022
336 Clouds 7 1004 69 10000 3.4 321 08:36 05.09.2022
337 Clouds 7 1004 77 10000 5.36 347 03:47 05.09.2022
338 Clouds 6 1004 78 10000 6.71 359 00:18 05.09.2022
339 Clouds 6 1004 78 10000 7.49 4 22:28 04.09.2022
340 Clouds 6 1004 78 10000 7.49 4 21:49 04.09.2022
341 Clouds 6 1004 78 10000 8.9 11 19:50 04.09.2022
342 Clouds 6 1004 78 10000 9.19 14 18:33 04.09.2022
343 Clouds 7 1004 78 10000 9.79 18 17:26 04.09.2022
344 Clouds 7 1004 75 10000 10.2 20 15:23 04.09.2022
345 Clouds 7 1004 76 10000 10.4 20 14:24 04.09.2022
346 Clouds 7 1004 73 10000 9.86 26 12:26 04.09.2022
347 Rain 7 1004 74 10000 10.23 31 10:59 04.09.2022
348 Clouds 7 1004 67 10000 11.03 43 09:24 04.09.2022
349 Clouds 7 1003 72 10000 10.65 43 06:27 04.09.2022
350 Clouds 6 1004 74 10000 11.63 52 02:41 04.09.2022
351 Clouds 7 1005 78 10000 12.2 66 22:33 03.09.2022
352 Clouds 7 1006 81 10000 12.72 72 21:25 03.09.2022
353 Clouds 7 1006 81 10000 12.72 72 20:55 03.09.2022
354 Clouds 7 1008 78 10000 12.93 74 17:37 03.09.2022
355 Clouds 8 1008 74 10000 12.63 77 16:52 03.09.2022
356 Clouds 8 1009 74 10000 12.94 85 14:52 03.09.2022
357 Clouds 8 1009 74 10000 12.94 85 14:30 03.09.2022
358 Clouds 8 1010 73 10000 13.32 84 13:44 03.09.2022
359 Clouds 8 1010 73 10000 13.48 87 11:31 03.09.2022
360 Clouds 8 1012 77 10000 13.37 91 08:57 03.09.2022
361 Clouds 8 1013 78 10000 13.08 92 07:45 03.09.2022
362 Clouds 7 1014 81 10000 12.34 91 04:48 03.09.2022
363 Clouds 7 1015 85 10000 12.36 89 02:35 03.09.2022
364 Clouds 7 1017 88 10000 11.15 93 23:35 02.09.2022
365 Clouds 8 1018 88 10000 11.21 91 21:46 02.09.2022
366 Clouds 8 1019 87 10000 11.32 90 20:40 02.09.2022
367 Clouds 8 1020 87 10000 10.78 91 19:47 02.09.2022
368 Clouds 8 1020 87 10000 10.38 91 18:50 02.09.2022
369 Clouds 8 1021 88 10000 10.11 90 18:24 02.09.2022
370 Clouds 8 1021 88 10000 10.06 89 16:56 02.09.2022
371 Clouds 8 1021 87 10000 9.88 89 16:22 02.09.2022
372 Clouds 9 1022 80 10000 10.44 88 12:58 02.09.2022
373 Clouds 9 1022 79 10000 9.94 87 10:37 02.09.2022
374 Clouds 9 1022 79 10000 9.34 85 09:41 02.09.2022
375 Clouds 9 1022 77 10000 7.98 91 08:43 02.09.2022
376 Clouds 8 1022 78 10000 6.59 96 06:43 02.09.2022
377 Clouds 8 1022 79 10000 5.87 98 05:32 02.09.2022
378 Clouds 5 1022 78 10000 2.47 117 22:58 01.09.2022
379 Clouds 5 1021 80 10000 2.46 118 21:46 01.09.2022
380 Clouds 6 1021 81 10000 2.2 117 21:26 01.09.2022
381 Clouds 6 1021 81 10000 2.2 117 20:49 01.09.2022
382 Clouds 7 1020 78 10000 2.67 118 19:24 01.09.2022
383 Clouds 7 1020 78 10000 2.92 116 17:49 01.09.2022
384 Clouds 7 1020 79 10000 2.93 109 16:41 01.09.2022
385 Clouds 7 1019 77 10000 2.88 82 14:41 01.09.2022
386 Clouds 8 1018 71 10000 1.24 327 13:20 01.09.2022
387 Clouds 8 1018 69 10000 1.64 313 11:57 01.09.2022
388 Clouds 8 1018 69 10000 1.64 313 11:38 01.09.2022
389 Clouds 8 1017 68 10000 1.72 300 11:18 01.09.2022
390 Clouds 8 1016 71 10000 2.61 277 08:53 01.09.2022
391 Clouds 7 1016 83 10000 4.65 274 06:28 01.09.2022
392 Clouds 5 1015 81 10000 2.98 338 01:45 01.09.2022
393 Clouds 6 1015 81 10000 3.04 344 00:33 01.09.2022
394 Rain 6 1014 80 10000 2.3 350 22:21 31.08.2022
395 Rain 6 1013 85 10000 3.85 345 20:22 31.08.2022
396 Clouds 6 1013 80 10000 4.19 334 18:19 31.08.2022
397 Clouds 6 1013 79 10000 4.16 347 16:32 31.08.2022
398 Clouds 7 1013 79 10000 3.65 0 14:58 31.08.2022
399 Clouds 6 1012 81 10000 3.19 0 12:25 31.08.2022
400 Clouds 6 1012 81 10000 3.19 0 11:37 31.08.2022
401 Rain 7 1011 76 10000 2.84 305 09:25 31.08.2022
402 Clouds 7 1011 76 10000 2.63 307 06:35 31.08.2022
403 Rain 7 1011 85 10000 5.97 322 01:25 31.08.2022
404 Clouds 6 1011 86 10000 4.82 314 21:49 30.08.2022
405 Rain 6 1011 84 10000 4.82 327 20:59 30.08.2022
406 Rain 6 1010 83 10000 5.69 342 18:53 30.08.2022
407 Rain 7 1010 83 10000 7.17 341 15:43 30.08.2022
408 Clouds 7 1008 85 10000 6.39 353 13:25 30.08.2022
409 Clouds 7 1007 82 10000 6.96 314 11:22 30.08.2022
410 Clouds 7 1007 82 10000 6.96 314 10:57 30.08.2022
411 Clouds 7 1007 82 10000 6.96 314 10:57 30.08.2022
412 Rain 7 1005 84 10000 6.56 329 08:46 30.08.2022
413 Rain 6 1003 87 10000 6.58 18 03:33 30.08.2022
414 Rain 7 1002 93 10000 6.45 33 23:45 29.08.2022
415 Rain 7 1001 96 10000 4.53 31 22:33 29.08.2022
416 Rain 8 1001 98 1528 2.85 342 21:27 29.08.2022
417 Clouds 8 1002 97 10000 3.66 321 20:26 29.08.2022
418 Rain 9 1003 98 10000 1.81 331 17:58 29.08.2022
419 Rain 9 1003 97 4841 0.88 236 17:25 29.08.2022
420 Rain 7 1004 94 10000 3.37 40 16:43 29.08.2022
421 Clouds 9 1005 85 10000 3.89 74 15:18 29.08.2022
422 Clouds 10 1006 79 10000 3.78 73 13:26 29.08.2022
423 Clouds 10 1006 76 10000 2.56 73 11:33 29.08.2022
424 Clouds 10 1006 78 10000 2.66 107 10:39 29.08.2022
425 Clouds 8 1006 77 10000 3.13 134 08:38 29.08.2022
426 Clouds 6 1007 73 10000 3.88 140 05:58 29.08.2022
427 Clouds 6 1010 67 10000 3.44 140 01:25 29.08.2022
428 Clouds 5 1011 72 10000 3.84 135 22:55 28.08.2022
429 Clouds 5 1011 74 10000 4.2 133 21:45 28.08.2022
430 Clouds 5 1011 73 10000 3.72 130 20:58 28.08.2022
431 Clouds 5 1011 73 10000 3.85 121 19:44 28.08.2022
432 Clouds 6 1011 69 10000 3.85 92 18:22 28.08.2022
433 Clouds 6 1011 69 10000 3.85 92 17:40 28.08.2022
434 Clouds 6 1011 66 10000 4.5 82 16:32 28.08.2022
435 Clouds 6 1012 67 10000 4.24 75 14:44 28.08.2022
436 Clouds 7 1012 64 10000 3.6 56 12:49 28.08.2022
437 Clouds 7 1011 64 10000 2.2 22 10:51 28.08.2022
438 Clouds 7 1011 65 10000 2.24 23 09:57 28.08.2022
439 Clouds 7 1010 66 10000 2.14 43 08:39 28.08.2022
440 Clouds 7 1010 64 10000 2.33 42 07:48 28.08.2022
441 Clouds 7 1011 68 10000 2.17 24 03:32 28.08.2022
442 Clouds 6 1011 73 10000 3.45 334 00:31 28.08.2022
443 Clouds 5 1011 77 10000 3.27 293 22:38 27.08.2022
444 Clouds 5 1011 78 10000 3.22 277 21:58 27.08.2022
445 Clouds 5 1012 75 10000 4.34 282 20:19 27.08.2022
446 Clouds 6 1012 73 10000 4.41 282 18:41 27.08.2022
447 Clouds 6 1012 72 10000 6.01 297 15:53 27.08.2022
448 Clouds 7 1013 73 10000 6.87 294 15:25 27.08.2022
449 Clouds 8 1013 67 10000 5.98 309 12:31 27.08.2022
450 Clouds 8 1013 69 10000 6.11 308 11:47 27.08.2022
451 Clouds 8 1012 74 10000 6.61 307 09:51 27.08.2022
452 Clouds 8 1011 77 10000 7.5 310 08:45 27.08.2022
453 Clouds 9 1008 97 10000 7.4 315 03:58 27.08.2022
454 Rain 8 1009 95 8618 6.66 241 00:20 27.08.2022
455 Rain 8 1011 94 9229 6.28 244 23:23 26.08.2022
456 Rain 8 1012 90 10000 6.96 254 21:39 26.08.2022
457 Rain 8 1014 87 10000 8.65 263 19:24 26.08.2022
458 Clouds 8 1015 76 10000 7.85 267 17:29 26.08.2022
459 Clouds 9 1015 71 10000 7.58 280 15:35 26.08.2022
460 Clouds 9 1016 70 10000 6.24 294 14:42 26.08.2022
461 Clouds 8 1016 73 10000 7.64 309 12:53 26.08.2022
462 Clouds 8 1016 75 10000 7.6 308 11:35 26.08.2022
463 Clouds 9 1015 77 10000 8.11 308 10:46 26.08.2022
464 Clouds 8 1015 80 10000 4.96 288 07:31 26.08.2022
465 Clouds 7 1012 87 10000 2.61 6 02:31 26.08.2022
466 Rain 7 1010 93 10000 3.26 297 23:44 25.08.2022
467 Rain 7 1011 92 10000 5.09 291 21:40 25.08.2022
468 Rain 7 1012 93 7900 5.69 266 20:51 25.08.2022
469 Rain 7 1013 93 10000 3.37 255 19:20 25.08.2022
470 Rain 7 1014 91 10000 4.15 262 18:18 25.08.2022
471 Rain 7 1014 91 10000 4.15 262 17:31 25.08.2022
472 Rain 8 1016 83 10000 5.38 276 15:54 25.08.2022
473 Clouds 8 1017 75 10000 5.24 281 15:27 25.08.2022
474 Clouds 8 1018 68 10000 5.83 292 12:40 25.08.2022
475 Clouds 8 1018 65 10000 7.2 308 10:48 25.08.2022
476 Clouds 8 1019 65 10000 7.97 296 09:20 25.08.2022
477 Clouds 7 1019 70 10000 7.66 283 05:39 25.08.2022
478 Clouds 7 1018 80 10000 3.26 334 01:42 25.08.2022
479 Clouds 8 1015 84 10000 6.85 331 23:26 24.08.2022
480 Clouds 8 1014 86 10000 7.12 330 22:23 24.08.2022
481 Clouds 8 1014 86 10000 7.12 330 21:36 24.08.2022
482 Clouds 8 1013 88 10000 8.53 318 20:52 24.08.2022
483 Clouds 10 1010 85 10000 11.25 304 18:58 24.08.2022
484 Clouds 10 1007 85 10000 12.18 286 16:47 24.08.2022
485 Rain 10 1006 88 10000 13.03 280 15:52 24.08.2022
486 Rain 10 1007 86 10000 12.53 262 13:40 24.08.2022
487 Rain 11 1007 80 10000 12.7 265 11:38 24.08.2022
488 Clouds 12 1007 73 10000 12.26 258 09:39 24.08.2022
489 Clouds 14 1008 64 10000 9.67 237 07:59 24.08.2022
490 Clouds 9 1012 88 10000 7.01 230 02:36 24.08.2022
491 Clouds 9 1013 92 10000 6.82 234 23:32 23.08.2022
492 Clouds 9 1014 92 10000 6.55 242 22:32 23.08.2022
493 Clouds 10 1014 91 10000 7.11 248 21:34 23.08.2022
494 Clouds 10 1014 92 10000 7.86 248 20:21 23.08.2022
495 Clouds 11 1013 94 10000 8.41 250 18:46 23.08.2022
496 Clouds 11 1013 93 10000 9.16 251 17:49 23.08.2022
497 Clouds 12 1013 89 10000 9.69 250 16:54 23.08.2022
498 Clouds 14 1012 83 10000 9.73 245 15:39 23.08.2022
499 Clouds 17 1014 64 10000 9.88 250 13:29 23.08.2022
500 Clouds 18 1013 60 10000 10.2 246 11:32 23.08.2022
501 Clouds 18 1014 60 10000 10.53 241 10:36 23.08.2022
502 Clouds 18 1014 60 10000 10.25 234 09:54 23.08.2022
503 Clouds 18 1014 60 10000 10.17 232 08:51 23.08.2022
504 Clouds 17 1014 62 10000 10.16 227 08:20 23.08.2022
505 Clouds 17 1014 62 10000 10.16 227 07:38 23.08.2022
506 Clouds 17 1015 67 10000 9.18 226 06:28 23.08.2022
507 Clouds 15 1016 73 10000 8.84 226 04:38 23.08.2022
508 Clouds 13 1018 82 10000 7.48 227 00:28 23.08.2022
509 Clouds 13 1018 82 10000 7.48 227 23:37 22.08.2022
510 Clouds 13 1018 81 10000 6.5 223 22:44 22.08.2022
511 Clouds 13 1019 77 10000 7.21 222 21:29 22.08.2022
512 Clear 13 1019 76 10000 7.16 229 19:48 22.08.2022
513 Clear 13 1019 76 10000 7.11 237 18:50 22.08.2022
514 Clear 14 1020 71 10000 7.59 242 17:22 22.08.2022
515 Clear 15 1020 67 10000 7.93 247 15:39 22.08.2022
516 Clear 16 1020 66 10000 8.73 253 13:57 22.08.2022
517 Clear 17 1020 64 10000 8.79 253 10:43 22.08.2022
518 Clouds 16 1019 70 10000 8.45 253 07:59 22.08.2022
519 Clouds 12 1019 91 10000 7.83 240 04:25 22.08.2022
520 Clouds 12 1019 98 132 8.6 235 00:43 22.08.2022
521 Clouds 12 1019 98 167 7.98 234 00:24 22.08.2022
522 Clouds 12 1019 98 1855 6.1 234 22:22 21.08.2022
523 Clouds 12 1020 98 1872 5.51 235 21:28 21.08.2022
524 Clouds 12 1020 98 1872 5.51 235 20:56 21.08.2022
525 Clouds 12 1020 97 10000 4.62 237 19:26 21.08.2022
526 Clouds 12 1020 96 10000 3.67 239 17:35 21.08.2022
527 Clouds 14 1020 88 10000 4.55 263 15:53 21.08.2022
528 Clouds 14 1020 86 10000 4.68 271 15:21 21.08.2022
529 Clouds 15 1020 86 10000 4.81 250 13:52 21.08.2022
530 Clouds 15 1021 85 10000 4.64 250 13:28 21.08.2022
531 Clouds 15 1021 85 10000 4.62 246 11:39 21.08.2022
532 Clouds 14 1021 88 10000 3.47 240 09:31 21.08.2022
533 Clouds 14 1021 91 10000 3.92 260 08:56 21.08.2022
534 Clouds 14 1021 91 10000 3.92 260 08:38 21.08.2022
535 Clouds 12 1020 96 9635 3.48 271 07:26 21.08.2022
536 Clouds 12 1020 99 562 4.19 265 03:40 21.08.2022
537 Clouds 11 1019 99 314 4.52 271 00:22 21.08.2022
538 Clouds 11 1018 99 986 5.13 268 22:37 20.08.2022
539 Clouds 11 1018 99 256 5.26 265 21:34 20.08.2022
540 Clouds 11 1017 98 1920 6.78 253 20:28 20.08.2022
541 Clouds 11 1018 98 1730 6.75 263 19:40 20.08.2022
542 Clouds 12 1018 94 10000 9.01 228 18:29 20.08.2022
543 Clouds 12 1018 94 10000 9.01 228 17:40 20.08.2022
544 Clouds 12 1018 92 10000 9.88 225 16:49 20.08.2022
545 Rain 9 1020 93 10000 8.89 196 15:26 20.08.2022
546 Clouds 12 1023 56 10000 6.96 217 12:52 20.08.2022
547 Clouds 12 1024 55 10000 5.99 213 11:47 20.08.2022
548 Clouds 13 1025 58 10000 5.15 233 09:33 20.08.2022
549 Clouds 12 1026 59 10000 3.9 223 08:29 20.08.2022
550 Clouds 10 1026 62 10000 3.83 226 05:51 20.08.2022
551 Clouds 6 1027 80 10000 2.32 239 00:58 20.08.2022
552 Clouds 6 1027 80 10000 2.32 239 00:58 20.08.2022
553 Clouds 6 1027 80 10000 2.32 239 00:30 20.08.2022
554 Clouds 6 1027 81 10000 2.51 245 22:53 19.08.2022
555 Clouds 7 1027 81 10000 2.33 248 21:38 19.08.2022
556 Clouds 7 1027 83 10000 1.63 273 19:43 19.08.2022
557 Clouds 9 1026 80 10000 3.4 323 16:47 19.08.2022
558 Clouds 10 1026 76 10000 5.76 323 14:54 19.08.2022
559 Clouds 10 1025 79 10000 5.06 319 12:49 19.08.2022
560 Clouds 10 1023 82 10000 6.71 323 10:44 19.08.2022
561 Clouds 10 1023 82 10000 7.54 323 09:59 19.08.2022
562 Clouds 10 1018 86 10000 9.29 301 05:30 19.08.2022
563 Clear 13 1016 92 10000 7.99 240 00:46 19.08.2022
564 Clear 13 1017 89 10000 8.41 240 00:22 19.08.2022
565 Clear 14 1017 87 10000 8.9 236 22:59 18.08.2022
566 Clear 14 1017 87 10000 8.9 236 22:30 18.08.2022
567 Clear 14 1017 89 10000 8.22 224 21:53 18.08.2022
568 Clear 14 1018 88 10000 8.02 223 21:23 18.08.2022
569 Clouds 14 1018 87 10000 7.66 222 19:54 18.08.2022
570 Clouds 14 1018 86 10000 7.46 226 19:24 18.08.2022
571 Clouds 15 1019 82 10000 7.24 230 17:46 18.08.2022
572 Clouds 16 1019 75 10000 7.37 235 16:25 18.08.2022
573 Clouds 17 1020 65 10000 8.93 238 14:22 18.08.2022
574 Clouds 17 1020 65 10000 8.93 238 13:45 18.08.2022
575 Clouds 17 1021 62 10000 9.02 235 12:30 18.08.2022
576 Clouds 16 1021 57 10000 10.09 230 11:21 18.08.2022
577 Clouds 15 1021 56 10000 10.2 227 09:43 18.08.2022
578 Clouds 14 1022 56 10000 9.14 219 07:57 18.08.2022
579 Clouds 13 1023 58 10000 8.75 217 06:43 18.08.2022
580 Clouds 9 1024 63 10000 7.02 208 02:32 18.08.2022
581 Clouds 9 1025 62 10000 3.96 193 22:50 17.08.2022
582 Clouds 9 1026 68 10000 3.18 189 21:26 17.08.2022
583 Clouds 9 1026 68 10000 2.26 198 19:59 17.08.2022
584 Clouds 8 1026 70 10000 1.99 198 18:39 17.08.2022
585 Clouds 8 1026 70 10000 0.74 134 17:27 17.08.2022
586 Clouds 9 1026 66 10000 0.4 38 16:20 17.08.2022
587 Clouds 9 1026 64 10000 0.77 352 14:46 17.08.2022
588 Clouds 9 1027 64 10000 2.09 30 12:36 17.08.2022
589 Clouds 9 1027 65 10000 2.16 15 11:36 17.08.2022
590 Clouds 9 1027 68 10000 3.77 356 09:29 17.08.2022
591 Clouds 8 1026 69 10000 4.34 360 06:50 17.08.2022
592 Clouds 7 1025 79 10000 4.88 348 01:45 17.08.2022
593 Clouds 6 1024 84 10000 5.08 349 23:33 16.08.2022
594 Clouds 6 1024 83 10000 5.36 341 21:48 16.08.2022
595 Clouds 6 1023 85 10000 5.36 339 20:25 16.08.2022
596 Clouds 6 1023 85 10000 5.36 339 19:40 16.08.2022
597 Clouds 7 1022 84 10000 5.94 333 17:56 16.08.2022
598 Clouds 7 1022 84 10000 5.94 333 17:56 16.08.2022
599 Clouds 7 1022 81 10000 6.72 333 17:23 16.08.2022
600 Rain 7 1022 80 10000 6.73 332 15:45 16.08.2022
601 Clouds 8 1021 78 10000 6.73 331 14:54 16.08.2022
602 Clouds 8 1022 75 10000 6.75 332 14:36 16.08.2022
603 Clouds 8 1021 74 10000 6.79 333 12:40 16.08.2022
604 Rain 9 1019 78 10000 5.31 13 10:23 16.08.2022
605 Clouds 9 1019 78 10000 6.06 343 09:29 16.08.2022
606 Clouds 9 1018 81 10000 6.78 326 08:26 16.08.2022
607 Clouds 8 1018 86 10000 6.5 332 07:20 16.08.2022
608 Clouds 6 1015 91 10000 3.82 259 01:20 16.08.2022
609 Clouds 6 1015 90 10000 2.22 283 22:26 15.08.2022
610 Clouds 6 1015 90 10000 2.22 283 21:51 15.08.2022
611 Clouds 6 1014 89 10000 2.34 295 20:39 15.08.2022
612 Clouds 7 1014 88 10000 2.8 313 19:59 15.08.2022
613 Clouds 7 1013 91 10000 4.23 335 18:20 15.08.2022
614 Rain 8 1012 95 10000 5.14 337 16:26 15.08.2022
615 Rain 8 1012 95 10000 5.14 337 15:55 15.08.2022
616 Rain 8 1011 96 10000 7.6 325 13:54 15.08.2022
617 Rain 9 1009 95 10000 7.19 328 12:24 15.08.2022
618 Rain 9 1009 96 9963 4.18 248 09:54 15.08.2022
619 Rain 9 1009 96 10000 6.42 224 07:50 15.08.2022
620 Rain 8 1010 95 6983 7.44 205 04:35 15.08.2022
621 Clouds 8 1012 93 10000 4.17 247 01:26 15.08.2022
622 Clouds 8 1012 88 10000 5.52 273 22:39 14.08.2022
623 Clouds 8 1012 86 10000 6.34 279 21:38 14.08.2022
624 Clouds 8 1012 77 10000 5.14 272 19:54 14.08.2022
625 Clouds 8 1012 77 10000 4.48 279 18:58 14.08.2022
626 Clouds 8 1012 75 10000 4.64 289 18:18 14.08.2022
627 Clouds 8 1012 74 10000 5.05 293 16:52 14.08.2022
628 Clouds 9 1012 72 10000 6.24 295 15:48 14.08.2022
629 Clouds 9 1012 72 10000 6.24 295 15:48 14.08.2022
630 Clouds 8 1011 70 10000 8.3 305 14:27 14.08.2022
631 Clouds 8 1011 70 10000 8.3 305 13:50 14.08.2022
632 Clouds 8 1011 68 10000 8.92 306 13:19 14.08.2022
633 Clouds 8 1011 67 10000 8.85 307 12:23 14.08.2022
634 Clouds 8 1010 68 10000 9.59 306 10:49 14.08.2022
635 Clouds 7 1009 72 10000 9 303 08:50 14.08.2022
636 Clouds 7 1008 77 10000 8.6 299 06:21 14.08.2022
637 Clouds 6 1007 84 10000 9.05 301 02:48 14.08.2022
638 Clouds 6 1005 85 10000 8.9 298 23:53 13.08.2022
639 Clouds 7 1004 83 10000 8.87 302 22:52 13.08.2022
640 Clouds 7 1002 83 10000 9.68 307 20:58 13.08.2022
641 Clouds 7 1002 83 10000 9.68 307 20:33 13.08.2022
642 Clouds 8 1002 82 10000 10.02 303 19:37 13.08.2022
643 Rain 8 1001 85 10000 8.75 295 17:42 13.08.2022
644 Rain 8 999 90 10000 7.8 268 15:26 13.08.2022
645 Rain 8 998 91 10000 7.9 257 14:27 13.08.2022
646 Rain 8 999 90 10000 8.45 262 13:39 13.08.2022
647 Clouds 9 998 88 10000 8 250 11:52 13.08.2022
648 Clouds 9 997 84 10000 7.97 249 10:21 13.08.2022
649 Rain 9 997 89 10000 8.36 237 08:23 13.08.2022
650 Rain 9 997 89 10000 8.36 237 08:23 13.08.2022
651 Clouds 9 997 91 10000 7.63 233 05:22 13.08.2022
652 Clouds 8 998 95 10000 6.25 232 23:52 12.08.2022
653 Clouds 8 998 94 10000 6.64 224 21:42 12.08.2022
654 Clouds 8 998 93 10000 7.24 226 20:51 12.08.2022
655 Clouds 9 999 85 10000 7.16 219 19:39 12.08.2022
656 Clouds 9 999 92 10000 6.43 216 18:46 12.08.2022
657 Clouds 10 999 82 10000 5.43 239 17:21 12.08.2022
658 Clouds 11 999 79 10000 6.61 255 15:49 12.08.2022
659 Clouds 11 999 76 10000 7.04 262 14:29 12.08.2022
660 Clouds 11 999 75 10000 6.79 265 12:53 12.08.2022
661 Clouds 11 999 80 10000 6.18 266 10:35 12.08.2022
662 Clouds 11 998 86 10000 5.66 276 07:47 12.08.2022
663 Clouds 11 998 93 10000 5.27 266 06:38 12.08.2022
664 Rain 11 998 93 6411 10.99 202 02:39 12.08.2022
665 Clouds 12 1001 79 10000 11.35 201 00:26 12.08.2022
666 Clouds 12 1001 79 10000 11.35 201 23:35 11.08.2022
667 Clouds 13 1002 70 10000 10.54 188 22:26 11.08.2022
668 Clouds 13 1002 70 10000 10.54 188 21:40 11.08.2022
669 Clouds 14 1003 58 10000 10.34 187 20:45 11.08.2022
670 Clouds 15 1004 54 10000 9.68 190 20:18 11.08.2022
671 Clouds 15 1004 53 10000 9.81 188 19:32 11.08.2022
672 Clouds 15 1006 56 10000 8.08 190 17:48 11.08.2022
673 Clouds 15 1007 57 10000 7.74 193 16:34 11.08.2022
674 Clouds 15 1009 59 10000 7.65 213 15:21 11.08.2022
675 Clouds 15 1010 57 10000 8.45 217 12:44 11.08.2022
676 Clouds 15 1012 56 10000 8.93 214 10:18 11.08.2022
677 Clouds 13 1014 62 10000 8.05 212 07:19 11.08.2022
678 Clouds 11 1015 73 10000 6.52 202 03:52 11.08.2022
679 Clouds 9 1017 79 10000 5.47 201 00:37 11.08.2022
680 Clouds 9 1018 78 10000 5.43 212 22:32 10.08.2022
681 Clouds 9 1018 80 10000 5.91 221 21:25 10.08.2022
682 Clouds 9 1018 80 10000 5.91 221 20:54 10.08.2022
683 Clouds 10 1019 76 10000 6.53 222 19:24 10.08.2022
684 Clouds 11 1019 71 10000 6.79 227 17:55 10.08.2022
685 Clouds 11 1019 68 10000 6.95 235 16:35 10.08.2022
686 Clouds 11 1020 70 10000 7.35 230 13:35 10.08.2022
687 Clouds 12 1020 67 10000 7.66 243 12:35 10.08.2022
688 Clouds 12 1020 69 10000 7.25 265 09:24 10.08.2022
689 Clouds 12 1020 69 10000 7.25 265 08:32 10.08.2022
690 Clouds 9 1021 90 10000 6.32 258 06:23 10.08.2022
691 Rain 9 1020 91 10000 5.4 252 03:25 10.08.2022
692 Clouds 9 1020 90 10000 7.19 264 23:34 09.08.2022
693 Clouds 8 1019 95 10000 6.4 248 22:56 09.08.2022
694 Clouds 7 1019 94 10000 6.48 253 21:35 09.08.2022
695 Clouds 7 1019 89 10000 7.5 261 20:26 09.08.2022
696 Clouds 8 1019 85 10000 8.06 263 18:42 09.08.2022
697 Clouds 10 1018 76 10000 8.61 272 17:28 09.08.2022
698 Clouds 10 1018 76 10000 8.61 272 17:28 09.08.2022
699 Clouds 10 1018 76 10000 8.61 272 16:40 09.08.2022
700 Clouds 10 1017 72 10000 9.06 276 15:58 09.08.2022
701 Clouds 11 1016 67 10000 10.01 271 12:51 09.08.2022
702 Rain 11 1015 71 10000 10.23 269 09:36 09.08.2022
703 Clouds 11 1014 75 10000 10.88 265 08:39 09.08.2022
704 Clouds 11 1014 75 10000 10.92 266 07:52 09.08.2022
705 Clouds 10 1013 82 10000 9.79 251 03:34 09.08.2022
706 Clear 9 1013 83 10000 7.75 221 23:27 08.08.2022
707 Clear 9 1013 83 10000 7.75 221 22:54 08.08.2022
708 Clear 9 1013 85 10000 6.93 220 21:49 08.08.2022
709 Clear 8 1013 88 10000 6.56 222 20:55 08.08.2022
710 Clouds 9 1013 90 10000 6.55 225 19:50 08.08.2022
711 Clouds 9 1014 86 10000 6.85 236 18:38 08.08.2022
712 Clouds 11 1013 78 10000 7.63 254 16:37 08.08.2022
713 Clouds 11 1013 77 10000 8.96 264 15:39 08.08.2022
714 Clouds 13 1012 73 10000 10.07 256 12:51 08.08.2022
715 Clouds 13 1011 72 10000 10.13 255 11:58 08.08.2022
716 Clouds 14 1010 61 10000 10.82 254 09:43 08.08.2022
717 Clouds 14 1009 65 10000 9.85 248 05:43 08.08.2022
718 Clouds 13 1008 98 2217 7.85 247 02:27 08.08.2022
719 Clear 17 1006 69 10000 7.54 205 22:25 07.08.2022
720 Clear 17 1006 69 10000 7.54 205 21:38 07.08.2022
721 Clear 17 1007 76 10000 5.82 209 20:25 07.08.2022
722 Clear 17 1007 76 10000 5.82 209 19:54 07.08.2022
723 Clear 17 1007 76 10000 5.82 209 19:33 07.08.2022
724 Clear 18 1008 71 10000 6.11 216 18:22 07.08.2022
725 Clear 19 1008 66 10000 6.28 229 16:54 07.08.2022
726 Clear 20 1008 63 10000 6.46 237 16:28 07.08.2022
727 Clear 20 1008 63 10000 6.59 241 15:19 07.08.2022
728 Clear 21 1009 62 10000 7.41 249 13:22 07.08.2022
729 Clear 21 1010 63 10000 7.92 244 10:59 07.08.2022
730 Clear 21 1010 63 10000 7.92 244 10:33 07.08.2022
731 Clouds 19 1010 71 10000 7.48 232 06:52 07.08.2022
732 Clouds 14 1011 88 10000 7.16 224 03:19 07.08.2022
733 Clouds 14 1011 85 10000 8.05 224 23:44 06.08.2022
734 Clouds 15 1012 80 10000 9.49 215 22:20 06.08.2022
735 Rain 14 1013 86 10000 7.18 204 20:26 06.08.2022
736 Rain 14 1013 86 10000 7.18 204 19:41 06.08.2022
737 Rain 14 1013 86 10000 7.18 204 19:41 06.08.2022
738 Clouds 13 1014 88 10000 6.04 210 18:25 06.08.2022
739 Rain 13 1015 86 10000 5.68 219 17:28 06.08.2022
740 Clouds 14 1015 73 10000 6.07 236 14:31 06.08.2022
741 Clouds 14 1015 72 10000 6.23 244 13:40 06.08.2022
742 Clouds 14 1016 75 10000 6.74 266 11:24 06.08.2022
743 Clouds 14 1015 76 10000 6.39 268 09:51 06.08.2022
744 Clouds 13 1015 80 10000 5.61 272 08:28 06.08.2022
745 Clouds 10 1013 95 10000 6.08 270 03:35 06.08.2022
746 Clouds 9 1012 98 259 6.62 261 23:34 05.08.2022
747 Clouds 9 1011 99 694 7.19 253 22:22 05.08.2022
748 Clouds 10 1011 95 10000 6.41 246 19:32 05.08.2022
749 Clouds 10 1011 95 10000 6.09 249 18:44 05.08.2022
750 Clouds 11 1010 94 10000 6.59 257 17:27 05.08.2022
751 Clouds 11 1010 94 10000 6.59 257 16:48 05.08.2022
752 Clouds 12 1009 91 10000 8.14 256 15:21 05.08.2022
753 Clouds 11 1009 95 10000 7.96 248 13:59 05.08.2022
754 Clouds 12 1008 92 10000 7.98 248 13:23 05.08.2022
755 Clouds 12 1008 92 10000 7.86 243 12:24 05.08.2022
756 Rain 12 1008 95 10000 7.67 236 10:44 05.08.2022
757 Clouds 13 1009 87 10000 9.75 218 07:58 05.08.2022
758 Clouds 13 1009 84 10000 10.02 218 06:41 05.08.2022
759 Clouds 10 1013 89 10000 7.73 228 00:30 05.08.2022
760 Clouds 9 1013 95 10000 5.68 235 22:29 04.08.2022
761 Clouds 9 1013 94 10000 6.15 244 21:26 04.08.2022
762 Clouds 9 1013 94 10000 6.15 244 20:43 04.08.2022
763 Clouds 10 1014 93 10000 6.79 247 19:40 04.08.2022
764 Clouds 10 1014 89 10000 7.91 247 18:36 04.08.2022
765 Clouds 11 1013 83 10000 7.48 254 17:38 04.08.2022
766 Clouds 11 1012 91 10000 9.18 251 14:18 04.08.2022
767 Clouds 11 1012 92 10000 9.78 251 12:44 04.08.2022
768 Clouds 12 1012 87 10000 9.19 248 10:51 04.08.2022
769 Clouds 14 1011 70 10000 10.48 237 07:53 04.08.2022
770 Clouds 14 1011 70 10000 7.91 219 05:46 04.08.2022
771 Clouds 13 1011 87 10000 7.62 230 02:29 04.08.2022
772 Clouds 14 1010 84 10000 7.11 217 23:45 03.08.2022
773 Clouds 15 1010 78 10000 7.32 204 22:30 03.08.2022
774 Rain 17 1011 71 10000 6.42 192 20:50 03.08.2022
775 Clouds 16 1012 66 10000 4.32 166 19:44 03.08.2022
776 Clouds 17 1013 66 10000 4.17 205 18:36 03.08.2022
777 Clouds 17 1014 65 10000 3.15 194 16:25 03.08.2022
778 Clouds 17 1014 65 10000 2.41 196 14:51 03.08.2022
779 Clouds 17 1016 63 10000 2.07 240 12:41 03.08.2022
780 Clouds 18 1016 58 10000 4.64 221 08:54 03.08.2022
781 Clouds 16 1017 71 10000 5.19 214 04:47 03.08.2022
782 Clouds 15 1017 78 10000 4.29 196 03:37 03.08.2022
783 Clouds 13 1017 80 10000 2.89 193 01:36 03.08.2022
784 Clouds 12 1018 88 10000 3.66 212 23:27 02.08.2022
785 Clouds 12 1018 90 10000 3.83 219 21:55 02.08.2022
786 Clouds 12 1018 90 10000 3.83 219 21:33 02.08.2022
787 Clouds 14 1018 90 10000 4.2 237 19:19 02.08.2022
788 Clouds 15 1017 82 10000 5.53 256 16:42 02.08.2022
789 Clouds 19 1017 54 10000 5.99 221 13:21 02.08.2022
790 Clouds 19 1017 54 10000 4.68 204 09:53 02.08.2022
791 Clouds 18 1018 57 10000 5.62 199 08:26 02.08.2022
792 Clouds 18 1018 57 10000 5.62 199 07:50 02.08.2022
793 Clouds 15 1018 64 10000 6.24 190 04:55 02.08.2022
794 Clear 12 1020 77 10000 4.62 186 01:26 02.08.2022
795 Clear 12 1020 79 10000 4.48 170 23:21 01.08.2022
796 Clear 12 1020 83 10000 4.45 154 21:19 01.08.2022
797 Clear 12 1020 81 10000 4.57 140 19:44 01.08.2022
798 Clear 13 1020 79 10000 5.32 131 18:53 01.08.2022
799 Clear 14 1020 74 10000 5.57 110 16:55 01.08.2022
800 Clear 14 1020 74 10000 5.57 110 16:55 01.08.2022
801 Clear 14 1020 74 10000 5.57 110 16:55 01.08.2022
802 Clear 15 1020 71 10000 5.36 106 16:29 01.08.2022
803 Clear 15 1020 71 10000 5.36 106 15:33 01.08.2022
804 Clear 15 1021 68 10000 5.48 105 14:43 01.08.2022
805 Clouds 14 1021 68 5071 5.58 96 12:57 01.08.2022
806 Clouds 14 1022 68 6054 5.27 96 10:47 01.08.2022
807 Clouds 13 1022 69 10000 5.02 99 08:45 01.08.2022
808 Clouds 13 1023 72 10000 5.06 103 06:50 01.08.2022
809 Clouds 11 1023 75 10000 4.5 109 04:30 01.08.2022
810 Clouds 8 1024 81 10000 3.78 110 00:56 01.08.2022
811 Clouds 8 1024 78 10000 3.48 112 22:42 31.07.2022
812 Clouds 8 1024 77 10000 3.45 114 21:46 31.07.2022
813 Clouds 8 1025 76 10000 4.4 106 20:21 31.07.2022
814 Clouds 8 1025 73 10000 4.73 98 18:38 31.07.2022
815 Clouds 10 1025 63 10000 5.9 91 16:22 31.07.2022
816 Clouds 10 1025 64 10000 6.11 85 13:59 31.07.2022
817 Clouds 10 1025 63 10000 5.96 83 12:43 31.07.2022
818 Clouds 10 1026 61 10000 5.91 80 10:53 31.07.2022
819 Clouds 10 1026 63 10000 5.42 78 08:29 31.07.2022
820 Clouds 9 1026 67 10000 4.43 97 04:46 31.07.2022
821 Clouds 6 1027 78 10000 3.11 109 00:56 31.07.2022
822 Clouds 6 1027 79 10000 3.11 110 22:20 30.07.2022
823 Clouds 6 1027 79 10000 3.11 110 21:50 30.07.2022
824 Clouds 6 1027 79 10000 3.52 105 21:24 30.07.2022
825 Clouds 6 1027 78 10000 3.37 99 20:24 30.07.2022
826 Clouds 7 1027 74 10000 3.25 94 19:27 30.07.2022
827 Clouds 8 1027 73 10000 3.51 94 17:48 30.07.2022
828 Clouds 8 1027 70 10000 3.82 85 16:37 30.07.2022
829 Clouds 9 1027 68 10000 4.57 79 15:29 30.07.2022
830 Clouds 8 1027 72 10000 4.46 63 13:22 30.07.2022
831 Clouds 8 1027 72 10000 4.3 66 12:21 30.07.2022
832 Clouds 8 1027 73 10000 4.38 68 10:44 30.07.2022
833 Clouds 8 1026 76 10000 4.3 69 09:59 30.07.2022
834 Clouds 8 1026 77 10000 3.97 58 08:44 30.07.2022
835 Clouds 7 1026 77 10000 3.14 44 06:50 30.07.2022
836 Clouds 7 1024 82 10000 2.36 31 02:33 30.07.2022
837 Clouds 5 1022 94 10000 2.87 24 22:57 29.07.2022
838 Clouds 5 1021 95 10000 3.07 7 21:36 29.07.2022
839 Clouds 6 1021 94 10000 3.24 343 20:50 29.07.2022
840 Clouds 6 1019 98 4101 3.56 329 19:34 29.07.2022
841 Clouds 8 1017 93 930 3.99 328 16:44 29.07.2022
842 Clouds 15 1015 78 10000 5.33 267 14:23 29.07.2022
843 Clouds 17 1015 64 10000 6.19 276 12:32 29.07.2022
844 Clouds 15 1014 84 10000 6.1 240 08:51 29.07.2022
845 Clouds 15 1013 82 10000 6.2 245 08:22 29.07.2022
846 Clouds 13 1012 89 10000 5.07 228 04:39 29.07.2022
847 Rain 14 1012 81 10000 6.57 215 23:46 28.07.2022
848 Clouds 15 1011 75 10000 7 215 21:38 28.07.2022
849 Clouds 16 1011 70 10000 7.24 220 20:50 28.07.2022
850 Clouds 16 1012 67 10000 6.59 213 20:18 28.07.2022
851 Clouds 16 1012 67 10000 6.43 212 19:26 28.07.2022
852 Clouds 16 1012 67 10000 6.46 210 17:46 28.07.2022
853 Clouds 17 1012 66 10000 6.49 213 17:20 28.07.2022
854 Clouds 17 1012 66 10000 6.49 213 16:40 28.07.2022
855 Clouds 19 1012 60 10000 7.06 236 13:56 28.07.2022
856 Clouds 19 1012 62 10000 7.13 234 12:39 28.07.2022
857 Clouds 17 1011 64 10000 8.71 228 07:46 28.07.2022
858 Clouds 16 1010 65 10000 8.43 226 05:39 28.07.2022
859 Clouds 15 1010 67 10000 8.26 224 05:20 28.07.2022
860 Rain 13 1010 95 10000 6.4 217 23:19 27.07.2022
861 Rain 12 1010 96 10000 6.28 220 21:30 27.07.2022
862 Clouds 12 1010 72 10000 6.36 232 19:48 27.07.2022
863 Clouds 12 1010 71 10000 5.74 230 19:19 27.07.2022
864 Clouds 13 1010 69 10000 6.11 234 16:31 27.07.2022
865 Clouds 14 1010 64 10000 6.65 245 15:51 27.07.2022
866 Clouds 15 1010 58 10000 6.48 251 14:41 27.07.2022
867 Clouds 15 1010 59 10000 7.67 253 13:34 27.07.2022
868 Clear 12 1008 70 10000 8.74 260 09:28 27.07.2022
869 Clouds 11 1008 73 10000 8.8 263 07:40 27.07.2022
870 Clouds 8 1007 85 10000 9.04 267 03:57 27.07.2022
871 Clouds 6 1003 93 10000 10.04 264 23:21 26.07.2022
872 Clouds 7 1003 92 10000 10.32 266 21:49 26.07.2022
873 Clouds 7 1002 92 10000 10.48 264 20:49 26.07.2022
874 Clouds 8 1000 83 10000 7.83 269 19:20 26.07.2022
875 Clouds 8 1000 83 10000 7.83 269 18:39 26.07.2022
876 Clouds 9 1000 81 10000 9.75 284 17:47 26.07.2022
877 Clouds 9 998 85 10000 7.78 271 15:43 26.07.2022
878 Clouds 8 998 88 10000 5.34 284 14:38 26.07.2022
879 Clouds 8 995 91 10000 8.07 264 12:25 26.07.2022
880 Rain 7 994 96 10000 6.58 258 09:59 26.07.2022
881 Clouds 7 993 97 10000 7.4 284 08:23 26.07.2022
882 Rain 7 990 97 1629 9.45 257 01:52 26.07.2022
883 Rain 7 991 97 1142 10.17 258 00:19 26.07.2022
884 Rain 7 991 97 909 10 257 22:39 25.07.2022
885 Rain 7 991 97 1046 10.18 257 21:43 25.07.2022
886 Rain 7 991 97 1139 10.38 256 20:43 25.07.2022
887 Rain 7 992 97 984 9.56 254 19:55 25.07.2022
888 Rain 7 992 96 10000 7.57 271 19:20 25.07.2022
889 Clouds 6 992 96 10000 7.06 270 17:35 25.07.2022
890 Rain 6 992 96 10000 6.82 268 16:40 25.07.2022
891 Rain 6 993 92 10000 8.04 267 12:58 25.07.2022
892 Rain 7 994 89 10000 7.95 270 10:47 25.07.2022
893 Clouds 8 994 87 10000 9.47 272 07:32 25.07.2022
894 Clouds 8 997 92 10000 9.23 282 00:38 25.07.2022
895 Clouds 7 997 93 10000 9.2 282 23:45 24.07.2022
896 Clouds 7 997 95 10000 9.16 288 22:43 24.07.2022
897 Clouds 7 997 94 10000 7.82 276 21:33 24.07.2022
898 Clouds 7 998 91 10000 7.11 272 20:58 24.07.2022
899 Clouds 7 998 91 10000 7.11 272 20:35 24.07.2022
900 Clouds 6 999 92 10000 7.1 291 18:59 24.07.2022
901 Clouds 6 1000 91 10000 6.14 302 16:54 24.07.2022
902 Clouds 6 1000 91 10000 6.02 316 15:54 24.07.2022
903 Clouds 7 1000 85 10000 5.91 319 14:41 24.07.2022
904 Clouds 8 1000 83 10000 4.33 319 13:47 24.07.2022
905 Clouds 7 1001 88 10000 3.42 46 12:19 24.07.2022
906 Clouds 7 1001 90 10000 3.55 48 11:29 24.07.2022
907 Clouds 7 1000 92 10000 2.64 55 09:44 24.07.2022
908 Clouds 8 1000 94 10000 2.91 68 07:53 24.07.2022
909 Clouds 8 1000 93 10000 3.56 79 07:26 24.07.2022
910 Clouds 8 1001 94 10000 3.23 130 02:52 24.07.2022
911 Clouds 7 1001 93 10000 5.03 99 22:45 23.07.2022
912 Clouds 7 1002 93 10000 4.78 96 20:47 23.07.2022
913 Rain 7 1002 94 10000 5.32 108 19:25 23.07.2022
914 Rain 7 1003 94 10000 5.74 103 18:18 23.07.2022
915 Rain 7 1003 94 10000 4.64 104 17:27 23.07.2022
916 Rain 7 1003 93 10000 3.58 107 16:22 23.07.2022
917 Rain 8 1003 86 10000 1.99 164 15:21 23.07.2022
918 Rain 8 1003 86 10000 1.99 164 14:52 23.07.2022
919 Clouds 10 1003 69 10000 1.58 210 14:21 23.07.2022
920 Clouds 10 1004 67 10000 0.75 298 11:56 23.07.2022
921 Clouds 9 1004 68 10000 2.26 278 10:41 23.07.2022
922 Clouds 9 1004 69 10000 2.99 276 09:38 23.07.2022
923 Rain 7 1004 88 10000 2.63 258 07:18 23.07.2022
924 Clouds 6 1004 90 10000 3.23 286 03:37 23.07.2022
925 Clouds 6 1005 95 10000 3.18 287 00:37 23.07.2022
926 Clouds 5 1006 95 10000 3.82 301 21:36 22.07.2022
927 Clouds 5 1006 94 10000 4.11 300 20:31 22.07.2022
928 Clouds 6 1008 92 10000 4.4 318 18:42 22.07.2022
929 Clouds 6 1008 92 10000 4.86 319 17:40 22.07.2022
930 Clouds 6 1008 89 10000 5.53 322 15:48 22.07.2022
931 Clouds 6 1009 90 10000 7.4 330 13:24 22.07.2022
932 Clouds 6 1009 91 10000 6.8 334 10:23 22.07.2022
933 Clouds 5 1009 92 10000 7.42 342 09:24 22.07.2022
934 Clouds 5 1009 94 10000 7.57 344 07:58 22.07.2022
935 Clouds 5 1009 97 2233 8.57 344 04:23 22.07.2022
936 Rain 5 1010 92 10000 8.03 357 23:43 21.07.2022
937 Clouds 5 1011 94 10000 7.35 4 21:51 21.07.2022
938 Clear 5 1011 95 10000 6.68 7 20:28 21.07.2022
939 Clouds 5 1012 94 10000 6.49 5 18:43 21.07.2022
940 Clouds 6 1012 90 10000 7.27 6 17:22 21.07.2022
941 Clouds 6 1012 90 10000 7.27 6 16:31 21.07.2022
942 Clouds 6 1013 87 10000 7.58 9 14:46 21.07.2022
943 Clouds 6 1013 86 4509 7.36 12 13:58 21.07.2022
944 Clouds 6 1013 83 4071 6.73 13 11:58 21.07.2022
945 Clouds 6 1013 85 3814 5.95 25 10:20 21.07.2022
946 Clouds 6 1013 85 3946 5.95 28 08:53 21.07.2022
947 Clear 6 1013 85 4697 5.75 32 08:18 21.07.2022
948 Clear 6 1013 84 10000 6.04 38 06:45 21.07.2022
949 Clear 6 1013 86 10000 5.71 50 02:59 21.07.2022
950 Clouds 6 1014 97 10000 3.49 2 22:51 20.07.2022
951 Clouds 6 1014 97 5121 3.38 3 22:20 20.07.2022
952 Clouds 6 1014 97 8999 2.77 7 20:46 20.07.2022
953 Clouds 6 1015 98 1809 2.62 14 19:47 20.07.2022
954 Clouds 7 1014 96 1983 2.03 32 18:56 20.07.2022
955 Clouds 7 1014 96 1983 2.03 32 18:31 20.07.2022
956 Clouds 7 1015 95 2190 3.07 48 17:33 20.07.2022
957 Clouds 7 1015 95 1661 4.27 47 15:38 20.07.2022
958 Clouds 7 1015 94 1795 4.79 31 14:49 20.07.2022
959 Clouds 7 1016 90 3769 5.13 23 13:44 20.07.2022
960 Clouds 8 1016 86 3688 5.22 33 11:29 20.07.2022
961 Clouds 8 1016 86 3708 4.78 63 06:49 20.07.2022
962 Clouds 6 1017 93 10000 2.94 34 01:57 20.07.2022
963 Clouds 6 1017 94 10000 2.36 31 00:42 20.07.2022
964 Clouds 6 1018 93 10000 2.86 45 22:38 19.07.2022
965 Clouds 7 1018 91 10000 2.57 56 22:20 19.07.2022
966 Clouds 7 1018 88 10000 2.5 68 20:50 19.07.2022
967 Clouds 8 1018 84 10000 2.86 75 19:38 19.07.2022
968 Clouds 8 1018 82 10000 3.51 80 18:43 19.07.2022
969 Clouds 9 1018 80 10000 3.81 77 17:56 19.07.2022
970 Clouds 10 1018 76 10000 4.31 67 15:50 19.07.2022
971 Clouds 11 1019 74 10000 4.7 72 13:51 19.07.2022
972 Clouds 11 1019 73 10000 4.26 67 11:35 19.07.2022
973 Clouds 11 1018 71 10000 4.51 73 09:58 19.07.2022
974 Clouds 10 1019 71 9887 4.06 61 08:48 19.07.2022
975 Clouds 10 1019 71 6841 3.8 58 08:21 19.07.2022
976 Clouds 11 1018 70 10000 4.13 60 07:18 19.07.2022
977 Clouds 12 1018 66 10000 3.59 91 05:23 19.07.2022
978 Clouds 12 1018 66 10000 3.59 91 04:40 19.07.2022
979 Clouds 10 1018 76 10000 1.72 83 00:21 19.07.2022
980 Clouds 10 1018 76 10000 1.9 75 23:21 18.07.2022
981 Clouds 10 1018 76 10000 1.9 75 22:51 18.07.2022
982 Clouds 10 1018 77 10000 1.78 62 21:27 18.07.2022
983 Clouds 10 1018 77 10000 1.78 62 20:50 18.07.2022
984 Clouds 11 1018 76 10000 1.54 60 19:24 18.07.2022
985 Clouds 12 1018 71 10000 2.02 55 16:50 18.07.2022
986 Clouds 12 1017 68 10000 1.73 62 15:41 18.07.2022
987 Clouds 12 1018 76 10000 2.39 39 13:45 18.07.2022
988 Clouds 13 1018 76 10000 2.08 21 12:37 18.07.2022
989 Clouds 13 1017 77 10000 1.95 33 10:34 18.07.2022
990 Clouds 14 1016 72 10000 2.09 38 08:21 18.07.2022
991 Clouds 15 1016 70 10000 1.81 33 06:54 18.07.2022
992 Clouds 13 1016 70 10000 2.88 156 23:31 17.07.2022
993 Clouds 13 1016 70 10000 3.22 146 22:32 17.07.2022
994 Clouds 13 1016 71 10000 3.66 141 21:47 17.07.2022
995 Clouds 14 1015 72 10000 4.18 139 20:55 17.07.2022
996 Clouds 14 1015 72 10000 4.18 139 20:36 17.07.2022
997 Clouds 13 1015 71 10000 5.75 113 19:28 17.07.2022
998 Clear 14 1015 70 10000 5.77 103 18:26 17.07.2022
999 Clear 14 1015 70 10000 5.77 103 17:38 17.07.2022
1000 Clear 13 1015 67 10000 5.18 92 16:50 17.07.2022
1001 Clear 14 1015 63 10000 5.17 90 16:25 17.07.2022
1002 Clear 14 1015 62 10000 5.69 90 14:32 17.07.2022
1003 Clouds 15 1015 58 10000 5.06 94 13:28 17.07.2022
1004 Clouds 15 1015 57 10000 4.95 101 10:59 17.07.2022
1005 Clouds 15 1015 59 10000 5.44 104 08:44 17.07.2022
1006 Clear 15 1015 66 10000 3.46 137 03:40 17.07.2022
1007 Clouds 14 1015 70 10000 3 145 02:21 17.07.2022
1008 Clouds 13 1014 73 10000 3.16 141 23:19 16.07.2022
1009 Clouds 13 1014 68 10000 4.11 121 21:21 16.07.2022
1010 Clouds 14 1014 69 10000 5.63 116 19:25 16.07.2022
1011 Clouds 15 1014 66 10000 6.59 113 17:56 16.07.2022
1012 Clouds 16 1014 65 10000 7.19 102 16:27 16.07.2022
1013 Clouds 17 1013 64 10000 6.39 101 13:47 16.07.2022
1014 Clouds 16 1013 68 10000 4.94 106 10:50 16.07.2022
1015 Clouds 17 1013 71 10000 4.82 120 09:32 16.07.2022
1016 Clouds 16 1013 74 10000 5.39 134 08:43 16.07.2022
1017 Clouds 16 1013 76 10000 5.6 138 07:59 16.07.2022
1018 Clouds 16 1012 80 10000 4.81 146 03:41 16.07.2022
1019 Clouds 15 1011 87 4771 4.75 137 02:35 16.07.2022
1020 Clouds 12 1011 90 10000 3.94 117 23:29 15.07.2022
1021 Clouds 12 1011 90 10000 3.94 117 22:39 15.07.2022
1022 Clouds 13 1011 81 10000 5.07 112 21:28 15.07.2022
1023 Clouds 14 1011 76 10000 6.19 120 20:24 15.07.2022
1024 Clouds 14 1010 76 10000 5.98 112 18:37 15.07.2022
1025 Clouds 15 1010 74 10000 6.65 110 17:36 15.07.2022
1026 Clear 15 1010 72 10000 8.01 99 14:48 15.07.2022
1027 Clouds 15 1011 68 2399 6.36 96 12:49 15.07.2022
1028 Clouds 15 1011 68 1880 6.24 96 11:20 15.07.2022
1029 Clouds 14 1011 72 2231 6.34 94 09:21 15.07.2022
1030 Clouds 11 1011 84 1831 5.99 96 05:56 15.07.2022
1031 Clouds 7 1012 98 382 3.54 90 00:52 15.07.2022
1032 Clouds 6 1012 99 166 3.72 93 23:36 14.07.2022
1033 Clouds 7 1012 99 143 3.96 95 22:42 14.07.2022
1034 Clouds 7 1013 99 135 4.27 97 21:43 14.07.2022
1035 Clouds 6 1013 99 108 5.02 93 21:25 14.07.2022
1036 Clouds 6 1013 99 108 5.02 93 20:43 14.07.2022
1037 Clouds 6 1013 99 122 5.45 87 20:19 14.07.2022
1038 Clouds 8 1013 98 176 6.06 94 18:42 14.07.2022
1039 Clouds 10 1012 87 995 7.96 89 16:22 14.07.2022
1040 Clouds 9 1013 88 1234 6.39 78 15:29 14.07.2022
1041 Clouds 8 1013 91 1883 4.67 63 13:53 14.07.2022
1042 Clouds 7 1014 88 975 4.59 59 12:53 14.07.2022
1043 Clouds 7 1014 88 958 3.16 53 11:43 14.07.2022
1044 Clouds 6 1014 90 959 2.47 22 11:22 14.07.2022
1045 Clouds 6 1014 93 978 2.9 348 09:49 14.07.2022
1046 Clouds 5 1014 96 1390 3.72 344 06:54 14.07.2022
1047 Clouds 4 1014 97 818 4.98 294 01:24 14.07.2022
1048 Clouds 4 1014 97 818 4.98 294 00:53 14.07.2022
1049 Clouds 5 1014 96 3580 5.35 296 22:33 13.07.2022
1050 Clouds 5 1014 94 4921 5.17 291 21:55 13.07.2022
1051 Clouds 5 1014 95 8433 5.33 285 20:45 13.07.2022
1052 Clouds 5 1014 97 791 6.43 290 19:21 13.07.2022
1053 Clouds 6 1014 93 1480 6.41 297 17:42 13.07.2022
1054 Clouds 8 1014 90 2172 4.81 302 16:29 13.07.2022
1055 Clouds 8 1014 91 1593 4.4 300 15:24 13.07.2022
1056 Clouds 10 1014 88 1526 4.34 319 12:55 13.07.2022
1057 Clouds 11 1014 90 955 5.93 305 10:45 13.07.2022
1058 Clouds 11 1013 90 933 5.91 299 09:58 13.07.2022
1059 Clouds 12 1013 92 928 6.09 302 09:22 13.07.2022
1060 Clouds 12 1012 97 458 7.76 231 06:19 13.07.2022
1061 Rain 12 1015 85 10000 5.64 164 02:21 13.07.2022
1062 Clouds 11 1017 80 10000 6.03 148 23:45 12.07.2022
1063 Clouds 11 1018 79 10000 5.48 134 21:57 12.07.2022
1064 Clouds 12 1019 78 10000 5.91 138 21:29 12.07.2022
1065 Clouds 12 1019 78 10000 5.91 138 20:41 12.07.2022
1066 Clouds 12 1021 79 10000 5.17 139 19:26 12.07.2022
1067 Clouds 13 1021 76 10000 5.69 138 17:50 12.07.2022
1068 Clouds 13 1022 73 10000 4.85 151 16:20 12.07.2022
1069 Clouds 13 1023 73 10000 4.84 161 14:31 12.07.2022
1070 Clouds 11 1024 83 6532 4.64 139 12:48 12.07.2022
1071 Clouds 9 1025 85 10000 4.62 110 11:26 12.07.2022
1072 Rain 9 1025 83 9318 3.51 87 09:42 12.07.2022
1073 Clouds 12 1025 67 10000 2.88 136 08:23 12.07.2022
1074 Clouds 12 1025 65 10000 2.66 148 06:49 12.07.2022
1075 Clouds 11 1025 62 10000 3.58 151 05:42 12.07.2022
1076 Clouds 8 1026 66 10000 3.32 117 02:32 12.07.2022
1077 Clouds 7 1028 71 10000 3.44 130 23:30 11.07.2022
1078 Clouds 6 1028 74 10000 3.57 123 22:31 11.07.2022
1079 Clouds 6 1028 76 10000 3.58 101 20:41 11.07.2022
1080 Clouds 6 1028 76 10000 4.05 99 19:44 11.07.2022
1081 Clouds 6 1028 76 10000 3.75 99 18:32 11.07.2022
1082 Clouds 6 1029 76 10000 3.68 90 17:49 11.07.2022
1083 Clouds 7 1029 71 10000 3.8 82 16:21 11.07.2022
1084 Clouds 7 1029 70 10000 3.42 80 14:49 11.07.2022
1085 Clouds 7 1028 67 3660 2.92 48 11:59 11.07.2022
1086 Clouds 7 1028 67 3890 2.43 29 10:37 11.07.2022
1087 Clear 7 1028 67 4626 2.57 12 09:49 11.07.2022
1088 Clouds 7 1027 67 5154 2.48 10 08:34 11.07.2022
1089 Clouds 8 1027 62 10000 2.93 326 06:44 11.07.2022
1090 Clouds 5 1025 84 10000 1.6 213 00:22 11.07.2022
1091 Clouds 5 1024 88 10000 1.28 213 23:28 10.07.2022
1092 Clouds 4 1024 89 2049 0.73 199 21:55 10.07.2022
1093 Clouds 4 1023 89 2276 0.54 157 20:54 10.07.2022
1094 Clouds 4 1024 93 2219 0.22 180 19:50 10.07.2022
1095 Clouds 5 1023 92 2215 0.18 88 18:50 10.07.2022
1096 Clouds 5 1023 90 2212 0.69 360 17:41 10.07.2022
1097 Clouds 5 1023 88 2215 1.07 341 16:58 10.07.2022
1098 Clouds 5 1022 88 2203 1.55 353 16:19 10.07.2022
1099 Clouds 5 1022 89 2189 1.83 349 14:33 10.07.2022
1100 Clouds 5 1021 88 2212 2.88 356 12:33 10.07.2022
1101 Clouds 5 1021 88 2259 2.95 360 11:34 10.07.2022
1102 Clouds 4 1018 97 1374 2.28 14 08:46 10.07.2022
1103 Clouds 4 1017 98 1355 2.76 12 08:24 10.07.2022
1104 Clouds 6 1014 97 439 0.89 281 03:38 10.07.2022
1105 Clouds 6 1012 96 10000 1.4 257 23:30 09.07.2022
1106 Clouds 6 1012 94 10000 1.01 228 22:25 09.07.2022
1107 Clouds 6 1011 94 10000 0.54 273 21:29 09.07.2022
1108 Clouds 6 1010 93 2358 1.16 3 18:58 09.07.2022
1109 Clouds 7 1010 90 5758 1.46 345 17:59 09.07.2022
1110 Clouds 7 1009 89 6269 1.15 294 16:59 09.07.2022
1111 Rain 6 1009 91 8189 2 97 15:44 09.07.2022
1112 Rain 6 1009 88 5607 3.41 97 15:25 09.07.2022
1113 Clouds 5 1010 88 10000 4.66 79 13:51 09.07.2022
1114 Clouds 5 1010 89 3578 3.73 78 12:53 09.07.2022
1115 Clouds 5 1010 89 2401 3 71 11:33 09.07.2022
1116 Clouds 5 1009 90 2257 2.11 13 10:23 09.07.2022
1117 Clouds 4 1008 94 2442 1.32 354 07:54 09.07.2022
1118 Clouds 4 1008 94 2469 1.48 309 06:58 09.07.2022
1119 Clouds 4 1007 96 5059 1.86 327 04:34 09.07.2022
1120 Clouds 5 999 99 269 2.61 353 23:18 08.07.2022
1121 Rain 6 998 99 136 1.75 288 21:59 08.07.2022
1122 Clouds 7 998 97 207 5.03 245 20:59 08.07.2022
1123 Clouds 9 997 97 290 6.85 236 20:25 08.07.2022
1124 Rain 12 997 95 883 5.15 226 18:32 08.07.2022
1125 Rain 9 999 93 4326 8.34 118 17:25 08.07.2022
1126 Rain 6 1002 97 4661 8.82 95 14:55 08.07.2022
1127 Rain 7 1003 96 1740 6.06 80 14:29 08.07.2022
1128 Rain 10 1006 93 4326 3.3 107 12:28 08.07.2022
1129 Rain 10 1007 89 9259 1.48 201 10:45 08.07.2022
1130 Clouds 10 1008 74 3622 1.9 82 08:51 08.07.2022
1131 Clouds 11 1009 65 10000 2.32 281 06:55 08.07.2022
1132 Clouds 9 1009 82 5768 4.53 245 03:22 08.07.2022
1133 Clouds 7 1009 98 405 6.67 234 23:45 07.07.2022
1134 Clouds 7 1009 99 208 6.78 233 22:45 07.07.2022
1135 Clouds 8 1009 93 7275 6.26 242 20:59 07.07.2022
1136 Clouds 9 1009 91 10000 6.39 244 18:42 07.07.2022
1137 Clouds 10 1009 87 10000 6.48 245 17:41 07.07.2022
1138 Clouds 11 1008 85 10000 6.2 267 15:22 07.07.2022
1139 Clouds 11 1008 83 10000 7.6 259 13:30 07.07.2022
1140 Clouds 12 1007 78 10000 8.15 255 12:40 07.07.2022
1141 Clouds 14 1007 72 10000 8.76 251 12:20 07.07.2022
1142 Clouds 14 1007 72 10000 8.76 251 11:31 07.07.2022
1143 Clouds 15 1006 71 10000 8.51 248 10:44 07.07.2022
1144 Clouds 15 1006 80 10000 7.46 252 10:25 07.07.2022
1145 Rain 14 1005 79 10000 7.16 230 07:40 07.07.2022
1146 Clouds 13 1005 72 10000 6.58 198 04:42 07.07.2022
1147 Clouds 9 1007 89 946 4.79 142 23:37 06.07.2022
1148 Clouds 7 1008 92 927 4.25 132 23:19 06.07.2022
1149 Clouds 7 1008 92 927 4.25 132 22:57 06.07.2022
1150 Clouds 7 1008 92 927 4.25 132 22:38 06.07.2022
1151 Clouds 7 1009 92 938 4.14 130 21:30 06.07.2022
1152 Clouds 7 1010 97 1002 4.07 110 19:39 06.07.2022
1153 Clouds 7 1010 89 977 3.93 90 18:29 06.07.2022
1154 Clouds 7 1011 87 939 4.11 87 16:19 06.07.2022
1155 Clouds 6 1011 89 955 3.68 78 14:58 06.07.2022
1156 Clouds 7 1011 87 920 3.27 71 12:42 06.07.2022
1157 Clouds 7 1011 87 925 3.12 74 11:49 06.07.2022
1158 Clouds 7 1011 86 921 2.83 64 10:18 06.07.2022
1159 Clouds 8 1010 87 986 1.32 34 07:47 06.07.2022
1160 Clouds 8 1010 88 2354 0.68 20 07:23 06.07.2022
1161 Clouds 7 1010 90 2438 0.71 258 05:28 06.07.2022
1162 Clouds 6 1009 90 1023 0.23 258 22:45 05.07.2022
1163 Clouds 5 1009 90 968 0.73 164 21:53 05.07.2022
1164 Clouds 5 1009 93 984 0.59 125 20:39 05.07.2022
1165 Clouds 5 1009 90 5591 0.38 203 19:43 05.07.2022
1166 Clouds 4 1009 91 2388 0.17 352 19:22 05.07.2022
1167 Clouds 4 1009 92 2271 1.2 354 17:47 05.07.2022
1168 Clouds 4 1009 91 2230 2 346 16:54 05.07.2022
1169 Clouds 5 1009 87 2220 2.41 345 15:25 05.07.2022
1170 Clouds 5 1009 89 2284 2.67 329 13:59 05.07.2022
1171 Clouds 5 1009 88 2238 2.58 329 12:43 05.07.2022
1172 Clouds 6 1009 87 2217 3.34 335 11:33 05.07.2022
1173 Clouds 6 1008 86 2208 3.55 330 10:40 05.07.2022
1174 Clouds 6 1008 88 1837 3.07 330 09:22 05.07.2022
1175 Clouds 6 1007 91 1508 3.02 311 07:45 05.07.2022
1176 Clouds 5 1006 98 331 3.47 288 04:49 05.07.2022
1177 Clouds 5 1006 98 119 4.29 289 04:21 05.07.2022
1178 Clouds 7 1005 97 1002 5 255 23:56 04.07.2022
1179 Clouds 8 1005 97 2714 5.86 246 23:26 04.07.2022
1180 Clouds 8 1005 97 2642 6.28 245 22:25 04.07.2022
1181 Clouds 8 1005 97 2642 6.28 245 21:30 04.07.2022
1182 Clouds 8 1005 96 2712 6.11 244 20:52 04.07.2022
1183 Clouds 8 1005 96 2712 6.11 244 20:33 04.07.2022
1184 Clouds 9 1005 96 2177 6.54 247 19:52 04.07.2022
1185 Clouds 8 1006 97 3227 6.85 248 19:34 04.07.2022
1186 Rain 10 1006 85 10000 7.44 253 17:57 04.07.2022
1187 Clouds 13 1006 68 10000 8.93 248 15:50 04.07.2022
1188 Clouds 14 1007 64 10000 10.21 251 14:54 04.07.2022
1189 Clouds 14 1009 59 10000 10.36 253 13:29 04.07.2022
1190 Clouds 14 1009 57 10000 10.2 249 12:20 04.07.2022
1191 Clouds 13 1010 58 10000 10.03 246 10:33 04.07.2022
1192 Clouds 13 1010 58 10000 9.83 242 09:40 04.07.2022
1193 Clouds 11 1013 57 10000 7.53 237 07:21 04.07.2022
1194 Clouds 8 1014 64 10000 6.99 239 03:35 04.07.2022
1195 Clouds 5 1017 74 10000 4.41 233 00:30 04.07.2022
1196 Clouds 5 1017 75 10000 3.76 233 22:58 03.07.2022
1197 Clouds 5 1018 71 10000 2.75 229 20:51 03.07.2022
1198 Clouds 6 1018 70 10000 2.47 230 20:25 03.07.2022
1199 Clouds 5 1019 73 10000 1.01 206 19:26 03.07.2022
1200 Clouds 5 1019 73 10000 1.01 206 18:32 03.07.2022
1201 Clouds 5 1019 72 10000 0.99 178 17:43 03.07.2022
1202 Clouds 3 1021 79 3834 1.66 63 15:29 03.07.2022
1203 Clouds 3 1021 79 3834 1.66 63 14:58 03.07.2022
1204 Clouds 3 1021 79 3754 1.87 47 13:59 03.07.2022
1205 Clouds 4 1021 77 3807 1.87 36 13:33 03.07.2022
1206 Clouds 4 1021 77 3768 2.38 31 12:32 03.07.2022
1207 Clouds 4 1021 78 3761 2.72 13 11:18 03.07.2022
1208 Clouds 4 1021 78 3761 2.72 13 10:38 03.07.2022
1209 Clouds 3 1021 81 3776 3.04 18 08:59 03.07.2022
1210 Clouds 3 1021 81 3699 2.74 21 07:34 03.07.2022
1211 Clouds 1 1020 92 10000 4.02 24 01:39 03.07.2022
1212 Clouds 1 1019 92 10000 3.33 18 23:50 02.07.2022
1213 Clouds 1 1019 91 10000 3.71 9 22:33 02.07.2022
1214 Clouds 1 1019 92 10000 3.52 5 20:37 02.07.2022
1215 Clouds 1 1018 92 10000 4.17 4 19:51 02.07.2022
1216 Clouds 2 1018 90 4282 4.47 357 19:19 02.07.2022
1217 Clouds 2 1018 89 3909 4.08 354 17:41 02.07.2022
1218 Clouds 2 1018 88 3934 4.04 358 16:38 02.07.2022
1219 Clouds 3 1017 88 2362 4.14 359 13:51 02.07.2022
1220 Clouds 4 1016 84 2202 3.58 7 11:52 02.07.2022
1221 Clouds 4 1015 84 2207 3.74 4 10:53 02.07.2022
1222 Clouds 4 1015 84 2207 3.74 4 10:32 02.07.2022
1223 Clouds 4 1014 84 2210 3.47 351 08:39 02.07.2022
1224 Clouds 3 1014 83 2209 3.54 352 08:19 02.07.2022
1225 Clouds 3 1014 85 2227 3.13 349 06:51 02.07.2022
1226 Clouds 2 1013 93 4022 2.85 317 00:55 02.07.2022
1227 Clouds 2 1012 95 2223 2.75 319 23:31 01.07.2022
1228 Clouds 2 1012 98 749 2.34 309 22:40 01.07.2022
1229 Clouds 2 1012 98 872 2.45 309 21:40 01.07.2022
1230 Clouds 2 1012 96 1892 2.72 309 20:59 01.07.2022
1231 Clouds 2 1012 96 1892 2.72 309 20:37 01.07.2022
1232 Clouds 2 1012 96 1883 4.53 305 19:41 01.07.2022
1233 Clouds 4 1011 90 5220 4.74 298 17:52 01.07.2022
1234 Clouds 8 1011 88 7865 5.77 283 15:26 01.07.2022
1235 Clouds 8 1011 84 10000 6.41 265 13:54 01.07.2022
1236 Clouds 9 1011 82 10000 5.66 267 13:54 01.07.2022
1237 Clouds 9 1012 73 10000 7.22 263 11:49 01.07.2022
1238 Clouds 9 1012 73 10000 8.79 265 10:20 01.07.2022
1239 Clouds 10 1012 61 10000 8.16 256 08:50 01.07.2022
1240 Clouds 6 1014 70 10000 6.05 255 03:18 01.07.2022
1241 Clouds 5 1015 76 10000 5.62 249 00:25 01.07.2022
1242 Clouds 5 1015 78 10000 4.98 241 22:56 30.06.2022
1243 Clouds 5 1015 78 10000 4.98 241 22:33 30.06.2022
1244 Clouds 5 1015 79 10000 4.88 244 21:59 30.06.2022
1245 Clouds 5 1015 79 10000 4.88 244 21:35 30.06.2022
1246 Clouds 6 1016 76 10000 5.84 245 20:22 30.06.2022
1247 Clouds 6 1016 76 10000 5.84 245 19:53 30.06.2022
1248 Clouds 6 1016 75 10000 5.8 245 19:18 30.06.2022
1249 Clouds 6 1016 75 10000 5.8 245 18:35 30.06.2022
1250 Clouds 7 1017 69 10000 5.98 249 17:38 30.06.2022
1251 Clouds 8 1017 62 10000 5.97 252 16:48 30.06.2022
1252 Clouds 9 1018 56 10000 4.47 265 15:27 30.06.2022
1253 Clouds 8 1018 55 10000 2.7 273 13:30 30.06.2022
1254 Clouds 7 1019 58 10000 0.97 286 12:35 30.06.2022
1255 Clouds 7 1019 58 10000 0.97 286 12:35 30.06.2022
1256 Clouds 5 1020 69 10000 1.37 345 11:28 30.06.2022
1257 Clouds 4 1020 73 10000 2.18 349 09:53 30.06.2022
1258 Clouds 4 1020 73 10000 2.18 349 09:32 30.06.2022
1259 Clouds 3 1020 77 10000 2.96 340 07:51 30.06.2022
1260 Clouds 3 1021 81 10000 2.76 340 05:57 30.06.2022
1261 Clouds 1 1020 93 10000 2.77 1 00:32 30.06.2022
1262 Clouds 0 1020 95 10000 3.46 6 23:21 29.06.2022
1263 Clouds 0 1020 95 10000 3.46 6 22:39 29.06.2022
1264 Clouds 0 1020 94 10000 3.7 7 21:34 29.06.2022
1265 Clouds 0 1020 94 10000 3.29 4 20:33 29.06.2022
1266 Clouds 1 1020 94 10000 4.07 359 19:37 29.06.2022
1267 Clouds 1 1020 90 10000 5.49 359 17:43 29.06.2022
1268 Clouds 1 1020 90 10000 5.07 2 16:37 29.06.2022
1269 Clouds 1 1020 91 10000 6.27 13 14:56 29.06.2022
1270 Clouds 2 1019 90 10000 6.77 9 12:40 29.06.2022
1271 Clouds 1 1018 94 10000 6.57 11 10:56 29.06.2022
1272 Clouds 1 1018 95 10000 6.72 14 09:32 29.06.2022
1273 Clouds 1 1017 94 10000 6.35 13 07:39 29.06.2022
1274 Snow 1 1017 99 589 4.77 358 04:51 29.06.2022
1275 Clouds 1 1017 90 10000 4.13 21 00:57 29.06.2022
1276 Clouds 1 1017 90 10000 4.13 21 00:35 29.06.2022
1277 Clouds 0 1017 86 10000 2.43 351 22:54 28.06.2022
1278 Clouds 0 1017 86 10000 2.43 351 22:30 28.06.2022
1279 Clouds 1 1017 78 10000 2.57 350 21:54 28.06.2022
1280 Clouds 1 1017 78 10000 2.57 350 21:54 28.06.2022
1281 Clouds 1 1017 78 10000 2.57 350 21:32 28.06.2022
1282 Clouds 1 1018 69 10000 1.72 321 20:35 28.06.2022
1283 Clouds 2 1019 72 10000 1.89 284 19:34 28.06.2022
1284 Clouds 2 1020 74 10000 2.33 305 18:46 28.06.2022
1285 Clouds 2 1021 74 10000 1.83 324 17:40 28.06.2022
1286 Clouds 2 1022 79 10000 2.78 351 15:57 28.06.2022
1287 Clouds 2 1022 79 10000 2.78 351 15:36 28.06.2022
1288 Clouds 2 1023 81 10000 4.42 11 14:20 28.06.2022
1289 Clouds 2 1023 81 10000 4.42 11 13:51 28.06.2022
1290 Clouds 2 1023 83 10000 5.04 6 12:55 28.06.2022
1291 Clouds 2 1023 81 10000 5.87 8 11:18 28.06.2022
1292 Clouds 1 1022 90 10000 5.78 11 09:29 28.06.2022
1293 Clouds 1 1022 90 10000 5.78 11 08:43 28.06.2022
1294 Clouds 1 1022 90 10000 5.98 18 07:42 28.06.2022
1295 Clouds 1 1022 91 10000 6.59 25 06:20 28.06.2022
1296 Clouds 1 1019 90 10000 8.44 30 00:56 28.06.2022
1297 Clouds 1 1019 91 10000 8.76 29 23:37 27.06.2022
1298 Clouds 1 1018 88 10000 8.55 29 22:52 27.06.2022
1299 Clouds 1 1018 88 10000 8.61 28 21:34 27.06.2022
1300 Clouds 1 1018 89 10000 8.66 25 20:52 27.06.2022
1301 Clouds 1 1017 89 10000 8.87 21 19:31 27.06.2022
1302 Clouds 1 1016 89 10000 8.79 21 18:24 27.06.2022
1303 Clouds 1 1016 90 10000 8.77 13 16:19 27.06.2022
1304 Clouds 1 1015 90 10000 8.71 12 14:46 27.06.2022
1305 Clouds 1 1015 91 10000 8.46 13 13:36 27.06.2022
1306 Clouds 1 1015 91 10000 8.4 13 12:56 27.06.2022
1307 Clouds 1 1015 92 10000 7.95 15 10:34 27.06.2022
1308 Clouds 1 1014 92 10000 7.58 11 09:18 27.06.2022
1309 Clouds 1 1014 92 10000 7.38 13 08:19 27.06.2022
1310 Clouds 1 1014 93 10000 7.37 15 06:38 27.06.2022
1311 Clouds 1 1014 95 10000 6.73 16 03:24 27.06.2022
1312 Clouds 0 1014 97 1713 5.64 1 23:55 26.06.2022
1313 Clouds 0 1014 97 10000 6.46 10 21:59 26.06.2022
1314 Clouds 0 1014 97 4334 6.56 15 20:44 26.06.2022
1315 Clouds 0 1014 97 2023 6.33 14 19:32 26.06.2022
1316 Clouds 0 1014 96 5254 5.97 10 18:30 26.06.2022
1317 Clouds 1 1014 93 10000 5.79 4 16:33 26.06.2022
1318 Clouds 0 1015 94 10000 5.7 358 14:41 26.06.2022
1319 Snow 1 1015 93 4586 6.01 356 13:38 26.06.2022
1320 Clouds 1 1015 91 10000 6.11 356 13:18 26.06.2022
1321 Clouds 1 1015 89 10000 6.25 356 11:26 26.06.2022
1322 Clouds 1 1015 87 10000 6.13 1 10:26 26.06.2022
1323 Clouds 1 1015 86 10000 6.04 2 09:19 26.06.2022
1324 Clouds 1 1015 91 10000 6.67 0 07:41 26.06.2022
1325 Clouds 1 1014 91 10000 5.75 13 01:53 26.06.2022
1326 Clouds 1 1013 91 10000 7.2 23 00:20 26.06.2022
1327 Clouds 1 1013 91 10000 7.2 23 23:41 25.06.2022
1328 Clouds 1 1013 92 10000 7.39 19 22:57 25.06.2022
1329 Clouds 1 1012 93 10000 7.29 13 22:27 25.06.2022
1330 Clouds 1 1012 93 10000 7.29 13 21:40 25.06.2022
1331 Clouds 1 1012 93 10000 7.41 12 21:18 25.06.2022
1332 Clouds 1 1012 94 10000 7.63 12 20:27 25.06.2022
1333 Clouds 1 1011 93 10000 7.59 11 19:21 25.06.2022
1334 Clouds 1 1011 93 10000 7.37 15 17:56 25.06.2022
1335 Clouds 1 1011 93 10000 7.52 16 17:22 25.06.2022
1336 Clouds 1 1010 93 10000 7.75 18 15:26 25.06.2022
1337 Clouds 1 1009 94 10000 8.5 25 13:27 25.06.2022
1338 Clouds 1 1009 94 10000 8.5 25 12:37 25.06.2022
1339 Clouds 1 1009 95 10000 8.58 26 10:34 25.06.2022
1340 Clouds 1 1008 96 10000 8.16 30 08:58 25.06.2022
1341 Clouds 1 1008 96 10000 8.16 30 08:35 25.06.2022
1342 Clouds 1 1008 97 1855 7.29 29 07:45 25.06.2022
1343 Clouds 1 1006 93 10000 7.03 28 03:33 25.06.2022
1344 Snow 1 1005 96 10000 6.15 33 00:34 25.06.2022
1345 Snow 1 1005 97 2821 5.81 35 22:53 24.06.2022
1346 Snow 1 1005 98 1990 5.39 39 21:34 24.06.2022
1347 Snow 1 1005 98 1876 5.35 44 20:44 24.06.2022
1348 Snow 1 1005 99 1658 5.46 46 20:18 24.06.2022
1349 Snow 1 1005 96 10000 5.04 30 19:20 24.06.2022
1350 Snow 1 1005 96 10000 5.04 30 18:48 24.06.2022
1351 Snow 1 1005 96 10000 5.04 30 18:30 24.06.2022
1352 Snow 1 1005 97 3811 4.54 27 17:19 24.06.2022
1353 Clouds 1 1005 97 1949 4.81 37 15:29 24.06.2022
1354 Clouds 1 1005 98 1992 5.44 36 14:26 24.06.2022
1355 Clouds 1 1005 98 287 5.26 31 13:54 24.06.2022
1356 Clouds 1 1006 98 1705 6.11 32 11:43 24.06.2022
1357 Snow 1 1006 98 1773 5.99 31 10:47 24.06.2022
1358 Snow 1 1006 98 1331 5.71 29 09:42 24.06.2022
1359 Snow 1 1006 98 1726 5.48 34 09:19 24.06.2022
1360 Snow 1 1006 98 1726 5.48 34 08:42 24.06.2022
1361 Clouds 1 1006 97 1690 5 26 06:47 24.06.2022
1362 Clouds 0 1006 97 1637 5.29 22 06:29 24.06.2022
1363 Clouds 0 1006 97 1637 5.29 22 05:51 24.06.2022
1364 Clouds 0 1007 98 1904 4.68 26 00:57 24.06.2022
1365 Clouds 0 1007 99 1972 4.17 13 22:44 23.06.2022
1366 Clouds 0 1007 98 2104 3.43 9 21:52 23.06.2022
1367 Clouds 0 1007 99 2036 3.75 11 20:53 23.06.2022
1368 Clouds 0 1008 98 2200 3.83 5 20:31 23.06.2022
1369 Clouds 0 1008 98 2261 3.94 359 18:43 23.06.2022
1370 Clouds 0 1008 98 2011 3.67 358 17:44 23.06.2022
1371 Clouds 0 1008 98 1683 4.29 342 16:34 23.06.2022
1372 Clouds 1 1008 97 1717 3.76 340 15:27 23.06.2022
1373 Clouds 1 1008 97 1717 3.76 340 14:51 23.06.2022
1374 Clouds 1 1008 97 1723 4.02 351 11:54 23.06.2022
1375 Clouds 1 1008 97 1744 4.27 346 10:56 23.06.2022
1376 Clouds 0 1007 98 1746 4.5 345 09:20 23.06.2022
1377 Clouds 0 1008 98 1651 4.05 6 05:51 23.06.2022
1378 Clouds 0 1008 98 2027 4.91 349 01:22 23.06.2022
1379 Clouds 0 1007 98 2147 4.82 354 00:25 23.06.2022
1380 Clouds 0 1007 99 1988 4.78 353 23:22 22.06.2022
1381 Clouds 0 1007 99 1867 4.48 353 21:44 22.06.2022
1382 Clouds 1 1007 99 1766 4.62 352 20:52 22.06.2022
1383 Snow 1 1007 99 1730 4.33 0 20:20 22.06.2022
1384 Snow 1 1007 99 1730 4.33 0 19:44 22.06.2022
1385 Clouds 0 1007 98 1744 5.04 3 17:50 22.06.2022
1386 Clouds 1 1007 99 760 4.99 5 16:50 22.06.2022
1387 Snow 1 1007 99 527 5.29 9 15:29 22.06.2022
1388 Snow 1 1007 99 527 5.29 9 14:57 22.06.2022
1389 Snow 1 1007 99 1325 5.06 8 13:49 22.06.2022
1390 Snow 1 1007 99 1154 5.49 20 13:24 22.06.2022
1391 Snow 1 1007 99 1154 5.49 20 12:37 22.06.2022
1392 Snow 1 1007 99 1167 5.02 18 11:46 22.06.2022
1393 Snow 1 1007 98 1696 4.57 23 10:50 22.06.2022
1394 Snow 1 1006 98 1606 4.5 27 09:42 22.06.2022
1395 Clouds 1 1006 98 1986 4.68 36 07:51 22.06.2022
1396 Clouds 1 1005 97 2404 3.76 8 02:56 22.06.2022
1397 Clouds 0 1005 98 1867 4.03 359 01:19 22.06.2022
1398 Clouds 0 1005 98 1586 4.48 3 23:19 21.06.2022
1399 Snow 0 1005 98 1688 4.59 7 21:25 21.06.2022
1400 Clouds 0 1005 98 1842 4.67 8 19:43 21.06.2022
1401 Clouds 0 1006 97 1692 4.98 13 17:56 21.06.2022
1402 Clouds 0 1006 97 1602 4.73 19 16:52 21.06.2022
1403 Clouds 1 1005 96 1658 5.26 18 12:36 21.06.2022
1404 Clouds 1 1005 95 1527 5.01 27 10:55 21.06.2022
1405 Clouds 1 1005 95 1540 5.02 30 09:39 21.06.2022
1406 Clouds 1 1005 96 1580 4.59 28 07:56 21.06.2022
1407 Clouds 1 1005 97 1484 4.21 37 05:33 21.06.2022
1408 Clouds 0 1005 98 1454 4.06 48 00:35 21.06.2022
1409 Clouds 0 1004 98 632 3.59 39 22:22 20.06.2022
1410 Clouds 0 1004 98 632 3.59 39 21:41 20.06.2022
1411 Clouds 0 1004 98 296 3.45 42 20:30 20.06.2022
1412 Clouds 1 1004 98 1478 2.6 32 19:37 20.06.2022
1413 Clouds 1 1004 97 1552 2.62 33 18:44 20.06.2022
1414 Clouds 1 1003 97 1547 2.82 32 17:50 20.06.2022
1415 Clouds 1 1003 97 1423 2.77 35 16:53 20.06.2022
1416 Clouds 1 1003 96 1368 2.87 32 15:52 20.06.2022
1417 Clouds 2 1003 95 1413 2.73 34 12:38 20.06.2022
1418 Clouds 1 1002 96 237 3.45 37 10:32 20.06.2022
1419 Clouds 2 1002 95 293 2.81 41 08:56 20.06.2022
1420 Clouds 3 1002 95 1180 2.61 58 07:53 20.06.2022
1421 Snow 2 1001 99 543 3.17 69 05:35 20.06.2022
1422 Clouds 2 1002 97 2922 3.29 70 01:33 20.06.2022
1423 Clouds 2 1002 98 6100 4.1 82 00:25 20.06.2022
1424 Clouds 2 1002 98 1655 4.19 72 22:46 19.06.2022
1425 Rain 2 1002 99 473 4.1 65 21:51 19.06.2022
1426 Rain 2 1002 99 473 4.1 65 21:31 19.06.2022
1427 Rain 2 1002 99 1397 3.53 61 20:38 19.06.2022
1428 Rain 2 1002 98 1567 3.89 64 19:47 19.06.2022
1429 Rain 3 1002 98 1466 4.57 63 18:43 19.06.2022
1430 Clouds 2 1002 97 1378 3.69 54 17:48 19.06.2022
1431 Clouds 3 1002 96 1385 4.74 55 17:22 19.06.2022
1432 Clouds 3 1002 96 1385 4.74 55 16:34 19.06.2022
1433 Clouds 3 1002 95 2272 5.28 64 15:41 19.06.2022
1434 Clouds 3 1003 95 1397 5.03 70 14:56 19.06.2022
1435 Clouds 3 1003 94 1373 5.03 60 14:19 19.06.2022
1436 Clouds 3 1003 94 1365 4.4 59 12:56 19.06.2022
1437 Clouds 4 1003 93 2213 4.38 57 10:54 19.06.2022
1438 Clouds 4 1003 93 1371 3.95 56 09:40 19.06.2022
1439 Clouds 3 1003 95 1083 3.74 63 08:47 19.06.2022
1440 Clouds 3 1003 98 439 5.75 77 07:51 19.06.2022
1441 Clouds 3 1003 98 270 5.52 79 05:36 19.06.2022
1442 Clouds 2 1005 99 92 4.57 74 01:29 19.06.2022
1443 Clouds 2 1005 99 103 4.56 77 00:24 19.06.2022
1444 Clouds 2 1005 99 103 4.56 77 23:36 18.06.2022
1445 Clouds 2 1005 99 117 4.6 70 22:36 18.06.2022
1446 Clouds 2 1005 99 143 4.38 67 20:56 18.06.2022
1447 Clouds 2 1005 99 143 4.38 67 20:38 18.06.2022
1448 Clouds 2 1007 98 1534 4.66 67 19:38 18.06.2022
1449 Clouds 2 1007 98 1681 4.59 69 18:45 18.06.2022
1450 Clouds 2 1007 98 1645 5.2 68 17:34 18.06.2022
1451 Clouds 2 1007 98 1558 5.48 67 16:47 18.06.2022
1452 Clouds 2 1007 98 1516 5.76 72 15:31 18.06.2022
1453 Clouds 3 1008 97 1512 5.96 72 14:44 18.06.2022
1454 Clouds 3 1008 96 1032 6.94 75 13:22 18.06.2022
1455 Clouds 4 1008 95 1014 6.83 79 11:39 18.06.2022
1456 Clouds 3 1008 97 224 6.52 83 10:46 18.06.2022
1457 Rain 3 1008 98 338 6.04 86 09:22 18.06.2022
1458 Rain 2 1008 98 627 6.1 86 08:24 18.06.2022
1459 Clouds 2 1009 96 2642 5.27 77 06:46 18.06.2022
1460 Clouds 1 1009 97 5693 4.94 65 03:30 18.06.2022
1461 Snow 0 1010 98 290 6.07 68 01:25 18.06.2022
1462 Snow 0 1010 98 290 6.07 68 00:46 18.06.2022
1463 Snow 0 1011 98 282 5.61 65 23:52 17.06.2022
1464 Clouds 1 1011 96 4319 5.29 70 23:20 17.06.2022
1465 Clouds 1 1011 93 10000 5.75 72 20:55 17.06.2022
1466 Clouds 1 1012 91 10000 5.46 70 19:31 17.06.2022
1467 Clouds 2 1012 86 10000 5.78 72 18:37 17.06.2022
1468 Clouds 2 1012 81 10000 6.11 82 17:43 17.06.2022
1469 Clouds 2 1012 79 10000 6.11 78 16:43 17.06.2022
1470 Clouds 2 1012 79 10000 6.11 78 16:43 17.06.2022
1471 Clouds 3 1012 77 10000 6.23 73 15:43 17.06.2022
1472 Clouds 3 1012 76 10000 6.34 76 15:20 17.06.2022
1473 Clouds 3 1012 76 10000 6.48 75 14:20 17.06.2022
1474 Clouds 3 1013 78 10000 5.86 68 13:45 17.06.2022
1475 Clouds 3 1013 78 10000 5.85 67 12:53 17.06.2022
1476 Clouds 3 1013 77 6581 5.68 72 11:57 17.06.2022
1477 Clouds 3 1013 77 6581 5.68 72 11:36 17.06.2022
1478 Clouds 3 1012 77 10000 5.44 66 10:48 17.06.2022
1479 Clouds 2 1012 79 4815 5.29 61 08:30 17.06.2022
1480 Clouds 3 1012 78 8502 4.68 72 07:30 17.06.2022
1481 Clouds 2 1013 84 5234 4.34 79 05:51 17.06.2022
1482 Clouds 1 1013 95 1406 3.43 80 02:47 17.06.2022
1483 Clouds 1 1014 97 98 2.23 56 00:42 17.06.2022
1484 Clouds 1 1014 97 98 2.23 56 00:42 17.06.2022
1485 Clouds 0 1014 97 111 1.89 55 22:45 16.06.2022
1486 Clouds 0 1014 97 181 1.61 39 21:58 16.06.2022
1487 Clouds 1 1014 97 986 1.07 14 21:18 16.06.2022
1488 Clouds 1 1014 97 986 1.07 14 20:49 16.06.2022
1489 Clouds 1 1015 95 974 1.04 7 19:57 16.06.2022
1490 Clouds 1 1014 93 981 1.67 22 18:34 16.06.2022
1491 Clouds 2 1014 90 1784 2.01 8 17:44 16.06.2022
1492 Clouds 3 1015 88 1824 2.36 355 16:46 16.06.2022
1493 Clouds 3 1015 86 2102 2.53 346 15:37 16.06.2022
1494 Clouds 3 1015 85 2193 2.45 343 15:18 16.06.2022
1495 Clouds 4 1015 84 2191 2.74 344 13:46 16.06.2022
1496 Clouds 4 1015 83 2196 2.85 349 12:38 16.06.2022
1497 Clouds 4 1015 83 1647 3.11 341 11:54 16.06.2022
1498 Clouds 4 1015 83 1500 3.27 341 11:18 16.06.2022
1499 Clouds 4 1015 83 1500 3.27 341 10:34 16.06.2022
1500 Clouds 4 1015 83 1451 2.98 331 09:26 16.06.2022
1501 Clouds 4 1015 83 1451 2.98 331 08:46 16.06.2022
1502 Clouds 4 1014 84 1471 3.13 328 07:29 16.06.2022
1503 Clouds 4 1015 87 1489 3.42 318 05:42 16.06.2022
1504 Clouds 3 1014 84 10000 2.75 309 02:54 16.06.2022
1505 Clouds 2 1014 75 10000 3.28 302 01:51 16.06.2022
1506 Clouds 2 1014 76 10000 3.42 298 01:21 16.06.2022
1507 Clear 2 1014 79 10000 3.6 291 23:56 15.06.2022
1508 Clear 2 1014 79 10000 3.6 291 23:56 15.06.2022
1509 Clear 2 1013 81 10000 3.61 288 22:45 15.06.2022
1510 Clear 2 1013 82 10000 3.47 296 21:29 15.06.2022
1511 Clear 2 1013 82 10000 3.47 296 20:57 15.06.2022
1512 Clear 2 1013 82 10000 3.47 296 20:35 15.06.2022
1513 Clear 2 1013 74 10000 3.78 304 19:49 15.06.2022
1514 Clouds 3 1013 72 10000 4.17 308 18:30 15.06.2022
1515 Clouds 3 1013 72 10000 4.17 308 17:42 15.06.2022
1516 Clouds 4 1012 73 10000 3.42 317 16:20 15.06.2022
1517 Clouds 4 1012 73 10000 4.35 322 14:33 15.06.2022
1518 Clouds 8 1011 70 10000 4.31 280 13:20 15.06.2022
1519 Clouds 8 1011 70 10000 4.31 280 12:33 15.06.2022
1520 Clouds 11 1010 67 10000 3.63 278 11:22 15.06.2022
1521 Clouds 10 1009 67 10000 2.93 256 10:21 15.06.2022
1522 Clouds 10 1009 69 10000 2.68 233 08:58 15.06.2022
1523 Clouds 9 1009 69 10000 3.46 264 07:32 15.06.2022
1524 Clouds 10 1008 62 10000 3.37 243 05:24 15.06.2022
1525 Clouds 9 1008 52 10000 3.67 194 02:31 15.06.2022
1526 Clouds 9 1008 51 10000 3.2 171 01:33 15.06.2022
1527 Clouds 8 1008 52 10000 3.13 149 23:55 14.06.2022
1528 Clouds 8 1008 52 10000 3.13 149 23:37 14.06.2022
1529 Clouds 8 1008 53 10000 3.27 140 22:45 14.06.2022
1530 Clouds 8 1008 53 10000 3.57 129 21:42 14.06.2022
1531 Clouds 7 1008 56 10000 3.01 124 20:58 14.06.2022
1532 Clouds 7 1008 56 10000 3.01 124 20:36 14.06.2022
1533 Clouds 7 1009 55 10000 3.76 111 19:32 14.06.2022
1534 Clouds 6 1009 58 10000 3.9 95 18:32 14.06.2022
1535 Clouds 7 1009 54 10000 3.46 83 16:50 14.06.2022
1536 Clouds 7 1009 52 10000 3.89 82 15:52 14.06.2022
1537 Clouds 7 1009 52 10000 3.89 82 15:34 14.06.2022
1538 Clouds 7 1009 52 10000 3.89 82 15:34 14.06.2022
1539 Clouds 7 1010 51 10000 4.01 83 14:46 14.06.2022
1540 Clouds 6 1010 54 10000 4.69 80 13:53 14.06.2022
1541 Clouds 6 1010 55 10000 5.01 77 12:55 14.06.2022
1542 Clouds 6 1010 54 10000 4.9 74 11:52 14.06.2022
1543 Clouds 6 1011 54 10000 5.04 77 10:49 14.06.2022
1544 Clouds 6 1011 54 10000 5.18 78 10:25 14.06.2022
1545 Clouds 6 1011 54 10000 5.18 78 10:25 14.06.2022
1546 Clouds 6 1011 54 10000 4.85 78 08:52 14.06.2022
1547 Clouds 6 1011 54 10000 4.58 80 07:58 14.06.2022
1548 Clouds 5 1011 57 10000 3.93 96 06:19 14.06.2022
1549 Clouds 5 1012 62 10000 3.02 111 03:36 14.06.2022
1550 Clouds 3 1012 69 10000 2.33 103 01:36 14.06.2022
1551 Clouds 2 1012 72 10000 2.65 110 23:53 13.06.2022
1552 Clouds 2 1013 76 10000 2.33 100 22:27 13.06.2022
1553 Clouds 2 1013 76 10000 2.33 100 21:59 13.06.2022
1554 Clouds 2 1013 78 10000 2.43 96 21:24 13.06.2022
1555 Clouds 2 1013 77 10000 2.81 92 19:42 13.06.2022
1556 Clouds 2 1014 75 10000 3.19 92 18:45 13.06.2022
1557 Clouds 2 1014 74 10000 3.21 82 17:52 13.06.2022
1558 Clouds 2 1014 72 10000 3.28 74 17:18 13.06.2022
1559 Clouds 3 1014 71 10000 3.5 71 15:53 13.06.2022
1560 Clouds 3 1015 70 10000 3.81 72 14:48 13.06.2022
1561 Clouds 3 1015 70 10000 4.12 75 14:18 13.06.2022
1562 Clouds 3 1015 71 10000 4.1 71 13:23 13.06.2022
1563 Clouds 3 1015 72 10000 4.03 65 11:50 13.06.2022
1564 Clouds 3 1015 72 10000 4.04 62 10:36 13.06.2022
1565 Clouds 3 1015 71 10000 4.02 63 09:42 13.06.2022
1566 Clouds 3 1015 70 10000 3.94 69 08:30 13.06.2022
1567 Clouds 2 1015 74 10000 3.65 64 06:35 13.06.2022
1568 Clear 1 1016 78 10000 2.71 46 04:23 13.06.2022
1569 Clear 1 1016 83 10000 2.61 52 01:44 13.06.2022
1570 Clear 0 1016 85 10000 2.45 50 01:18 13.06.2022
1571 Clear 0 1016 87 10000 2.21 46 23:41 12.06.2022
1572 Clear 0 1016 88 10000 2.22 33 22:34 12.06.2022
1573 Clear 0 1016 87 10000 2.29 20 21:45 12.06.2022
1574 Clear 0 1015 87 10000 2.28 25 20:49 12.06.2022
1575 Clouds 0 1016 85 10000 2.61 29 19:49 12.06.2022
1576 Clouds 1 1016 84 10000 3.11 22 18:53 12.06.2022
1577 Clouds 1 1016 80 10000 3.65 22 17:24 12.06.2022
1578 Clouds 1 1016 79 10000 3.91 20 15:44 12.06.2022
1579 Clouds 2 1016 77 10000 4.2 15 14:50 12.06.2022
1580 Clouds 2 1017 79 10000 4.49 11 14:18 12.06.2022
1581 Clouds 2 1017 79 10000 4.49 11 13:44 12.06.2022
1582 Clouds 2 1016 78 10000 4.84 8 12:22 12.06.2022
1583 Clouds 2 1016 77 10000 4.97 5 10:46 12.06.2022
1584 Clouds 2 1016 78 10000 5.12 3 09:42 12.06.2022
1585 Clouds 2 1015 79 10000 5.34 0 08:50 12.06.2022
1586 Clouds 2 1015 80 10000 5.22 360 07:52 12.06.2022
1587 Clouds 2 1015 82 10000 5.54 360 06:27 12.06.2022
1588 Clouds 1 1014 84 10000 5.88 355 03:54 12.06.2022
1589 Clouds 1 1013 85 10000 5.96 342 02:25 12.06.2022
1590 Clouds 1 1013 85 10000 5.64 345 01:35 12.06.2022
1591 Clouds 0 1013 88 10000 5.56 342 00:44 12.06.2022
1592 Clouds 0 1012 89 10000 5.31 340 00:19 12.06.2022
1593 Clouds 0 1012 89 10000 5.37 339 23:21 11.06.2022
1594 Clouds 0 1012 89 10000 5.37 339 22:37 11.06.2022
1595 Clouds 1 1011 90 10000 5.82 338 21:18 11.06.2022
1596 Snow 1 1011 93 10000 6.19 334 20:26 11.06.2022
1597 Clouds 1 1010 95 10000 6.31 334 19:36 11.06.2022
1598 Clouds 1 1010 94 10000 6.17 336 18:45 11.06.2022
1599 Clouds 1 1010 94 10000 6.24 341 18:26 11.06.2022
1600 Clouds 1 1010 94 10000 6.24 341 17:47 11.06.2022
1601 Clouds 1 1009 95 10000 6.64 336 17:26 11.06.2022
1602 Clouds 1 1009 95 10000 6.64 336 16:43 11.06.2022
1603 Clouds 1 1009 95 10000 6.59 333 16:18 11.06.2022
1604 Clouds 1 1009 96 9209 6.53 332 14:44 11.06.2022
1605 Clouds 1 1008 95 4512 6.06 335 13:52 11.06.2022
1606 Clouds 2 1007 93 2546 5.96 331 12:19 11.06.2022
1607 Clouds 2 1006 93 1573 6.29 335 10:31 11.06.2022
1608 Clouds 2 1006 93 1292 6.55 335 09:41 11.06.2022
1609 Clouds 2 1005 92 1092 6.23 328 08:38 11.06.2022
1610 Clouds 3 1005 89 2203 5.93 322 06:33 11.06.2022
1611 Clouds 3 1004 88 4831 5.54 326 05:44 11.06.2022
1612 Clouds 3 1003 85 10000 3.71 337 03:18 11.06.2022
1613 Clouds 3 1002 86 4213 3.25 334 01:51 11.06.2022
1614 Clouds 5 1002 79 10000 4.72 314 01:25 11.06.2022
1615 Clouds 11 1001 53 10000 1.91 176 23:26 10.06.2022
1616 Clouds 11 1001 52 10000 3.09 177 22:21 10.06.2022
1617 Clouds 11 1001 52 10000 3.09 177 21:44 10.06.2022
1618 Clouds 12 1001 52 10000 3.15 181 20:39 10.06.2022
1619 Clouds 11 1002 55 10000 3.09 148 20:19 10.06.2022
1620 Clouds 10 1002 62 10000 2.86 123 19:19 10.06.2022
1621 Clouds 10 1002 62 10000 2.86 123 18:32 10.06.2022
1622 Clouds 9 1003 67 10000 2.97 100 17:50 10.06.2022
1623 Clouds 9 1003 67 10000 3.03 91 17:21 10.06.2022
1624 Clouds 10 1004 64 8290 2.57 78 16:26 10.06.2022
1625 Clouds 10 1004 64 8290 2.57 78 15:38 10.06.2022
1626 Clouds 11 1005 54 10000 1.29 97 13:58 10.06.2022
1627 Clouds 11 1005 52 10000 1.47 119 12:57 10.06.2022
1628 Clouds 10 1006 53 10000 2.35 111 11:59 10.06.2022
1629 Clouds 9 1007 58 5446 3.6 97 10:45 10.06.2022
1630 Clouds 7 1008 63 5304 4.52 89 09:55 10.06.2022
1631 Clouds 7 1008 65 5400 4.97 85 08:44 10.06.2022
1632 Clouds 5 1009 71 3185 4.74 80 07:31 10.06.2022
1633 Clouds 4 1010 72 4690 4.66 85 06:45 10.06.2022
1634 Clouds 4 1010 74 4101 4.59 90 06:26 10.06.2022
1635 Clouds 3 1011 76 5762 4.09 86 04:37 10.06.2022
1636 Clouds 2 1012 80 10000 3.36 90 01:42 10.06.2022
1637 Clouds 2 1012 81 10000 3.06 84 00:40 10.06.2022
1638 Clouds 1 1013 82 10000 2.96 90 23:49 09.06.2022
1639 Clouds 1 1013 83 6483 2.96 91 22:18 09.06.2022
1640 Clouds 1 1013 83 6483 2.96 91 21:37 09.06.2022
1641 Clouds 1 1014 84 9234 3.12 92 20:58 09.06.2022
1642 Clouds 1 1014 84 5560 2.89 88 20:26 09.06.2022
1643 Clouds 2 1014 86 3479 2.63 86 19:31 09.06.2022
1644 Clouds 2 1014 85 2352 2.95 89 18:34 09.06.2022
1645 Clouds 2 1015 83 1944 2.82 77 17:18 09.06.2022
1646 Clouds 2 1015 83 2245 2.81 74 15:54 09.06.2022
1647 Clouds 2 1015 82 2252 2.72 65 14:38 09.06.2022
1648 Clouds 3 1015 81 2219 2.86 53 13:55 09.06.2022
1649 Clouds 4 1015 80 2067 2.61 53 13:29 09.06.2022
1650 Clouds 4 1015 82 2194 2.23 47 12:21 09.06.2022
1651 Clouds 3 1015 83 2195 2.24 39 11:19 09.06.2022
1652 Clouds 3 1015 84 2199 2.24 23 09:50 09.06.2022
1653 Clouds 3 1015 84 2199 2.24 23 09:31 09.06.2022
1654 Clouds 3 1014 85 2216 2.87 343 07:56 09.06.2022
1655 Clouds 3 1014 86 1683 2.89 335 06:55 09.06.2022
1656 Clouds 3 1014 87 10000 3.35 306 03:22 09.06.2022
1657 Clouds 3 1013 89 10000 4.1 304 23:49 08.06.2022
1658 Clouds 3 1013 90 10000 4.43 305 22:58 08.06.2022
1659 Clouds 3 1013 91 10000 4.93 306 22:27 08.06.2022
1660 Clouds 3 1013 91 10000 4.93 306 21:56 08.06.2022
1661 Clouds 3 1013 96 6479 4.82 303 21:23 08.06.2022
1662 Clouds 3 1013 97 304 5.03 305 20:22 08.06.2022
1663 Clouds 3 1013 97 486 4.79 306 19:39 08.06.2022
1664 Clouds 3 1013 95 979 4.84 310 18:47 08.06.2022
1665 Clouds 7 1011 82 7085 4.26 298 17:25 08.06.2022
1666 Clouds 7 1011 78 10000 4.53 300 15:52 08.06.2022
1667 Clouds 9 1010 73 10000 4.42 277 13:58 08.06.2022
1668 Clouds 13 1009 46 10000 5.3 273 12:22 08.06.2022
1669 Clouds 13 1009 46 10000 5.3 273 11:33 08.06.2022
1670 Clouds 12 1009 40 10000 2.88 136 10:20 08.06.2022
1671 Clouds 12 1010 43 10000 3.08 137 09:22 08.06.2022
1672 Clouds 12 1010 43 10000 3.08 137 08:40 08.06.2022
1673 Clouds 10 1010 48 10000 2.89 111 06:35 08.06.2022
1674 Clear 8 1010 55 10000 2.26 114 03:58 08.06.2022
1675 Clouds 6 1011 59 10000 2.23 116 00:45 08.06.2022
1676 Clouds 6 1011 59 10000 1.61 110 23:29 07.06.2022
1677 Clouds 6 1011 59 10000 1.61 110 22:45 07.06.2022
1678 Clouds 5 1011 60 10000 1.32 105 22:26 07.06.2022
1679 Clouds 5 1011 60 10000 1.32 105 21:35 07.06.2022
1680 Clouds 5 1011 63 10000 1.48 109 20:58 07.06.2022
1681 Clouds 5 1011 63 10000 1.48 109 20:32 07.06.2022
1682 Clouds 5 1012 65 10000 1.15 97 19:45 07.06.2022
1683 Clouds 5 1011 66 10000 0.97 58 18:24 07.06.2022
1684 Clouds 5 1011 68 10000 1.28 52 17:27 07.06.2022
1685 Clouds 5 1011 68 10000 1.28 52 16:43 07.06.2022
1686 Clouds 6 1011 66 10000 1.94 30 15:54 07.06.2022
1687 Clouds 7 1011 58 10000 2.4 6 15:26 07.06.2022
1688 Clouds 7 1011 58 10000 2.4 6 14:50 07.06.2022
1689 Clouds 7 1011 58 10000 2.4 6 14:32 07.06.2022
1690 Clouds 9 1011 51 10000 2.71 329 13:31 07.06.2022
1691 Clouds 9 1011 50 10000 2.7 318 12:49 07.06.2022
1692 Clouds 9 1011 50 10000 2.84 316 11:47 07.06.2022
1693 Clouds 9 1011 51 10000 3.07 306 10:26 07.06.2022
1694 Clouds 9 1011 50 10000 2.98 299 08:49 07.06.2022
1695 Clouds 10 1011 48 10000 3.53 288 07:34 07.06.2022
1696 Clouds 8 1011 52 10000 3.46 280 06:18 07.06.2022
1697 Clouds 7 1011 60 10000 3.5 262 03:31 07.06.2022
1698 Clouds 7 1011 60 10000 3.5 262 03:31 07.06.2022
1699 Clouds 6 1012 57 10000 2.33 228 00:45 07.06.2022
1700 Clouds 6 1013 57 10000 1.97 223 23:41 06.06.2022
1701 Clouds 6 1013 58 10000 1.58 233 22:47 06.06.2022
1702 Clouds 6 1013 58 10000 1.53 250 21:57 06.06.2022
1703 Clouds 6 1014 58 10000 1.76 252 20:42 06.06.2022
1704 Clouds 7 1014 58 10000 2.31 261 19:24 06.06.2022
1705 Clouds 7 1014 58 10000 2.31 261 18:47 06.06.2022
1706 Clouds 7 1015 59 10000 2.13 272 17:55 06.06.2022
1707 Clouds 7 1015 60 10000 1.87 304 16:55 06.06.2022
1708 Clouds 7 1016 55 10000 2.23 307 15:45 06.06.2022
1709 Clouds 7 1016 54 10000 1.2 309 14:59 06.06.2022
1710 Clouds 7 1017 54 10000 1.37 311 13:43 06.06.2022
1711 Clouds 7 1017 54 10000 1.89 299 13:19 06.06.2022
1712 Clouds 7 1017 54 10000 1.89 299 12:33 06.06.2022
1713 Clouds 7 1017 56 10000 2.23 305 11:45 06.06.2022
1714 Clouds 8 1017 54 10000 1.71 307 09:53 06.06.2022
1715 Clouds 7 1017 52 10000 1.38 298 08:57 06.06.2022
1716 Clouds 7 1017 54 10000 1.09 270 08:28 06.06.2022
1717 Clouds 6 1018 55 10000 1.2 246 07:19 06.06.2022
1718 Clouds 5 1019 61 10000 1.75 218 04:38 06.06.2022
1719 Clouds 3 1020 72 10000 2.45 151 01:53 06.06.2022
1720 Clouds 2 1020 71 10000 2.48 147 00:57 06.06.2022
1721 Clouds 2 1020 71 10000 2.48 147 00:34 06.06.2022
1722 Clouds 2 1021 73 10000 2.74 133 22:59 05.06.2022
1723 Clouds 2 1021 73 10000 2.93 125 22:21 05.06.2022
1724 Clouds 2 1022 72 10000 3.24 120 20:24 05.06.2022
1725 Clouds 2 1023 73 10000 3.5 103 19:23 05.06.2022
1726 Clouds 2 1023 74 10000 4.04 97 18:19 05.06.2022
1727 Clouds 2 1023 74 10000 4.04 97 17:39 05.06.2022
1728 Clouds 2 1023 74 10000 4.23 86 17:20 05.06.2022
1729 Clouds 2 1023 74 10000 4.23 86 16:47 05.06.2022
1730 Clouds 3 1024 67 10000 4.61 84 15:28 05.06.2022
1731 Clouds 3 1024 66 10000 4.77 83 14:21 05.06.2022
1732 Clouds 3 1025 68 10000 5.07 80 11:59 05.06.2022
1733 Clouds 3 1025 67 10000 5.16 78 10:45 05.06.2022
1734 Clouds 3 1025 67 10000 4.93 80 10:24 05.06.2022
1735 Clouds 3 1025 67 10000 4.93 80 09:42 05.06.2022
1736 Clouds 2 1026 72 10000 4.84 85 08:23 05.06.2022
1737 Clear 1 1026 74 10000 5.03 93 06:25 05.06.2022
1738 Clouds 0 1027 77 10000 4.95 93 05:19 05.06.2022
1739 Clouds -1 1027 82 10000 4.2 99 02:47 05.06.2022
1740 Clouds -1 1027 86 10000 4.91 98 01:24 05.06.2022
1741 Clouds -1 1027 87 10000 4.83 96 23:36 04.06.2022
1742 Clouds -2 1028 87 10000 4.8 87 21:30 04.06.2022
1743 Clouds -1 1029 87 10000 4.84 84 19:36 04.06.2022
1744 Clouds -1 1029 86 10000 5.01 70 17:21 04.06.2022
1745 Clouds 0 1030 85 10000 5.53 69 16:20 04.06.2022
1746 Clouds 0 1030 85 10000 5.53 69 15:45 04.06.2022
1747 Clouds 0 1030 86 10000 5.36 70 14:18 04.06.2022
1748 Clouds 0 1031 86 10000 5.41 63 11:43 04.06.2022
1749 Clouds -1 1031 88 10000 5.46 62 10:55 04.06.2022
1750 Clouds -1 1031 89 10000 5.05 58 09:59 04.06.2022
1751 Clouds -1 1031 89 10000 5.05 58 09:38 04.06.2022
1752 Clouds -1 1031 91 10000 5.07 57 08:39 04.06.2022
1753 Clouds -1 1032 92 10000 5.06 58 07:00 04.06.2022
1754 Clouds -1 1032 94 10000 5.18 51 04:29 04.06.2022
1755 Clouds -2 1033 92 10000 4.8 41 00:24 04.06.2022
1756 Clouds -2 1033 92 10000 4.65 37 23:19 03.06.2022
1757 Clouds -2 1033 91 10000 4.61 37 22:20 03.06.2022
1758 Clouds -2 1034 91 10000 4.59 42 20:42 03.06.2022
1759 Clouds -2 1034 91 10000 4.59 42 20:42 03.06.2022
1760 Clouds -2 1034 90 10000 4.97 41 19:58 03.06.2022
1761 Clouds -1 1035 87 10000 6 37 16:59 03.06.2022
1762 Clouds -1 1035 87 10000 6 37 16:30 03.06.2022
1763 Clouds -1 1035 88 10000 6.41 31 14:47 03.06.2022
1764 Clear -1 1034 85 10000 6.94 24 12:26 03.06.2022
1765 Clear -1 1034 85 10000 6.89 15 10:18 03.06.2022
1766 Clear -1 1034 85 10000 6.65 15 09:29 03.06.2022
1767 Clear -1 1034 85 10000 6.63 16 07:53 03.06.2022
1768 Clear -1 1034 85 10000 6.6 13 07:19 03.06.2022
1769 Clear -1 1034 85 10000 6.6 13 06:30 03.06.2022
1770 Clear -2 1034 87 10000 6.55 7 04:40 03.06.2022
1771 Clouds -2 1033 89 10000 6.37 5 00:22 03.06.2022
1772 Clouds -2 1033 91 10000 6.24 4 22:35 02.06.2022
1773 Clouds -2 1033 91 10000 5.65 4 20:58 02.06.2022
1774 Clear -2 1033 89 10000 6.13 2 19:59 02.06.2022
1775 Clear -2 1033 89 10000 6.13 2 19:41 02.06.2022
1776 Clear -2 1033 88 10000 5.94 6 19:18 02.06.2022
1777 Clear -1 1033 85 10000 5.72 9 16:30 02.06.2022
1778 Clear -1 1033 83 10000 5.71 10 15:58 02.06.2022
1779 Clear -1 1033 82 10000 6.05 5 13:38 02.06.2022
1780 Clear -1 1032 81 10000 6.18 8 13:20 02.06.2022
1781 Clear -1 1032 79 10000 6.34 6 10:53 02.06.2022
1782 Clear -1 1031 79 10000 6.41 7 10:19 02.06.2022
1783 Clear -2 1031 79 10000 6.49 7 09:27 02.06.2022
1784 Clear -2 1031 79 10000 6.68 7 08:25 02.06.2022
1785 Clear -2 1030 77 10000 6.85 7 06:50 02.06.2022
1786 Clear -2 1030 81 10000 6.23 12 03:54 02.06.2022
1787 Clouds -2 1030 83 10000 6.07 16 02:22 02.06.2022
1788 Clouds -2 1029 90 10000 5.12 11 23:36 01.06.2022
1789 Clouds -1 1029 88 10000 4.31 5 22:21 01.06.2022
1790 Clouds -1 1028 87 10000 3.98 358 21:26 01.06.2022
1791 Clouds -1 1028 87 10000 3.98 358 20:39 01.06.2022
1792 Clouds -1 1028 87 10000 3.8 2 19:52 01.06.2022
1793 Clouds 0 1028 86 10000 3.94 4 18:52 01.06.2022
1794 Clouds 0 1028 85 10000 3.97 359 17:40 01.06.2022
1795 Clouds 0 1029 84 10000 3.78 359 16:22 01.06.2022
1796 Clouds 0 1029 84 10000 3.86 1 14:51 01.06.2022
1797 Clouds 0 1029 85 10000 4.12 1 13:44 01.06.2022
1798 Clouds 0 1029 87 10000 3.88 357 11:41 01.06.2022
1799 Clouds 0 1029 89 10000 4.09 355 09:34 01.06.2022
1800 Clouds 0 1028 89 10000 4.43 355 08:28 01.06.2022
1801 Clouds 0 1028 81 10000 5.19 1 07:21 01.06.2022
1802 Clouds 0 1027 80 10000 4.66 17 04:58 01.06.2022
1803 Clouds 0 1025 84 10000 7.1 43 23:57 31.05.2022
1804 Clouds -1 1025 95 10000 5.06 35 22:51 31.05.2022
1805 Clouds -1 1024 93 10000 5.12 39 22:29 31.05.2022
1806 Clouds -1 1024 93 10000 5.12 39 21:45 31.05.2022
1807 Clouds 0 1024 93 10000 5.08 42 20:44 31.05.2022
1808 Clouds 0 1023 93 10000 4.71 41 19:52 31.05.2022
1809 Clouds 0 1023 92 10000 4.63 30 18:44 31.05.2022
1810 Clouds 1 1022 90 10000 3.54 7 17:49 31.05.2022
1811 Clouds 2 1021 86 10000 3.53 334 16:48 31.05.2022
1812 Clear 3 1021 83 10000 3.98 310 15:40 31.05.2022
1813 Clear 5 1021 79 10000 5.3 268 13:37 31.05.2022
1814 Clear 4 1021 85 10000 4.51 259 12:19 31.05.2022
1815 Clear 4 1021 85 10000 3.89 261 10:52 31.05.2022
1816 Clear 2 1022 87 10000 3.15 265 08:37 31.05.2022
1817 Clouds 2 1022 74 10000 3.59 290 06:52 31.05.2022
1818 Clouds 1 1022 78 10000 2.78 298 04:34 31.05.2022
1819 Clouds -1 1023 84 10000 1.91 325 23:49 30.05.2022
1820 Clouds -1 1023 84 10000 1.46 334 23:25 30.05.2022
1821 Clouds -1 1023 84 10000 1.46 334 22:42 30.05.2022
1822 Clouds -1 1023 85 10000 1.1 15 21:47 30.05.2022
1823 Clouds -1 1023 85 10000 1.69 26 21:29 30.05.2022
1824 Clouds -1 1023 86 10000 1.47 29 19:51 30.05.2022
1825 Clouds 0 1023 85 10000 1.76 46 18:26 30.05.2022
1826 Clouds 0 1023 84 10000 1.96 44 17:23 30.05.2022
1827 Clouds 0 1023 84 10000 1.96 44 16:36 30.05.2022
1828 Clouds 0 1023 85 10000 2.96 77 13:44 30.05.2022
1829 Clouds 0 1023 87 10000 4.3 68 11:54 30.05.2022
1830 Clouds 0 1022 90 10000 4.7 74 10:20 30.05.2022
1831 Clouds 0 1022 91 10000 4.81 77 09:18 30.05.2022
1832 Clouds 0 1021 84 10000 5.76 73 06:28 30.05.2022
1833 Clouds 0 1021 87 10000 6.02 82 04:52 30.05.2022
1834 Clouds -1 1022 92 10000 6.24 73 01:30 30.05.2022
1835 Clear -1 1021 92 10000 6.55 78 22:49 29.05.2022
1836 Clouds -1 1021 92 10000 6.95 75 22:29 29.05.2022
1837 Clear -1 1021 91 10000 7.2 76 20:38 29.05.2022
1838 Clear 0 1021 91 10000 7.4 77 19:30 29.05.2022
1839 Clear 0 1021 90 10000 7.58 77 18:34 29.05.2022
1840 Clear 0 1021 88 10000 8.14 77 16:40 29.05.2022
1841 Clear 1 1020 87 10000 8.55 78 15:47 29.05.2022
1842 Clear 1 1020 87 10000 8.88 77 14:55 29.05.2022
1843 Clear 1 1020 86 10000 9.3 74 13:18 29.05.2022
1844 Clear 1 1020 84 10000 9.71 77 11:20 29.05.2022
1845 Clear 1 1020 84 10000 9.71 77 10:37 29.05.2022
1846 Clear 0 1020 84 10000 9.94 78 08:36 29.05.2022
1847 Clear 2 1019 79 10000 9.26 82 04:59 29.05.2022
1848 Clear 2 1019 79 10000 9.26 82 04:39 29.05.2022
1849 Clouds 1 1020 86 10000 7.97 85 01:52 29.05.2022
1850 Clouds 1 1020 84 10000 7.6 88 23:48 28.05.2022
1851 Clouds 2 1020 83 10000 7.58 89 23:20 28.05.2022
1852 Clouds 2 1020 82 10000 7.61 89 22:21 28.05.2022
1853 Clouds 3 1019 80 10000 7.37 92 21:19 28.05.2022
1854 Clouds 3 1019 80 10000 7.37 92 21:19 28.05.2022
1855 Clouds 4 1019 75 10000 7.7 94 19:21 28.05.2022
1856 Clouds 4 1019 75 10000 7.7 94 18:40 28.05.2022
1857 Clouds 4 1019 75 10000 8.15 92 17:33 28.05.2022
1858 Clouds 5 1018 78 10000 7.86 84 16:22 28.05.2022
1859 Clouds 5 1018 78 10000 7.86 84 15:38 28.05.2022
1860 Clouds 5 1017 85 10000 6.58 82 13:42 28.05.2022
1861 Clouds 5 1017 88 10000 5.69 79 12:43 28.05.2022
1862 Clouds 4 1017 93 10000 4.49 76 11:50 28.05.2022
1863 Clouds 3 1017 96 10000 3.95 73 10:41 28.05.2022
1864 Clouds 3 1017 97 1559 3.64 72 09:55 28.05.2022
1865 Clouds 3 1016 99 1396 3.07 69 08:39 28.05.2022
1866 Clouds 4 1016 93 2429 2.57 64 06:53 28.05.2022
1867 Clouds 4 1015 98 2110 1.21 49 05:24 28.05.2022
1868 Clouds 3 1014 95 10000 1.12 186 02:27 28.05.2022
1869 Clouds 3 1013 92 10000 2.54 105 00:18 28.05.2022
1870 Clouds 3 1012 92 10000 3.67 100 22:49 27.05.2022
1871 Clouds 3 1012 91 10000 4.42 96 21:35 27.05.2022
1872 Clouds 3 1011 91 10000 5.15 93 20:46 27.05.2022
1873 Clouds 3 1011 92 10000 5.2 88 20:21 27.05.2022
1874 Clouds 3 1012 93 10000 4.23 88 19:38 27.05.2022
1875 Clouds 3 1012 94 10000 4.24 87 19:20 27.05.2022
1876 Clouds 3 1012 95 10000 3.97 78 17:26 27.05.2022
1877 Clouds 3 1012 96 10000 4.11 86 15:57 27.05.2022
1878 Clouds 2 1012 96 10000 4.42 76 14:58 27.05.2022
1879 Clouds 2 1012 96 10000 4.24 75 13:41 27.05.2022
1880 Clouds 2 1012 97 1504 4.18 71 12:20 27.05.2022
1881 Clouds 2 1012 97 1504 4.18 71 11:31 27.05.2022
1882 Clouds 2 1012 97 1477 3.84 77 10:43 27.05.2022
1883 Clouds 1 1013 97 2125 4.38 85 09:59 27.05.2022
1884 Clouds 1 1013 97 2125 4.38 85 09:31 27.05.2022
1885 Clouds 1 1012 95 10000 4.28 83 07:40 27.05.2022
1886 Clouds 2 1013 95 10000 4.01 82 04:58 27.05.2022
1887 Clouds 1 1013 93 10000 4.6 85 01:38 27.05.2022
1888 Clouds 1 1013 94 10000 4.69 89 23:31 26.05.2022
1889 Clouds 1 1013 93 10000 6.77 91 22:22 26.05.2022
1890 Clouds 1 1013 93 10000 6.77 91 21:32 26.05.2022
1891 Clouds 1 1015 93 10000 7.64 87 19:39 26.05.2022
1892 Clouds 1 1015 93 10000 7.55 91 18:52 26.05.2022
1893 Clouds 2 1015 93 10000 7.75 86 17:36 26.05.2022
1894 Clouds 1 1016 93 10000 8.39 86 16:30 26.05.2022
1895 Clouds 1 1017 92 10000 8.76 84 15:28 26.05.2022
1896 Clouds 2 1018 92 10000 8.23 84 14:20 26.05.2022
1897 Clouds 2 1018 93 10000 8.34 87 12:18 26.05.2022
1898 Clouds 1 1019 93 10000 8.34 87 11:21 26.05.2022
1899 Clouds 1 1019 92 10000 8.2 89 09:39 26.05.2022
1900 Clouds 1 1020 91 10000 8.33 84 08:48 26.05.2022
1901 Clouds 2 1020 87 10000 7.98 87 06:47 26.05.2022
1902 Clouds 1 1022 98 242 6.82 95 02:51 26.05.2022
1903 Clouds 0 1024 98 397 5.34 98 23:58 25.05.2022
1904 Clouds 0 1024 98 1062 5.25 97 22:58 25.05.2022
1905 Clouds 0 1024 98 10000 5.02 95 21:44 25.05.2022
1906 Clouds 0 1024 98 5127 5.02 92 20:50 25.05.2022
1907 Clouds 0 1024 98 3001 4.86 89 19:56 25.05.2022
1908 Clouds 0 1025 97 10000 4.42 85 18:48 25.05.2022
1909 Clouds 1 1024 97 10000 4.48 81 17:26 25.05.2022
1910 Clouds 1 1024 97 10000 4.48 81 16:34 25.05.2022
1911 Clouds 1 1025 98 3999 4.77 82 15:49 25.05.2022
1912 Clouds 1 1025 97 2324 4.66 79 14:51 25.05.2022
1913 Clouds 1 1025 97 2324 4.66 79 14:32 25.05.2022
1914 Clouds 2 1024 96 10000 4.31 94 13:27 25.05.2022
1915 Clouds 2 1024 98 10000 4.24 96 11:51 25.05.2022
1916 Clouds 1 1024 99 10000 4.32 96 10:42 25.05.2022
1917 Clouds 1 1024 99 1634 4.37 94 09:46 25.05.2022
1918 Clouds 1 1024 97 2288 4.47 93 08:21 25.05.2022
1919 Clouds 1 1024 95 10000 4.54 99 06:37 25.05.2022
1920 Clouds 0 1023 95 10000 5.01 104 02:46 25.05.2022
1921 Clouds -1 1022 96 10000 4.68 89 23:52 24.05.2022
1922 Clouds -1 1022 97 10000 4.32 85 23:23 24.05.2022
1923 Clouds -1 1021 96 10000 4.13 86 22:18 24.05.2022
1924 Clouds -1 1021 96 10000 4.13 86 21:38 24.05.2022
1925 Clouds -1 1021 96 10000 4.33 91 21:19 24.05.2022
1926 Clouds -1 1021 96 10000 4.31 93 19:32 24.05.2022
1927 Clouds 0 1020 95 10000 4.81 93 18:40 24.05.2022
1928 Clouds 0 1019 94 10000 5.52 91 16:40 24.05.2022
1929 Clouds 0 1019 94 10000 5.86 85 15:54 24.05.2022
1930 Clouds 0 1019 93 10000 6.06 85 14:45 24.05.2022
1931 Clouds 0 1019 92 5093 6.34 85 13:48 24.05.2022
1932 Clouds -1 1018 91 7410 6.45 85 12:42 24.05.2022
1933 Clouds -1 1017 89 10000 7.61 85 10:18 24.05.2022
1934 Clouds -1 1017 89 10000 7.61 85 09:41 24.05.2022
1935 Clouds -1 1016 89 10000 7.56 83 08:43 24.05.2022
1936 Clouds -1 1015 89 10000 7.65 85 06:45 24.05.2022
1937 Clouds -3 1015 92 7892 8.41 75 03:48 24.05.2022
1938 Snow -3 1014 95 609 8.52 74 01:49 24.05.2022
1939 Snow -3 1013 95 481 8.96 73 00:57 24.05.2022
1940 Clouds -2 1012 94 2915 10.03 71 22:29 23.05.2022
1941 Clouds -2 1012 94 2915 10.03 71 21:53 23.05.2022
1942 Snow -2 1012 95 563 10.58 69 20:59 23.05.2022
1943 Snow -1 1012 92 1874 11.25 68 20:26 23.05.2022
1944 Clouds -1 1012 92 4679 10.96 68 19:31 23.05.2022
1945 Clouds -1 1012 91 9375 11.27 69 18:43 23.05.2022
1946 Clouds -1 1012 91 10000 11.45 69 18:22 23.05.2022
1947 Clouds 0 1012 89 10000 11.64 67 16:51 23.05.2022
1948 Clouds 0 1013 88 10000 12.15 70 14:49 23.05.2022
1949 Clouds 0 1013 88 10000 12.87 68 12:30 23.05.2022
1950 Clouds -1 1013 89 10000 13.06 68 11:26 23.05.2022
1951 Clouds -1 1013 88 10000 13.1 66 09:50 23.05.2022
1952 Clouds -1 1014 88 10000 12.83 64 09:23 23.05.2022
1953 Clouds -1 1013 89 10000 12.51 65 07:48 23.05.2022
1954 Clouds -1 1014 89 10000 12.2 63 06:45 23.05.2022
1955 Clouds -2 1015 90 10000 11.51 64 05:21 23.05.2022
1956 Clouds -3 1016 87 10000 10.79 57 02:19 23.05.2022
1957 Clouds -3 1017 87 10000 10.65 59 01:36 23.05.2022
1958 Clouds -3 1017 87 10000 10.1 58 23:42 22.05.2022
1959 Clouds -3 1018 88 10000 9.75 55 22:35 22.05.2022
1960 Clouds -2 1018 88 10000 8.85 58 21:55 22.05.2022
1961 Clouds -2 1018 90 10000 8.83 56 20:53 22.05.2022
1962 Clouds -2 1019 89 9727 8.44 60 20:27 22.05.2022
1963 Clouds -2 1019 88 10000 8.26 60 19:56 22.05.2022
1964 Clouds -2 1019 87 10000 8 61 18:55 22.05.2022
1965 Clouds -2 1019 84 10000 8.33 61 18:24 22.05.2022
1966 Clouds -2 1019 84 10000 8.33 61 17:32 22.05.2022
1967 Clouds -1 1019 87 10000 7.85 52 16:25 22.05.2022
1968 Clouds -1 1019 85 10000 7.74 54 14:48 22.05.2022
1969 Clouds -1 1020 82 10000 7.61 57 13:45 22.05.2022
1970 Clouds -1 1020 83 10000 7.53 54 12:50 22.05.2022
1971 Clouds -2 1019 82 10000 7.57 51 11:42 22.05.2022
1972 Clouds -2 1019 80 10000 7.09 46 09:43 22.05.2022
1973 Clouds -2 1019 81 10000 6.73 44 08:37 22.05.2022
1974 Clouds -3 1019 84 10000 6.34 38 07:22 22.05.2022
1975 Clouds -3 1020 83 10000 6.03 39 05:44 22.05.2022
1976 Clouds -3 1020 87 10000 4.51 38 01:43 22.05.2022
1977 Clouds -3 1019 88 10000 4.45 35 00:43 22.05.2022
1978 Clouds -3 1019 88 9313 4.17 38 23:55 21.05.2022
1979 Clouds -3 1019 88 9534 4.39 34 22:57 21.05.2022
1980 Clouds -3 1019 87 9240 4.75 30 21:43 21.05.2022
1981 Clouds -3 1019 86 8853 5.11 28 21:23 21.05.2022
1982 Clouds -3 1019 86 10000 5.25 26 20:24 21.05.2022
1983 Clouds -3 1019 85 6505 5.08 29 19:30 21.05.2022
1984 Clouds -3 1018 85 10000 5.47 25 17:51 21.05.2022
1985 Clouds -2 1018 82 10000 5.68 21 16:46 21.05.2022
1986 Clouds -2 1017 80 10000 6.29 19 14:38 21.05.2022
1987 Clouds -2 1017 80 10000 6.72 21 13:52 21.05.2022
1988 Clouds -2 1016 80 10000 6.82 20 12:50 21.05.2022
1989 Clouds -2 1016 80 10000 6.69 19 12:26 21.05.2022
1990 Clouds -2 1016 81 10000 6.35 19 10:34 21.05.2022
1991 Clouds -2 1015 81 10000 6.33 19 09:44 21.05.2022
1992 Clouds -2 1015 80 10000 6.29 17 08:57 21.05.2022
1993 Clouds -2 1015 82 10000 6.55 14 07:54 21.05.2022
1994 Clouds -2 1013 91 2183 6.97 21 04:29 21.05.2022
1995 Clouds -2 1011 94 4090 6.79 20 23:54 20.05.2022
1996 Clouds -2 1011 95 2541 7.06 19 22:57 20.05.2022
1997 Clouds -1 1011 95 1942 6.72 15 22:24 20.05.2022
1998 Clouds -1 1011 95 1942 6.72 15 21:43 20.05.2022
1999 Clouds -1 1011 93 5163 5.91 13 20:56 20.05.2022
2000 Clouds -1 1011 93 7989 5.66 8 19:59 20.05.2022
2001 Clouds -1 1011 92 10000 5.48 8 19:26 20.05.2022
2002 Clouds -1 1011 92 10000 5.48 8 18:46 20.05.2022
2003 Clouds -1 1011 90 10000 5.16 12 17:24 20.05.2022
2004 Clouds -1 1010 88 10000 5.39 10 16:19 20.05.2022
2005 Clouds -1 1010 88 10000 5.39 10 15:47 20.05.2022
2006 Clouds -1 1010 87 10000 5.12 19 14:30 20.05.2022
2007 Clouds -1 1010 87 10000 5.2 20 13:55 20.05.2022
2008 Clouds -1 1010 92 10000 4.54 357 11:34 20.05.2022
2009 Clouds -1 1010 86 10000 4.03 347 09:52 20.05.2022
2010 Clouds 0 1010 83 10000 3.35 338 08:44 20.05.2022
2011 Clouds -1 1009 79 10000 2.93 321 07:18 20.05.2022
2012 Clouds -1 1009 79 10000 2.93 321 06:32 20.05.2022
2013 Clouds -1 1009 83 10000 2.43 286 04:42 20.05.2022
2014 Clouds -4 1009 93 10000 2.35 245 00:48 20.05.2022
2015 Clouds -4 1009 95 10000 2.59 245 22:47 19.05.2022
2016 Clouds -4 1009 95 10000 2.76 235 22:19 19.05.2022
2017 Clouds -4 1009 95 10000 2.76 235 21:42 19.05.2022
2018 Clouds -3 1010 95 10000 2.88 228 21:22 19.05.2022
2019 Clouds -3 1010 95 10000 2.88 228 20:34 19.05.2022
2020 Clouds -3 1009 95 10000 2.61 240 19:50 19.05.2022
2021 Clouds -1 1009 92 10000 3.22 241 18:22 19.05.2022
2022 Clouds 0 1009 90 10000 3.26 246 16:35 19.05.2022
2023 Clouds 0 1009 87 10000 4.05 248 14:52 19.05.2022
2024 Clear 0 1009 86 10000 4.26 242 14:24 19.05.2022
2025 Clouds 1 1009 86 10000 4.07 241 13:20 19.05.2022
2026 Clouds 0 1009 87 10000 4.33 233 11:25 19.05.2022
2027 Clouds 0 1009 88 10000 4.48 229 09:27 19.05.2022
2028 Clouds -1 1008 89 10000 5.17 229 07:50 19.05.2022
2029 Clouds -2 1008 93 10000 5.69 228 05:32 19.05.2022
2030 Clouds -4 1007 94 10000 5.62 225 01:59 19.05.2022
2031 Clouds -4 1007 93 10000 5.84 232 23:57 18.05.2022
2032 Clouds -4 1006 93 10000 6.12 234 22:47 18.05.2022
2033 Clouds -3 1006 93 10000 6.23 235 21:51 18.05.2022
2034 Clouds -3 1006 93 10000 6.37 237 21:29 18.05.2022
2035 Clouds -3 1006 93 10000 6.37 237 20:41 18.05.2022
2036 Clouds -2 1006 92 10000 6.65 237 20:18 18.05.2022
2037 Clouds -1 1005 88 10000 6.99 246 18:28 18.05.2022
2038 Clouds -1 1005 88 10000 6.99 246 17:41 18.05.2022
2039 Clouds 0 1005 81 10000 7.23 250 17:23 18.05.2022
2040 Clouds 0 1005 81 10000 7.23 250 16:31 18.05.2022
2041 Clouds 0 1005 76 10000 7.73 253 15:41 18.05.2022
2042 Clouds 0 1004 74 10000 8.26 256 14:35 18.05.2022
2043 Clouds 0 1004 75 10000 8.69 259 13:35 18.05.2022
2044 Clouds 0 1004 78 10000 9.2 262 12:42 18.05.2022
2045 Clouds 0 1003 80 10000 9.57 265 11:34 18.05.2022
2046 Clouds 0 1002 81 10000 9.8 266 10:56 18.05.2022
2047 Clouds 0 1001 85 10000 9.63 265 09:24 18.05.2022
2048 Clouds -1 1000 84 10000 9.39 268 07:32 18.05.2022
2049 Clouds -1 999 87 10000 9.18 270 05:34 18.05.2022
2050 Clouds -2 997 89 10000 9.64 270 01:20 18.05.2022
2051 Clouds -2 997 90 10000 9.47 267 00:21 18.05.2022
2052 Clouds -1 996 93 3306 8.77 263 21:39 17.05.2022
2053 Clouds -1 996 94 1379 8.28 261 21:19 17.05.2022
2054 Clouds -1 995 94 1254 8.74 257 19:52 17.05.2022
2055 Clouds -1 995 93 3509 8.59 255 19:27 17.05.2022
2056 Clouds 0 995 93 6834 8.1 258 17:50 17.05.2022
2057 Clouds 0 995 94 1114 7.8 258 16:58 17.05.2022
2058 Clouds 0 995 95 1339 7.7 257 16:29 17.05.2022
2059 Clouds 0 995 95 1067 7.88 257 15:24 17.05.2022
2060 Clouds 0 995 95 1067 7.88 257 14:30 17.05.2022
2061 Clouds 0 996 98 473 7.23 259 13:32 17.05.2022
2062 Clouds 0 996 99 53 6.58 253 11:37 17.05.2022
2063 Clouds 0 995 99 139 7.04 274 09:23 17.05.2022
2064 Clouds 0 995 99 227 7 278 08:25 17.05.2022
2065 Snow 0 994 99 171 6.44 283 06:46 17.05.2022
2066 Clouds -1 994 97 1739 6.19 284 03:20 17.05.2022
2067 Snow -1 994 98 156 5.81 290 00:36 17.05.2022
2068 Snow -1 994 98 143 5.64 300 22:42 16.05.2022
2069 Snow -1 994 98 156 5.41 302 21:37 16.05.2022
2070 Snow -1 994 98 284 5.24 304 20:46 16.05.2022
2071 Snow -1 994 99 160 4.83 312 19:43 16.05.2022
2072 Snow 0 994 99 118 4.3 302 18:20 16.05.2022
2073 Snow 0 994 99 80 3.08 279 15:49 16.05.2022
2074 Clouds 0 994 100 112 2.26 298 13:49 16.05.2022
2075 Snow 0 994 100 77 2.37 296 13:23 16.05.2022
2076 Snow 0 994 100 120 2.22 303 11:20 16.05.2022
2077 Snow 0 994 100 292 2.51 302 09:30 16.05.2022
2078 Snow 0 993 100 174 2.04 314 06:47 16.05.2022
2079 Snow 0 994 100 104 2.58 348 03:31 16.05.2022
2080 Clouds 0 994 100 71 1.97 47 23:30 15.05.2022
2081 Clouds 0 995 100 67 1.97 58 22:29 15.05.2022
2082 Clouds 0 995 100 67 1.97 58 21:44 15.05.2022
2083 Clouds 0 996 100 66 1.97 58 20:54 15.05.2022
2084 Clouds 0 996 100 64 1.78 51 19:32 15.05.2022
2085 Clouds 0 996 100 65 2.32 51 17:51 15.05.2022
2086 Clouds 0 996 100 82 2.78 55 15:59 15.05.2022
2087 Snow 0 997 100 114 2.73 62 13:54 15.05.2022
2088 Snow 0 997 100 110 4.28 73 12:26 15.05.2022
2089 Snow 0 997 100 110 4.28 73 11:38 15.05.2022
2090 Snow 0 998 100 81 5.38 75 10:25 15.05.2022
2091 Snow 0 998 100 77 5.17 76 08:32 15.05.2022
2092 Clouds 1 998 98 127 6.6 73 06:58 15.05.2022
2093 Clouds 1 998 98 112 5.75 81 05:47 15.05.2022
2094 Clouds 0 1001 97 2852 4.97 82 00:49 15.05.2022
2095 Clouds 0 1001 97 2186 5.07 86 23:38 14.05.2022
2096 Clouds 0 1001 97 1660 4.65 80 22:47 14.05.2022
2097 Clouds 0 1002 97 540 4.78 84 21:29 14.05.2022
2098 Clouds 0 1002 97 540 4.78 84 20:51 14.05.2022
2099 Clouds 0 1003 98 445 5.15 88 19:38 14.05.2022
2100 Clouds 1 1003 96 1035 5.15 88 19:19 14.05.2022
2101 Clouds 1 1003 96 1035 5.15 88 18:41 14.05.2022
2102 Clouds 2 1003 93 949 5.12 89 16:38 14.05.2022
2103 Clouds 5 1003 87 936 4.58 92 15:23 14.05.2022
2104 Clouds 5 1003 87 936 4.58 92 14:33 14.05.2022
2105 Clouds 6 1004 78 1306 4.35 100 12:23 14.05.2022
2106 Clouds 7 1004 77 3256 4.34 107 10:58 14.05.2022
2107 Clouds 7 1005 78 3491 4.47 107 10:21 14.05.2022
2108 Clouds 7 1005 78 3491 4.47 107 09:53 14.05.2022
2109 Clouds 6 1005 82 3804 3.87 104 08:49 14.05.2022
2110 Clouds 3 1006 98 4316 2.52 140 05:47 14.05.2022
2111 Clouds 2 1005 100 253 2.58 190 02:39 14.05.2022
2112 Clouds 1 1005 99 113 3.47 217 23:36 13.05.2022
2113 Clouds 1 1005 99 102 3.58 216 22:58 13.05.2022
2114 Clouds 1 1005 99 107 3.88 221 22:25 13.05.2022
2115 Clouds 1 1005 99 107 3.88 221 21:52 13.05.2022
2116 Clouds 1 1004 99 116 3.88 218 20:45 13.05.2022
2117 Clouds 2 1004 99 133 4.1 212 20:27 13.05.2022
2118 Snow 2 1004 99 311 4.89 212 19:28 13.05.2022
2119 Rain 2 1004 98 490 5.47 210 17:50 13.05.2022
2120 Rain 3 1003 98 1581 5.94 210 17:27 13.05.2022
2121 Clouds 3 1003 97 10000 6.34 209 16:20 13.05.2022
2122 Clouds 3 1003 98 10000 6.59 210 15:28 13.05.2022
2123 Clouds 3 1003 98 1631 7.18 211 13:41 13.05.2022
2124 Rain 3 1002 98 155 9.06 209 12:28 13.05.2022
2125 Rain 3 1002 98 154 9.24 207 10:53 13.05.2022
2126 Clouds 3 1002 98 141 8.93 206 09:34 13.05.2022
2127 Clouds 3 1001 99 102 8.5 199 08:24 13.05.2022
2128 Clouds 3 1001 99 99 8.43 198 07:48 13.05.2022
2129 Clouds 2 1000 98 94 7.96 194 06:33 13.05.2022
2130 Clouds 2 1001 99 51 6.87 184 02:48 13.05.2022
2131 Clouds 2 1002 100 47 4.95 185 23:56 12.05.2022
2132 Rain 2 1002 99 47 4.21 180 22:44 12.05.2022
2133 Clouds 2 1002 99 304 3.73 175 21:54 12.05.2022
2134 Clouds 2 1003 91 10000 3.58 177 20:27 12.05.2022
2135 Clouds 2 1004 82 10000 3.73 160 18:50 12.05.2022
2136 Clouds 3 1005 77 10000 2.94 163 16:58 12.05.2022
2137 Clouds 3 1005 77 10000 2.72 151 15:50 12.05.2022
2138 Clouds 3 1006 78 10000 3.02 151 14:39 12.05.2022
2139 Clouds 2 1006 84 10000 2.63 151 13:38 12.05.2022
2140 Clouds 2 1007 91 10000 2.98 157 10:45 12.05.2022
2141 Clouds 2 1008 93 10000 2.85 185 09:24 12.05.2022
2142 Clouds 2 1008 93 10000 2.85 185 08:50 12.05.2022
2143 Clouds 1 1008 92 10000 3.17 187 07:38 12.05.2022
2144 Clouds 1 1009 91 10000 3.13 181 05:46 12.05.2022
2145 Clouds -1 1009 96 5896 3.81 208 02:49 12.05.2022
2146 Clouds -1 1010 98 406 5.21 217 00:35 12.05.2022
2147 Clouds -1 1010 97 1380 5.07 219 22:34 11.05.2022
2148 Clouds 0 1010 96 10000 5.12 222 21:38 11.05.2022
2149 Clouds 0 1010 95 10000 4.97 223 20:55 11.05.2022
2150 Clouds 1 1009 97 281 6.29 226 18:27 11.05.2022
2151 Clouds 1 1009 97 592 6.9 234 16:53 11.05.2022
2152 Clouds 1 1009 99 103 5.89 224 14:58 11.05.2022
2153 Clouds 1 1009 99 103 5.89 224 14:38 11.05.2022
2154 Snow 1 1009 99 99 5.29 217 14:18 11.05.2022
2155 Snow 0 1010 99 34 5.09 232 11:52 11.05.2022
2156 Clouds 0 1010 99 43 5.57 239 10:32 11.05.2022
2157 Snow 0 1009 99 30 5.23 236 08:37 11.05.2022
2158 Snow 0 1009 99 33 5.48 237 05:27 11.05.2022
2159 Snow 1 1009 97 32 10.78 238 00:42 11.05.2022
2160 Snow 1 1009 97 52 13.13 233 22:31 10.05.2022
2161 Snow 0 1009 96 129 13.73 230 21:56 10.05.2022
2162 Snow 0 1009 96 303 14.1 228 20:56 10.05.2022
2163 Clouds 1 1010 85 7007 14.1 224 19:27 10.05.2022
2164 Clouds 1 1011 81 10000 13.29 218 17:58 10.05.2022
2165 Clouds 1 1012 82 10000 12.42 218 17:21 10.05.2022
2166 Clear 0 1013 83 10000 10.88 220 15:28 10.05.2022
2167 Clear 0 1015 86 10000 9.9 219 12:39 10.05.2022
2168 Clear -1 1015 87 10000 9.53 219 11:50 10.05.2022
2169 Clouds -1 1015 88 10000 9.25 221 11:20 10.05.2022
2170 Clouds -2 1016 88 10000 9.46 220 10:26 10.05.2022
2171 Clouds -3 1016 88 10000 10.07 218 09:25 10.05.2022
2172 Clouds -4 1016 86 10000 10.02 217 06:54 10.05.2022
2173 Clouds -6 1017 87 10000 9.38 219 03:30 10.05.2022
2174 Clouds -7 1018 87 10000 7.86 217 00:38 10.05.2022
2175 Clear -7 1017 87 10000 6.36 218 22:56 09.05.2022
2176 Clear -7 1018 86 10000 5.85 222 21:50 09.05.2022
2177 Clear -7 1018 85 10000 5.36 222 20:52 09.05.2022
2178 Clouds -5 1018 84 10000 4.14 219 19:23 09.05.2022
2179 Clouds -5 1018 84 10000 3.63 222 17:51 09.05.2022
2180 Clouds -4 1018 82 10000 2.85 231 16:33 09.05.2022
2181 Clouds -3 1018 79 10000 2.55 252 15:52 09.05.2022
2182 Clouds -2 1017 76 10000 3.16 277 15:24 09.05.2022
2183 Clouds -2 1017 72 10000 4 299 14:29 09.05.2022
2184 Clouds -2 1017 72 10000 4 299 13:49 09.05.2022
2185 Clouds -2 1016 72 10000 4.71 308 12:26 09.05.2022
2186 Clouds -2 1016 72 10000 4.71 308 11:32 09.05.2022
2187 Clouds -2 1015 73 10000 4.97 314 10:42 09.05.2022
2188 Clouds -1 1014 75 10000 5.4 320 08:45 09.05.2022
2189 Clouds -1 1013 77 10000 5.46 317 07:54 09.05.2022
2190 Clouds -1 1009 95 3190 4.22 268 03:21 09.05.2022
2191 Clouds 0 1007 97 10000 4.27 254 23:34 08.05.2022
2192 Clouds 0 1006 98 186 3.47 251 22:55 08.05.2022
2193 Clouds 1 1006 98 77 4.11 244 21:55 08.05.2022
2194 Clouds 1 1006 98 77 4.11 244 21:55 08.05.2022
2195 Clouds 1 1006 98 64 5.14 240 20:35 08.05.2022
2196 Snow 2 1005 99 68 5.61 226 19:45 08.05.2022
2197 Rain 2 1005 98 52 6.24 215 18:54 08.05.2022
2198 Clouds 2 1005 98 54 7.19 211 17:59 08.05.2022
2199 Clouds 2 1005 98 64 8.16 213 16:43 08.05.2022
2200 Clouds 2 1004 98 93 8.77 213 15:39 08.05.2022
2201 Clouds 3 1004 98 71 9.27 216 14:45 08.05.2022
2202 Clouds 3 1005 99 51 9.84 210 12:27 08.05.2022
2203 Clouds 3 1004 99 58 10.04 209 10:32 08.05.2022
2204 Clouds 3 1004 99 36 9.01 206 09:57 08.05.2022
2205 Clouds 3 1005 99 39 8.72 205 08:56 08.05.2022
2206 Clouds 2 1005 99 51 8.67 211 06:58 08.05.2022
2207 Clouds 2 1005 99 63 7.66 214 03:35 08.05.2022
2208 Clouds 1 1005 98 76 7.22 211 02:45 08.05.2022
2209 Clouds 1 1006 97 49 7.05 193 00:24 08.05.2022
2210 Clouds 1 1006 97 49 7.05 193 23:49 07.05.2022
2211 Clouds 1 1006 96 1055 6.57 190 22:46 07.05.2022
2212 Clouds 0 1006 96 3181 6.05 192 21:58 07.05.2022
2213 Clouds 0 1006 96 3181 6.05 192 21:34 07.05.2022
2214 Clouds 0 1008 93 10000 5.65 209 20:28 07.05.2022
2215 Clouds 0 1008 94 10000 4.54 213 19:23 07.05.2022
2216 Clouds 0 1008 91 10000 3.96 219 17:34 07.05.2022
2217 Clouds 0 1008 89 10000 5.45 203 15:41 07.05.2022
2218 Clouds -1 1009 89 10000 6.31 193 13:39 07.05.2022
2219 Clouds -2 1009 85 10000 6.57 184 10:41 07.05.2022
2220 Clouds -4 1009 82 10000 5.83 185 08:57 07.05.2022
2221 Clouds -4 1009 83 10000 6.11 186 07:50 07.05.2022
2222 Clouds -5 1010 83 10000 5.97 184 06:43 07.05.2022
2223 Clouds -8 1011 87 10000 5.54 189 04:35 07.05.2022
2224 Clouds -11 1013 91 10000 4.65 206 00:56 07.05.2022
2225 Clouds -11 1013 90 10000 4.3 214 23:28 06.05.2022
2226 Clouds -11 1013 90 10000 4.23 215 22:26 06.05.2022
2227 Clouds -11 1013 90 10000 4.23 215 21:36 06.05.2022
2228 Clouds -10 1014 88 10000 3.98 213 20:20 06.05.2022
2229 Clouds -10 1014 87 10000 3.7 218 19:29 06.05.2022
2230 Clouds -10 1014 87 10000 3.7 218 19:29 06.05.2022
2231 Clouds -10 1014 87 10000 3.7 218 18:54 06.05.2022
2232 Clouds -10 1014 86 10000 3.56 217 17:38 06.05.2022
2233 Clouds -8 1014 87 10000 2.96 226 15:56 06.05.2022
2234 Clouds -8 1014 87 10000 2.96 226 15:38 06.05.2022
2235 Clouds -6 1014 84 10000 3.24 255 14:23 06.05.2022
2236 Clouds -6 1014 84 10000 3.7 252 12:53 06.05.2022
2237 Clouds -6 1014 84 10000 3.7 252 12:30 06.05.2022
2238 Clouds -7 1014 82 10000 3.87 250 11:33 06.05.2022
2239 Clouds -8 1013 81 10000 3.54 248 09:49 06.05.2022
2240 Clear -8 1013 83 10000 3.08 252 09:19 06.05.2022
2241 Clouds -9 1012 86 10000 2.54 257 07:57 06.05.2022
2242 Clouds -11 1011 90 10000 2.56 259 06:29 06.05.2022
2243 Clouds -12 1010 92 10000 2.85 256 04:32 06.05.2022
2244 Clouds -14 1009 92 10000 3.58 247 02:40 06.05.2022
2245 Clouds -14 1007 94 10000 3.34 237 23:25 05.05.2022
2246 Clouds -13 1006 93 10000 3.67 233 21:51 05.05.2022
2247 Clouds -12 1006 91 10000 3.44 228 20:37 05.05.2022
2248 Clouds -12 1005 93 10000 3.62 230 19:42 05.05.2022
2249 Clouds -7 1004 81 10000 3.25 233 16:51 05.05.2022
2250 Clouds -6 1004 78 10000 3.32 245 15:48 05.05.2022
2251 Clouds -6 1004 78 10000 3.94 251 14:34 05.05.2022
2252 Clouds -6 1004 75 10000 5.32 272 13:18 05.05.2022
2253 Clouds -6 1004 74 10000 6.38 276 11:48 05.05.2022
2254 Clouds -6 1002 80 10000 6.06 271 10:28 05.05.2022
2255 Clouds -6 1002 80 10000 6.06 271 09:32 05.05.2022
2256 Clouds -8 1000 78 10000 6.85 291 06:49 05.05.2022
2257 Clouds -8 998 89 10000 7.97 298 02:30 05.05.2022
2258 Snow -8 996 94 205 8.19 303 01:47 05.05.2022
2259 Snow -8 995 93 254 8.35 302 01:19 05.05.2022
2260 Snow -8 993 91 1375 10.11 310 23:27 04.05.2022
2261 Clouds -8 991 92 738 10.79 312 22:23 04.05.2022
2262 Clouds -8 991 92 738 10.79 312 21:46 04.05.2022
2263 Snow -7 990 93 287 11.38 314 21:18 04.05.2022
2264 Snow -7 989 93 176 11.38 315 20:20 04.05.2022
2265 Snow -7 989 94 153 12.09 314 19:44 04.05.2022
2266 Snow -7 987 93 161 12.28 313 18:44 04.05.2022
2267 Snow -7 986 93 214 12.73 308 18:20 04.05.2022
2268 Snow -6 984 93 174 12.32 303 17:22 04.05.2022
2269 Snow -6 983 94 210 9.59 294 15:35 04.05.2022
2270 Snow -3 982 95 309 7.46 286 14:46 04.05.2022
2271 Snow 0 981 96 387 5.88 234 14:20 04.05.2022
2272 Snow 0 981 96 387 5.88 234 14:20 04.05.2022
2273 Snow -1 982 97 181 5.58 262 12:58 04.05.2022
2274 Snow 0 982 98 62 7.73 221 12:24 04.05.2022
2275 Snow 1 982 97 51 8.52 213 10:30 04.05.2022
2276 Snow 0 982 99 42 3.8 157 09:23 04.05.2022
2277 Snow 0 982 99 42 3.8 157 08:33 04.05.2022
2278 Snow -6 986 95 101 9.92 90 05:44 04.05.2022
2279 Snow -7 990 94 151 10.89 95 02:43 04.05.2022
2280 Snow -7 994 93 680 9.98 95 23:31 03.05.2022
2281 Clouds -6 996 78 10000 8.6 100 22:00 03.05.2022
2282 Clouds -6 996 78 10000 8.6 100 21:33 03.05.2022
2283 Clouds -7 997 80 10000 7.85 101 20:52 03.05.2022
2284 Clouds -7 998 86 10000 7.03 97 19:39 03.05.2022
2285 Clouds -7 999 85 10000 6.31 99 18:48 03.05.2022
2286 Clouds -7 1000 84 10000 5.37 102 17:34 03.05.2022
2287 Clouds -7 1000 81 10000 4.1 108 16:28 03.05.2022
2288 Clouds -6 1001 76 10000 3.76 109 14:43 03.05.2022
2289 Clear -5 1002 72 10000 2.1 102 12:46 03.05.2022
2290 Clear -6 1002 71 10000 0.98 108 12:22 03.05.2022
2291 Clear -6 1002 70 10000 0.3 232 10:52 03.05.2022
2292 Clear -7 1001 74 10000 1.91 268 08:38 03.05.2022
2293 Clouds -8 1001 80 10000 2.96 261 06:46 03.05.2022
2294 Clouds -10 1000 91 10000 3.01 259 03:34 03.05.2022
2295 Clouds -7 999 91 10000 3.27 262 23:32 02.05.2022
2296 Clouds -7 999 93 10000 3.5 272 22:34 02.05.2022
2297 Snow -6 999 95 1431 4.19 269 21:48 02.05.2022
2298 Clouds -6 999 95 413 4.48 248 20:48 02.05.2022
2299 Clouds -8 1000 84 10000 4.22 224 18:28 02.05.2022
2300 Clouds -8 1000 84 10000 4.22 224 17:44 02.05.2022
2301 Clouds -7 1000 82 10000 3.78 228 16:47 02.05.2022
2302 Clouds -6 1001 79 10000 3.9 231 15:56 02.05.2022
2303 Clouds -5 1001 78 10000 4.03 233 14:56 02.05.2022
2304 Clouds -5 1001 78 10000 4.33 241 13:47 02.05.2022
2305 Clouds -5 1001 72 10000 3.99 248 11:51 02.05.2022
2306 Clouds -5 1001 74 10000 4.05 253 10:18 02.05.2022
2307 Clouds -6 1001 75 10000 3.96 261 08:46 02.05.2022
2308 Clouds -6 1001 78 10000 3.78 259 07:30 02.05.2022
2309 Clouds -8 1003 92 10000 4.47 245 01:28 02.05.2022
2310 Clouds -8 1003 93 10000 4.59 244 00:23 02.05.2022
2311 Clouds -8 1003 93 10000 4.59 244 23:43 01.05.2022
2312 Snow -7 1002 94 871 5.53 250 21:46 01.05.2022
2313 Snow -7 1002 90 1647 5.66 245 20:50 01.05.2022
2314 Clouds -7 1003 89 2529 5.56 247 19:46 01.05.2022
2315 Clouds -7 1003 86 6054 5.74 246 18:53 01.05.2022
2316 Clouds -7 1003 84 10000 5.68 247 17:57 01.05.2022
2317 Snow -6 1003 81 10000 6.07 253 16:46 01.05.2022
2318 Clouds -5 1003 80 10000 6.11 263 16:23 01.05.2022
2319 Snow -5 1003 77 10000 5.97 268 14:58 01.05.2022
2320 Snow -4 1003 73 10000 7.55 270 13:23 01.05.2022
2321 Snow -4 1003 92 234 7.92 244 10:46 01.05.2022
2322 Snow -4 1003 85 3905 7.63 241 08:51 01.05.2022
2323 Snow -6 1003 90 796 7.98 238 06:53 01.05.2022
2324 Clouds -8 1003 90 10000 6.03 241 02:51 01.05.2022
2325 Clouds -8 1003 90 10000 6.41 242 22:52 30.04.2022
2326 Clouds -7 1003 89 10000 6.81 241 21:34 30.04.2022
2327 Clouds -6 1003 86 10000 7.01 243 20:24 30.04.2022
2328 Clouds -6 1002 84 10000 7.37 243 19:33 30.04.2022
2329 Clouds -4 1002 80 10000 7.33 250 17:38 30.04.2022
2330 Clouds -4 1002 80 10000 7.75 257 16:30 30.04.2022
2331 Snow -4 1002 92 777 9.62 252 15:19 30.04.2022
2332 Snow -4 1002 92 777 9.62 252 14:30 30.04.2022
2333 Snow -4 1002 90 984 10.73 234 12:28 30.04.2022
2334 Snow -4 1002 90 984 10.73 234 11:32 30.04.2022
2335 Snow -5 1002 90 1726 11.17 235 10:30 30.04.2022
2336 Clouds -5 1002 90 3372 11.8 217 08:26 30.04.2022
2337 Clouds -7 1003 91 10000 9.06 222 05:19 30.04.2022
2338 Clouds -9 1003 90 10000 9.07 219 00:35 30.04.2022
2339 Clouds -8 1004 88 10000 9.11 224 23:29 29.04.2022
2340 Clouds -7 1004 87 10000 9.4 228 22:29 29.04.2022
2341 Clouds -7 1004 84 10000 9.58 230 21:26 29.04.2022
2342 Clouds -7 1004 84 10000 9.58 230 20:36 29.04.2022
2343 Clouds -7 1004 80 10000 9.86 231 19:33 29.04.2022
2344 Clouds -6 1004 87 10000 8.71 235 17:48 29.04.2022
2345 Clouds -5 1004 87 10000 8.48 242 16:43 29.04.2022
2346 Snow -5 1004 87 10000 6.34 235 14:38 29.04.2022
2347 Snow -5 1004 87 10000 6.34 235 14:38 29.04.2022
2348 Snow -5 1004 87 10000 6.34 235 14:38 29.04.2022
2349 Snow -5 1004 87 10000 6.34 235 14:38 29.04.2022
2350 Clouds -5 1005 82 10000 8.3 231 13:59 29.04.2022
2351 Clouds -4 1005 82 10000 8.84 233 12:41 29.04.2022
2352 Clouds -5 1005 87 10000 8.87 228 10:57 29.04.2022
2353 Clouds -7 1005 85 10000 9.67 208 08:18 29.04.2022
2354 Clouds -8 1005 85 10000 9.38 209 07:27 29.04.2022
2355 Clouds -8 1005 85 10000 9.37 209 06:34 29.04.2022
2356 Clouds -7 1006 90 10000 7.82 223 03:23 29.04.2022
2357 Clouds -9 1007 92 6944 7.83 204 00:18 29.04.2022
2358 Clouds -8 1007 92 4338 7.68 207 23:26 28.04.2022
2359 Clouds -8 1007 92 4338 7.68 207 22:37 28.04.2022
2360 Clouds -8 1007 92 4639 7.02 213 21:44 28.04.2022
2361 Clouds -6 1007 91 4012 7.3 227 20:49 28.04.2022
2362 Clouds -7 1008 90 10000 6.78 233 19:57 28.04.2022
2363 Clouds -7 1008 90 10000 6.78 233 19:39 28.04.2022
2364 Clouds -6 1008 90 3456 8.07 239 19:19 28.04.2022
2365 Snow -6 1008 91 728 9.63 234 17:56 28.04.2022
2366 Snow -7 1008 91 316 10.66 224 16:58 28.04.2022
2367 Clouds -7 1007 87 505 11.74 218 16:21 28.04.2022
2368 Clouds -7 1007 87 505 11.74 218 15:52 28.04.2022
2369 Clear -7 1008 76 10000 12.11 214 15:21 28.04.2022
2370 Clear -7 1008 77 10000 11.39 209 13:43 28.04.2022
2371 Clear -7 1009 74 10000 10.96 213 12:32 28.04.2022
2372 Clear -7 1009 73 10000 10.53 217 11:38 28.04.2022
2373 Clear -7 1009 78 10000 9.73 226 10:27 28.04.2022
2374 Clear -7 1009 78 10000 9.73 226 09:50 28.04.2022
2375 Clouds -8 1009 84 10000 7.83 220 07:44 28.04.2022
2376 Clouds -8 1009 85 10000 7.3 224 06:53 28.04.2022
2377 Clouds -8 1008 83 10000 7.59 243 05:53 28.04.2022
2378 Clouds -8 1007 88 10000 8.32 250 04:43 28.04.2022
2379 Clouds -9 1006 83 8838 8.4 252 02:45 28.04.2022
2380 Snow -7 1002 88 1777 11.46 249 23:36 27.04.2022
2381 Clouds -7 1000 81 10000 12.63 238 22:22 27.04.2022
2382 Clouds -7 1000 81 10000 12.63 238 21:47 27.04.2022
2383 Clouds -6 1000 82 6549 12.76 240 20:47 27.04.2022
2384 Clouds -6 999 81 10000 13.29 240 20:29 27.04.2022
2385 Clouds -6 1000 82 10000 13.4 238 19:36 27.04.2022
2386 Clouds -6 999 79 10000 12.5 238 18:42 27.04.2022
2387 Clouds -5 999 80 10000 11.88 240 18:21 27.04.2022
2388 Clear -4 998 75 10000 11.92 248 16:20 27.04.2022
2389 Clouds -3 996 74 10000 11.21 264 13:21 27.04.2022
2390 Clouds -2 995 74 10000 11.41 271 11:37 27.04.2022
2391 Snow -3 994 78 10000 11.17 281 10:51 27.04.2022
2392 Snow -1 989 96 148 10.11 284 08:31 27.04.2022
2393 Snow 0 987 98 52 5.79 264 06:44 27.04.2022
2394 Snow -2 989 97 152 4.12 117 02:40 27.04.2022
2395 Snow -4 991 97 131 6.75 105 01:24 27.04.2022
2396 Snow -4 991 97 131 6.75 105 00:35 27.04.2022
2397 Clouds -3 994 89 10000 6.05 102 23:24 26.04.2022
2398 Clouds -3 994 89 10000 6.05 102 22:52 26.04.2022
2399 Clouds -3 994 89 10000 6.05 102 22:32 26.04.2022
2400 Clouds -2 997 90 10000 5.94 117 21:25 26.04.2022
2401 Clouds -2 997 90 10000 5.94 117 20:40 26.04.2022
2402 Clouds -2 997 90 10000 5.94 117 20:40 26.04.2022
2403 Clouds -2 998 91 10000 5.94 119 19:48 26.04.2022
2404 Clouds -1 999 91 10000 6.24 121 19:26 26.04.2022
2405 Clouds -1 999 91 10000 6.24 121 18:40 26.04.2022
2406 Clouds -1 1001 91 10000 5.4 122 17:50 26.04.2022
2407 Clouds 0 1003 94 10000 4.52 117 16:19 26.04.2022
2408 Clouds 0 1005 98 1711 3.09 128 13:58 26.04.2022
2409 Clouds 0 1006 94 2910 3.06 142 13:29 26.04.2022
2410 Clouds -1 1007 89 10000 3.45 145 11:29 26.04.2022
2411 Clouds -1 1007 89 10000 3.45 145 10:31 26.04.2022
2412 Clouds -3 1008 88 10000 2.69 146 08:38 26.04.2022
2413 Clouds -7 1009 95 10000 2.17 198 05:46 26.04.2022
2414 Clouds -9 1009 96 10000 2.88 209 04:23 26.04.2022
2415 Clouds -9 1010 93 10000 3.73 223 00:53 26.04.2022
2416 Clouds -8 1010 92 10000 3.67 226 23:52 25.04.2022
2417 Clouds -9 1010 92 10000 3.59 221 22:18 25.04.2022
2418 Clouds -9 1010 92 10000 3.59 221 21:33 25.04.2022
2419 Clouds -9 1010 93 10000 3.41 222 20:26 25.04.2022
2420 Clouds -9 1010 92 10000 3.09 230 18:52 25.04.2022
2421 Clouds -7 1010 91 10000 2.83 239 17:40 25.04.2022
2422 Clouds -6 1009 90 10000 2.8 253 16:50 25.04.2022
2423 Clouds -3 1009 84 10000 3.53 284 15:23 25.04.2022
2424 Clouds -3 1009 84 10000 3.53 284 14:34 25.04.2022
2425 Clouds -1 1008 84 10000 4.64 310 13:21 25.04.2022
2426 Snow -1 1007 93 1935 4.88 289 10:44 25.04.2022
2427 Clouds -1 1006 93 1172 4.89 257 09:42 25.04.2022
2428 Clouds -3 1006 91 10000 6.11 218 07:56 25.04.2022
2429 Clouds -5 1006 92 10000 5.83 216 05:55 25.04.2022
2430 Clouds -7 1008 92 10000 6.3 206 01:49 25.04.2022
2431 Clouds -6 1008 94 10000 5.54 211 23:57 24.04.2022
2432 Clouds -5 1009 94 6418 5.34 215 23:28 24.04.2022
2433 Clouds -5 1009 94 6418 5.34 215 22:39 24.04.2022
2434 Clouds -5 1009 95 1595 5.16 219 21:56 24.04.2022
2435 Snow -4 1009 95 660 5.49 223 21:22 24.04.2022
2436 Snow -4 1009 95 660 5.49 223 21:22 24.04.2022
2437 Snow -4 1009 95 660 5.49 223 20:46 24.04.2022
2438 Snow -3 1009 96 343 4.77 237 20:21 24.04.2022
2439 Snow -3 1010 97 334 4.59 233 18:44 24.04.2022
2440 Clouds -3 1010 95 628 5.1 224 17:54 24.04.2022
2441 Clouds -3 1010 95 628 5.1 224 17:54 24.04.2022
2442 Clouds -3 1010 95 1188 5.58 221 17:21 24.04.2022
2443 Clouds -3 1010 95 1188 5.58 221 16:55 24.04.2022
2444 Clouds -3 1011 94 2189 5.79 224 16:29 24.04.2022
2445 Clouds -3 1011 94 2189 5.79 224 15:43 24.04.2022
2446 Clouds -3 1011 93 6843 6.15 224 14:36 24.04.2022
2447 Clouds -5 1012 91 10000 6.77 234 13:27 24.04.2022
2448 Clouds -5 1012 91 10000 6.77 234 12:56 24.04.2022
2449 Clouds -6 1012 90 6417 7.31 235 11:50 24.04.2022
2450 Clouds -7 1012 90 3385 7.56 233 10:47 24.04.2022
2451 Clouds -8 1012 90 6381 7.79 229 09:47 24.04.2022
2452 Clouds -9 1013 90 1344 7.88 224 07:55 24.04.2022
2453 Snow -11 1014 91 677 7.81 222 05:45 24.04.2022
2454 Clouds -12 1016 87 10000 7.31 224 02:30 24.04.2022
2455 Clouds -12 1017 89 10000 7.07 227 00:45 24.04.2022
2456 Clouds -12 1018 89 10000 6.79 229 23:46 23.04.2022
2457 Clouds -12 1018 90 10000 7.01 230 23:25 23.04.2022
2458 Clouds -12 1019 91 10000 7.09 231 21:58 23.04.2022
2459 Clouds -12 1019 91 10000 7.09 231 21:36 23.04.2022
2460 Clouds -12 1019 91 10000 7.07 232 20:59 23.04.2022
2461 Clouds -12 1020 91 10000 6.77 233 19:56 23.04.2022
2462 Clouds -13 1021 91 10000 6.43 234 19:20 23.04.2022
2463 Clouds -13 1021 91 10000 6.43 234 18:53 23.04.2022
2464 Clouds -13 1021 91 10000 6.43 234 18:31 23.04.2022
2465 Clouds -13 1022 92 10000 5.81 233 17:44 23.04.2022
2466 Clouds -13 1022 93 10000 5.02 229 16:44 23.04.2022
2467 Clouds -13 1023 93 10000 4.33 226 15:35 23.04.2022
2468 Clouds -12 1024 89 10000 3.61 248 12:59 23.04.2022
2469 Clouds -12 1025 87 10000 3.1 257 11:24 23.04.2022
2470 Clouds -13 1025 87 10000 2.81 260 09:38 23.04.2022
2471 Clouds -14 1026 90 10000 1.83 258 07:52 23.04.2022
2472 Clouds -18 1026 99 3170 1.48 234 03:56 23.04.2022
2473 Clouds -20 1026 100 2853 1.54 241 01:58 23.04.2022
2474 Clouds -20 1026 100 2176 1.62 245 23:34 22.04.2022
2475 Clouds -20 1026 100 2162 1.49 244 22:32 22.04.2022
2476 Clouds -20 1026 100 2475 1.16 254 21:44 22.04.2022
2477 Clouds -19 1026 100 3425 0.83 275 21:20 22.04.2022
2478 Clouds -18 1026 100 3850 0.76 324 20:28 22.04.2022
2479 Clouds -18 1026 100 3580 1.06 329 19:23 22.04.2022
2480 Clouds -18 1026 100 3580 1.06 329 18:52 22.04.2022
2481 Clouds -17 1026 98 6040 1.57 338 17:54 22.04.2022
2482 Clouds -15 1026 95 10000 1.89 339 16:52 22.04.2022
2483 Clouds -13 1026 90 10000 2.25 349 15:47 22.04.2022
2484 Clouds -12 1026 87 10000 2.75 353 15:22 22.04.2022
2485 Clouds -12 1027 84 10000 3.63 355 13:54 22.04.2022
2486 Clouds -13 1026 81 10000 3.86 356 13:27 22.04.2022
2487 Clouds -13 1026 81 10000 3.86 358 12:29 22.04.2022
2488 Clouds -13 1026 82 10000 3.82 2 11:22 22.04.2022
2489 Clouds -13 1026 82 10000 3.82 2 10:52 22.04.2022
2490 Clouds -13 1026 82 10000 3.82 2 10:31 22.04.2022
2491 Clouds -13 1026 84 10000 4 6 09:53 22.04.2022
2492 Clouds -14 1026 87 10000 4.15 6 08:56 22.04.2022
2493 Clouds -15 1026 89 10000 4.05 3 07:44 22.04.2022
2494 Clouds -18 1026 100 5457 2.79 340 04:24 22.04.2022
2495 Clouds -18 1026 100 3176 2.99 344 00:52 22.04.2022
2496 Clouds -17 1026 100 2177 3.34 348 23:28 21.04.2022
2497 Clouds -16 1026 100 2661 3.57 346 22:29 21.04.2022
2498 Clouds -15 1026 99 2472 3.85 348 20:46 21.04.2022
2499 Clouds -14 1026 98 1683 4.31 349 20:26 21.04.2022
2500 Clouds -15 1026 98 2160 4.05 349 18:47 21.04.2022
2501 Clouds -14 1026 96 2784 4.34 354 18:19 21.04.2022
2502 Clouds -13 1026 92 3508 5.33 2 16:47 21.04.2022
2503 Clouds -12 1026 89 2379 6.27 360 15:22 21.04.2022
2504 Clouds -12 1026 89 2379 6.27 360 14:50 21.04.2022
2505 Clouds -11 1026 85 5575 6.75 1 13:24 21.04.2022
2506 Clouds -11 1026 85 5575 6.75 1 12:59 21.04.2022
2507 Clouds -11 1026 85 9734 6.8 1 10:57 21.04.2022
2508 Clouds -12 1026 86 10000 6.88 360 08:57 21.04.2022
2509 Clouds -13 1025 88 10000 6.89 356 07:49 21.04.2022
2510 Clouds -14 1025 93 7810 6.19 347 05:44 21.04.2022
2511 Clouds -15 1025 95 4926 5.77 338 03:32 21.04.2022
2512 Clouds -15 1025 96 5449 5.55 334 02:47 21.04.2022
2513 Clouds -15 1025 95 7495 5.79 333 01:41 21.04.2022
2514 Clouds -15 1024 94 10000 5.72 339 23:51 20.04.2022
2515 Clouds -15 1023 93 10000 5.98 340 23:22 20.04.2022
2516 Clouds -15 1023 93 10000 5.98 340 22:51 20.04.2022
2517 Clouds -15 1023 93 10000 5.98 340 22:31 20.04.2022
2518 Clouds -15 1023 92 10000 6.1 341 21:33 20.04.2022
2519 Clouds -14 1023 91 10000 6.33 342 20:37 20.04.2022
2520 Clouds -14 1022 90 10000 6.59 344 19:53 20.04.2022
2521 Clouds -13 1021 89 7726 7.61 344 19:22 20.04.2022
2522 Clouds -13 1021 87 5499 7.43 343 18:23 20.04.2022
2523 Clouds -13 1021 83 10000 7.09 342 16:56 20.04.2022
2524 Clouds -13 1021 83 10000 7.09 342 16:37 20.04.2022
2525 Clouds -12 1020 81 10000 7.85 338 14:21 20.04.2022
2526 Clouds -12 1019 78 10000 6.83 339 11:55 20.04.2022
2527 Clouds -12 1019 76 10000 7.4 344 11:25 20.04.2022
2528 Clouds -12 1019 76 10000 7.26 345 10:24 20.04.2022
2529 Clouds -12 1018 83 10000 6.98 343 09:25 20.04.2022
2530 Clouds -11 1017 91 3290 7.28 351 08:22 20.04.2022
2531 Clouds -11 1017 91 3290 7.28 351 08:22 20.04.2022
2532 Clouds -11 1017 91 3290 7.28 351 07:42 20.04.2022
2533 Clouds -13 1014 95 930 6.47 334 03:54 20.04.2022
2534 Clouds -11 1011 95 7976 6.34 332 00:24 20.04.2022
2535 Clouds -11 1011 95 7976 6.34 332 23:59 19.04.2022
2536 Clouds -9 1009 93 10000 6.34 330 22:28 19.04.2022
2537 Clouds -9 1009 93 10000 6.34 330 21:57 19.04.2022
2538 Clouds -9 1009 93 10000 6.34 330 21:33 19.04.2022
2539 Clouds -7 1008 93 7763 6.85 333 20:50 19.04.2022
2540 Clouds -7 1008 93 7763 6.85 333 20:32 19.04.2022
2541 Clouds -3 1006 84 10000 8 347 19:24 19.04.2022
2542 Snow -2 1004 95 1131 7.51 336 17:51 19.04.2022
2543 Snow 0 1003 98 82 7.78 316 16:43 19.04.2022
2544 Snow 1 1003 98 38 7.2 282 16:24 19.04.2022
2545 Clouds 1 1003 98 77 6.7 277 14:51 19.04.2022
2546 Clouds 1 1003 98 77 6.7 277 14:30 19.04.2022
2547 Clouds 1 1003 98 396 7.6 271 12:51 19.04.2022
2548 Clouds 1 1003 98 75 7.98 264 12:26 19.04.2022
2549 Snow 1 1003 98 58 8.23 256 10:50 19.04.2022
2550 Snow -1 1004 94 445 9.91 227 09:23 19.04.2022
2551 Snow -3 1005 93 489 8.39 211 06:30 19.04.2022
2552 Clouds -7 1009 93 658 5.75 204 03:59 19.04.2022
2553 Clouds -9 1011 93 10000 3.45 205 00:56 19.04.2022
2554 Clouds -10 1012 94 10000 3.01 207 23:38 18.04.2022
2555 Clouds -14 1013 97 10000 3.01 200 21:38 18.04.2022
2556 Clouds -15 1013 98 6545 2.65 203 21:20 18.04.2022
2557 Clouds -15 1013 98 6545 2.65 203 20:36 18.04.2022
2558 Clouds -15 1013 99 6544 2.22 202 19:57 18.04.2022
2559 Clouds -15 1013 100 6553 1.26 202 18:58 18.04.2022
2560 Clouds -15 1013 100 6553 1.26 202 18:32 18.04.2022
2561 Clouds -14 1013 100 7473 0.16 127 17:38 18.04.2022
2562 Clouds -12 1013 98 10000 1.37 29 17:18 18.04.2022
2563 Clouds -12 1013 98 10000 1.37 29 16:34 18.04.2022
2564 Clouds -7 1013 90 10000 2.85 13 15:27 18.04.2022
2565 Clouds -5 1012 88 10000 3.68 7 13:42 18.04.2022
2566 Clouds -5 1012 88 10000 3.68 7 13:42 18.04.2022
2567 Clouds -4 1011 85 10000 4.49 0 12:40 18.04.2022
2568 Clouds -4 1011 82 10000 4.66 350 11:42 18.04.2022
2569 Clouds -3 1010 83 10000 4.55 346 10:42 18.04.2022
2570 Clouds -3 1009 88 10000 5.16 337 09:31 18.04.2022
2571 Clouds -1 1007 92 7453 6.16 311 08:28 18.04.2022
2572 Clouds -1 1007 95 2561 6.11 265 05:58 18.04.2022
2573 Clouds -4 1007 94 830 6.57 230 01:37 18.04.2022
2574 Clouds -4 1008 92 3380 6.89 225 22:44 17.04.2022
2575 Clouds -5 1008 92 3890 7.13 225 21:51 17.04.2022
2576 Clouds -5 1008 92 3890 7.13 225 21:32 17.04.2022
2577 Clouds -5 1009 92 1582 7.18 223 20:50 17.04.2022
2578 Clouds -5 1010 92 1429 7.19 223 19:53 17.04.2022
2579 Clouds -6 1010 92 10000 7.49 222 18:32 17.04.2022
2580 Clouds -6 1011 91 10000 7.38 220 16:33 17.04.2022
2581 Clouds -6 1011 91 10000 7.59 220 15:32 17.04.2022
2582 Clouds -6 1011 90 10000 7.46 224 14:28 17.04.2022
2583 Clouds -6 1011 91 10000 7.29 225 13:20 17.04.2022
2584 Clouds -6 1011 90 10000 7.49 227 12:29 17.04.2022
2585 Clouds -7 1011 90 10000 7.39 227 10:47 17.04.2022
2586 Clouds -7 1011 90 10000 7.08 229 10:29 17.04.2022
2587 Clouds -7 1011 90 10000 7.08 229 09:49 17.04.2022
2588 Clouds -8 1012 91 10000 6.74 232 08:54 17.04.2022
2589 Clouds -9 1012 90 10000 6.34 232 08:26 17.04.2022
2590 Clouds -12 1013 95 10000 5.81 223 04:52 17.04.2022
2591 Clouds -16 1014 95 10000 4.21 220 01:39 17.04.2022
2592 Clouds -17 1015 91 10000 3.54 218 23:57 16.04.2022
2593 Clouds -18 1015 92 10000 2.96 218 22:50 16.04.2022
2594 Clouds -18 1015 93 10000 2.42 225 21:42 16.04.2022
2595 Clouds -18 1015 95 10000 1.82 241 20:45 16.04.2022
2596 Clouds -16 1015 96 10000 1.42 305 19:20 16.04.2022
2597 Clouds -16 1015 96 10000 1.42 305 18:32 16.04.2022
2598 Clouds -10 1015 92 10000 2.91 342 16:41 16.04.2022
2599 Clouds -8 1015 89 10000 3.99 349 15:46 16.04.2022
2600 Clouds -7 1015 89 6723 4.78 357 14:57 16.04.2022
2601 Clouds -6 1014 90 2171 5.44 357 13:58 16.04.2022
2602 Clouds -6 1014 90 2171 5.44 357 13:40 16.04.2022
2603 Clouds -6 1014 89 1446 5.7 358 12:33 16.04.2022
2604 Clouds -6 1014 88 1783 5.66 355 11:19 16.04.2022
2605 Clouds -6 1014 89 1141 5.52 355 09:57 16.04.2022
2606 Clouds -7 1014 90 818 5.37 354 08:59 16.04.2022
2607 Snow -7 1014 92 507 5.26 352 08:18 16.04.2022
2608 Clouds -8 1013 93 570 4.74 346 06:59 16.04.2022
2609 Clouds -10 1013 96 721 3.78 321 03:48 16.04.2022
2610 Clouds -10 1013 97 679 3.47 303 00:35 16.04.2022
2611 Clouds -8 1013 92 1893 4.68 328 23:27 15.04.2022
2612 Clouds -8 1013 92 1893 4.68 328 22:37 15.04.2022
2613 Clouds -7 1013 91 1655 5.61 332 21:58 15.04.2022
2614 Clouds -7 1013 90 1668 6.1 327 21:18 15.04.2022
2615 Clouds -7 1013 89 1555 6.45 322 20:27 15.04.2022
2616 Clouds -7 1012 91 959 6.43 321 19:40 15.04.2022
2617 Clouds -7 1012 88 1235 7.19 320 18:54 15.04.2022
2618 Clouds -7 1011 90 1201 7.62 317 18:25 15.04.2022
2619 Clouds -7 1011 90 1201 7.62 317 17:48 15.04.2022
2620 Clouds -6 1011 91 781 7.85 314 17:21 15.04.2022
2621 Clouds -6 1010 89 1161 8.66 313 16:23 15.04.2022
2622 Clouds -6 1009 90 1752 9.15 311 15:24 15.04.2022
2623 Snow -5 1008 91 825 9.25 310 13:42 15.04.2022
2624 Clouds -5 1007 91 844 9.77 308 12:43 15.04.2022
2625 Clouds -5 1006 92 792 10.44 307 11:57 15.04.2022
2626 Clouds -5 1006 92 792 10.44 307 11:35 15.04.2022
2627 Snow -5 1004 92 600 11.18 308 10:45 15.04.2022
2628 Snow -4 1003 93 388 11.33 308 09:47 15.04.2022
2629 Snow -3 1001 94 231 11.42 311 09:21 15.04.2022
2630 Snow -3 999 94 269 9.33 311 07:44 15.04.2022
2631 Snow -3 998 95 261 6.48 311 06:37 15.04.2022
2632 Clouds -7 995 97 1632 3.32 275 03:21 15.04.2022
2633 Clouds -8 995 97 7317 2.42 139 23:32 14.04.2022
2634 Clouds -8 996 93 10000 3.3 133 22:49 14.04.2022
2635 Clouds -8 996 93 10000 3.3 133 22:31 14.04.2022
2636 Clouds -6 997 89 10000 4.02 150 21:59 14.04.2022
2637 Clouds -2 998 84 10000 6.2 173 20:57 14.04.2022
2638 Snow 1 999 99 37 5.01 135 19:23 14.04.2022
2639 Snow 1 999 99 37 5.01 135 18:30 14.04.2022
2640 Snow 0 1000 99 88 6.5 109 17:44 14.04.2022
2641 Snow 0 1000 99 88 6.5 109 17:44 14.04.2022
2642 Clouds -1 1001 98 362 7.23 98 16:46 14.04.2022
2643 Clouds -1 1004 97 740 7.84 93 15:26 14.04.2022
2644 Clouds -1 1006 96 1457 7.92 95 13:47 14.04.2022
2645 Clouds -1 1006 96 2153 8.13 90 12:57 14.04.2022
2646 Clouds -1 1006 96 2153 8.13 90 12:31 14.04.2022
2647 Clouds -1 1009 94 2091 8.07 87 11:29 14.04.2022
2648 Clouds -1 1009 94 2091 8.07 87 10:53 14.04.2022
2649 Clouds -2 1010 93 1103 7.56 82 10:27 14.04.2022
2650 Clouds -2 1012 90 4769 6.96 83 09:25 14.04.2022
2651 Clouds -3 1013 88 10000 5.42 87 07:33 14.04.2022
2652 Clouds -5 1016 94 10000 2.24 91 04:28 14.04.2022
2653 Clouds -8 1019 96 10000 2.12 214 23:29 13.04.2022
2654 Clouds -8 1019 96 10000 2.53 223 22:23 13.04.2022
2655 Clouds -8 1019 96 10000 2.53 223 21:37 13.04.2022
2656 Clouds -8 1020 95 10000 2.63 246 20:24 13.04.2022
2657 Clouds -9 1020 94 10000 2.89 245 19:39 13.04.2022
2658 Clouds -7 1020 92 10000 2.55 266 18:36 13.04.2022
2659 Clouds -1 1019 94 1534 5.65 269 17:24 13.04.2022
2660 Clouds -1 1019 94 1534 5.65 269 16:41 13.04.2022
2661 Clouds -1 1019 84 10000 6.71 257 15:43 13.04.2022
2662 Clouds 0 1018 79 10000 7.6 260 14:53 13.04.2022
2663 Clouds 0 1018 79 10000 7.6 260 14:30 13.04.2022
2664 Clouds -1 1018 89 10000 8.07 251 13:29 13.04.2022
2665 Clouds -1 1018 89 10000 8.07 251 12:38 13.04.2022
2666 Clouds -1 1018 88 10000 7.06 234 10:58 13.04.2022
2667 Clouds -2 1017 89 10000 7.1 237 09:45 13.04.2022
2668 Clouds -2 1017 91 10000 7.11 237 08:43 13.04.2022
2669 Clouds -3 1017 92 10000 6.61 233 07:23 13.04.2022
2670 Clouds -3 1017 92 10000 6.61 233 06:46 13.04.2022
2671 Clouds -3 1017 92 10000 6.68 228 06:18 13.04.2022
2672 Clouds 0 1015 90 10000 8.29 239 00:25 13.04.2022
2673 Clouds 0 1015 90 10000 8.29 239 23:46 12.04.2022
2674 Clouds 1 1014 91 10000 8 236 22:20 12.04.2022
2675 Clouds 1 1014 91 10000 8 236 21:39 12.04.2022
2676 Clouds 1 1014 92 10000 7.67 232 20:42 12.04.2022
2677 Clouds 1 1014 90 10000 7.08 234 19:54 12.04.2022
2678 Clouds 1 1015 90 10000 7.36 230 19:33 12.04.2022
2679 Clouds 1 1015 91 10000 6.97 230 18:50 12.04.2022
2680 Clouds 1 1015 91 10000 6.97 230 18:50 12.04.2022
2681 Clouds 1 1015 93 10000 6.87 232 17:36 12.04.2022
2682 Clouds 1 1015 95 10000 6.74 231 16:32 12.04.2022
2683 Clouds 1 1014 94 10000 7.21 231 15:33 12.04.2022
2684 Clouds 1 1014 98 273 6.88 228 14:33 12.04.2022
2685 Clouds 1 1014 98 81 6.14 238 13:39 12.04.2022
2686 Clouds 1 1014 99 41 5.33 233 12:59 12.04.2022
2687 Snow 1 1013 99 36 4.49 234 11:47 12.04.2022
2688 Snow 1 1013 99 34 3.72 244 11:24 12.04.2022
2689 Snow 1 1012 100 36 2.73 240 09:25 12.04.2022
2690 Snow 1 1012 100 54 2.04 217 08:18 12.04.2022
2691 Snow 1 1014 99 40 3.08 203 06:33 12.04.2022
2692 Snow 1 1014 98 40 3.1 198 05:36 12.04.2022
2693 Clouds 1 1016 98 77 3.01 179 01:47 12.04.2022
2694 Clouds 0 1017 99 165 1.58 185 23:19 11.04.2022
2695 Clouds 0 1017 99 177 1.91 205 21:49 11.04.2022
2696 Clouds 0 1017 99 155 2.11 223 21:18 11.04.2022
2697 Clouds 0 1017 99 155 2.11 223 20:30 11.04.2022
2698 Clouds 1 1018 98 636 3.67 229 19:56 11.04.2022
2699 Clouds 1 1017 98 123 3.54 211 19:21 11.04.2022
2700 Clouds 1 1017 98 123 3.54 211 18:48 11.04.2022
2701 Snow 1 1017 98 109 3.97 226 17:57 11.04.2022
2702 Snow 1 1017 98 102 4.45 222 16:57 11.04.2022
2703 Snow 1 1016 98 108 4.51 215 16:20 11.04.2022
2704 Snow 1 1016 98 100 4.42 213 14:35 11.04.2022
2705 Clouds 1 1015 99 82 5.42 217 12:53 11.04.2022
2706 Clouds 1 1015 99 82 5.42 217 12:35 11.04.2022
2707 Snow 2 1015 98 97 6.1 213 11:37 11.04.2022
2708 Rain 2 1015 99 96 6.53 212 10:34 11.04.2022
2709 Rain 2 1014 99 112 7.02 202 09:22 11.04.2022
2710 Clouds 2 1014 99 70 6 194 06:51 11.04.2022
2711 Clouds 1 1015 100 162 2.67 135 02:30 11.04.2022
2712 Clouds 1 1016 99 47 3.53 189 22:39 10.04.2022
2713 Clouds 1 1016 99 55 3.27 190 21:55 10.04.2022
2714 Clouds 1 1016 99 55 3.27 190 21:33 10.04.2022
2715 Clouds 1 1016 99 74 3.15 189 20:31 10.04.2022
2716 Clouds 1 1016 98 87 4.3 204 19:45 10.04.2022
2717 Snow 1 1016 99 114 3.71 200 19:22 10.04.2022
2718 Snow 1 1016 99 114 3.71 200 18:43 10.04.2022
2719 Snow 1 1016 99 208 3.07 180 17:54 10.04.2022
2720 Snow 1 1016 99 208 3.07 180 17:34 10.04.2022
2721 Clouds -1 1016 99 488 3.16 131 16:25 10.04.2022
2722 Snow -2 1016 97 10000 4 120 15:20 10.04.2022
2723 Snow -3 1017 97 768 4.28 118 14:22 10.04.2022
2724 Snow -2 1017 97 258 4.17 132 12:35 10.04.2022
2725 Snow -3 1017 97 133 4.74 122 11:46 10.04.2022
2726 Snow -3 1017 95 356 5.51 123 11:28 10.04.2022
2727 Snow -3 1017 95 356 5.51 123 10:54 10.04.2022
2728 Snow -3 1017 95 356 5.51 123 10:54 10.04.2022
2729 Snow -4 1017 94 295 6.27 124 09:56 10.04.2022
2730 Snow -4 1018 93 751 7.07 125 09:28 10.04.2022
2731 Snow -5 1017 95 175 6.86 124 08:22 10.04.2022
2732 Snow -6 1018 95 157 7.1 122 07:21 10.04.2022
2733 Snow -8 1018 95 196 7.17 110 05:27 10.04.2022
2734 Clouds -11 1020 82 10000 5.78 107 02:21 10.04.2022
2735 Clouds -11 1022 80 10000 4.85 109 00:25 10.04.2022
2736 Clouds -11 1022 80 10000 4.85 109 23:43 09.04.2022
2737 Clouds -12 1022 81 10000 4.67 107 22:45 09.04.2022
2738 Clouds -12 1022 81 10000 4.62 110 21:34 09.04.2022
2739 Clouds -13 1023 82 10000 4.42 110 20:48 09.04.2022
2740 Clouds -14 1023 83 10000 4.08 111 20:23 09.04.2022
2741 Clouds -12 1023 84 10000 4.09 110 19:41 09.04.2022
2742 Clouds -12 1023 85 10000 4.01 112 18:54 09.04.2022
2743 Clouds -11 1024 86 10000 4.3 112 18:18 09.04.2022
2744 Clouds -11 1024 86 10000 4.3 112 17:34 09.04.2022
2745 Clouds -11 1024 86 10000 4.47 108 16:47 09.04.2022
2746 Clouds -10 1025 86 10000 4.62 107 15:55 09.04.2022
2747 Clouds -10 1025 87 10000 4.64 105 15:28 09.04.2022
2748 Clouds -9 1025 86 10000 4.54 103 14:27 09.04.2022
2749 Clouds -9 1025 86 10000 4.54 103 14:27 09.04.2022
2750 Clouds -9 1025 86 10000 4.54 103 13:54 09.04.2022
2751 Clouds -9 1025 84 10000 4.27 106 12:59 09.04.2022
2752 Clouds -9 1025 84 10000 4.27 106 12:34 09.04.2022
2753 Clouds -9 1025 81 10000 3.21 106 11:21 09.04.2022
2754 Clouds -10 1025 82 10000 2.69 107 10:20 09.04.2022
2755 Clouds -10 1025 82 10000 2.69 107 09:37 09.04.2022
2756 Clouds -11 1025 83 10000 2.47 103 08:50 09.04.2022
2757 Clouds -14 1025 89 10000 2.05 122 05:58 09.04.2022
2758 Clouds -21 1024 99 10000 1.55 187 00:38 09.04.2022
2759 Clouds -22 1024 100 10000 2.09 184 23:25 08.04.2022
2760 Clouds -22 1023 100 10000 1.58 191 21:58 08.04.2022
2761 Clouds -21 1023 100 10000 1.55 189 20:47 08.04.2022
2762 Clouds -22 1023 100 10000 1.48 189 19:58 08.04.2022
2763 Clouds -21 1022 100 10000 1.43 188 19:18 08.04.2022
2764 Clouds -21 1022 100 10000 1.17 197 18:25 08.04.2022
2765 Clouds -21 1022 100 10000 1.17 197 17:45 08.04.2022
2766 Clouds -21 1022 100 10000 0.57 200 17:22 08.04.2022
2767 Clouds -21 1022 100 10000 0.57 200 16:38 08.04.2022
2768 Clouds -19 1021 98 10000 0.26 309 15:53 08.04.2022
2769 Clouds -17 1021 94 10000 0.5 0 15:23 08.04.2022
2770 Clouds -16 1021 93 10000 0.92 21 14:26 08.04.2022
2771 Clouds -16 1021 92 10000 1 45 13:44 08.04.2022
2772 Clouds -16 1021 90 10000 1.36 19 13:25 08.04.2022
2773 Clouds -16 1020 89 10000 1.53 27 11:53 08.04.2022
2774 Clouds -16 1019 90 10000 1.7 35 10:32 08.04.2022
2775 Clouds -18 1018 93 10000 2.04 51 09:26 08.04.2022
2776 Clouds -18 1018 93 10000 2.04 51 08:30 08.04.2022
2777 Clouds -20 1018 97 10000 1.74 44 06:47 08.04.2022
2778 Clouds -25 1017 100 8490 1.31 15 04:34 08.04.2022
2779 Clouds -26 1015 100 7586 0.79 360 00:42 08.04.2022
2780 Clouds -25 1014 100 7068 0.92 25 00:19 08.04.2022
2781 Clouds -24 1014 100 6671 1.4 36 22:58 07.04.2022
2782 Clouds -24 1014 100 6671 1.4 36 22:37 07.04.2022
2783 Clouds -24 1014 100 7299 1.41 41 22:19 07.04.2022
2784 Clouds -24 1014 100 7299 1.41 41 21:49 07.04.2022
2785 Clouds -23 1014 100 6679 1.52 38 20:58 07.04.2022
2786 Clouds -23 1014 100 6679 1.52 38 20:30 07.04.2022
2787 Clouds -21 1013 100 5547 2.31 27 18:29 07.04.2022
2788 Clouds -19 1012 100 5701 2.57 18 17:25 07.04.2022
2789 Clouds -19 1012 100 5701 2.57 18 16:44 07.04.2022
2790 Clouds -17 1012 99 6747 2.83 11 16:20 07.04.2022
2791 Clouds -15 1012 96 6684 3.25 8 14:36 07.04.2022
2792 Clouds -15 1012 93 9571 4 11 13:42 07.04.2022
2793 Clouds -14 1011 91 10000 4.24 4 12:41 07.04.2022
2794 Clouds -14 1011 91 10000 4.19 352 11:29 07.04.2022
2795 Clouds -15 1011 92 10000 3.95 349 09:36 07.04.2022
2796 Clouds -16 1011 93 10000 4 346 08:37 07.04.2022
2797 Clouds -16 1011 93 10000 4 346 08:37 07.04.2022
2798 Clouds -18 1010 97 7950 3.51 333 06:42 07.04.2022
2799 Clouds -22 1010 100 5143 2.94 288 02:47 07.04.2022
2800 Clouds -22 1010 100 5659 3.28 287 02:18 07.04.2022
2801 Clouds -19 1009 98 9469 3.76 295 23:57 06.04.2022
2802 Clouds -18 1008 96 10000 4.06 303 22:48 06.04.2022
2803 Clouds -16 1008 94 10000 4.78 314 22:25 06.04.2022
2804 Clouds -16 1008 94 10000 4.78 314 21:32 06.04.2022
2805 Clouds -15 1007 95 10000 5.59 317 20:28 06.04.2022
2806 Clouds -15 1007 95 10000 5.59 317 19:53 06.04.2022
2807 Clouds -15 1006 94 9071 6.64 322 18:51 06.04.2022
2808 Clouds -14 1006 94 9068 7.36 322 18:22 06.04.2022
2809 Clouds -14 1006 94 9068 7.36 322 17:35 06.04.2022
2810 Clouds -14 1005 93 8203 7.86 321 16:38 06.04.2022
2811 Clouds -13 1005 93 5034 7.96 324 15:48 06.04.2022
2812 Clouds -12 1005 93 3201 8.61 324 14:35 06.04.2022
2813 Clouds -11 1004 93 2440 8.99 322 13:23 06.04.2022
2814 Clouds -10 1003 93 3348 8.66 324 12:22 06.04.2022
2815 Clouds -10 1002 93 3278 8.59 325 10:47 06.04.2022
2816 Clouds -9 1001 93 3130 8.49 326 10:25 06.04.2022
2817 Clouds -9 1001 93 3130 8.49 326 09:40 06.04.2022
2818 Clouds -9 1000 94 2454 7.87 328 08:32 06.04.2022
2819 Clouds -9 1000 94 1445 7.48 325 07:49 06.04.2022
2820 Clouds -13 999 97 1027 6.19 301 03:53 06.04.2022
2821 Clouds -12 999 95 5184 5.13 298 23:52 05.04.2022
2822 Clouds -11 999 95 9165 5.11 295 22:31 05.04.2022
2823 Clouds -10 999 96 4853 4.79 294 21:20 05.04.2022
2824 Clouds -10 999 96 8336 3.27 285 20:25 05.04.2022
2825 Clouds -10 999 96 10000 3 269 19:42 05.04.2022
2826 Clouds -10 999 96 10000 2.95 249 18:18 05.04.2022
2827 Clouds -10 1000 95 10000 3.63 242 16:54 05.04.2022
2828 Clouds -10 999 94 10000 3.28 243 15:56 05.04.2022
2829 Clouds -10 999 94 10000 3.28 243 15:34 05.04.2022
2830 Clouds -10 1000 93 10000 4.14 236 14:35 05.04.2022
2831 Clouds -10 999 93 10000 3.81 218 13:21 05.04.2022
2832 Clouds -10 999 92 10000 4.12 222 11:51 05.04.2022
2833 Clouds -10 999 92 10000 4.12 222 11:51 05.04.2022
2834 Clouds -10 999 92 10000 4.12 222 11:32 05.04.2022
2835 Clouds -11 999 92 10000 5.03 216 09:55 05.04.2022
2836 Clouds -11 999 92 10000 4.91 216 08:54 05.04.2022
2837 Clouds -10 998 93 10000 4.39 215 06:58 05.04.2022
2838 Clouds -12 997 97 6932 3.45 204 01:55 05.04.2022
2839 Clouds -8 996 97 10000 2.25 130 22:44 04.04.2022
2840 Snow -7 996 96 1921 3.71 106 22:26 04.04.2022
2841 Snow -6 997 95 294 5.53 100 21:21 04.04.2022
2842 Snow -6 997 95 294 5.53 100 20:50 04.04.2022
2843 Snow -7 998 94 216 7.03 99 19:58 04.04.2022
2844 Snow -7 998 94 163 8.09 97 19:26 04.04.2022
2845 Snow -7 998 94 163 8.09 97 18:33 04.04.2022
2846 Snow -8 999 94 140 9.77 97 16:37 04.04.2022
2847 Snow -8 1000 94 142 10.52 95 15:47 04.04.2022
2848 Snow -8 1000 93 162 11.28 92 15:29 04.04.2022
2849 Snow -8 1000 93 162 11.28 92 14:46 04.04.2022
2850 Snow -8 1000 93 178 11.77 92 13:31 04.04.2022
2851 Clouds -8 1002 90 1495 11.92 88 11:56 04.04.2022
2852 Clouds -8 1003 86 10000 11.9 90 11:29 04.04.2022
2853 Clouds -9 1005 84 10000 11.01 97 09:18 04.04.2022
2854 Clouds -13 1008 93 10000 7.56 89 05:21 04.04.2022
2855 Clouds -15 1011 97 9146 5.69 89 01:36 04.04.2022
2856 Clouds -18 1012 100 8136 3.17 102 22:45 03.04.2022
2857 Clouds -18 1013 98 10000 3.02 106 21:47 03.04.2022
2858 Clouds -18 1013 98 10000 2.86 120 20:57 03.04.2022
2859 Clouds -18 1014 96 10000 2.43 136 19:51 03.04.2022
2860 Clouds -17 1014 96 10000 2.15 160 18:33 03.04.2022
2861 Clouds -16 1014 96 10000 3 185 17:48 03.04.2022
2862 Clouds -15 1014 96 10000 3.28 195 17:21 03.04.2022
2863 Clouds -15 1014 96 10000 3.28 195 16:42 03.04.2022
2864 Clouds -12 1015 93 10000 3.48 211 15:18 03.04.2022
2865 Clouds -10 1015 92 10000 3.82 221 13:57 03.04.2022
2866 Clouds -9 1015 90 10000 4.44 229 12:48 03.04.2022
2867 Clouds -8 1014 90 10000 5.14 233 11:33 03.04.2022
2868 Clouds -7 1014 92 4387 5.21 249 09:40 03.04.2022
2869 Clouds -7 1013 92 1527 3.36 241 08:50 03.04.2022
2870 Clouds -8 1012 95 798 0.49 265 05:42 03.04.2022
2871 Snow -10 1011 96 351 1.33 236 02:55 03.04.2022
2872 Snow -8 1010 95 237 3.21 275 23:22 02.04.2022
2873 Snow -8 1010 95 237 3.21 275 23:22 02.04.2022
2874 Snow -8 1010 95 237 3.21 275 22:40 02.04.2022
2875 Snow -8 1009 95 258 3.93 274 21:54 02.04.2022
2876 Snow -8 1009 95 245 4.17 274 21:19 02.04.2022
2877 Snow -8 1009 95 245 4.17 274 20:35 02.04.2022
2878 Clouds -11 1009 94 1046 4.84 279 18:45 02.04.2022
2879 Clouds -11 1008 95 733 4.56 285 18:18 02.04.2022
2880 Snow -10 1008 94 631 5.06 303 16:45 02.04.2022
2881 Snow -7 1006 94 215 6.34 292 15:27 02.04.2022
2882 Snow -7 1006 94 215 6.34 292 14:52 02.04.2022
2883 Snow -7 1006 94 238 6.23 282 14:20 02.04.2022
2884 Snow -7 1006 94 382 6 284 13:29 02.04.2022
2885 Snow -7 1005 92 409 6.42 285 12:20 02.04.2022
2886 Snow -7 1004 92 441 6.54 283 10:22 02.04.2022
2887 Clouds -8 1004 91 1068 5.61 276 07:48 02.04.2022
2888 Clouds -11 1002 96 473 3.39 274 04:25 02.04.2022
2889 Snow -9 1001 95 171 3.56 265 01:21 02.04.2022
2890 Snow -9 1001 95 252 4.36 262 23:54 01.04.2022
2891 Snow -9 1000 94 287 5.05 268 22:46 01.04.2022
2892 Snow -8 999 95 356 5.17 282 20:55 01.04.2022
2893 Snow -8 999 95 356 5.17 282 20:35 01.04.2022
2894 Snow -8 999 94 230 6.44 270 19:41 01.04.2022
2895 Snow -7 999 94 196 7.41 265 19:23 01.04.2022
2896 Snow -7 999 94 196 7.41 265 18:37 01.04.2022
2897 Snow -7 998 93 235 8.11 263 17:38 01.04.2022
2898 Snow -10 998 93 337 6.94 254 15:46 01.04.2022
2899 Clouds -9 998 93 410 7.23 257 14:53 01.04.2022
2900 Clouds -8 998 90 2862 7.9 258 13:39 01.04.2022
2901 Clouds -8 998 90 1314 8.7 248 13:20 01.04.2022
2902 Clouds -9 997 90 1748 8.99 249 12:24 01.04.2022
2903 Clouds -9 997 90 2557 9.12 249 10:50 01.04.2022
2904 Clouds -10 997 90 4001 8.86 250 09:39 01.04.2022
2905 Clouds -12 997 92 10000 8.23 247 07:41 01.04.2022
2906 Clouds -15 997 94 10000 7.46 241 05:38 01.04.2022
2907 Clouds -16 997 95 10000 7.47 242 04:41 01.04.2022
2908 Clouds -17 997 92 10000 7.24 244 03:18 01.04.2022
2909 Clouds -17 997 90 10000 7.49 246 01:35 01.04.2022
2910 Clouds -18 997 90 10000 6.89 254 22:31 31.03.2022
2911 Clouds -18 997 91 10000 7.08 258 21:44 31.03.2022
2912 Clouds -18 996 92 10000 7.35 259 20:51 31.03.2022
2913 Clouds -17 996 92 10000 7.63 261 20:28 31.03.2022
2914 Clouds -17 997 92 10000 7.43 263 19:29 31.03.2022
2915 Clouds -17 997 92 10000 7.43 263 18:34 31.03.2022
2916 Clouds -16 997 93 10000 7.23 268 16:47 31.03.2022
2917 Clouds -15 997 93 8481 7.02 272 15:56 31.03.2022
2918 Clouds -15 997 92 8999 6.97 276 15:29 31.03.2022
2919 Clouds -15 997 92 8999 6.97 276 14:48 31.03.2022
2920 Clouds -14 996 92 10000 6.99 277 13:42 31.03.2022
2921 Clouds -13 996 92 10000 6.8 286 11:31 31.03.2022
2922 Clouds -14 995 94 9156 6.85 291 10:26 31.03.2022
2923 Clouds -14 995 94 9156 6.85 291 09:39 31.03.2022
2924 Clouds -13 996 95 5649 5.64 293 07:48 31.03.2022
2925 Clouds -18 997 99 2754 2.81 265 02:33 31.03.2022
2926 Clouds -20 998 100 2687 1.98 252 23:24 30.03.2022
2927 Clouds -20 998 100 2804 2.04 243 21:57 30.03.2022
2928 Clouds -20 998 100 2804 2.04 243 21:31 30.03.2022
2929 Clouds -20 998 100 2817 2.15 235 20:44 30.03.2022
2930 Clouds -20 999 100 3643 2.02 234 19:47 30.03.2022
2931 Clouds -20 999 100 5309 2.26 230 18:41 30.03.2022
2932 Clouds -20 999 100 8731 2.37 226 17:51 30.03.2022
2933 Clouds -19 999 100 8622 2.44 215 17:20 30.03.2022
2934 Clouds -19 999 100 8622 2.44 215 16:40 30.03.2022
2935 Clouds -17 999 98 10000 2.5 213 15:55 30.03.2022
2936 Clouds -15 1000 96 10000 2.4 203 14:35 30.03.2022
2937 Clouds -12 1000 92 10000 2.09 210 13:22 30.03.2022
2938 Clouds -11 999 90 10000 2.23 219 12:22 30.03.2022
2939 Clouds -12 999 90 10000 2.77 217 10:48 30.03.2022
2940 Clouds -12 999 91 10000 2.95 216 09:43 30.03.2022
2941 Clouds -14 1000 93 10000 3.15 210 08:21 30.03.2022
2942 Clouds -14 999 94 10000 3.15 212 06:50 30.03.2022
2943 Clouds -14 999 94 10000 3.25 213 05:40 30.03.2022
2944 Clouds -13 999 93 10000 3.26 210 01:48 30.03.2022
2945 Clouds -15 997 94 10000 3.66 210 22:39 29.03.2022
2946 Clouds -15 997 94 10000 3.74 215 21:48 29.03.2022
2947 Clouds -14 997 95 10000 3.76 220 21:28 29.03.2022
2948 Clouds -13 997 97 10000 2.99 235 20:25 29.03.2022
2949 Clouds -13 997 97 10000 2.99 235 19:31 29.03.2022
2950 Clouds -11 996 96 10000 2.74 245 18:53 29.03.2022
2951 Clouds -10 996 95 2391 2.96 246 17:48 29.03.2022
2952 Clouds -9 996 95 997 3.13 249 17:18 29.03.2022
2953 Clouds -9 996 95 997 3.13 249 16:52 29.03.2022
2954 Clouds -8 995 95 525 2.35 248 15:29 29.03.2022
2955 Clouds -8 995 95 525 2.35 248 14:43 29.03.2022
2956 Snow -7 995 94 481 1.76 261 13:34 29.03.2022
2957 Clouds -7 995 85 10000 1.44 218 12:21 29.03.2022
2958 Clouds -7 994 87 10000 1.68 195 10:59 29.03.2022
2959 Clouds -7 994 89 10000 1.58 183 09:51 29.03.2022
2960 Clouds -8 994 90 10000 2.32 179 08:43 29.03.2022
2961 Clouds -10 993 93 10000 3.39 149 06:21 29.03.2022
2962 Clouds -11 992 94 10000 3.1 141 02:19 29.03.2022
2963 Clouds -9 991 95 4051 3.96 142 23:26 28.03.2022
2964 Clouds -9 991 95 4051 3.96 142 23:26 28.03.2022
2965 Clouds -9 991 95 4051 3.96 142 23:26 28.03.2022
2966 Clouds -9 991 95 4051 3.96 142 22:56 28.03.2022
2967 Clouds -9 991 95 4051 3.96 142 22:31 28.03.2022
2968 Clouds -11 990 97 2323 3.95 138 21:38 28.03.2022
2969 Clouds -11 990 93 10000 3.62 130 20:32 28.03.2022
2970 Clouds -9 990 92 10000 3.64 126 19:48 28.03.2022
2971 Clouds -9 990 92 10000 3.64 126 19:30 28.03.2022
2972 Clouds -8 990 91 6813 4.02 122 18:44 28.03.2022
2973 Clouds -6 990 90 10000 4.4 125 17:41 28.03.2022
2974 Clouds -6 991 92 10000 4.42 121 16:47 28.03.2022
2975 Clouds -6 991 93 1964 4.79 106 14:53 28.03.2022
2976 Clouds -6 991 93 2974 5.08 103 14:23 28.03.2022
2977 Clouds -7 991 93 3051 5.21 102 12:51 28.03.2022
2978 Clouds -7 992 92 10000 5.36 103 11:43 28.03.2022
2979 Snow -7 993 91 3011 5.85 105 09:55 28.03.2022
2980 Snow -8 993 93 389 6.28 100 09:20 28.03.2022
2981 Snow -9 994 94 297 6.91 96 08:23 28.03.2022
2982 Snow -9 994 94 297 7.28 95 07:56 28.03.2022
2983 Snow -11 995 94 166 7.78 92 05:55 28.03.2022
2984 Clouds -15 1001 92 1600 8.88 90 23:53 27.03.2022
2985 Clouds -15 1002 91 10000 8.86 90 22:34 27.03.2022
2986 Clouds -15 1003 91 10000 8.69 85 21:42 27.03.2022
2987 Clouds -15 1004 91 10000 8.39 84 20:58 27.03.2022
2988 Clouds -16 1005 93 10000 7.55 77 20:18 27.03.2022
2989 Clouds -16 1005 93 10000 7.55 77 19:34 27.03.2022
2990 Clouds -16 1006 95 10000 6.73 76 18:30 27.03.2022
2991 Clouds -17 1007 95 10000 6.07 78 17:55 27.03.2022
2992 Clouds -17 1007 95 10000 6.07 78 17:35 27.03.2022
2993 Clouds -18 1007 95 10000 4.97 80 15:46 27.03.2022
2994 Clouds -17 1008 94 10000 4.8 79 13:57 27.03.2022
2995 Clouds -17 1009 92 10000 4.45 77 12:50 27.03.2022
2996 Clouds -17 1009 92 10000 3.73 77 11:30 27.03.2022
2997 Clouds -18 1009 95 10000 2.91 74 09:37 27.03.2022
2998 Clouds -21 1010 99 10000 2.16 90 06:54 27.03.2022
2999 Clouds -25 1010 100 6772 1.54 117 01:55 27.03.2022
3000 Clouds -24 1009 100 10000 1.28 138 00:25 27.03.2022
3001 Clouds -24 1009 100 10000 1.26 156 22:45 26.03.2022
3002 Clouds -24 1009 100 10000 1.3 169 21:50 26.03.2022
3003 Clouds -24 1009 100 8939 1.31 171 21:28 26.03.2022
3004 Clouds -23 1009 100 7004 1.36 179 19:31 26.03.2022
3005 Clouds -23 1008 100 6650 1.09 143 18:25 26.03.2022
3006 Clouds -23 1008 100 6650 1.09 143 17:33 26.03.2022
3007 Clouds -22 1007 100 6961 0.98 127 16:30 26.03.2022
3008 Clouds -21 1007 100 7244 0.97 95 15:35 26.03.2022
3009 Clouds -16 1006 94 10000 1.19 56 13:55 26.03.2022
3010 Clouds -14 1006 93 10000 2.34 42 13:19 26.03.2022
3011 Clouds -14 1005 91 10000 2.57 40 11:42 26.03.2022
3012 Clouds -14 1005 91 10000 2.41 44 10:32 26.03.2022
3013 Clouds -15 1003 94 9899 2.51 58 08:44 26.03.2022
3014 Clouds -16 1002 97 5569 2.91 71 06:37 26.03.2022
3015 Clouds -19 1001 100 6595 2.64 67 05:29 26.03.2022
3016 Clouds -17 999 98 8667 2.89 81 00:41 26.03.2022
3017 Clouds -15 999 94 10000 2.43 111 21:56 25.03.2022
3018 Clouds -15 999 93 10000 2.56 140 20:46 25.03.2022
3019 Clouds -15 1000 92 10000 2.91 166 20:20 25.03.2022
3020 Clouds -19 1001 98 10000 3.68 197 18:51 25.03.2022
3021 Clouds -19 1002 97 10000 3.68 206 17:53 25.03.2022
3022 Clouds -19 1002 96 10000 3.72 215 17:27 25.03.2022
3023 Clouds -18 1003 95 10000 3.83 222 16:21 25.03.2022
3024 Clouds -17 1003 90 10000 4.09 233 14:54 25.03.2022
3025 Clouds -15 1004 93 10000 3.54 236 13:26 25.03.2022
3026 Clouds -12 1003 89 10000 3.28 266 10:35 25.03.2022
3027 Clouds -12 1003 85 10000 4.21 291 09:28 25.03.2022
3028 Clouds -12 1003 85 10000 4.21 291 08:36 25.03.2022
3029 Clouds -12 1003 85 10000 4.62 299 07:30 25.03.2022
3030 Clouds -11 1001 89 5491 5.52 321 06:29 25.03.2022
3031 Clouds -11 1001 89 5491 5.52 321 06:29 25.03.2022
3032 Clouds -11 1000 94 465 6.17 322 01:57 25.03.2022
3033 Snow -11 999 94 342 5.82 326 22:55 24.03.2022
3034 Snow -11 998 95 302 5.03 322 21:52 24.03.2022
3035 Snow -11 998 95 309 4.7 320 20:40 24.03.2022
3036 Snow -11 998 95 292 4.51 318 19:48 24.03.2022
3037 Clouds -11 997 95 634 4.94 308 17:50 24.03.2022
3038 Clouds -11 997 95 572 4.72 301 17:23 24.03.2022
3039 Clouds -11 997 95 681 4.35 294 15:52 24.03.2022
3040 Clouds -11 997 94 969 4.22 294 14:50 24.03.2022
3041 Clouds -11 997 93 1588 4.3 295 14:20 24.03.2022
3042 Clouds -10 996 92 3003 4.26 299 13:24 24.03.2022
3043 Clouds -10 996 90 4160 4.67 301 11:52 24.03.2022
3044 Clouds -10 996 88 6166 5.52 309 10:18 24.03.2022
3045 Clouds -10 995 89 4403 5.81 308 08:49 24.03.2022
3046 Clouds -11 995 92 2846 5.54 306 06:55 24.03.2022
3047 Clouds -11 994 93 697 5.82 311 03:59 24.03.2022
3048 Snow -10 992 93 306 6.86 306 23:21 23.03.2022
3049 Clouds -10 992 93 358 7.21 309 21:45 23.03.2022
3050 Clouds -10 991 92 918 7.5 311 21:20 23.03.2022
3051 Clouds -10 991 92 718 7.8 311 19:46 23.03.2022
3052 Clouds -10 990 92 508 8.01 311 18:59 23.03.2022
3053 Snow -9 989 92 442 8.28 312 17:38 23.03.2022
3054 Snow -9 989 93 403 8.51 313 16:50 23.03.2022
3055 Clouds -9 987 93 537 8.53 314 14:52 23.03.2022
3056 Clouds -9 987 93 537 8.53 314 14:32 23.03.2022
3057 Clouds -7 985 93 804 8.6 318 13:21 23.03.2022
3058 Snow -6 981 94 191 8.87 307 10:20 23.03.2022
3059 Snow -5 980 94 194 8.58 300 06:55 23.03.2022
3060 Snow -5 979 95 216 8.89 294 05:27 23.03.2022
3061 Snow -5 979 94 738 11.21 300 00:35 23.03.2022
3062 Snow -3 977 96 184 8.69 285 23:41 22.03.2022
3063 Snow -4 978 93 352 9.59 236 21:30 22.03.2022
3064 Snow -4 980 93 271 9.23 234 20:49 22.03.2022
3065 Snow -4 981 92 747 9.63 240 19:52 22.03.2022
3066 Snow -4 981 92 406 9.6 243 19:24 22.03.2022
3067 Snow -4 981 92 406 9.6 243 18:45 22.03.2022
3068 Snow -4 982 92 452 9.5 249 17:38 22.03.2022
3069 Snow -4 983 92 538 9.6 244 16:28 22.03.2022
3070 Snow -3 984 91 1377 9.44 242 15:23 22.03.2022
3071 Snow -3 984 91 1377 9.44 242 14:59 22.03.2022
3072 Snow -3 984 91 1377 9.44 242 14:41 22.03.2022
3073 Clouds -4 985 91 629 10.09 236 13:36 22.03.2022
3074 Clouds -3 987 85 10000 9.15 247 11:52 22.03.2022
3075 Clouds -3 988 83 10000 9.04 256 10:46 22.03.2022
3076 Clouds -2 989 89 3823 9.3 262 08:38 22.03.2022
3077 Clouds -2 990 86 5407 7.74 267 06:53 22.03.2022
3078 Snow -5 993 92 326 11.52 216 03:52 22.03.2022
3079 Snow -7 999 91 663 11.67 208 00:29 22.03.2022
3080 Snow -8 1002 92 524 10.34 207 22:42 21.03.2022
3081 Clouds -9 1007 92 8410 9.34 214 21:18 21.03.2022
3082 Clouds -9 1007 92 8410 9.34 214 21:18 21.03.2022
3083 Clouds -9 1007 92 8410 9.34 214 20:41 21.03.2022
3084 Clouds -9 1008 92 4312 8.59 214 19:59 21.03.2022
3085 Clouds -9 1008 92 4312 8.59 214 19:34 21.03.2022
3086 Clouds -9 1010 93 10000 7.22 215 18:36 21.03.2022
3087 Clouds -10 1013 93 2373 6.6 223 17:19 21.03.2022
3088 Clouds -10 1013 93 2373 6.6 223 16:51 21.03.2022
3089 Clouds -11 1014 94 1078 6.33 224 16:24 21.03.2022
3090 Clouds -13 1015 95 1698 5.32 222 15:21 21.03.2022
3091 Clouds -13 1016 95 5317 4.53 221 14:28 21.03.2022
3092 Clouds -14 1016 96 10000 3.65 220 12:43 21.03.2022
3093 Clouds -14 1016 96 10000 3.11 226 11:54 21.03.2022
3094 Clouds -13 1017 97 7194 2.22 244 10:49 21.03.2022
3095 Clouds -13 1017 97 4998 2.04 303 09:21 21.03.2022
3096 Clouds -15 1016 98 6435 2.4 325 06:59 21.03.2022
3097 Clouds -17 1013 100 3371 3 345 03:29 21.03.2022
3098 Clouds -16 1010 100 3035 3.26 351 00:35 21.03.2022
3099 Clouds -11 1008 95 7243 6.39 25 22:55 20.03.2022
3100 Snow -10 1006 95 898 6.86 24 21:57 20.03.2022
3101 Snow -10 1006 95 898 6.86 24 21:30 20.03.2022
3102 Snow -9 1004 95 405 6.66 20 20:47 20.03.2022
3103 Snow -9 1002 95 262 6.03 16 20:24 20.03.2022
3104 Snow -9 1002 95 262 6.03 16 19:43 20.03.2022
3105 Snow -8 1001 95 225 5.89 15 18:44 20.03.2022
3106 Snow -8 999 96 143 5.5 12 17:38 20.03.2022
3107 Snow -7 998 96 154 5.08 11 16:58 20.03.2022
3108 Clouds -7 997 96 786 4.07 7 15:52 20.03.2022
3109 Clouds -6 996 97 1526 4.84 19 14:36 20.03.2022
3110 Clouds -4 994 94 4240 5.36 344 13:20 20.03.2022
3111 Snow -2 993 94 2131 5.43 338 11:37 20.03.2022
3112 Clouds -3 992 92 2592 5.02 301 09:57 20.03.2022
3113 Clouds -5 992 94 4422 4.55 276 07:50 20.03.2022
3114 Clouds -8 992 96 8454 4.53 254 05:49 20.03.2022
3115 Clouds -6 993 93 10000 5.53 236 02:53 20.03.2022
3116 Clouds -6 994 92 6423 6.61 240 00:48 20.03.2022
3117 Clouds -5 995 93 6332 8.06 260 23:20 19.03.2022
3118 Clouds -4 996 94 6500 9.31 258 21:32 19.03.2022
3119 Clouds -3 997 93 1084 10.93 257 20:58 19.03.2022
3120 Clouds -1 998 90 4447 11.95 266 18:59 19.03.2022
3121 Snow -1 998 90 1921 12.74 269 18:25 19.03.2022
3122 Snow -1 998 90 1921 12.74 269 17:41 19.03.2022
3123 Snow -1 999 95 185 12.6 262 16:24 19.03.2022
3124 Snow -1 1001 94 391 11.52 259 15:19 19.03.2022
3125 Snow -1 1002 95 227 9.84 255 13:35 19.03.2022
3126 Clouds 0 1003 90 1201 10.76 260 12:41 19.03.2022
3127 Snow 0 1004 90 6808 10.65 263 11:54 19.03.2022
3128 Clouds -1 1005 93 1345 10.43 255 11:25 19.03.2022
3129 Snow -3 1007 93 442 9.25 249 08:23 19.03.2022
3130 Clouds -7 1011 95 7400 9.63 228 04:23 19.03.2022
3131 Clouds -7 1012 94 10000 9.29 230 02:30 19.03.2022
3132 Clouds -4 1015 97 2684 7.1 231 23:46 18.03.2022
3133 Clouds -3 1017 97 1850 5.93 243 22:29 18.03.2022
3134 Clouds -3 1017 97 1850 5.93 243 21:55 18.03.2022
3135 Clouds -3 1018 97 1700 6.26 257 19:54 18.03.2022
3136 Clouds -3 1018 97 1798 7.34 257 19:22 18.03.2022
3137 Clouds -4 1018 96 2287 8.03 248 18:27 18.03.2022
3138 Clouds -5 1018 96 10000 8.69 244 16:52 18.03.2022
3139 Clouds -6 1019 94 10000 9.16 239 15:43 18.03.2022
3140 Clouds -6 1020 92 10000 9.14 236 14:25 18.03.2022
3141 Clouds -5 1020 91 10000 8.93 231 12:39 18.03.2022
3142 Clouds -3 1022 93 10000 8.68 232 11:21 18.03.2022
3143 Clouds -3 1022 96 4455 8.58 232 09:34 18.03.2022
3144 Clouds -3 1023 97 1222 8.38 235 08:42 18.03.2022
3145 Clouds -5 1023 93 10000 7.54 233 06:42 18.03.2022
3146 Clouds -6 1023 92 10000 7.34 242 03:30 18.03.2022
3147 Clouds -5 1024 89 10000 6.83 251 00:54 18.03.2022
3148 Clouds -5 1024 89 10000 6.95 252 23:52 17.03.2022
3149 Clouds -4 1023 89 10000 7.55 249 22:26 17.03.2022
3150 Clouds -4 1023 89 10000 7.55 249 21:51 17.03.2022
3151 Clouds -5 1023 92 10000 7.65 245 21:27 17.03.2022
3152 Clouds -5 1023 92 10000 7.65 245 20:52 17.03.2022
3153 Clouds -6 1023 94 10000 7.6 243 19:55 17.03.2022
3154 Clouds -6 1023 94 10000 7.6 243 19:33 17.03.2022
3155 Clouds -5 1023 96 10000 8.13 246 18:51 17.03.2022
3156 Clouds -7 1023 96 10000 7.99 245 17:26 17.03.2022
3157 Clouds -7 1023 94 9137 8.41 246 15:52 17.03.2022
3158 Clouds -7 1023 94 9137 8.41 246 15:34 17.03.2022
3159 Clouds -6 1023 93 10000 8.95 243 14:48 17.03.2022
3160 Clouds -6 1024 92 7077 9.26 248 13:22 17.03.2022
3161 Clouds -6 1024 94 6309 8.79 244 12:37 17.03.2022
3162 Clouds -6 1024 94 4888 8.87 243 11:30 17.03.2022
3163 Clouds -6 1024 93 8283 9.47 246 10:34 17.03.2022
3164 Clouds -2 1025 94 10000 8.81 239 08:41 17.03.2022
3165 Clouds 0 1025 93 10000 8.13 246 07:52 17.03.2022
3166 Clouds 0 1025 97 1049 6.42 259 05:48 17.03.2022
3167 Clouds 0 1025 96 1035 6.1 268 03:41 17.03.2022
3168 Clouds 0 1024 94 10000 5.99 281 00:21 17.03.2022
3169 Clouds 0 1024 96 1941 5.93 273 22:52 16.03.2022
3170 Clouds 0 1024 96 1941 5.93 273 22:33 16.03.2022
3171 Clouds 0 1024 97 1967 5.53 263 21:52 16.03.2022
3172 Clouds 0 1024 98 354 5.13 266 20:28 16.03.2022
3173 Clouds 0 1024 98 469 5.17 269 19:22 16.03.2022
3174 Clouds 0 1023 98 389 4.64 277 18:40 16.03.2022
3175 Clouds 0 1023 97 3960 4.64 271 17:44 16.03.2022
3176 Clouds 0 1023 97 4087 4.76 268 17:26 16.03.2022
3177 Clouds 0 1023 97 2636 5.08 273 15:56 16.03.2022
3178 Snow 0 1023 98 1263 5.6 276 14:31 16.03.2022
3179 Snow 0 1023 97 532 5.92 268 13:32 16.03.2022
3180 Snow 0 1021 97 341 6.18 266 11:58 16.03.2022
3181 Clouds -1 1022 96 398 6.19 258 11:21 16.03.2022
3182 Clouds -2 1022 95 3400 6.26 255 10:27 16.03.2022
3183 Clouds -2 1022 95 3400 6.26 255 09:42 16.03.2022
3184 Clouds -6 1022 93 1967 7.1 251 06:27 16.03.2022
3185 Snow -6 1023 93 809 7.79 252 01:56 16.03.2022
3186 Snow -6 1023 95 142 8.18 256 22:44 15.03.2022
3187 Snow -5 1023 95 165 8.41 258 22:18 15.03.2022
3188 Snow -5 1023 94 282 8.7 257 20:36 15.03.2022
3189 Snow -6 1024 94 310 8.99 255 18:58 15.03.2022
3190 Snow -6 1024 94 161 9.89 249 17:24 15.03.2022
3191 Snow -6 1024 94 161 9.89 249 16:32 15.03.2022
3192 Snow -7 1025 93 281 9.98 244 15:21 15.03.2022
3193 Snow -7 1025 93 281 9.98 244 14:45 15.03.2022
3194 Snow -7 1025 93 238 10 241 13:46 15.03.2022
3195 Clouds -9 1027 93 446 9.2 234 12:29 15.03.2022
3196 Clouds -9 1027 93 446 9.2 234 11:31 15.03.2022
3197 Clouds -11 1027 93 5549 8.64 234 09:46 15.03.2022
3198 Clouds -11 1028 93 5683 8.36 236 08:42 15.03.2022
3199 Clouds -11 1028 94 5296 8.25 238 07:52 15.03.2022
3200 Clouds -11 1028 94 5296 8.25 238 07:32 15.03.2022
3201 Clouds -11 1028 94 9622 7.72 240 03:41 15.03.2022
3202 Clouds -9 1028 93 1054 7.46 249 23:44 14.03.2022
3203 Clouds -9 1028 93 1613 7.4 248 23:23 14.03.2022
3204 Clouds -9 1028 93 1122 7.62 248 22:26 14.03.2022
3205 Clouds -9 1028 93 1122 7.62 248 21:30 14.03.2022
3206 Clouds -9 1028 93 3282 7.69 245 20:41 14.03.2022
3207 Clouds -9 1027 93 2594 7.83 243 20:19 14.03.2022
3208 Clouds -9 1028 93 2180 7.75 245 18:55 14.03.2022
3209 Clouds -10 1028 93 1257 7.8 243 17:54 14.03.2022
3210 Clouds -10 1028 93 1286 7.8 241 16:58 14.03.2022
3211 Clouds -10 1028 93 1606 7.58 240 15:43 14.03.2022
3212 Clouds -11 1028 94 2974 7.53 240 14:40 14.03.2022
3213 Clouds -11 1028 94 10000 6.97 235 12:22 14.03.2022
3214 Clouds -11 1028 94 10000 6.78 238 10:51 14.03.2022
3215 Clouds -12 1028 94 10000 6.42 237 09:44 14.03.2022
3216 Clouds -12 1028 94 10000 5.95 237 09:21 14.03.2022
3217 Clouds -12 1028 94 10000 5.95 237 08:55 14.03.2022
3218 Clouds -14 1028 97 10000 4.64 236 07:28 14.03.2022
3219 Clouds -16 1028 99 5504 3.84 237 05:44 14.03.2022
3220 Clouds -17 1027 100 1169 3.09 238 01:55 14.03.2022
3221 Clouds -17 1026 100 1123 2.88 234 01:24 14.03.2022
3222 Clouds -17 1025 100 3432 2.41 229 22:43 13.03.2022
3223 Clouds -17 1025 100 4283 1.89 238 21:29 13.03.2022
3224 Clouds -17 1025 100 4283 1.89 238 20:55 13.03.2022
3225 Clouds -17 1025 100 4283 1.89 238 20:30 13.03.2022
3226 Clouds -17 1024 99 7689 2.12 224 19:49 13.03.2022
3227 Clouds -17 1023 99 10000 1.98 222 19:27 13.03.2022
3228 Clouds -17 1023 99 10000 1.98 222 18:59 13.03.2022
3229 Clouds -17 1023 99 10000 1.98 222 18:31 13.03.2022
3230 Clouds -17 1023 99 10000 1.59 208 17:40 13.03.2022
3231 Clouds -17 1023 99 10000 1.59 208 17:40 13.03.2022
3232 Clouds -17 1023 99 10000 1.41 208 16:57 13.03.2022
3233 Clouds -17 1022 99 10000 1.04 228 16:29 13.03.2022
3234 Clouds -17 1022 99 10000 1.04 228 15:44 13.03.2022
3235 Clouds -16 1021 98 10000 1.37 207 14:51 13.03.2022
3236 Clouds -15 1020 98 10000 1.57 185 13:33 13.03.2022
3237 Clouds -13 1020 97 10000 1.63 156 12:38 13.03.2022
3238 Clouds -12 1019 96 10000 1.63 132 11:51 13.03.2022
3239 Clouds -12 1019 96 10000 1.63 132 11:31 13.03.2022
3240 Clouds -12 1019 96 10000 1.63 132 11:31 13.03.2022
3241 Clouds -11 1018 95 10000 1.62 116 10:46 13.03.2022
3242 Clouds -11 1017 95 10000 1.62 117 09:59 13.03.2022
3243 Clouds -11 1017 95 10000 1.62 117 09:40 13.03.2022
3244 Clouds -11 1016 94 10000 1.74 148 08:45 13.03.2022
3245 Clouds -12 1015 95 10000 2.05 154 07:40 13.03.2022
3246 Clouds -14 1014 97 10000 2.48 142 05:40 13.03.2022
3247 Clouds -14 1011 97 10000 2.5 156 02:39 13.03.2022
3248 Clouds -12 1008 95 10000 3.65 162 23:33 12.03.2022
3249 Clouds -10 1006 94 10000 3.79 148 21:53 12.03.2022
3250 Clouds -9 1004 92 10000 4.59 151 20:29 12.03.2022
3251 Clouds -9 1004 92 10000 4.59 151 19:47 12.03.2022
3252 Clouds -8 1003 89 10000 5.18 145 18:55 12.03.2022
3253 Clouds -10 1003 93 10000 4.54 130 18:21 12.03.2022
3254 Clouds -10 1002 92 10000 4.34 127 17:23 12.03.2022
3255 Clouds -9 1002 90 10000 4.62 135 16:23 12.03.2022
3256 Clouds -9 1002 88 10000 5.49 155 15:22 12.03.2022
3257 Clouds -8 1002 87 10000 6.72 166 14:27 12.03.2022
3258 Clouds -9 1003 86 10000 7.21 176 12:35 12.03.2022
3259 Clouds -8 1002 87 10000 8.01 181 11:56 12.03.2022
3260 Clouds -8 1002 87 10000 8.01 181 11:34 12.03.2022
3261 Clouds -8 1002 87 10000 8.25 185 10:52 12.03.2022
3262 Clouds -8 1002 87 10000 8.32 189 09:44 12.03.2022
3263 Clouds -8 1002 88 10000 8.14 191 08:53 12.03.2022
3264 Clouds -9 1003 89 10000 8.49 196 06:53 12.03.2022
3265 Clouds -9 1003 87 10000 11.03 201 01:44 12.03.2022
3266 Clouds -9 1005 86 10000 11.48 200 23:51 11.03.2022
3267 Clouds -9 1005 86 10000 11.52 199 22:45 11.03.2022
3268 Clouds -10 1006 87 4815 11.33 197 21:26 11.03.2022
3269 Clouds -10 1006 87 4815 11.33 197 20:51 11.03.2022
3270 Clouds -10 1007 87 4303 11.21 196 20:28 11.03.2022
3271 Clouds -10 1007 87 4303 11.21 196 19:36 11.03.2022
3272 Clouds -10 1008 87 5121 11.04 195 18:51 11.03.2022
3273 Clouds -11 1010 87 4989 10.57 196 17:28 11.03.2022
3274 Clouds -11 1011 86 4533 10.53 198 16:27 11.03.2022
3275 Clouds -11 1011 86 4533 10.53 198 15:52 11.03.2022
3276 Clouds -12 1012 87 3943 10.43 201 14:18 11.03.2022
3277 Clouds -12 1013 87 5773 10.41 201 12:43 11.03.2022
3278 Clouds -12 1014 87 5980 10.6 202 12:20 11.03.2022
3279 Clouds -12 1014 88 7939 10.82 201 11:28 11.03.2022
3280 Clouds -12 1015 88 10000 11.08 203 09:36 11.03.2022
3281 Clouds -13 1016 89 10000 11.23 206 08:28 11.03.2022
3282 Clouds -13 1016 89 10000 11.23 206 07:48 11.03.2022
3283 Clouds -13 1016 89 10000 11.08 206 06:55 11.03.2022
3284 Clouds -13 1017 89 1591 11.13 207 04:44 11.03.2022
3285 Clouds -13 1019 89 9263 11.15 210 01:51 11.03.2022
3286 Clouds -13 1021 89 6496 11.21 213 22:33 10.03.2022
3287 Clouds -14 1022 89 6447 10.99 212 21:58 10.03.2022
3288 Clouds -14 1023 89 5898 10.94 211 21:25 10.03.2022
3289 Clouds -14 1023 89 5898 10.94 211 20:37 10.03.2022
3290 Clouds -16 1024 89 10000 10.66 211 19:22 10.03.2022
3291 Clouds -16 1025 86 10000 10.94 213 17:55 10.03.2022
3292 Clouds -16 1026 85 10000 10.65 212 16:53 10.03.2022
3293 Clouds -17 1028 83 10000 9.87 211 15:29 10.03.2022
3294 Clouds -17 1029 84 10000 9.25 210 13:46 10.03.2022
3295 Clouds -18 1029 85 10000 8.75 210 12:41 10.03.2022
3296 Clouds -19 1031 89 10000 8.35 215 11:29 10.03.2022
3297 Clouds -20 1031 92 10000 8.23 216 09:43 10.03.2022
3298 Clouds -22 1031 92 10000 8.09 219 08:23 10.03.2022
3299 Clouds -24 1032 97 10000 7.47 220 05:32 10.03.2022
3300 Clouds -24 1033 94 10000 6.28 217 02:33 10.03.2022
3301 Clouds -25 1032 95 10000 5.38 220 23:32 09.03.2022
3302 Clouds -26 1032 95 10000 5.18 220 22:22 09.03.2022
3303 Clouds -26 1032 95 10000 5.18 220 21:44 09.03.2022
3304 Clouds -26 1032 95 10000 4.98 221 20:44 09.03.2022
3305 Clouds -26 1032 94 10000 4.62 225 18:50 09.03.2022
3306 Clouds -27 1031 94 10000 4.73 224 17:28 09.03.2022
3307 Clouds -27 1031 94 10000 4.73 224 16:39 09.03.2022
3308 Clouds -27 1031 94 10000 4.7 225 15:32 09.03.2022
3309 Clouds -26 1031 93 10000 4.37 230 14:19 09.03.2022
3310 Clear -26 1030 92 10000 3.83 228 12:59 09.03.2022
3311 Clear -25 1029 92 10000 3.73 229 12:20 09.03.2022
3312 Clear -25 1029 92 10000 3.73 229 11:45 09.03.2022
3313 Clear -24 1029 91 10000 3.84 231 10:50 09.03.2022
3314 Clear -25 1028 93 10000 3.64 229 09:22 09.03.2022
3315 Clear -25 1028 93 10000 3.64 229 08:42 09.03.2022
3316 Clouds -30 1027 96 10000 3.66 222 04:49 09.03.2022
3317 Clouds -31 1026 97 10000 3.44 222 00:55 09.03.2022
3318 Clouds -31 1025 97 10000 3.28 225 23:21 08.03.2022
3319 Clouds -31 1025 97 10000 3.28 225 22:45 08.03.2022
3320 Clouds -31 1025 97 10000 3.15 226 21:43 08.03.2022
3321 Clouds -31 1024 97 10000 3.07 226 21:18 08.03.2022
3322 Clouds -31 1024 97 10000 3 228 19:59 08.03.2022
3323 Clouds -31 1024 97 10000 3.03 230 18:53 08.03.2022
3324 Clouds -31 1024 97 9204 2.8 233 17:51 08.03.2022
3325 Clouds -31 1024 98 9188 2.62 234 16:35 08.03.2022
3326 Clouds -30 1024 98 10000 2.21 253 14:23 08.03.2022
3327 Clouds -29 1023 97 10000 2.02 263 12:44 08.03.2022
3328 Clouds -28 1022 96 10000 1.73 274 11:53 08.03.2022
3329 Clouds -28 1022 96 10000 1.73 274 11:34 08.03.2022
3330 Clouds -27 1022 95 10000 1.72 302 10:22 08.03.2022
3331 Clouds -28 1022 97 7575 1.61 305 08:28 08.03.2022
3332 Clouds -28 1021 99 3928 1.25 312 05:47 08.03.2022
3333 Clouds -28 1020 98 2109 1.92 351 00:43 08.03.2022
3334 Clouds -32 1020 100 5122 1.26 14 22:23 07.03.2022
3335 Clouds -32 1020 100 5122 1.26 14 21:35 07.03.2022
3336 Clouds -32 1020 100 5146 1.48 31 20:54 07.03.2022
3337 Clouds -31 1020 100 5189 1.65 30 20:22 07.03.2022
3338 Clouds -31 1020 100 5189 1.65 30 19:38 07.03.2022
3339 Clouds -31 1020 100 4748 1.77 15 18:47 07.03.2022
3340 Clouds -31 1020 100 4596 1.94 20 17:54 07.03.2022
3341 Clouds -30 1020 100 4702 2.12 24 16:56 07.03.2022
3342 Clouds -29 1020 100 4547 2.59 28 16:20 07.03.2022
3343 Clouds -28 1020 99 3039 3.37 12 14:19 07.03.2022
3344 Clouds -28 1019 99 3166 3.24 0 12:33 07.03.2022
3345 Clouds -28 1019 97 2651 3.44 3 10:39 07.03.2022
3346 Clouds -28 1019 97 3160 3.39 0 09:47 07.03.2022
3347 Clouds -29 1019 100 3865 2.97 360 06:20 07.03.2022
3348 Clouds -31 1019 100 5141 1.63 24 00:23 07.03.2022
3349 Clouds -31 1019 100 5141 1.63 24 23:35 06.03.2022
3350 Clouds -31 1019 100 5109 1.71 34 22:57 06.03.2022
3351 Clouds -30 1019 100 5427 1.8 38 22:19 06.03.2022
3352 Clouds -30 1019 100 5325 1.87 44 20:50 06.03.2022
3353 Clouds -30 1019 100 4686 1.95 46 20:23 06.03.2022
3354 Clouds -29 1019 100 4348 1.83 49 19:21 06.03.2022
3355 Clouds -30 1019 100 4773 1.64 55 18:25 06.03.2022
3356 Clouds -30 1019 100 5004 1.69 59 17:21 06.03.2022
3357 Clouds -30 1019 100 5004 1.69 59 16:42 06.03.2022
3358 Clouds -30 1019 100 5709 1.74 60 15:54 06.03.2022
3359 Clouds -30 1019 100 6378 2.26 54 14:49 06.03.2022
3360 Clouds -30 1019 100 6378 2.26 54 14:31 06.03.2022
3361 Clouds -28 1019 98 6857 2.81 49 13:29 06.03.2022
3362 Clouds -29 1019 99 6765 3.09 52 12:35 06.03.2022
3363 Clouds -27 1019 97 7517 3.07 52 11:18 06.03.2022
3364 Clouds -27 1019 97 7585 3.12 57 10:27 06.03.2022
3365 Clouds -27 1019 97 6632 2.94 63 08:30 06.03.2022
3366 Clouds -27 1019 98 5296 2.68 63 07:35 06.03.2022
3367 Clouds -28 1019 100 4125 1.82 57 05:40 06.03.2022
3368 Clouds -28 1020 100 2208 1.69 24 00:51 06.03.2022
3369 Clouds -29 1020 100 2386 1.48 26 00:30 06.03.2022
3370 Clouds -29 1021 100 2387 1.16 351 23:21 05.03.2022
3371 Clouds -29 1021 100 2387 1.16 351 22:47 05.03.2022
3372 Clouds -29 1021 100 2632 0.99 358 21:56 05.03.2022
3373 Clouds -29 1021 100 3287 0.94 19 21:23 05.03.2022
3374 Clouds -28 1021 100 4175 0.77 24 19:44 05.03.2022
3375 Clouds -29 1021 100 4791 0.86 10 18:54 05.03.2022
3376 Clouds -29 1021 100 4072 1.06 14 18:27 05.03.2022
3377 Clouds -28 1021 100 4530 1.18 14 16:34 05.03.2022
3378 Clouds -28 1021 100 5022 1.52 20 15:31 05.03.2022
3379 Clouds -28 1022 100 5389 1.89 18 14:47 05.03.2022
3380 Clouds -26 1022 100 5592 2.04 14 14:29 05.03.2022
3381 Clouds -25 1022 99 5609 2.57 13 13:22 05.03.2022
3382 Clouds -24 1022 99 6877 2.73 359 11:48 05.03.2022
3383 Clouds -23 1022 98 6825 2.71 2 11:19 05.03.2022
3384 Clouds -23 1022 98 7414 2.69 4 10:18 05.03.2022
3385 Clouds -23 1021 98 6473 2.95 7 08:59 05.03.2022
3386 Clouds -24 1021 99 4596 2.98 1 07:38 05.03.2022
3387 Clouds -27 1021 100 3488 2.18 333 05:43 05.03.2022
3388 Clouds -28 1021 100 3598 2.11 322 02:27 05.03.2022
3389 Clouds -29 1021 100 5006 2.23 326 23:37 04.03.2022
3390 Clouds -29 1021 100 4487 2.21 325 22:42 04.03.2022
3391 Clouds -29 1021 100 3788 2.25 333 21:48 04.03.2022
3392 Clouds -28 1021 100 3828 2.27 337 20:54 04.03.2022
3393 Clouds -28 1021 100 3365 2.14 337 20:24 04.03.2022
3394 Clouds -28 1021 100 3365 2.14 337 19:36 04.03.2022
3395 Clouds -27 1020 100 4249 2.17 346 18:44 04.03.2022
3396 Clouds -27 1020 100 4505 2.34 346 17:32 04.03.2022
3397 Clouds -26 1020 100 4015 2.15 337 16:46 04.03.2022
3398 Clouds -25 1020 100 3526 2 297 15:29 04.03.2022
3399 Clouds -25 1020 100 4537 2.2 292 14:29 04.03.2022
3400 Clouds -23 1020 100 5893 2.25 301 13:26 04.03.2022
3401 Clouds -21 1020 97 6890 2.78 327 11:41 04.03.2022
3402 Clouds -21 1020 95 2257 3.05 337 10:50 04.03.2022
3403 Clouds -23 1019 97 2209 2.88 337 09:42 04.03.2022
3404 Clouds -24 1019 98 3935 2.55 337 08:39 04.03.2022
3405 Clouds -25 1019 98 4067 2.41 343 07:34 04.03.2022
3406 Clouds -30 1018 100 3372 1.75 294 03:53 04.03.2022
3407 Clouds -29 1017 100 5510 2.11 304 00:24 04.03.2022
3408 Clouds -28 1017 100 5435 2.25 306 22:27 03.03.2022
3409 Clouds -28 1017 100 5435 2.25 306 21:42 03.03.2022
3410 Clouds -28 1016 100 5467 2 306 21:24 03.03.2022
3411 Clouds -28 1016 100 5511 2.02 315 19:52 03.03.2022
3412 Clouds -27 1015 100 5125 1.99 323 18:54 03.03.2022
3413 Clouds -27 1015 100 5321 2.13 334 18:23 03.03.2022
3414 Clouds -27 1015 100 5321 2.13 334 17:30 03.03.2022
3415 Clouds -26 1014 100 4117 2.59 358 16:24 03.03.2022
3416 Clouds -25 1014 100 3647 3.08 352 15:23 03.03.2022
3417 Clouds -25 1014 100 3647 3.08 352 14:43 03.03.2022
3418 Clouds -23 1013 100 3116 3.83 349 13:24 03.03.2022
3419 Clouds -22 1012 100 2802 4.09 350 12:22 03.03.2022
3420 Clouds -21 1011 99 1676 4.04 358 10:47 03.03.2022
3421 Clouds -22 1010 100 1412 3.45 2 09:41 03.03.2022
3422 Clouds -23 1009 100 3531 2.69 18 07:50 03.03.2022
3423 Clouds -24 1008 100 3819 2.68 29 06:36 03.03.2022
3424 Clouds -23 1004 100 5121 3.75 49 02:42 03.03.2022
3425 Clouds -16 1001 97 2982 6.79 64 23:34 02.03.2022
3426 Clouds -15 1001 95 2483 7.17 72 22:52 02.03.2022
3427 Clouds -14 1000 95 1736 7.25 79 21:34 02.03.2022
3428 Clouds -14 999 95 1649 7.24 79 20:55 02.03.2022
3429 Clouds -14 999 95 1474 6.99 84 20:24 02.03.2022
3430 Clouds -14 999 95 1474 6.99 84 20:24 02.03.2022
3431 Clouds -14 999 95 1474 6.99 84 19:37 02.03.2022
3432 Clouds -14 999 96 1504 6.83 87 18:54 02.03.2022
3433 Clouds -14 999 95 825 6.8 89 18:19 02.03.2022
3434 Clouds -14 999 95 825 6.8 89 17:36 02.03.2022
3435 Clouds -13 999 96 517 6.47 89 16:51 02.03.2022
3436 Snow -12 1000 96 191 4.84 93 14:59 02.03.2022
3437 Snow -12 1000 96 176 4.17 93 13:30 02.03.2022
3438 Snow -12 1001 95 161 3.34 105 12:45 02.03.2022
3439 Clouds -12 1002 92 1148 3.16 109 11:59 02.03.2022
3440 Clouds -12 1002 88 10000 3.02 116 11:25 02.03.2022
3441 Clouds -12 1003 89 10000 2.88 128 10:25 02.03.2022
3442 Clouds -13 1004 91 10000 2.71 135 09:25 02.03.2022
3443 Clouds -15 1005 93 10000 2.54 147 07:59 02.03.2022
3444 Clouds -15 1005 94 10000 2.5 174 07:23 02.03.2022
3445 Clouds -18 1008 99 10000 3.18 200 03:46 02.03.2022
3446 Clouds -20 1010 100 9352 3.28 214 00:39 02.03.2022
3447 Clouds -20 1011 99 10000 3.57 233 22:50 01.03.2022
3448 Clouds -20 1011 99 10000 3.57 233 22:31 01.03.2022
3449 Clouds -19 1011 96 10000 3.97 239 21:25 01.03.2022
3450 Clouds -19 1011 96 10000 3.97 239 20:37 01.03.2022
3451 Clouds -18 1011 94 10000 3.73 236 20:18 01.03.2022
3452 Clouds -19 1011 99 10000 3.44 225 18:52 01.03.2022
3453 Clouds -20 1011 98 10000 3.27 230 18:21 01.03.2022
3454 Clouds -20 1011 98 10000 3.27 230 18:21 01.03.2022
3455 Clouds -20 1011 98 10000 3.27 230 17:37 01.03.2022
3456 Clouds -19 1012 98 10000 3.15 233 16:35 01.03.2022
3457 Clouds -19 1012 98 10000 3.21 234 15:47 01.03.2022
3458 Clouds -19 1011 98 10000 2.96 234 14:41 01.03.2022
3459 Clouds -19 1011 98 10000 2.56 248 14:23 01.03.2022
3460 Clouds -16 1011 97 10000 2.67 256 13:26 01.03.2022
3461 Clouds -18 1011 97 10000 2.67 253 12:35 01.03.2022
3462 Clouds -16 1010 98 10000 2.42 271 10:52 01.03.2022
3463 Clouds -15 1009 94 10000 3.66 303 09:27 01.03.2022
3464 Clouds -15 1008 96 10000 3.95 310 08:20 01.03.2022
3465 Clouds -16 1007 96 10000 4.4 312 06:47 01.03.2022
3466 Clouds -13 1002 88 10000 8.21 332 02:57 01.03.2022
3467 Clouds -12 998 92 7817 8.61 339 00:47 01.03.2022
3468 Clouds -11 996 92 9194 9.22 340 23:36 28.02.2022
3469 Clouds -11 994 91 10000 10 348 22:38 28.02.2022
3470 Snow -10 992 93 1377 10.71 351 21:43 28.02.2022
3471 Snow -10 989 95 124 9.9 357 20:34 28.02.2022
3472 Snow -9 987 95 110 9.93 4 19:51 28.02.2022
3473 Snow -9 986 95 107 8.29 4 18:50 28.02.2022
3474 Snow -5 984 97 121 6.31 4 17:37 28.02.2022
3475 Snow -4 983 97 247 3.69 3 17:18 28.02.2022
3476 Snow -4 983 97 238 3.06 351 15:59 28.02.2022
3477 Snow -4 983 97 222 2.27 328 14:32 28.02.2022
3478 Snow -4 983 97 182 1.67 264 13:53 28.02.2022
3479 Snow -2 981 97 148 4.04 242 13:19 28.02.2022
3480 Snow -3 982 96 181 5.31 227 11:59 28.02.2022
3481 Snow -4 984 94 286 7.12 224 11:19 28.02.2022
3482 Clouds -4 985 91 948 8.73 221 10:23 28.02.2022
3483 Clouds -4 985 91 948 8.73 221 09:44 28.02.2022
3484 Snow -4 986 91 1211 9.02 221 08:54 28.02.2022
3485 Snow -4 988 93 280 9.49 224 07:59 28.02.2022
3486 Snow -4 989 93 339 9.39 228 06:31 28.02.2022
3487 Snow -4 991 91 3453 10.05 235 04:31 28.02.2022
3488 Snow -5 994 92 451 10.29 234 00:53 28.02.2022
3489 Clouds -7 997 90 907 10.12 233 22:55 27.02.2022
3490 Clouds -7 997 90 907 10.12 233 22:32 27.02.2022
3491 Snow -7 998 91 440 11.2 230 21:42 27.02.2022
3492 Snow -7 1000 91 245 11.97 228 20:50 27.02.2022
3493 Snow -8 1001 91 242 12.5 225 20:18 27.02.2022
3494 Snow -8 1001 91 242 12.5 225 19:49 27.02.2022
3495 Snow -8 1003 91 223 12.08 226 19:22 27.02.2022
3496 Snow -8 1003 91 221 11.83 224 18:37 27.02.2022
3497 Snow -8 1005 92 217 11.23 227 17:52 27.02.2022
3498 Clouds -8 1007 84 10000 10.72 233 16:30 27.02.2022
3499 Clouds -7 1009 81 10000 11.1 241 15:24 27.02.2022
3500 Clouds -8 1011 88 10000 9.81 240 12:37 27.02.2022
3501 Clouds -7 1011 89 10000 10.14 241 11:54 27.02.2022
3502 Clouds -11 1011 91 3163 10.36 225 10:37 27.02.2022
3503 Clouds -12 1012 92 999 8.89 223 09:58 27.02.2022
3504 Clear -15 1013 84 10000 7.46 226 09:24 27.02.2022
3505 Clear -15 1013 84 10000 7.46 226 08:51 27.02.2022
3506 Clouds -17 1013 92 10000 4.1 230 06:30 27.02.2022
3507 Clouds -17 1012 100 7061 3.18 300 04:19 27.02.2022
3508 Clouds -14 1009 97 6241 6.13 352 00:32 27.02.2022
3509 Clouds -13 1007 97 1263 6.19 359 22:50 26.02.2022
3510 Snow -13 1006 96 537 5.68 7 21:34 26.02.2022
3511 Snow -12 1005 96 169 6.45 4 20:43 26.02.2022
3512 Snow -10 1005 95 168 5.17 6 19:58 26.02.2022
3513 Snow -10 1005 95 168 5.17 6 19:33 26.02.2022
3514 Snow -11 1005 96 109 5.6 12 18:40 26.02.2022
3515 Snow -9 1004 96 120 4.73 10 17:38 26.02.2022
3516 Snow -7 1004 97 123 2.6 345 16:48 26.02.2022
3517 Snow -7 1003 97 287 1.54 244 15:45 26.02.2022
3518 Clouds -5 1003 96 725 2.65 225 15:20 26.02.2022
3519 Clouds -5 1003 96 725 2.65 225 14:51 26.02.2022
3520 Clouds -5 1003 96 1077 3.19 224 14:24 26.02.2022
3521 Clouds -4 1003 95 3593 4.12 231 12:59 26.02.2022
3522 Clouds -3 1002 95 1343 5.1 225 11:54 26.02.2022
3523 Clouds -3 1002 94 4467 5.23 221 11:27 26.02.2022
3524 Clouds -3 1001 94 10000 5.42 220 10:22 26.02.2022
3525 Clouds -3 1001 94 4255 5.87 225 08:35 26.02.2022
3526 Clouds -3 1001 94 2093 5.47 225 06:46 26.02.2022
3527 Clouds -2 999 93 2429 7.47 242 00:26 26.02.2022
3528 Clouds -3 998 93 1322 7.97 241 22:44 25.02.2022
3529 Snow -3 997 93 821 7.98 235 21:33 25.02.2022
3530 Snow -2 997 95 392 7.71 237 20:57 25.02.2022
3531 Snow -2 996 95 263 8.25 239 20:28 25.02.2022
3532 Snow -2 995 93 547 9.54 232 18:18 25.02.2022
3533 Snow -3 995 93 390 10.23 225 17:20 25.02.2022
3534 Snow -4 994 94 233 9.94 218 16:20 25.02.2022
3535 Snow -4 994 94 233 9.94 218 15:42 25.02.2022
3536 Snow -5 994 92 416 10.55 210 15:18 25.02.2022
3537 Snow -5 994 92 416 10.55 210 14:39 25.02.2022
3538 Clouds -7 994 88 1962 11.91 200 13:30 25.02.2022
3539 Snow -8 995 91 520 10.01 191 12:42 25.02.2022
3540 Clouds -11 996 85 10000 8.39 185 11:23 25.02.2022
3541 Clouds -12 997 86 10000 8.39 186 10:24 25.02.2022
3542 Clouds -12 997 86 10000 8.39 186 09:52 25.02.2022
3543 Clouds -13 998 87 10000 8.6 187 08:42 25.02.2022
3544 Clouds -13 998 85 10000 8.76 189 07:36 25.02.2022
3545 Clouds -14 999 85 10000 7.38 181 05:45 25.02.2022
3546 Clouds -16 1002 93 10000 6.89 194 02:49 25.02.2022
3547 Clouds -17 1004 96 10000 5.9 213 22:55 24.02.2022
3548 Clouds -17 1004 98 8337 5.6 216 21:51 24.02.2022
3549 Clouds -17 1004 98 8337 5.6 216 21:31 24.02.2022
3550 Clouds -17 1004 97 10000 4.85 217 20:53 24.02.2022
3551 Clouds -17 1004 97 10000 4.7 222 19:38 24.02.2022
3552 Clouds -17 1004 97 8279 4.52 228 18:37 24.02.2022
3553 Clouds -16 1004 97 5876 4.42 232 18:18 24.02.2022
3554 Clouds -16 1004 97 5876 4.42 232 17:33 24.02.2022
3555 Clouds -14 1004 96 4659 3.61 241 16:29 24.02.2022
3556 Clouds -14 1004 96 4659 3.61 241 15:46 24.02.2022
3557 Clouds -13 1003 95 2658 3.51 243 14:52 24.02.2022
3558 Clouds -12 1003 95 914 3.47 242 14:20 24.02.2022
3559 Clouds -12 1003 95 914 3.47 242 13:39 24.02.2022
3560 Snow -11 1003 95 253 2.95 249 12:33 24.02.2022
3561 Clouds -12 1002 95 557 1.81 254 10:40 24.02.2022
3562 Clouds -13 1002 96 7470 1.59 246 08:56 24.02.2022
3563 Clouds -13 1002 96 7470 1.59 246 08:38 24.02.2022
3564 Clouds -14 1001 95 8554 1.33 244 05:52 24.02.2022
3565 Clouds -13 1000 90 10000 1.44 210 01:56 24.02.2022
3566 Clouds -12 1000 89 10000 1.87 172 22:38 23.02.2022
3567 Clouds -12 1000 89 10000 1.93 159 21:37 23.02.2022
3568 Clouds -12 1000 89 10000 2.2 143 20:31 23.02.2022
3569 Clouds -11 1000 89 10000 2.22 131 19:44 23.02.2022
3570 Clouds -11 1001 90 6616 2.59 134 18:32 23.02.2022
3571 Clouds -11 1001 92 4323 2.75 130 17:30 23.02.2022
3572 Clouds -11 1002 95 558 2.9 128 14:34 23.02.2022
3573 Clouds -12 1003 94 2218 2.69 119 12:37 23.02.2022
3574 Clouds -13 1004 89 5372 3.39 118 11:24 23.02.2022
3575 Clouds -13 1004 89 5372 3.39 118 10:31 23.02.2022
3576 Clouds -14 1004 84 10000 4.18 124 08:58 23.02.2022
3577 Clouds -14 1005 82 10000 4.51 121 07:57 23.02.2022
3578 Clouds -18 1006 94 10000 3.53 113 03:48 23.02.2022
3579 Clouds -23 1007 100 5354 2.8 132 00:26 23.02.2022
3580 Clouds -23 1007 100 5354 2.8 132 23:35 22.02.2022
3581 Clouds -24 1007 100 4508 2.49 139 22:31 22.02.2022
3582 Clouds -24 1007 100 5420 1.97 145 21:49 22.02.2022
3583 Clouds -24 1007 100 5420 1.97 145 21:30 22.02.2022
3584 Clouds -23 1006 100 5355 1.8 129 20:52 22.02.2022
3585 Clouds -22 1006 100 5027 1.24 105 20:29 22.02.2022
3586 Clouds -22 1006 100 5027 1.24 105 19:36 22.02.2022
3587 Clouds -22 1006 100 5097 0.93 60 19:18 22.02.2022
3588 Clouds -19 1006 100 7023 1.43 39 17:48 22.02.2022
3589 Clouds -18 1005 100 6720 2 25 17:21 22.02.2022
3590 Clouds -18 1005 100 6720 2 25 16:36 22.02.2022
3591 Clouds -18 1004 100 6233 2.34 20 15:40 22.02.2022
3592 Clouds -17 1004 100 5144 2.5 12 14:44 22.02.2022
3593 Clouds -15 1002 100 3935 3.48 2 12:23 22.02.2022
3594 Clouds -14 1001 99 3389 4.02 2 10:50 22.02.2022
3595 Clouds -14 999 99 2275 4.32 356 08:40 22.02.2022
3596 Clouds -13 997 96 869 4.85 348 07:26 22.02.2022
3597 Clouds -12 996 96 441 4.69 348 04:31 22.02.2022
3598 Clouds -11 994 95 383 4.56 343 01:45 22.02.2022
3599 Clouds -11 994 95 383 4.56 343 01:44 22.02.2022
3600 Clouds -9 992 96 541 3.3 320 22:44 21.02.2022
3601 Clouds -9 991 97 764 2.85 299 21:33 21.02.2022
3602 Clouds -9 990 97 599 2.61 277 20:35 21.02.2022
3603 Clouds -8 990 96 1094 2.43 239 18:46 21.02.2022
3604 Clouds -8 990 96 1880 2.64 224 16:56 21.02.2022
3605 Clouds -8 989 96 950 2.81 213 15:20 21.02.2022
3606 Clouds -7 989 95 609 2.95 205 14:21 21.02.2022
3607 Clouds -6 989 95 595 3.09 205 13:20 21.02.2022
3608 Clouds -7 989 94 3258 2.83 194 12:23 21.02.2022
3609 Clouds -6 988 92 10000 3.24 191 10:58 21.02.2022
3610 Clouds -6 988 92 6243 3.67 195 09:34 21.02.2022
3611 Clouds -6 988 92 10000 4.12 180 04:52 21.02.2022
3612 Clouds -6 989 88 10000 4.35 179 23:32 20.02.2022
3613 Clouds -4 989 88 10000 6.68 192 22:21 20.02.2022
3614 Clouds -4 989 88 10000 6.68 192 21:42 20.02.2022
3615 Clouds -4 989 90 10000 6.59 191 20:53 20.02.2022
3616 Clouds -4 990 90 10000 6.2 194 20:23 20.02.2022
3617 Clouds -4 990 90 10000 6.2 194 19:31 20.02.2022
3618 Clouds -4 990 90 10000 6.2 194 19:31 20.02.2022
3619 Clouds -4 990 90 10000 6.21 195 18:50 20.02.2022
3620 Clouds -5 990 90 10000 5.45 193 18:31 20.02.2022
3621 Clouds -4 990 90 10000 6.29 196 17:47 20.02.2022
3622 Clouds -5 991 91 2099 7.25 203 15:31 20.02.2022
3623 Clouds -5 991 91 3607 7.39 207 14:41 20.02.2022
3624 Clouds -4 990 91 1911 7.93 215 13:23 20.02.2022
3625 Clouds -4 990 91 2035 8.03 214 12:22 20.02.2022
3626 Snow -3 990 93 491 8.46 215 10:21 20.02.2022
3627 Snow -3 990 93 491 8.46 215 09:53 20.02.2022
3628 Clouds -3 989 90 3246 9.72 214 07:45 20.02.2022
3629 Snow -2 989 94 333 8.23 208 00:54 20.02.2022
3630 Snow -3 989 93 475 8.22 206 00:29 20.02.2022
3631 Clouds -3 990 90 7590 7.88 211 22:25 19.02.2022
3632 Clouds -3 990 90 7590 7.88 211 21:57 19.02.2022
3633 Clouds -3 990 90 10000 8.03 213 20:48 19.02.2022
3634 Snow -2 989 94 1074 7.72 216 19:42 19.02.2022
3635 Clouds -2 989 92 2186 7.42 216 19:20 19.02.2022
3636 Clouds -2 990 91 6043 8.32 209 18:29 19.02.2022
3637 Clouds -2 990 91 6043 8.32 209 17:33 19.02.2022
3638 Snow -2 990 93 558 9.28 208 16:21 19.02.2022
3639 Clouds -1 990 91 2994 9.27 215 14:56 19.02.2022
3640 Snow -1 990 93 1140 9.44 210 13:59 19.02.2022
3641 Snow -1 990 93 580 9.16 215 11:59 19.02.2022
3642 Snow -1 990 93 580 9.16 215 11:36 19.02.2022
3643 Snow -1 989 92 1984 9.77 220 09:27 19.02.2022
3644 Snow -2 988 93 631 9.39 212 06:52 19.02.2022
3645 Snow -2 989 95 356 6.73 193 01:39 19.02.2022
3646 Snow -4 991 95 260 4.93 166 22:54 18.02.2022
3647 Snow -5 992 95 163 4 146 21:28 18.02.2022
3648 Snow -5 992 95 163 4 146 20:31 18.02.2022
3649 Snow -6 993 96 149 3.92 123 19:51 18.02.2022
3650 Snow -9 994 96 123 3.74 88 18:39 18.02.2022
3651 Snow -10 995 96 129 3.86 93 18:19 18.02.2022
3652 Snow -11 996 96 131 4.14 94 17:20 18.02.2022
3653 Snow -12 997 96 122 5.1 89 14:39 18.02.2022
3654 Snow -13 997 96 117 5.57 85 13:47 18.02.2022
3655 Snow -14 998 96 116 6.08 84 12:51 18.02.2022
3656 Snow -14 999 96 121 6.65 86 11:57 18.02.2022
3657 Snow -14 1000 96 122 5.98 85 10:47 18.02.2022
3658 Clouds -16 1001 94 1297 4.72 83 09:20 18.02.2022
3659 Clouds -18 1001 97 10000 2.63 71 06:48 18.02.2022
3660 Clouds -19 1002 99 9628 1.88 70 05:34 18.02.2022
3661 Clouds -21 1002 100 2796 1.58 265 22:39 17.02.2022
3662 Clouds -21 1002 100 2748 1.89 256 21:42 17.02.2022
3663 Clouds -20 1001 100 2643 2.19 255 20:52 17.02.2022
3664 Clouds -20 1001 100 2643 2.19 255 20:33 17.02.2022
3665 Clouds -20 1000 100 2962 2.2 260 19:42 17.02.2022
3666 Clouds -19 1000 100 4447 2.07 296 18:29 17.02.2022
3667 Clouds -19 1000 100 4447 2.07 296 17:45 17.02.2022
3668 Clouds -16 999 98 5045 2.14 333 15:58 17.02.2022
3669 Clouds -15 999 97 2328 2.06 2 14:30 17.02.2022
3670 Snow -14 998 96 351 2.19 36 13:47 17.02.2022
3671 Snow -14 998 96 169 3 76 11:55 17.02.2022
3672 Snow -14 998 95 249 3.62 84 10:57 17.02.2022
3673 Snow -16 998 96 151 4.72 89 07:56 17.02.2022
3674 Clouds -18 1002 98 10000 4.14 106 23:50 16.02.2022
3675 Clouds -18 1002 98 10000 3.88 109 22:38 16.02.2022
3676 Clouds -19 1003 99 10000 3.56 118 20:24 16.02.2022
3677 Clouds -19 1004 99 10000 3.53 120 19:23 16.02.2022
3678 Clouds -20 1004 100 10000 3.3 120 18:34 16.02.2022
3679 Clouds -18 1005 98 10000 3.26 128 17:24 16.02.2022
3680 Clouds -17 1006 96 10000 3.77 136 15:23 16.02.2022
3681 Clouds -17 1006 95 10000 3.9 142 13:46 16.02.2022
3682 Clouds -15 1006 91 10000 4.2 145 12:27 16.02.2022
3683 Clouds -15 1006 91 10000 4.2 145 11:46 16.02.2022
3684 Clouds -14 1006 90 10000 4.55 155 10:35 16.02.2022
3685 Clouds -13 1006 90 10000 5.08 168 09:39 16.02.2022
3686 Clouds -14 1005 91 5726 4.49 154 06:44 16.02.2022
3687 Clouds -14 1005 90 4059 4.62 159 02:47 16.02.2022
3688 Clouds -14 1005 89 4923 5.73 160 22:34 15.02.2022
3689 Snow -13 1005 91 1130 5.57 157 21:50 15.02.2022
3690 Snow -13 1005 91 1130 5.57 157 21:30 15.02.2022
3691 Snow -13 1005 91 558 5.66 153 20:58 15.02.2022
3692 Clouds -13 1005 90 565 5.79 153 20:26 15.02.2022
3693 Clouds -13 1005 90 565 5.79 153 19:45 15.02.2022
3694 Clouds -12 1006 88 1673 5.8 151 18:26 15.02.2022
3695 Clouds -12 1006 88 1673 5.8 151 17:53 15.02.2022
3696 Clouds -12 1006 88 1673 5.8 151 17:32 15.02.2022
3697 Clouds -13 1007 89 1650 5.54 144 15:43 15.02.2022
3698 Clouds -13 1007 86 2046 5.23 142 14:31 15.02.2022
3699 Clouds -15 1008 84 10000 4.92 135 13:25 15.02.2022
3700 Clouds -15 1009 86 10000 5 128 11:41 15.02.2022
3701 Clouds -16 1009 89 10000 4.52 133 10:27 15.02.2022
3702 Clouds -17 1010 95 10000 4.33 130 08:42 15.02.2022
3703 Clouds -18 1011 96 10000 4.08 140 06:45 15.02.2022
3704 Clouds -18 1014 96 10000 3.72 155 23:35 14.02.2022
3705 Clouds -18 1015 97 10000 3.8 163 21:57 14.02.2022
3706 Clouds -18 1015 98 10000 3.67 162 20:53 14.02.2022
3707 Clouds -19 1015 98 10000 3.5 158 19:49 14.02.2022
3708 Clouds -19 1015 98 10000 3.44 161 19:29 14.02.2022
3709 Clouds -19 1016 97 10000 3.44 168 18:23 14.02.2022
3710 Clouds -18 1016 97 10000 3.42 171 17:28 14.02.2022
3711 Clouds -18 1016 97 10000 3.42 171 16:33 14.02.2022
3712 Clouds -18 1016 96 10000 3.39 170 14:43 14.02.2022
3713 Clouds -18 1016 96 10000 3.41 172 13:34 14.02.2022
3714 Clouds -18 1016 96 10000 3.42 173 12:58 14.02.2022
3715 Clouds -17 1016 96 10000 3.31 173 11:57 14.02.2022
3716 Clouds -17 1016 96 10000 3.31 173 11:38 14.02.2022
3717 Clouds -17 1016 96 10000 3.3 175 10:18 14.02.2022
3718 Clouds -16 1015 95 10000 3.42 176 07:49 14.02.2022
3719 Clouds -16 1015 94 10000 3.49 183 07:24 14.02.2022
3720 Clouds -15 1013 92 10000 5.26 191 22:48 13.02.2022
3721 Clouds -15 1013 91 10000 6.12 193 22:30 13.02.2022
3722 Clouds -15 1013 91 10000 6.12 193 21:57 13.02.2022
3723 Clouds -15 1012 90 10000 7.19 196 21:20 13.02.2022
3724 Clouds -14 1011 89 10000 8.19 197 20:27 13.02.2022
3725 Clouds -14 1010 89 10000 9.05 197 18:58 13.02.2022
3726 Clouds -14 1011 89 10000 8.65 195 18:40 13.02.2022
3727 Clouds -14 1010 88 10000 9.8 195 17:22 13.02.2022
3728 Clouds -14 1009 88 10000 10.23 194 15:51 13.02.2022
3729 Clouds -14 1008 88 10000 10.49 194 14:50 13.02.2022
3730 Clouds -15 1008 87 10000 9.86 189 13:27 13.02.2022
3731 Clouds -15 1008 87 10000 9.86 189 12:42 13.02.2022
3732 Clouds -15 1006 88 5335 8.91 184 10:44 13.02.2022
3733 Clouds -16 1006 87 10000 8.62 182 10:25 13.02.2022
3734 Clouds -16 1006 87 10000 8.34 179 08:56 13.02.2022
3735 Clouds -15 1006 82 10000 7.43 169 02:49 13.02.2022
3736 Clouds -14 1006 84 10000 5.79 159 00:32 13.02.2022
3737 Clouds -13 1007 90 739 5.17 161 22:55 12.02.2022
3738 Clouds -13 1007 90 739 5.17 161 22:30 12.02.2022
3739 Clouds -13 1007 82 10000 5.36 171 21:18 12.02.2022
3740 Clouds -13 1007 83 10000 6.41 181 20:24 12.02.2022
3741 Clouds -13 1007 75 10000 7.2 184 18:54 12.02.2022
3742 Clouds -13 1008 77 10000 7.69 186 18:36 12.02.2022
3743 Clouds -13 1008 73 10000 7.71 183 17:40 12.02.2022
3744 Clouds -14 1008 75 10000 7.84 184 16:46 12.02.2022
3745 Clouds -14 1009 78 10000 7.67 184 15:59 12.02.2022
3746 Clouds -14 1009 80 10000 7.61 181 15:21 12.02.2022
3747 Clouds -14 1009 81 10000 7.8 180 14:29 12.02.2022
3748 Clouds -14 1010 82 10000 7.76 181 11:34 12.02.2022
3749 Clouds -14 1010 83 10000 8.05 182 10:33 12.02.2022
3750 Clouds -14 1010 84 10000 8.34 182 09:38 12.02.2022
3751 Clouds -14 1010 84 10000 8.37 182 08:47 12.02.2022
3752 Clouds -13 1009 84 10000 8.81 182 07:47 12.02.2022
3753 Clouds -14 1009 82 10000 9.18 181 05:31 12.02.2022
3754 Clouds -13 1010 84 10000 9.4 184 02:19 12.02.2022
3755 Clouds -13 1010 85 10000 9.37 183 00:31 12.02.2022
3756 Clouds -13 1010 85 10000 9.7 182 22:24 11.02.2022
3757 Clouds -13 1010 85 10000 9.7 182 21:43 11.02.2022
3758 Clouds -13 1010 82 10000 9.71 183 20:37 11.02.2022
3759 Clouds -13 1010 82 10000 10.03 184 19:31 11.02.2022
3760 Clouds -12 1011 83 10000 10.5 187 18:47 11.02.2022
3761 Clouds -11 1011 85 10000 10.86 186 17:27 11.02.2022
3762 Clouds -11 1011 85 10000 10.86 186 16:56 11.02.2022
3763 Clouds -11 1011 83 10000 10.84 186 15:33 11.02.2022
3764 Clouds -11 1011 81 10000 10.48 184 14:38 11.02.2022
3765 Clouds -11 1012 80 10000 10.11 182 14:20 11.02.2022
3766 Clouds -11 1012 80 10000 10.11 182 13:47 11.02.2022
3767 Clouds -11 1012 80 10000 9.85 181 13:28 11.02.2022
3768 Clouds -10 1012 80 10000 9.28 178 11:27 11.02.2022
3769 Clouds -9 1012 82 10000 9.1 176 09:39 11.02.2022
3770 Clouds -8 1012 84 10000 9.08 176 08:39 11.02.2022
3771 Clouds -8 1012 87 8929 8.72 176 08:21 11.02.2022
3772 Clouds -6 1012 87 8700 8.63 179 06:31 11.02.2022
3773 Clouds -6 1012 88 1961 10.55 192 02:25 11.02.2022
3774 Clouds -6 1012 88 1715 10.22 190 00:46 11.02.2022
3775 Clouds -8 1012 88 2635 10.4 189 22:45 10.02.2022
3776 Clouds -8 1012 87 3219 10.6 191 21:44 10.02.2022
3777 Clouds -8 1012 87 4464 11.03 192 20:52 10.02.2022
3778 Clouds -9 1011 86 8079 11.38 194 20:24 10.02.2022
3779 Clouds -9 1011 85 10000 11.59 195 19:24 10.02.2022
3780 Clouds -10 1011 84 10000 11.33 194 18:33 10.02.2022
3781 Clouds -10 1011 84 10000 11.89 195 17:25 10.02.2022
3782 Clouds -10 1011 84 10000 11.89 195 16:47 10.02.2022
3783 Clouds -10 1011 86 6162 11.71 195 15:45 10.02.2022
3784 Clouds -10 1011 86 4420 11.44 195 15:25 10.02.2022
3785 Clouds -10 1011 86 4420 11.44 195 14:44 10.02.2022
3786 Clouds -10 1011 84 8742 11.62 195 14:22 10.02.2022
3787 Clouds -10 1011 82 10000 11.72 193 13:20 10.02.2022
3788 Clouds -10 1011 82 10000 10.53 194 11:58 10.02.2022
3789 Clouds -10 1011 82 10000 10.53 194 11:32 10.02.2022
3790 Clouds -10 1011 81 10000 10.68 192 10:32 10.02.2022
3791 Clouds -10 1012 84 10000 10.82 193 09:46 10.02.2022
3792 Clouds -10 1012 78 10000 9.91 188 08:42 10.02.2022
3793 Clouds -9 1013 80 10000 10.2 179 06:34 10.02.2022
3794 Clear -10 1015 77 10000 10.24 183 03:33 10.02.2022
3795 Clear -11 1017 70 10000 8.42 180 01:18 10.02.2022
3796 Clear -11 1017 71 10000 7.88 177 00:41 10.02.2022
3797 Clear -10 1018 70 10000 8.89 187 00:23 10.02.2022
3798 Clear -9 1018 69 10000 10.75 195 22:57 09.02.2022
3799 Clear -9 1018 69 10000 10.75 195 22:33 09.02.2022
3800 Clear -9 1018 72 10000 11.63 198 21:48 09.02.2022
3801 Clear -10 1018 76 10000 11.76 199 21:27 09.02.2022
3802 Clear -10 1018 76 10000 11.76 199 20:45 09.02.2022
3803 Clear -10 1018 79 10000 11.31 199 20:22 09.02.2022
3804 Clear -10 1018 79 10000 11.31 199 19:42 09.02.2022
3805 Clouds -10 1018 81 10000 11.2 199 18:50 09.02.2022
3806 Clouds -11 1019 85 10000 10.73 199 17:24 09.02.2022
3807 Clouds -11 1019 85 10000 10.59 199 16:20 09.02.2022
3808 Clouds -11 1019 85 10000 10.71 199 15:24 09.02.2022
3809 Clouds -12 1018 86 10000 11.17 200 12:54 09.02.2022
3810 Clouds -12 1018 86 10000 10.91 201 11:36 09.02.2022
3811 Clouds -12 1017 86 10000 11.13 202 10:35 09.02.2022
3812 Clouds -12 1017 86 10000 11.2 203 09:53 09.02.2022
3813 Clouds -12 1017 86 10000 11.23 203 09:22 09.02.2022
3814 Clouds -12 1017 86 10000 11.23 203 08:46 09.02.2022
3815 Clouds -13 1016 86 10000 10.64 206 06:52 09.02.2022
3816 Clouds -14 1016 85 10000 10.43 206 04:30 09.02.2022
3817 Clouds -14 1016 85 10000 10.43 206 03:48 09.02.2022
3818 Clouds -14 1016 78 10000 9.55 198 23:45 08.02.2022
3819 Clouds -14 1016 75 10000 9.69 198 23:19 08.02.2022
3820 Clouds -14 1016 75 10000 9.69 198 23:19 08.02.2022
3821 Clouds -14 1016 75 10000 9.69 198 22:38 08.02.2022
3822 Clouds -13 1016 73 10000 9.96 198 22:20 08.02.2022
3823 Clouds -13 1016 73 10000 9.97 201 21:22 08.02.2022
3824 Clouds -13 1016 73 10000 9.97 201 20:58 08.02.2022
3825 Clouds -13 1016 73 10000 9.97 201 20:37 08.02.2022
3826 Clouds -13 1015 75 10000 9.34 203 19:28 08.02.2022
3827 Clouds -13 1016 75 10000 8.77 205 18:24 08.02.2022
3828 Clouds -13 1016 75 10000 8.77 205 17:30 08.02.2022
3829 Clouds -13 1016 78 10000 8.02 205 15:47 08.02.2022
3830 Clouds -12 1016 79 10000 7.96 204 15:27 08.02.2022
3831 Clouds -12 1017 80 10000 7.35 204 13:50 08.02.2022
3832 Clouds -13 1017 80 10000 7.02 205 12:24 08.02.2022
3833 Clouds -13 1017 80 10000 7.16 208 10:49 08.02.2022
3834 Clouds -13 1017 79 10000 7.63 207 09:49 08.02.2022
3835 Clouds -13 1017 79 10000 7.85 203 08:39 08.02.2022
3836 Clouds -13 1017 78 10000 7.76 202 06:49 08.02.2022
3837 Clouds -13 1017 77 10000 8.16 201 04:40 08.02.2022
3838 Clouds -13 1017 78 10000 7.79 200 04:22 08.02.2022
3839 Clouds -13 1017 78 10000 7.79 200 03:36 08.02.2022
3840 Clouds -12 1017 78 10000 7.87 200 03:18 08.02.2022
3841 Clouds -12 1017 78 10000 7.85 200 02:59 08.02.2022
3842 Clouds -12 1017 78 10000 7.85 200 02:36 08.02.2022
3843 Clouds -12 1017 78 10000 8.1 201 02:18 08.02.2022
3844 Clouds -12 1017 78 10000 8.1 201 01:44 08.02.2022
3845 Clouds -12 1017 79 10000 8.24 201 01:25 08.02.2022
3846 Clouds -12 1017 79 10000 8.24 201 00:55 08.02.2022
3847 Clouds -11 1017 80 10000 8.09 203 00:21 08.02.2022
3848 Clouds -11 1017 80 10000 8.09 203 23:44 07.02.2022
3849 Clouds -11 1017 80 10000 8.04 203 23:18 07.02.2022
3850 Clouds -11 1017 80 10000 8.04 203 22:59 07.02.2022
3851 Clouds -11 1016 80 10000 8.03 200 22:19 07.02.2022
3852 Clouds -11 1016 80 10000 8.03 200 21:50 07.02.2022
3853 Clouds -11 1017 80 10000 7.67 199 21:27 07.02.2022
3854 Clouds -11 1017 80 10000 7.67 199 20:45 07.02.2022
3855 Clouds -11 1017 80 10000 7.67 197 20:27 07.02.2022
3856 Clouds -11 1017 80 10000 7.67 197 19:47 07.02.2022
3857 Clouds -11 1017 80 10000 7.53 197 18:37 07.02.2022
3858 Clouds -10 1017 79 10000 7.75 196 17:23 07.02.2022
3859 Clouds -10 1017 79 10000 7.75 196 16:52 07.02.2022
3860 Clouds -10 1017 78 10000 7.93 195 15:48 07.02.2022
3861 Clouds -11 1018 80 10000 7.73 191 13:58 07.02.2022
3862 Clouds -11 1017 81 10000 8.27 192 13:27 07.02.2022
3863 Clouds -10 1018 79 10000 8.24 195 12:18 07.02.2022
3864 Clouds -10 1018 79 10000 8.24 195 11:40 07.02.2022
3865 Clouds -10 1018 77 10000 7.94 194 11:22 07.02.2022
3866 Clouds -10 1018 77 10000 7.94 194 10:41 07.02.2022
3867 Clouds -11 1018 74 10000 7.75 193 10:22 07.02.2022
3868 Clouds -11 1018 74 10000 7.75 193 09:51 07.02.2022
3869 Clouds -11 1018 73 10000 7.86 194 09:18 07.02.2022
3870 Clouds -12 1018 72 10000 7.63 192 07:44 07.02.2022
3871 Clouds -14 1018 73 10000 6 187 06:34 07.02.2022
3872 Clouds -15 1018 78 10000 4.88 177 04:31 07.02.2022
3873 Clouds -17 1019 84 10000 4.04 171 01:37 07.02.2022
3874 Clouds -17 1020 82 10000 3.46 164 23:51 06.02.2022
3875 Clouds -17 1020 83 10000 3.46 155 23:20 06.02.2022
3876 Clouds -17 1020 83 10000 3.46 155 22:41 06.02.2022
3877 Clouds -17 1021 84 10000 3.37 154 21:38 06.02.2022
3878 Clouds -17 1021 86 10000 3.07 160 21:20 06.02.2022
3879 Clouds -17 1021 86 10000 3.07 160 20:48 06.02.2022
3880 Clouds -17 1021 87 10000 3.1 165 20:21 06.02.2022
3881 Clouds -17 1021 88 10000 2.85 169 19:18 06.02.2022
3882 Clouds -17 1022 89 10000 2.88 172 18:28 06.02.2022
3883 Clouds -17 1022 89 10000 2.88 172 17:30 06.02.2022
3884 Clouds -17 1022 89 10000 2.89 174 16:51 06.02.2022
3885 Clouds -17 1022 89 10000 2.95 172 15:51 06.02.2022
3886 Clouds -18 1023 90 10000 3.03 169 15:28 06.02.2022
3887 Clouds -18 1023 90 10000 3.03 169 15:00 06.02.2022
3888 Clouds -18 1023 90 10000 2.9 171 13:59 06.02.2022
3889 Clouds -18 1023 90 10000 2.92 175 13:20 06.02.2022
3890 Clouds -19 1023 91 10000 3.38 177 12:27 06.02.2022
3891 Clouds -19 1023 92 10000 3.47 177 10:33 06.02.2022
3892 Clouds -18 1023 91 10000 3.14 180 09:43 06.02.2022
3893 Clouds -17 1023 90 10000 3.32 186 08:41 06.02.2022
3894 Clouds -18 1022 91 10000 3.14 188 06:34 06.02.2022
3895 Clouds -18 1022 91 10000 3.47 187 05:28 06.02.2022
3896 Clouds -18 1022 91 10000 3.47 187 05:28 06.02.2022
3897 Clouds -20 1023 94 10000 3.32 191 02:25 06.02.2022
3898 Clouds -20 1023 95 10000 3.17 194 00:32 06.02.2022
3899 Clouds -22 1023 96 10000 3.28 193 23:39 05.02.2022
3900 Clouds -22 1022 97 10000 3.76 202 21:47 05.02.2022
3901 Clouds -22 1022 97 10000 3.83 206 20:41 05.02.2022
3902 Clouds -22 1022 97 10000 4 207 20:20 05.02.2022
3903 Clouds -22 1022 97 10000 4 207 19:42 05.02.2022
3904 Clouds -22 1022 97 10000 3.78 204 18:30 05.02.2022
3905 Clouds -21 1022 97 10000 3.92 205 17:35 05.02.2022
3906 Clouds -21 1021 97 10000 4.15 210 15:51 05.02.2022
3907 Clouds -20 1021 97 10000 4.03 211 15:29 05.02.2022
3908 Clouds -18 1020 94 10000 4.22 211 13:25 05.02.2022
3909 Clouds -18 1020 94 10000 4.22 211 13:25 05.02.2022
3910 Clouds -18 1020 95 10000 3.98 208 12:42 05.02.2022
3911 Clouds -17 1019 95 4840 5.14 222 11:29 05.02.2022
3912 Clouds -17 1019 95 4840 5.14 222 10:43 05.02.2022
3913 Clouds -17 1019 95 10000 4.46 218 09:49 05.02.2022
3914 Clouds -17 1018 95 10000 4.23 218 08:39 05.02.2022
3915 Clouds -14 1017 94 3980 3.35 225 06:59 05.02.2022
3916 Clouds -14 1017 95 1101 3.18 224 06:27 05.02.2022
3917 Clouds -14 1016 96 1611 1.69 224 02:31 05.02.2022
3918 Clouds -14 1015 96 778 0.88 239 01:18 05.02.2022
3919 Clouds -15 1015 97 1032 0.35 254 00:36 05.02.2022
3920 Clouds -15 1015 97 1072 0.32 296 23:33 04.02.2022
3921 Clouds -15 1014 97 908 0.3 267 22:37 04.02.2022
3922 Clouds -14 1013 97 1454 0.26 141 21:36 04.02.2022
3923 Clouds -14 1013 97 1104 0.63 93 21:18 04.02.2022
3924 Clouds -13 1013 97 748 0.89 81 20:29 04.02.2022
3925 Clouds -14 1013 97 1694 1.29 74 18:35 04.02.2022
3926 Clouds -13 1012 97 627 1.48 63 16:20 04.02.2022
3927 Clouds -13 1012 96 568 1.3 71 15:18 04.02.2022
3928 Clouds -13 1012 97 615 1.36 77 14:26 04.02.2022
3929 Clouds -13 1012 97 740 1.4 78 12:43 04.02.2022
3930 Clouds -13 1012 97 1221 0.88 88 11:44 04.02.2022
3931 Clouds -13 1012 97 1357 0.94 93 10:51 04.02.2022
3932 Clouds -14 1011 98 1483 0.8 101 09:31 04.02.2022
3933 Clouds -15 1011 98 1789 1.19 118 07:35 04.02.2022
3934 Clouds -15 1011 97 1152 1.39 140 02:54 04.02.2022
3935 Clouds -15 1011 97 1152 1.39 140 02:33 04.02.2022
3936 Clouds -16 1011 97 1877 1.34 179 23:34 03.02.2022
3937 Clouds -16 1011 97 4996 1.56 181 22:48 03.02.2022
3938 Clouds -15 1011 96 4484 1.85 185 21:51 03.02.2022
3939 Clouds -14 1012 95 2782 2.01 187 20:50 03.02.2022
3940 Clouds -13 1012 95 1587 1.81 187 20:21 03.02.2022
3941 Clouds -13 1012 95 1587 1.81 187 19:34 03.02.2022
3942 Clouds -14 1012 96 2539 1.88 207 18:48 03.02.2022
3943 Clouds -14 1012 96 1488 1.64 208 17:47 03.02.2022
3944 Clouds -14 1012 96 1121 1.55 208 16:46 03.02.2022
3945 Clouds -13 1012 96 696 0.87 220 14:54 03.02.2022
3946 Clouds -13 1012 96 643 0.61 169 13:19 03.02.2022
3947 Clouds -14 1012 96 610 1.03 73 11:43 03.02.2022
3948 Clouds -13 1012 95 519 2.36 65 08:40 03.02.2022
3949 Snow -14 1013 95 395 2.89 71 07:20 03.02.2022
3950 Snow -15 1014 95 254 3.39 81 00:33 03.02.2022
3951 Clouds -15 1014 96 408 3.25 78 23:45 02.02.2022
3952 Clouds -16 1014 97 684 3.13 77 22:36 02.02.2022
3953 Clouds -16 1014 97 619 3.05 81 21:37 02.02.2022
3954 Clouds -16 1014 97 2439 3.24 84 20:56 02.02.2022
3955 Clouds -17 1014 99 5646 3.15 81 20:00 02.02.2022
3956 Clouds -17 1014 99 5646 3.15 81 19:41 02.02.2022
3957 Clouds -17 1014 100 7238 3.26 85 18:53 02.02.2022
3958 Clouds -19 1015 100 7824 3.59 88 18:22 02.02.2022
3959 Clouds -18 1015 100 7330 3.76 86 17:20 02.02.2022
3960 Clouds -18 1015 100 7330 3.76 86 17:20 02.02.2022
3961 Clouds -18 1015 100 7330 3.76 86 16:46 02.02.2022
3962 Clouds -16 1015 99 8026 3.61 86 13:57 02.02.2022
3963 Clouds -16 1015 98 8926 3.16 89 12:26 02.02.2022
3964 Clouds -16 1015 98 8926 3.16 89 11:37 02.02.2022
3965 Clouds -16 1015 99 8280 2.73 90 10:38 02.02.2022
3966 Clouds -20 1015 100 7113 1.96 109 07:40 02.02.2022
3967 Clouds -19 1016 97 10000 2.36 192 00:34 02.02.2022
3968 Clouds -17 1015 97 10000 3.2 206 21:55 01.02.2022
3969 Clouds -17 1015 97 10000 3.35 209 20:47 01.02.2022
3970 Clouds -16 1015 96 10000 4.81 210 17:59 01.02.2022
3971 Clouds -16 1014 96 10000 4.69 210 16:42 01.02.2022
3972 Clouds -14 1014 95 10000 4.86 210 14:49 01.02.2022
3973 Clouds -13 1014 95 10000 5.07 212 12:47 01.02.2022
3974 Clouds -13 1013 94 10000 5.59 212 11:34 01.02.2022
3975 Clouds -13 1011 91 10000 7.69 210 05:43 01.02.2022
3976 Clouds -14 1011 93 10000 7.6 212 23:51 31.01.2022
3977 Clouds -14 1011 93 10000 7.58 211 23:28 31.01.2022
3978 Clouds -13 1010 93 10000 7.47 211 21:59 31.01.2022
3979 Clouds -13 1010 93 10000 7.47 211 21:32 31.01.2022
3980 Clouds -13 1010 93 10000 7.17 211 20:33 31.01.2022
3981 Clouds -13 1010 93 10000 7.08 211 19:45 31.01.2022
3982 Clouds -12 1011 90 10000 7.33 210 18:26 31.01.2022
3983 Clouds -12 1011 90 10000 7.33 210 17:43 31.01.2022
3984 Clouds -12 1011 90 10000 7.37 209 16:43 31.01.2022
3985 Clouds -12 1010 89 10000 7.51 208 15:43 31.01.2022
3986 Clouds -11 1010 89 8721 7.95 204 14:24 31.01.2022
3987 Clouds -11 1010 89 10000 7.91 203 12:39 31.01.2022
3988 Clouds -11 1009 89 10000 7.93 203 11:58 31.01.2022
3989 Clouds -11 1009 88 10000 7.75 202 10:51 31.01.2022
3990 Clouds -11 1009 88 10000 7.75 202 10:32 31.01.2022
3991 Clouds -10 1009 88 10000 7.72 196 09:27 31.01.2022
3992 Clouds -10 1009 88 10000 7.72 196 08:51 31.01.2022
3993 Clouds -10 1009 89 4775 7.56 190 08:20 31.01.2022
3994 Clouds -10 1009 87 7497 7 181 06:18 31.01.2022
3995 Clouds -9 1009 88 10000 6.57 181 02:18 31.01.2022
3996 Clouds -10 1010 89 10000 5.77 188 23:19 30.01.2022
3997 Clouds -11 1010 90 10000 5.46 188 22:29 30.01.2022
3998 Clouds -11 1010 90 10000 5.46 188 21:42 30.01.2022
3999 Clouds -11 1010 90 10000 5.34 189 21:19 30.01.2022
4000 Clouds -11 1011 91 10000 4.78 187 20:49 30.01.2022
4001 Clouds -12 1011 93 10000 4.69 186 20:29 30.01.2022
4002 Clouds -12 1011 93 10000 4.69 186 19:52 30.01.2022
4003 Clouds -12 1011 94 10000 4.6 184 18:44 30.01.2022
4004 Clouds -13 1010 95 10000 4.39 185 18:20 30.01.2022
4005 Clouds -13 1010 95 10000 4.46 187 17:27 30.01.2022
4006 Clouds -13 1010 95 10000 4.46 187 16:40 30.01.2022
4007 Clouds -13 1010 95 10000 4.33 186 16:22 30.01.2022
4008 Clouds -13 1010 95 10000 4.33 186 15:50 30.01.2022
4009 Clouds -13 1010 95 10000 4.33 186 15:32 30.01.2022
4010 Clouds -13 1010 94 10000 4.67 192 14:46 30.01.2022
4011 Clouds -10 1010 90 10000 5.6 204 12:47 30.01.2022
4012 Clouds -10 1009 90 10000 5.81 203 12:25 30.01.2022
4013 Clouds -10 1009 89 10000 5.92 202 10:36 30.01.2022
4014 Clouds -11 1009 89 9375 5.97 196 09:56 30.01.2022
4015 Clouds -11 1008 88 10000 6.05 191 08:56 30.01.2022
4016 Clouds -12 1008 88 10000 6.41 184 07:29 30.01.2022
4017 Clouds -13 1008 89 10000 5.23 172 01:56 30.01.2022
4018 Clouds -14 1008 89 10000 4.92 176 00:41 30.01.2022
4019 Clouds -14 1009 89 10000 5.13 185 23:20 29.01.2022
4020 Clouds -14 1009 89 10000 5.44 187 21:58 29.01.2022
4021 Clouds -14 1009 89 10000 5.65 190 21:25 29.01.2022
4022 Clouds -14 1009 89 10000 5.65 190 20:35 29.01.2022
4023 Clouds -14 1009 88 10000 6.1 193 19:36 29.01.2022
4024 Clouds -14 1009 88 10000 6.24 196 18:58 29.01.2022
4025 Clouds -14 1009 89 10000 6.11 196 18:26 29.01.2022
4026 Clouds -14 1009 89 10000 6.11 196 17:35 29.01.2022
4027 Clouds -15 1009 89 10000 6.01 196 16:37 29.01.2022
4028 Clouds -17 1011 92 10000 5.95 198 14:23 29.01.2022
4029 Clouds -17 1011 92 10000 5.95 198 13:45 29.01.2022
4030 Clouds -17 1011 92 10000 6.24 200 13:24 29.01.2022
4031 Clouds -17 1011 92 10000 6.64 203 11:50 29.01.2022
4032 Clouds -17 1011 92 10000 7.21 206 11:24 29.01.2022
4033 Clouds -16 1010 91 10000 7.62 210 09:29 29.01.2022
4034 Clouds -14 1010 92 10000 7.8 214 06:55 29.01.2022
4035 Clouds -11 1009 90 10000 8.22 222 00:36 29.01.2022
4036 Clouds -10 1008 90 10000 8.42 224 23:59 28.01.2022
4037 Clouds -10 1008 90 9635 8.34 224 22:51 28.01.2022
4038 Clouds -11 1008 91 10000 8.17 221 22:22 28.01.2022
4039 Clouds -11 1008 91 10000 8.17 221 21:37 28.01.2022
4040 Clouds -12 1007 91 10000 8.34 219 20:30 28.01.2022
4041 Clouds -12 1007 92 10000 8.27 219 19:33 28.01.2022
4042 Clouds -12 1007 91 10000 8.43 219 18:46 28.01.2022
4043 Clouds -12 1007 91 10000 8.72 216 17:42 28.01.2022
4044 Clouds -14 1006 92 10000 7.78 209 15:21 28.01.2022
4045 Clouds -15 1006 92 10000 7.52 210 13:57 28.01.2022
4046 Clouds -14 1006 92 10000 7.02 211 12:31 28.01.2022
4047 Clouds -15 1006 92 6675 7.17 210 11:36 28.01.2022
4048 Clouds -15 1006 92 9565 7.12 207 09:53 28.01.2022
4049 Clouds -16 1005 93 10000 6.7 205 08:26 28.01.2022
4050 Clouds -16 1005 93 10000 6.7 205 07:34 28.01.2022
4051 Clouds -17 1005 95 10000 7.06 209 05:23 28.01.2022
4052 Clouds -17 1005 95 10000 6.77 209 03:44 28.01.2022
4053 Clouds -17 1006 95 10000 6.54 209 02:22 28.01.2022
4054 Clouds -17 1006 95 10000 6.54 209 01:33 28.01.2022
4055 Clouds -18 1005 96 10000 6.39 210 23:25 27.01.2022
4056 Clouds -18 1005 96 10000 6.33 211 21:49 27.01.2022
4057 Clouds -18 1005 96 10000 6.4 211 21:29 27.01.2022
4058 Clouds -18 1005 96 10000 6.4 211 20:44 27.01.2022
4059 Clouds -17 1005 95 10000 6.46 207 18:55 27.01.2022
4060 Clouds -17 1006 95 10000 6.65 206 17:56 27.01.2022
4061 Clouds -16 1006 95 10000 7.38 206 14:42 27.01.2022
4062 Clouds -16 1006 94 10000 7.46 204 13:36 27.01.2022
4063 Clouds -16 1006 94 10000 7.91 207 12:40 27.01.2022
4064 Clouds -15 1006 94 10000 9.06 210 10:23 27.01.2022
4065 Clouds -15 1006 93 10000 9.15 211 08:56 27.01.2022
4066 Clouds -15 1006 93 10000 9.15 211 08:31 27.01.2022
4067 Clouds -14 1005 94 10000 10.55 213 05:59 27.01.2022
4068 Clouds -13 1004 91 5124 10.74 219 02:36 27.01.2022
4069 Clouds -11 1003 91 4529 11.56 218 23:32 26.01.2022
4070 Clouds -11 1002 90 7544 11.91 220 21:57 26.01.2022
4071 Clouds -11 1002 90 7544 11.91 220 21:33 26.01.2022
4072 Clouds -10 1001 89 7303 12.24 220 20:36 26.01.2022
4073 Clouds -9 1000 90 1171 12.01 220 19:55 26.01.2022
4074 Clouds -9 1000 90 726 11.58 217 19:20 26.01.2022
4075 Clouds -9 1000 90 726 11.58 217 18:40 26.01.2022
4076 Clouds -10 1001 90 1511 11.62 217 17:49 26.01.2022
4077 Clouds -10 1000 89 2220 11.51 217 17:21 26.01.2022
4078 Snow -10 1000 90 2357 11.26 217 16:27 26.01.2022
4079 Snow -10 1000 90 2357 11.26 217 15:47 26.01.2022
4080 Clouds -9 999 92 7973 11.2 214 13:24 26.01.2022
4081 Clouds -9 999 91 3698 10.76 214 11:40 26.01.2022
4082 Clouds -8 998 91 10000 9.53 217 10:20 26.01.2022
4083 Clouds -8 998 91 10000 9.53 217 09:43 26.01.2022
4084 Clouds -6 998 89 10000 9.22 225 07:32 26.01.2022
4085 Clouds -5 997 91 10000 7.59 208 00:48 26.01.2022
4086 Clouds -5 997 91 10000 7.59 208 00:48 26.01.2022
4087 Clouds -5 997 91 9577 8 204 23:54 25.01.2022
4088 Clouds -5 997 91 7547 7.61 203 22:50 25.01.2022
4089 Clouds -5 997 91 7547 7.61 203 22:50 25.01.2022
4090 Clouds -4 997 92 4846 7.78 207 22:21 25.01.2022
4091 Clouds -4 997 92 4846 7.78 207 21:41 25.01.2022
4092 Clouds -4 997 92 10000 7.87 209 20:46 25.01.2022
4093 Clouds -4 997 92 10000 8.11 211 20:21 25.01.2022
4094 Clouds -4 997 92 10000 8.11 211 19:44 25.01.2022
4095 Clouds -3 997 91 6486 7.64 217 18:22 25.01.2022
4096 Clouds -3 997 91 6486 7.64 217 17:42 25.01.2022
4097 Clouds -3 997 91 3602 7.67 220 16:35 25.01.2022
4098 Clouds -2 997 91 4154 8.17 222 15:44 25.01.2022
4099 Clouds -3 996 92 2636 8.39 217 15:26 25.01.2022
4100 Clouds -3 996 92 2636 8.39 217 14:57 25.01.2022
4101 Clouds -3 996 92 2636 8.39 217 14:57 25.01.2022
4102 Snow -5 996 92 587 10.39 216 13:18 25.01.2022
4103 Snow -6 995 89 1776 13.11 208 10:00 25.01.2022
4104 Snow -7 995 90 653 13.61 205 08:33 25.01.2022
4105 Snow -8 995 91 317 13.65 203 07:28 25.01.2022
4106 Snow -8 996 91 349 13.54 204 06:22 25.01.2022
4107 Snow -9 997 90 710 15.06 204 01:36 25.01.2022
4108 Snow -10 999 88 877 14.74 203 23:36 24.01.2022
4109 Snow -10 999 89 1014 14.98 205 23:18 24.01.2022
4110 Snow -10 999 89 1014 14.98 205 22:59 24.01.2022
4111 Snow -10 999 89 1014 14.98 205 22:41 24.01.2022
4112 Snow -10 1000 89 616 15.39 205 21:45 24.01.2022
4113 Snow -10 1000 89 516 15.35 206 21:27 24.01.2022
4114 Snow -10 1001 89 630 15.46 205 20:29 24.01.2022
4115 Snow -10 1001 89 630 15.46 205 19:39 24.01.2022
4116 Snow -10 1002 89 477 15.61 205 18:55 24.01.2022
4117 Snow -10 1002 89 386 15.6 205 17:44 24.01.2022
4118 Clouds -10 1003 87 1352 15.79 203 17:23 24.01.2022
4119 Clouds -10 1003 87 1352 15.79 203 16:32 24.01.2022
4120 Clouds -10 1004 86 10000 15.76 203 15:52 24.01.2022
4121 Clouds -11 1006 85 10000 15.02 205 14:27 24.01.2022
4122 Clouds -11 1007 86 10000 14.26 205 12:36 24.01.2022
4123 Clouds -12 1008 86 10000 13.57 207 11:53 24.01.2022
4124 Clouds -12 1010 87 10000 13.03 205 10:24 24.01.2022
4125 Clouds -12 1010 87 10000 13.03 205 09:46 24.01.2022
4126 Clouds -12 1011 88 10000 13.26 206 08:19 24.01.2022
4127 Clouds -11 1013 87 10000 12.86 212 02:33 24.01.2022
4128 Clouds -11 1014 87 3851 13.07 211 01:28 24.01.2022
4129 Clouds -11 1014 88 3682 12.94 211 00:34 24.01.2022
4130 Clouds -11 1014 87 10000 12.93 210 23:47 23.01.2022
4131 Clouds -12 1015 88 10000 13.32 207 22:21 23.01.2022
4132 Clouds -12 1015 88 10000 13.32 207 21:42 23.01.2022
4133 Clouds -12 1015 89 10000 13.14 206 21:24 23.01.2022
4134 Clouds -13 1016 90 10000 12.55 204 20:28 23.01.2022
4135 Clouds -13 1016 89 10000 11.69 205 19:19 23.01.2022
4136 Clouds -13 1016 89 10000 11.69 205 18:41 23.01.2022
4137 Clouds -13 1018 89 3114 10.64 206 17:27 23.01.2022
4138 Clouds -14 1018 90 4438 10.15 207 16:27 23.01.2022
4139 Clouds -15 1019 90 10000 9.76 205 14:54 23.01.2022
4140 Clouds -15 1019 88 10000 9.54 206 14:19 23.01.2022
4141 Clouds -14 1019 90 10000 9.27 205 12:47 23.01.2022
4142 Clouds -13 1020 90 8971 8.93 205 12:21 23.01.2022
4143 Clouds -12 1020 90 10000 8.35 201 11:27 23.01.2022
4144 Clouds -12 1020 90 10000 8.35 201 10:59 23.01.2022
4145 Clouds -13 1020 93 10000 7.12 200 10:25 23.01.2022
4146 Clouds -13 1020 93 10000 7.12 200 09:33 23.01.2022
4147 Clouds -14 1021 95 10000 6.74 201 08:50 23.01.2022
4148 Clouds -14 1022 95 10000 4.99 200 04:41 23.01.2022
4149 Clouds -17 1023 94 10000 3.4 203 01:43 23.01.2022
4150 Clouds -18 1023 97 10000 3.29 208 00:56 23.01.2022
4151 Clouds -18 1023 98 10000 3.23 214 00:22 23.01.2022
4152 Clouds -18 1023 100 6430 3.35 218 23:18 22.01.2022
4153 Clouds -18 1023 100 6430 3.35 218 22:33 22.01.2022
4154 Clouds -18 1022 100 5831 3.42 221 20:47 22.01.2022
4155 Clouds -18 1022 100 5682 3.6 222 19:46 22.01.2022
4156 Clouds -18 1021 100 5462 3.77 223 18:43 22.01.2022
4157 Clouds -18 1021 100 5256 4.05 228 17:56 22.01.2022
4158 Clouds -18 1021 100 5256 4.05 228 17:35 22.01.2022
4159 Clouds -18 1020 100 5676 3.89 230 16:55 22.01.2022
4160 Clouds -17 1020 99 10000 3.8 237 15:49 22.01.2022
4161 Clouds -17 1019 98 10000 3.84 237 14:57 22.01.2022
4162 Clouds -17 1018 96 10000 3.6 237 13:36 22.01.2022
4163 Clouds -18 1017 95 10000 3.44 233 12:40 22.01.2022
4164 Clouds -19 1017 99 10000 2.76 228 12:22 22.01.2022
4165 Clouds -18 1016 100 10000 2.52 233 10:55 22.01.2022
4166 Clouds -17 1015 100 6774 1.98 253 10:27 22.01.2022
4167 Clouds -17 1015 100 6774 1.98 253 09:43 22.01.2022
4168 Clouds -16 1014 100 6838 1.84 277 08:51 22.01.2022
4169 Clouds -12 1012 96 10000 1.69 300 07:28 22.01.2022
4170 Clouds -10 1010 96 2696 2.92 352 04:50 22.01.2022
4171 Clouds -6 1007 95 331 3.62 237 00:57 22.01.2022
4172 Clouds -7 1006 93 450 5.64 220 23:21 21.01.2022
4173 Snow -7 1005 92 694 6.16 218 22:19 21.01.2022
4174 Clouds -7 1004 91 8086 6.82 216 19:55 21.01.2022
4175 Clouds -8 1003 91 10000 7.27 207 18:23 21.01.2022
4176 Clouds -8 1003 91 10000 7.41 207 17:18 21.01.2022
4177 Clouds -8 1002 91 10000 7.69 210 15:27 21.01.2022
4178 Clouds -8 1000 91 6283 8.01 214 13:18 21.01.2022
4179 Clouds -7 999 91 9453 8.56 216 12:26 21.01.2022
4180 Clouds -8 998 90 6803 9.06 217 11:26 21.01.2022
4181 Clouds -8 997 90 3073 9.14 215 09:34 21.01.2022
4182 Clouds -8 995 89 5077 8.86 211 08:21 21.01.2022
4183 Clouds -9 994 89 4450 9.04 210 04:37 21.01.2022
4184 Clouds -9 992 89 1549 9.68 209 22:53 20.01.2022
4185 Clouds -9 991 89 1004 9.32 207 21:49 20.01.2022
4186 Clouds -9 991 89 1004 9.32 207 21:31 20.01.2022
4187 Snow -9 991 91 440 8.64 206 20:21 20.01.2022
4188 Snow -9 991 91 423 8.73 205 19:19 20.01.2022
4189 Clouds -8 991 90 540 8.95 204 17:46 20.01.2022
4190 Clouds -8 991 88 2450 8.77 205 16:35 20.01.2022
4191 Clouds -8 991 88 2450 8.77 205 16:35 20.01.2022
4192 Clouds -8 991 87 9455 8.78 206 15:40 20.01.2022
4193 Clouds -8 991 88 10000 8.66 207 14:40 20.01.2022
4194 Clouds -8 991 88 10000 8.63 207 13:21 20.01.2022
4195 Clouds -8 991 88 10000 8.75 207 12:31 20.01.2022
4196 Clouds -9 991 88 10000 8.5 209 11:20 20.01.2022
4197 Clouds -9 991 89 2480 8.59 209 10:19 20.01.2022
4198 Clouds -9 991 90 921 8.52 210 09:19 20.01.2022
4199 Clouds -10 990 88 10000 9.14 209 07:24 20.01.2022
4200 Snow -10 991 90 299 9.44 201 00:41 20.01.2022
4201 Clouds -11 992 89 764 8.69 192 22:50 19.01.2022
4202 Clouds -12 992 89 10000 8.14 191 21:44 19.01.2022
4203 Clouds -13 993 90 10000 7.22 190 21:22 19.01.2022
4204 Clouds -13 993 90 10000 7.22 190 20:45 19.01.2022
4205 Clouds -17 994 93 10000 6.05 192 19:27 19.01.2022
4206 Clouds -19 994 94 10000 5.26 190 17:52 19.01.2022
4207 Clouds -19 994 94 10000 5.26 190 17:32 19.01.2022
4208 Clouds -18 996 94 10000 4.7 198 15:44 19.01.2022
4209 Clouds -20 996 95 10000 3.81 195 13:38 19.01.2022
4210 Clouds -21 997 96 10000 3.19 192 12:24 19.01.2022
4211 Clouds -21 997 96 10000 3.19 192 11:38 19.01.2022
4212 Clouds -21 997 96 10000 3.13 202 10:20 19.01.2022
4213 Clouds -21 997 96 10000 3.13 202 09:33 19.01.2022
4214 Clouds -23 997 96 10000 3.22 208 06:34 19.01.2022
4215 Clouds -24 998 97 10000 2.43 236 01:40 19.01.2022
4216 Clouds -22 998 97 7096 2.84 221 23:18 18.01.2022
4217 Clouds -22 999 97 2299 3.02 232 21:56 18.01.2022
4218 Clouds -23 999 99 1565 2.98 236 20:47 18.01.2022
4219 Clouds -23 998 99 3971 3.14 237 19:54 18.01.2022
4220 Clouds -23 998 99 3971 3.14 237 19:35 18.01.2022
4221 Clouds -22 998 98 4594 3.01 237 18:36 18.01.2022
4222 Clouds -21 998 98 3577 3.22 236 17:51 18.01.2022
4223 Clouds -20 998 98 3162 2.96 234 16:35 18.01.2022
4224 Clouds -21 998 99 3420 2.97 234 15:26 18.01.2022
4225 Clouds -21 998 99 3420 2.97 234 14:54 18.01.2022
4226 Clouds -21 997 100 1333 2.2 245 11:52 18.01.2022
4227 Clouds -21 997 100 2105 1.76 241 10:43 18.01.2022
4228 Clouds -22 996 100 2885 1.63 240 08:49 18.01.2022
4229 Clouds -22 996 100 3021 0.99 255 07:46 18.01.2022
4230 Clouds -23 995 100 3949 1.27 247 02:20 18.01.2022
4231 Clouds -23 994 100 9355 1.38 257 23:22 17.01.2022
4232 Clouds -23 993 100 10000 1.27 252 22:19 17.01.2022
4233 Clouds -23 993 100 10000 1.27 252 21:32 17.01.2022
4234 Clouds -23 992 100 10000 0.54 207 19:51 17.01.2022
4235 Clouds -23 992 100 10000 1.53 149 18:28 17.01.2022
4236 Clouds -23 992 100 6873 0.7 125 17:24 17.01.2022
4237 Clouds -23 992 100 6481 0.32 199 16:24 17.01.2022
4238 Clouds -23 992 100 6447 1.04 160 14:59 17.01.2022
4239 Clouds -23 992 100 6447 1.04 160 14:33 17.01.2022
4240 Clouds -23 992 100 5703 0.48 206 13:20 17.01.2022
4241 Clouds -23 992 100 5703 0.48 206 12:52 17.01.2022
4242 Clouds -23 991 100 6027 0.48 199 11:47 17.01.2022
4243 Clouds -23 991 100 6655 0.83 146 10:21 17.01.2022
4244 Clouds -23 991 100 6955 0.67 163 08:44 17.01.2022
4245 Clouds -22 990 100 10000 1.94 150 07:22 17.01.2022
4246 Clouds -22 990 100 10000 1.94 150 07:22 17.01.2022
4247 Clouds -20 990 98 4048 3.13 196 02:23 17.01.2022
4248 Clouds -19 990 97 10000 3.25 198 00:53 17.01.2022
4249 Clouds -19 988 97 6274 3.93 209 21:26 16.01.2022
4250 Clouds -19 988 97 6274 3.93 209 20:30 16.01.2022
4251 Clouds -19 988 97 5675 3.71 210 18:48 16.01.2022
4252 Clouds -17 988 96 1998 3.33 210 17:55 16.01.2022
4253 Clouds -17 988 96 1432 3.15 214 16:56 16.01.2022
4254 Clouds -17 988 96 1260 3.06 218 15:50 16.01.2022
4255 Clouds -17 988 96 3074 2.75 227 14:30 16.01.2022
4256 Clouds -18 988 97 3672 2.68 224 13:33 16.01.2022
4257 Clouds -19 989 98 5798 2.26 218 12:22 16.01.2022
4258 Clouds -19 989 98 5798 2.26 218 11:38 16.01.2022
4259 Clouds -19 989 97 7630 2.66 207 10:43 16.01.2022
4260 Clouds -18 989 96 10000 2.98 202 09:58 16.01.2022
4261 Clouds -18 989 96 10000 2.98 202 09:38 16.01.2022
4262 Clouds -17 989 96 5898 3.21 202 09:19 16.01.2022
4263 Clouds -18 989 97 10000 3.19 190 07:21 16.01.2022
4264 Clouds -15 989 94 10000 5.02 200 00:36 16.01.2022
4265 Clouds -14 989 91 10000 5.78 201 22:55 15.01.2022
4266 Clouds -13 988 92 10000 6.42 199 21:22 15.01.2022
4267 Clouds -13 988 92 10000 6.42 199 20:45 15.01.2022
4268 Clouds -12 987 91 9167 6.68 199 20:22 15.01.2022
4269 Clouds -11 986 89 6275 6.96 203 19:27 15.01.2022
4270 Clouds -11 986 89 5244 7.51 204 18:20 15.01.2022
4271 Clouds -11 986 88 5256 8.02 202 16:49 15.01.2022
4272 Clouds -11 984 87 6363 8.71 193 14:38 15.01.2022
4273 Clouds -11 984 86 10000 8.59 191 12:52 15.01.2022
4274 Clouds -11 983 86 10000 8.6 190 11:32 15.01.2022
4275 Clouds -11 982 86 10000 8.64 186 09:46 15.01.2022
4276 Clouds -10 981 86 10000 8.19 178 04:46 15.01.2022
4277 Clouds -9 979 86 9527 7.58 181 23:21 14.01.2022
4278 Clouds -10 978 84 10000 7.2 173 21:18 14.01.2022
4279 Clouds -9 978 84 10000 7.12 173 20:25 14.01.2022
4280 Clouds -9 978 84 10000 7.12 173 19:50 14.01.2022
4281 Clouds -9 978 85 6448 7.58 174 18:41 14.01.2022
4282 Clouds -9 977 86 4253 7.67 173 17:36 14.01.2022
4283 Clouds -9 977 86 7735 8.1 172 16:42 14.01.2022
4284 Clouds -9 977 82 10000 8.17 173 15:32 14.01.2022
4285 Clouds -10 977 85 10000 8.15 164 14:26 14.01.2022
4286 Clouds -10 977 84 10000 8.22 166 12:58 14.01.2022
4287 Clouds -10 977 89 864 8.53 171 11:52 14.01.2022
4288 Clouds -11 978 89 1294 8.8 171 10:39 14.01.2022
4289 Clouds -11 977 84 10000 8.99 170 08:53 14.01.2022
4290 Clouds -11 977 89 785 8.6 164 07:30 14.01.2022
4291 Clouds -12 979 85 10000 9.99 200 02:27 14.01.2022
4292 Clouds -13 980 86 4641 9.62 198 00:21 14.01.2022
4293 Clouds -14 981 87 1771 9.13 197 21:47 13.01.2022
4294 Clouds -13 981 86 8916 9.11 201 21:29 13.01.2022
4295 Clouds -13 981 86 7229 10.02 203 19:47 13.01.2022
4296 Clouds -13 982 89 796 10.12 202 19:28 13.01.2022
4297 Clouds -13 982 89 561 9.78 202 18:37 13.01.2022
4298 Snow -13 983 91 283 9.99 198 16:52 13.01.2022
4299 Snow -13 983 91 293 10.32 194 15:39 13.01.2022
4300 Clouds -12 984 88 1020 10.96 194 15:20 13.01.2022
4301 Clouds -11 985 85 10000 11.25 204 13:29 13.01.2022
4302 Clouds -10 988 87 7231 10.04 205 10:49 13.01.2022
4303 Clouds -10 989 87 10000 10.35 213 09:23 13.01.2022
4304 Clouds -10 990 88 4983 9.93 215 08:29 13.01.2022
4305 Clouds -10 990 88 4983 9.93 215 07:58 13.01.2022
4306 Clouds -10 990 88 4358 9.68 216 07:18 13.01.2022
4307 Clouds -10 992 89 4046 9.73 217 05:20 13.01.2022
4308 Clouds -10 993 89 3587 9.37 219 03:34 13.01.2022
4309 Clouds -10 994 90 1578 9.49 224 01:38 13.01.2022
4310 Clouds -10 995 89 3092 10.21 227 23:53 12.01.2022
4311 Clouds -10 995 89 3092 10.21 227 23:34 12.01.2022
4312 Clouds -10 996 89 2034 10.13 228 22:22 12.01.2022
4313 Clouds -10 996 89 2034 10.13 228 21:43 12.01.2022
4314 Clouds -10 996 89 7180 10.16 229 21:18 12.01.2022
4315 Clouds -10 996 89 7180 10.16 229 20:44 12.01.2022
4316 Snow -10 998 90 1008 9.47 227 18:49 12.01.2022
4317 Snow -11 998 92 260 9.46 227 18:18 12.01.2022
4318 Clouds -11 999 89 1161 9.27 224 16:52 12.01.2022
4319 Clouds -12 1001 89 1743 9.11 221 14:50 12.01.2022
4320 Clouds -12 1002 89 2615 9.01 219 14:19 12.01.2022
4321 Clouds -11 1003 89 2160 8.99 222 12:57 12.01.2022
4322 Clouds -12 1007 91 2551 8.01 219 09:26 12.01.2022
4323 Clouds -11 1008 91 6548 7.74 222 07:57 12.01.2022
4324 Clouds -11 1008 91 6548 7.74 222 07:33 12.01.2022
4325 Clouds -12 1010 100 1078 4.1 237 02:20 12.01.2022
4326 Clouds -15 1011 98 6243 3.77 246 23:26 11.01.2022
4327 Clouds -15 1011 97 10000 4.12 251 22:25 11.01.2022
4328 Clouds -15 1011 97 10000 4.12 251 21:58 11.01.2022
4329 Clouds -15 1011 96 10000 4.44 254 20:39 11.01.2022
4330 Clouds -14 1011 96 10000 4.61 247 19:31 11.01.2022
4331 Clouds -13 1011 95 6206 4.71 229 17:53 11.01.2022
4332 Clouds -12 1011 93 1340 5.07 225 16:40 11.01.2022
4333 Clouds -14 1011 95 2086 4.39 211 16:18 11.01.2022
4334 Clouds -14 1011 95 2086 4.39 211 16:18 11.01.2022
4335 Clouds -15 1011 94 10000 4.89 207 14:50 11.01.2022
4336 Clouds -15 1011 94 10000 4.89 207 14:32 11.01.2022
4337 Clouds -15 1011 93 10000 5.42 203 13:48 11.01.2022
4338 Clouds -14 1012 93 10000 4.83 198 13:25 11.01.2022
4339 Clouds -13 1011 93 10000 5.6 204 12:25 11.01.2022
4340 Clouds -14 1012 94 10000 5.46 202 10:32 11.01.2022
4341 Clouds -15 1013 95 10000 5.03 199 07:54 11.01.2022
4342 Clouds -16 1014 96 2118 4.51 217 03:51 11.01.2022
4343 Clouds -19 1015 98 8962 4.54 222 00:27 11.01.2022
4344 Clouds -19 1015 98 8962 4.54 222 23:39 10.01.2022
4345 Clouds -19 1014 98 6831 4.63 219 22:39 10.01.2022
4346 Clouds -19 1014 97 5503 4.49 220 22:18 10.01.2022
4347 Clouds -19 1014 97 5503 4.49 220 21:33 10.01.2022
4348 Clouds -17 1014 96 5757 4.26 222 20:59 10.01.2022
4349 Clouds -17 1014 96 5757 4.26 222 20:41 10.01.2022
4350 Clouds -16 1013 94 5021 4.14 223 20:19 10.01.2022
4351 Clouds -16 1013 94 5021 4.14 223 19:38 10.01.2022
4352 Clouds -16 1013 95 10000 4.8 231 19:19 10.01.2022
4353 Clouds -16 1013 95 10000 4.8 231 18:46 10.01.2022
4354 Clouds -16 1012 94 1885 4.99 229 16:48 10.01.2022
4355 Clouds -17 1012 95 6231 4.7 227 16:26 10.01.2022
4356 Clouds -19 1012 98 10000 4.54 226 14:43 10.01.2022
4357 Clouds -19 1012 98 4852 3.4 233 13:22 10.01.2022
4358 Clouds -19 1011 98 3465 3.57 235 11:56 10.01.2022
4359 Clouds -18 1010 96 3035 4.37 234 10:49 10.01.2022
4360 Clouds -18 1010 96 1722 4.84 231 09:37 10.01.2022
4361 Clouds -18 1008 95 2722 5.72 227 05:52 10.01.2022
4362 Clouds -16 1006 93 3552 6.27 230 02:32 10.01.2022
4363 Clouds -16 1006 94 3268 5.41 226 01:21 10.01.2022
4364 Clouds -17 1006 95 2694 4.54 225 00:21 10.01.2022
4365 Clouds -18 1005 96 3267 3.51 224 22:47 09.01.2022
4366 Clouds -18 1005 96 3165 2.99 219 22:18 09.01.2022
4367 Clouds -18 1005 96 3165 2.99 219 21:41 09.01.2022
4368 Clouds -18 1005 96 3165 2.99 219 21:41 09.01.2022
4369 Clouds -19 1004 97 1727 2.49 214 21:22 09.01.2022
4370 Clouds -19 1004 97 1727 2.49 214 21:22 09.01.2022
4371 Clouds -19 1004 97 1727 2.49 214 20:46 09.01.2022
4372 Clouds -20 1004 98 1609 2.07 209 20:28 09.01.2022
4373 Clouds -20 1004 98 1609 2.07 209 19:39 09.01.2022
4374 Clouds -20 1004 99 2446 1.96 203 19:20 09.01.2022
4375 Clouds -19 1004 96 3018 1.73 197 18:38 09.01.2022
4376 Clouds -19 1004 95 4522 1.82 203 18:18 09.01.2022
4377 Clouds -19 1004 95 4522 1.82 203 17:30 09.01.2022
4378 Clouds -20 1004 96 4198 1.89 207 16:50 09.01.2022
4379 Clouds -21 1003 96 8832 2.12 211 15:51 09.01.2022
4380 Clouds -21 1003 96 8832 2.12 211 15:32 09.01.2022
4381 Clouds -21 1003 95 10000 2.11 219 14:39 09.01.2022
4382 Clouds -20 1003 96 10000 2.05 224 13:49 09.01.2022
4383 Clouds -23 1003 98 10000 1.86 224 12:19 09.01.2022
4384 Clouds -23 1003 98 10000 1.86 224 11:38 09.01.2022
4385 Clouds -22 1002 99 10000 1.96 249 09:55 09.01.2022
4386 Clouds -21 1001 99 9801 2.07 263 09:24 09.01.2022
4387 Clouds -20 1001 98 8093 2.21 281 07:54 09.01.2022
4388 Snow -16 998 95 394 2.41 297 01:30 09.01.2022
4389 Clouds -16 997 96 341 2.44 286 00:50 09.01.2022
4390 Clouds -17 996 96 450 2.69 303 23:36 08.01.2022
4391 Clouds -16 996 95 647 2.64 298 22:56 08.01.2022
4392 Snow -16 995 96 389 2.61 293 21:32 08.01.2022
4393 Snow -16 995 96 275 2.22 284 20:44 08.01.2022
4394 Snow -16 994 96 226 2.03 276 20:23 08.01.2022
4395 Snow -17 994 96 214 1.98 269 19:22 08.01.2022
4396 Clouds -19 994 97 448 3.12 230 17:49 08.01.2022
4397 Clouds -19 994 96 521 3.23 233 16:57 08.01.2022
4398 Clouds -19 994 96 496 3.4 238 15:35 08.01.2022
4399 Clouds -19 993 97 392 3.6 236 14:33 08.01.2022
4400 Clouds -21 994 96 2149 3.71 222 12:36 08.01.2022
4401 Clouds -19 993 95 2484 3.58 222 10:46 08.01.2022
4402 Clouds -18 992 95 2189 3.31 227 10:24 08.01.2022
4403 Clouds -18 992 95 2189 3.31 227 09:34 08.01.2022
4404 Clouds -18 992 95 2189 3.31 227 09:34 08.01.2022
4405 Clouds -16 992 95 503 2.67 240 07:18 08.01.2022
4406 Clouds -17 992 96 364 1.52 245 01:52 08.01.2022
4407 Clouds -17 993 96 396 0.64 75 00:25 08.01.2022
4408 Clouds -17 993 96 457 1.09 84 22:39 07.01.2022
4409 Snow -17 994 96 360 1.77 90 20:40 07.01.2022
4410 Snow -17 994 96 244 2.31 91 19:39 07.01.2022
4411 Snow -18 996 97 231 3.02 89 18:50 07.01.2022
4412 Clouds -18 996 97 285 3.07 88 18:26 07.01.2022
4413 Clouds -19 997 97 1001 2.94 93 17:24 07.01.2022
4414 Clouds -19 998 98 5205 3.01 99 16:22 07.01.2022
4415 Clouds -19 999 98 10000 3.45 100 13:52 07.01.2022
4416 Clouds -19 1000 96 10000 3.64 104 13:18 07.01.2022
4417 Clouds -18 1000 93 10000 3.15 109 12:25 07.01.2022
4418 Snow -14 1002 96 258 2.8 127 06:47 07.01.2022
4419 Snow -14 1004 96 160 3.08 126 02:54 07.01.2022
4420 Snow -15 1005 96 195 3.4 126 01:52 07.01.2022
4421 Snow -15 1005 96 236 3.85 124 01:27 07.01.2022
4422 Snow -15 1005 96 236 3.85 124 00:55 07.01.2022
4423 Snow -15 1006 95 446 4.07 130 22:42 06.01.2022
4424 Snow -16 1007 95 323 4.12 128 21:23 06.01.2022
4425 Snow -17 1008 96 255 3.82 118 20:20 06.01.2022
4426 Snow -17 1008 96 255 3.82 118 19:40 06.01.2022
4427 Clouds -19 1010 89 10000 2.76 133 17:53 06.01.2022
4428 Clouds -19 1010 89 10000 2.76 133 17:32 06.01.2022
4429 Clouds -20 1010 87 10000 2.84 155 16:40 06.01.2022
4430 Clouds -20 1010 82 10000 3.36 175 15:45 06.01.2022
4431 Clouds -21 1011 78 10000 4.03 188 15:23 06.01.2022
4432 Clouds -22 1011 78 10000 4.52 193 14:21 06.01.2022
4433 Clouds -22 1011 78 10000 4.52 193 13:47 06.01.2022
4434 Clouds -22 1011 78 10000 4.49 195 12:43 06.01.2022
4435 Clouds -22 1011 78 10000 5.68 202 11:41 06.01.2022
4436 Clouds -23 1011 80 10000 6.45 208 11:21 06.01.2022
4437 Clouds -24 1011 82 10000 7.84 213 08:50 06.01.2022
4438 Clouds -23 1008 96 995 7.33 218 00:43 06.01.2022
4439 Clouds -25 1008 96 1099 5.13 211 23:36 05.01.2022
4440 Clouds -28 1008 91 2859 4.54 216 22:54 05.01.2022
4441 Clouds -28 1008 91 2859 4.54 216 22:30 05.01.2022
4442 Clear -29 1007 88 10000 3.72 232 21:46 05.01.2022
4443 Clear -29 1007 90 10000 3.9 252 20:49 05.01.2022
4444 Clear -29 1006 91 10000 4.57 266 19:59 05.01.2022
4445 Clouds -29 1006 92 10000 4.51 257 18:38 05.01.2022
4446 Clouds -29 1005 94 10000 5.17 270 17:23 05.01.2022
4447 Clouds -29 1005 94 10000 5.17 270 16:38 05.01.2022
4448 Clouds -29 1004 95 10000 5.7 286 15:20 05.01.2022
4449 Clouds -29 1003 95 10000 5.76 295 13:51 05.01.2022
4450 Clouds -30 1002 95 9085 5.77 298 12:51 05.01.2022
4451 Clouds -30 1001 95 8266 6.39 305 10:32 05.01.2022
4452 Clouds -30 999 94 2958 6.83 320 07:45 05.01.2022
4453 Clouds -31 998 94 8072 6.33 323 06:24 05.01.2022
4454 Clouds -29 996 94 562 7.74 344 00:58 05.01.2022
4455 Clouds -28 995 95 493 8.05 349 23:27 04.01.2022
4456 Clouds -28 995 95 493 8.05 349 22:42 04.01.2022
4457 Clouds -28 995 95 361 8.04 360 21:21 04.01.2022
4458 Clouds -28 995 95 433 8.38 6 19:20 04.01.2022
4459 Clouds -28 996 94 1072 8.1 12 17:44 04.01.2022
4460 Clouds -28 997 94 877 8.15 15 16:43 04.01.2022
4461 Clouds -28 997 94 693 8.22 20 16:23 04.01.2022
4462 Clouds -27 997 95 638 8.34 24 14:54 04.01.2022
4463 Clouds -27 997 95 638 8.34 24 14:34 04.01.2022
4464 Clouds -27 998 95 1073 8.56 29 13:27 04.01.2022
4465 Clouds -26 998 95 1474 8.23 37 10:41 04.01.2022
4466 Clouds -26 998 94 964 8.73 45 09:20 04.01.2022
4467 Clouds -26 998 94 964 8.73 45 08:30 04.01.2022
4468 Snow -25 1000 97 345 9.5 57 02:31 04.01.2022
4469 Snow -25 1001 97 263 9.38 61 00:41 04.01.2022
4470 Snow -25 1001 96 326 9.68 65 23:19 03.01.2022
4471 Clouds -25 1002 96 307 9.87 66 21:52 03.01.2022
4472 Clouds -25 1002 96 307 9.87 66 21:32 03.01.2022
4473 Snow -25 1002 97 246 10.13 67 19:56 03.01.2022
4474 Snow -25 1003 97 248 10.04 68 18:48 03.01.2022
4475 Clouds -25 1003 97 254 10.04 69 18:27 03.01.2022
4476 Snow -25 1004 97 218 10.22 69 16:58 03.01.2022
4477 Snow -25 1004 97 279 9.95 72 14:56 03.01.2022
4478 Snow -25 1004 97 279 9.95 72 14:30 03.01.2022
4479 Snow -25 1005 97 245 10 72 12:46 03.01.2022
4480 Clouds -25 1005 96 317 10.12 72 11:35 03.01.2022
4481 Clouds -25 1006 96 409 9.87 72 10:27 03.01.2022
4482 Clouds -26 1007 96 514 9.86 72 08:47 03.01.2022
4483 Clouds -26 1007 95 1512 9.85 74 07:34 03.01.2022
4484 Clouds -26 1007 95 1512 9.85 74 07:34 03.01.2022
4485 Clouds -27 1010 97 2961 9.23 77 23:55 02.01.2022
4486 Clouds -27 1010 98 2632 9.04 79 23:22 02.01.2022
4487 Clouds -27 1010 98 2632 9.04 79 22:53 02.01.2022
4488 Clouds -27 1011 98 2996 9.12 77 21:42 02.01.2022
4489 Clouds -27 1011 98 3268 9.2 76 20:33 02.01.2022
4490 Clouds -27 1011 98 3335 9.23 77 19:55 02.01.2022
4491 Clouds -27 1011 98 3335 9.23 77 19:30 02.01.2022
4492 Clouds -28 1012 97 4710 9.2 76 18:46 02.01.2022
4493 Clouds -28 1012 97 4710 9.2 76 18:46 02.01.2022
4494 Clouds -29 1012 98 4473 9.14 75 17:54 02.01.2022
4495 Clouds -29 1012 98 4473 9.14 75 17:36 02.01.2022
4496 Clouds -29 1012 98 4456 9.02 73 17:18 02.01.2022
4497 Clouds -29 1012 98 4397 9.05 74 16:25 02.01.2022
4498 Clouds -29 1012 98 4254 9.21 74 14:32 02.01.2022
4499 Clouds -28 1012 98 3932 9.41 75 12:50 02.01.2022
4500 Clouds -28 1012 98 3852 9.48 74 11:58 02.01.2022
4501 Clouds -28 1012 98 3680 9.2 72 11:26 02.01.2022
4502 Clouds -28 1012 98 3680 9.2 72 10:46 02.01.2022
4503 Clouds -27 1012 98 3808 9.18 73 09:45 02.01.2022
4504 Clouds -26 1012 98 3427 9.46 76 05:21 02.01.2022
4505 Clouds -26 1012 98 3466 9.26 77 01:41 02.01.2022
4506 Clouds -25 1011 97 3934 9.15 79 23:39 01.01.2022
4507 Clouds -25 1011 98 3748 9.18 78 22:57 01.01.2022
4508 Clouds -25 1011 98 3910 9.03 77 22:22 01.01.2022
4509 Clouds -25 1011 98 3910 9.03 77 21:43 01.01.2022
4510 Clouds -25 1011 98 3919 8.9 77 20:53 01.01.2022
4511 Clouds -25 1011 98 3910 8.78 77 19:57 01.01.2022
4512 Clouds -25 1011 98 3943 8.62 78 19:19 01.01.2022
4513 Clouds -25 1012 97 4687 8.38 77 17:58 01.01.2022
4514 Clouds -25 1011 98 4111 8.42 78 16:37 01.01.2022
4515 Clouds -25 1011 98 3776 8.35 78 16:19 01.01.2022
4516 Clouds -25 1011 98 3910 8.34 79 15:26 01.01.2022
4517 Clouds -25 1011 98 3857 8.25 79 13:46 01.01.2022
4518 Clouds -24 1011 98 3752 8.25 79 12:49 01.01.2022
4519 Clouds -24 1011 97 4622 8.43 84 11:56 01.01.2022
4520 Clouds -24 1011 97 4568 8.34 85 11:22 01.01.2022
4521 Clouds -24 1011 97 4524 8.46 86 10:27 01.01.2022
4522 Clouds -24 1011 97 4524 8.46 86 09:46 01.01.2022
4523 Clouds -24 1010 97 4263 8.11 85 08:26 01.01.2022
4524 Clouds -24 1010 97 4263 8.11 85 07:44 01.01.2022
4525 Clouds -25 1011 98 4732 8 87 06:47 01.01.2022
4526 Clouds -26 1011 98 5600 7.5 89 05:27 01.01.2022
4527 Clouds -26 1011 98 5600 7.5 89 04:38 01.01.2022
4528 Clouds -27 1012 99 6326 7.02 89 01:59 01.01.2022
4529 Clouds -27 1012 99 6352 6.57 91 23:36 31.12.2021
4530 Clouds -27 1012 99 6379 6.09 92 21:53 31.12.2021
4531 Clouds -27 1012 99 6551 6.29 91 20:38 31.12.2021
4532 Clouds -27 1012 98 7007 6.32 90 19:30 31.12.2021
4533 Clouds -27 1013 99 7594 5.94 92 18:37 31.12.2021
4534 Clouds -26 1013 99 7768 5.8 92 17:40 31.12.2021
4535 Clouds -26 1013 98 7531 5.74 93 17:18 31.12.2021
4536 Clouds -26 1013 97 8123 5.68 93 16:25 31.12.2021
4537 Clouds -26 1013 97 8123 5.68 93 15:57 31.12.2021
4538 Clouds -26 1014 97 10000 5.43 93 15:28 31.12.2021
4539 Clouds -26 1014 97 10000 5.43 93 14:56 31.12.2021
4540 Clouds -26 1014 97 10000 5.43 93 14:30 31.12.2021
4541 Clouds -26 1014 97 10000 5.36 95 13:36 31.12.2021
4542 Clouds -26 1014 98 10000 5.34 95 12:45 31.12.2021
4543 Clouds -26 1014 96 10000 5.1 97 11:51 31.12.2021
4544 Clouds -26 1014 96 10000 5.1 97 11:30 31.12.2021
4545 Clouds -26 1014 96 10000 4.95 99 10:38 31.12.2021
4546 Clouds -26 1014 96 10000 4.7 98 09:55 31.12.2021
4547 Clouds -26 1014 96 10000 4.7 98 09:33 31.12.2021
4548 Clouds -25 1014 97 10000 4.32 101 08:39 31.12.2021
4549 Clouds -25 1013 97 10000 4.35 107 07:31 31.12.2021
4550 Clouds -26 1014 98 10000 2.6 117 23:32 30.12.2021
4551 Clouds -26 1014 98 10000 2.5 121 22:33 30.12.2021
4552 Clouds -26 1014 98 10000 2.38 123 21:59 30.12.2021
4553 Clouds -26 1014 98 10000 2.38 123 21:59 30.12.2021
4554 Clouds -26 1014 98 10000 2.38 123 21:37 30.12.2021
4555 Clouds -26 1014 98 10000 2.26 127 20:47 30.12.2021
4556 Clouds -26 1013 98 10000 2.17 127 20:27 30.12.2021
4557 Clouds -26 1013 98 10000 2.17 127 19:48 30.12.2021
4558 Clouds -26 1013 97 10000 2.08 129 18:48 30.12.2021
4559 Clouds -26 1014 96 10000 1.9 151 18:19 30.12.2021
4560 Clouds -26 1014 97 10000 1.95 164 16:20 30.12.2021
4561 Clouds -26 1014 97 10000 1.95 164 15:52 30.12.2021
4562 Clouds -26 1014 96 10000 1.9 161 14:40 30.12.2021
4563 Clouds -26 1014 96 10000 1.83 167 13:57 30.12.2021
4564 Clouds -26 1013 97 10000 1.72 162 12:44 30.12.2021
4565 Clouds -25 1013 96 10000 1.68 175 11:22 30.12.2021
4566 Clouds -25 1012 97 10000 1.75 179 09:59 30.12.2021
4567 Clouds -26 1012 97 10000 1.73 174 09:23 30.12.2021
4568 Clouds -25 1012 96 10000 1.4 163 06:54 30.12.2021
4569 Clouds -24 1011 96 10000 1.34 181 04:20 30.12.2021
4570 Clouds -24 1011 96 10000 1.34 181 04:20 30.12.2021
4571 Clouds -24 1011 96 10000 1.34 181 03:38 30.12.2021
4572 Clouds -25 1010 97 10000 1.03 180 23:57 29.12.2021
4573 Clouds -25 1010 97 10000 1.03 180 23:31 29.12.2021
4574 Clouds -25 1010 96 10000 1.01 172 22:24 29.12.2021
4575 Clouds -25 1010 96 10000 1.01 172 21:53 29.12.2021
4576 Clouds -25 1009 96 10000 1.2 160 20:40 29.12.2021
4577 Clouds -25 1009 95 10000 1.35 164 19:51 29.12.2021
4578 Clouds -24 1009 95 10000 1.58 174 19:24 29.12.2021
4579 Clouds -24 1009 95 10000 1.86 179 18:19 29.12.2021
4580 Clouds -24 1009 95 9984 2.06 181 17:28 29.12.2021
4581 Clouds -24 1009 95 9984 2.06 181 16:49 29.12.2021
4582 Clouds -24 1009 94 10000 2.18 174 16:19 29.12.2021
4583 Clouds -24 1009 94 10000 2.31 171 14:40 29.12.2021
4584 Clouds -24 1008 94 10000 2.58 166 12:48 29.12.2021
4585 Clouds -24 1009 94 10000 2.56 166 12:20 29.12.2021
4586 Clouds -24 1008 94 10000 2.56 163 10:31 29.12.2021
4587 Clouds -23 1007 94 10000 3.7 174 07:52 29.12.2021
4588 Clouds -24 1007 94 10000 3.76 168 06:45 29.12.2021
4589 Clouds -23 1006 94 10000 4.03 171 06:24 29.12.2021
4590 Clouds -23 1006 94 10000 4.03 171 05:42 29.12.2021
4591 Clouds -21 1006 93 10000 4.38 172 03:18 29.12.2021
4592 Clouds -21 1005 93 10000 4.19 175 00:24 29.12.2021
4593 Clouds -21 1005 93 10000 4.19 175 23:47 28.12.2021
4594 Clouds -20 1005 92 10000 4.45 181 22:43 28.12.2021
4595 Clouds -20 1004 91 10000 4.65 179 22:24 28.12.2021
4596 Clouds -20 1004 91 10000 4.65 179 21:53 28.12.2021
4597 Clouds -19 1004 91 10000 4.57 178 20:47 28.12.2021
4598 Clouds -19 1004 93 4728 4.27 178 19:39 28.12.2021
4599 Clouds -20 1004 95 10000 3.76 173 18:44 28.12.2021
4600 Clouds -20 1004 95 10000 3.64 171 18:19 28.12.2021
4601 Clouds -19 1003 93 10000 3.46 165 16:35 28.12.2021
4602 Clouds -18 1003 92 10000 3.37 161 15:51 28.12.2021
4603 Clouds -18 1003 93 10000 3.39 158 15:25 28.12.2021
4604 Clouds -18 1003 93 10000 3.39 158 14:52 28.12.2021
4605 Clouds -18 1003 94 7117 3.28 155 14:21 28.12.2021
4606 Clouds -18 1003 94 7117 3.28 155 13:51 28.12.2021
4607 Clouds -18 1003 94 7117 3.28 155 13:51 28.12.2021
4608 Clouds -18 1003 93 7830 3.04 145 13:28 28.12.2021
4609 Clouds -18 1003 93 7830 3.04 145 12:49 28.12.2021
4610 Clouds -17 1003 92 5440 2.84 147 11:51 28.12.2021
4611 Clouds -16 1003 96 618 2.81 139 09:27 28.12.2021
4612 Clouds -16 1003 95 820 3.8 127 07:28 28.12.2021
4613 Clouds -17 1006 94 8977 2.04 142 00:59 28.12.2021
4614 Clouds -17 1007 96 4210 2.11 90 23:26 27.12.2021
4615 Clouds -18 1008 97 5687 2.45 81 21:54 27.12.2021
4616 Clouds -19 1009 98 6854 2.48 78 21:26 27.12.2021
4617 Clouds -19 1010 98 9762 2.65 82 20:24 27.12.2021
4618 Clouds -19 1010 98 9762 2.65 82 19:43 27.12.2021
4619 Clouds -20 1010 99 10000 2.73 83 18:54 27.12.2021
4620 Clouds -19 1010 95 10000 2.7 86 17:50 27.12.2021
4621 Clouds -20 1011 94 10000 2.57 101 16:57 27.12.2021
4622 Clouds -21 1011 94 10000 2.6 116 15:53 27.12.2021
4623 Clouds -21 1011 92 10000 2.85 123 14:34 27.12.2021
4624 Clouds -20 1011 90 10000 2.99 130 13:40 27.12.2021
4625 Clouds -20 1012 87 10000 3.48 133 12:47 27.12.2021
4626 Clouds -18 1011 85 10000 4.01 147 10:36 27.12.2021
4627 Clouds -18 1011 86 10000 3.83 152 10:18 27.12.2021
4628 Clouds -18 1011 86 10000 3.61 148 08:39 27.12.2021
4629 Clouds -18 1010 88 10000 3.76 157 07:32 27.12.2021
4630 Clouds -15 1007 86 10000 7.3 186 02:26 27.12.2021
4631 Clouds -15 1007 88 10000 6.2 182 00:23 27.12.2021
4632 Clouds -15 1007 88 10000 6.2 182 23:41 26.12.2021
4633 Clouds -15 1006 88 10000 5.79 184 22:47 26.12.2021
4634 Clouds -15 1005 88 10000 5.31 182 21:29 26.12.2021
4635 Snow -14 1005 90 861 5.24 173 19:49 26.12.2021
4636 Clouds -15 1006 91 1220 5.93 113 18:25 26.12.2021
4637 Clouds -15 1006 91 1220 5.93 113 17:44 26.12.2021
4638 Clouds -15 1007 91 5620 4.17 108 14:38 26.12.2021
4639 Clouds -15 1007 94 294 3.56 108 13:43 26.12.2021
4640 Clouds -16 1008 90 9828 3.24 111 13:21 26.12.2021
4641 Clouds -16 1008 91 10000 3.19 108 12:34 26.12.2021
4642 Clouds -18 1009 94 10000 2.95 118 10:48 26.12.2021
4643 Clouds -20 1010 97 998 2.59 118 09:29 26.12.2021
4644 Clouds -20 1010 97 998 2.59 118 08:44 26.12.2021
4645 Clouds -20 1010 97 785 2.5 115 08:23 26.12.2021
4646 Clouds -23 1011 95 4701 2.5 138 01:36 26.12.2021
4647 Clouds -22 1011 94 2352 2.45 142 00:20 26.12.2021
4648 Clouds -22 1011 94 3409 2.42 145 23:28 25.12.2021
4649 Clouds -22 1011 94 5487 2.56 153 22:29 25.12.2021
4650 Clouds -22 1011 94 8002 2.81 160 21:29 25.12.2021
4651 Clouds -22 1010 93 10000 2.97 158 19:46 25.12.2021
4652 Clouds -22 1010 93 10000 2.87 152 19:18 25.12.2021
4653 Clouds -22 1010 95 10000 3.1 143 18:26 25.12.2021
4654 Clouds -21 1010 92 10000 3.07 139 16:49 25.12.2021
4655 Clouds -21 1010 93 10000 2.72 140 15:30 25.12.2021
4656 Clouds -21 1009 97 10000 2.36 121 14:22 25.12.2021
4657 Clouds -20 1010 98 10000 3.12 115 12:19 25.12.2021
4658 Clouds -19 1010 96 10000 4.25 112 10:38 25.12.2021
4659 Clouds -17 1009 94 10000 5.56 108 09:48 25.12.2021
4660 Clouds -14 1008 92 1598 7.35 96 07:27 25.12.2021
4661 Clouds -13 1009 94 314 9.08 70 01:36 25.12.2021
4662 Clouds -13 1011 93 10000 7.51 56 00:19 25.12.2021
4663 Clouds -14 1013 94 10000 6.08 74 21:51 24.12.2021
4664 Clouds -16 1015 92 10000 4.15 83 19:27 24.12.2021
4665 Clouds -16 1015 92 10000 4.15 83 18:41 24.12.2021
4666 Clouds -18 1016 91 10000 2.96 86 16:44 24.12.2021
4667 Clouds -18 1016 91 10000 2.59 92 15:50 24.12.2021
4668 Clouds -18 1016 91 10000 2.59 92 15:50 24.12.2021
4669 Clouds -19 1016 90 10000 2.34 96 15:20 24.12.2021
4670 Clouds -19 1016 90 10000 2.34 96 14:34 24.12.2021
4671 Clouds -21 1017 91 10000 2.27 123 13:54 24.12.2021
4672 Clouds -21 1017 91 10000 2.27 123 13:32 24.12.2021
4673 Clouds -22 1017 91 10000 2.47 124 12:40 24.12.2021
4674 Clouds -22 1017 91 10000 2.64 112 11:43 24.12.2021
4675 Clouds -22 1017 91 10000 2.54 123 11:24 24.12.2021
4676 Clouds -22 1017 91 10000 2.54 123 10:35 24.12.2021
4677 Clear -20 1017 85 10000 3.5 166 08:48 24.12.2021
4678 Clear -20 1016 83 10000 4.45 186 07:58 24.12.2021
4679 Clouds -20 1016 84 10000 5.37 189 06:59 24.12.2021
4680 Clouds -19 1011 91 10000 7.77 204 00:47 24.12.2021
4681 Clouds -19 1010 91 10000 8.17 209 23:50 23.12.2021
4682 Clouds -19 1009 91 10000 9 212 22:53 23.12.2021
4683 Clouds -20 1007 92 10000 9.01 214 22:24 23.12.2021
4684 Clouds -20 1007 92 10000 9.01 214 21:41 23.12.2021
4685 Clouds -20 1006 91 10000 8.98 214 20:31 23.12.2021
4686 Clouds -20 1006 91 10000 8.98 214 20:31 23.12.2021
4687 Clouds -19 1005 91 10000 8.91 214 19:30 23.12.2021
4688 Clouds -19 1005 91 10000 8.91 214 19:30 23.12.2021
4689 Clouds -19 1003 92 4823 8.28 216 18:18 23.12.2021
4690 Clouds -19 1003 92 4823 8.28 216 17:45 23.12.2021
4691 Clouds -19 1001 93 3954 6.49 216 16:27 23.12.2021
4692 Clouds -19 1001 93 3954 6.49 216 15:48 23.12.2021
4693 Clouds -19 1001 93 3954 6.49 216 15:30 23.12.2021
4694 Clouds -20 1001 94 9822 5.66 216 14:42 23.12.2021
4695 Clouds -20 1001 93 10000 4.88 214 13:43 23.12.2021
4696 Clouds -20 1001 93 10000 3.64 217 11:52 23.12.2021
4697 Clouds -20 1001 94 10000 2.9 219 09:55 23.12.2021
4698 Clouds -20 1001 94 10000 2.9 219 09:34 23.12.2021
4699 Clouds -20 1001 94 10000 2.69 209 08:38 23.12.2021
4700 Clouds -21 1000 96 10000 3.18 189 05:43 23.12.2021
4701 Clouds -18 1000 96 10000 4.02 199 02:56 23.12.2021
4702 Snow -14 1000 96 145 4.38 59 22:53 22.12.2021
4703 Snow -15 1001 96 127 5.11 54 22:22 22.12.2021
4704 Snow -15 1001 96 127 5.11 54 21:37 22.12.2021
4705 Snow -16 1002 96 129 4.79 62 21:19 22.12.2021
4706 Snow -16 1002 96 129 4.79 62 20:40 22.12.2021
4707 Clouds -17 1002 95 344 4.47 72 19:57 22.12.2021
4708 Clouds -20 1004 97 3099 4.74 76 18:55 22.12.2021
4709 Clouds -21 1005 98 3862 4.78 76 17:38 22.12.2021
4710 Clouds -24 1006 100 7183 3.78 89 16:25 22.12.2021
4711 Clouds -25 1007 98 10000 3.64 96 14:34 22.12.2021
4712 Clouds -25 1008 98 10000 3.43 92 12:55 22.12.2021
4713 Clouds -25 1008 98 10000 2.23 92 11:50 22.12.2021
4714 Clouds -25 1009 95 10000 1.82 110 09:53 22.12.2021
4715 Clouds -25 1010 93 10000 1.43 108 08:34 22.12.2021
4716 Clouds -26 1011 90 10000 2.13 157 05:56 22.12.2021
4717 Clouds -26 1011 90 10000 2.13 157 05:37 22.12.2021
4718 Clouds -26 1011 88 10000 1.95 159 05:19 22.12.2021
4719 Clouds -26 1011 88 10000 1.95 159 04:40 22.12.2021
4720 Clouds -26 1012 88 10000 2.05 160 03:53 22.12.2021
4721 Clouds -26 1012 88 10000 2.05 160 03:31 22.12.2021
4722 Clouds -27 1014 87 10000 1.44 216 23:49 21.12.2021
4723 Clouds -27 1014 86 10000 1.83 209 22:41 21.12.2021
4724 Clouds -27 1015 88 10000 2.14 193 21:58 21.12.2021
4725 Clouds -27 1015 88 10000 2.14 193 21:33 21.12.2021
4726 Clouds -28 1015 91 10000 2.1 167 20:42 21.12.2021
4727 Clouds -28 1016 92 10000 2.21 147 20:18 21.12.2021
4728 Clouds -28 1016 92 10000 2.21 147 19:34 21.12.2021
4729 Clouds -30 1016 96 10000 2.22 148 18:28 21.12.2021
4730 Clouds -30 1016 96 10000 2.22 148 17:58 21.12.2021
4731 Clouds -30 1016 96 10000 2.22 148 17:40 21.12.2021
4732 Clouds -29 1017 97 10000 2.48 121 15:46 21.12.2021
4733 Clouds -29 1018 97 10000 3.61 107 14:24 21.12.2021
4734 Clouds -29 1018 97 10000 3.61 107 13:42 21.12.2021
4735 Clouds -28 1019 96 10000 4.59 105 12:29 21.12.2021
4736 Clouds -28 1020 96 10000 4.7 103 10:39 21.12.2021
4737 Clouds -28 1021 96 10000 5.13 106 09:56 21.12.2021
4738 Clouds -28 1021 95 10000 5.35 105 08:57 21.12.2021
4739 Clouds -28 1021 95 10000 5.38 104 07:44 21.12.2021
4740 Clouds -28 1022 95 10000 5.26 103 07:22 21.12.2021
4741 Clouds -28 1023 96 10000 4.47 103 03:26 21.12.2021
4742 Clouds -28 1023 96 10000 4.47 103 02:30 21.12.2021
4743 Clouds -28 1025 96 10000 4.51 105 23:54 20.12.2021
4744 Clouds -28 1025 97 10000 4.41 104 22:36 20.12.2021
4745 Clouds -28 1025 96 10000 4.39 106 21:59 20.12.2021
4746 Clouds -28 1026 96 10000 4.57 108 21:27 20.12.2021
4747 Clouds -28 1026 96 10000 4.57 108 20:54 20.12.2021
4748 Clouds -28 1026 96 10000 4.81 106 20:23 20.12.2021
4749 Clouds -28 1026 96 10000 4.81 106 19:38 20.12.2021
4750 Clouds -28 1026 96 10000 5.08 105 19:19 20.12.2021
4751 Clouds -28 1026 95 10000 4.9 104 18:33 20.12.2021
4752 Clouds -27 1026 94 10000 5.29 104 17:50 20.12.2021
4753 Clouds -27 1026 95 10000 5.81 103 16:47 20.12.2021
4754 Clouds -27 1026 95 10000 6.07 99 15:57 20.12.2021
4755 Clouds -27 1026 95 10000 6.07 99 15:35 20.12.2021
4756 Clouds -27 1026 95 10000 6.18 97 13:32 20.12.2021
4757 Clouds -27 1026 95 10000 6.31 97 12:30 20.12.2021
4758 Clouds -26 1026 96 10000 6.34 98 10:46 20.12.2021
4759 Clouds -26 1026 96 10000 6.29 98 09:40 20.12.2021
4760 Clouds -26 1026 96 10000 6.33 99 08:50 20.12.2021
4761 Clouds -26 1026 96 10000 6.33 99 08:31 20.12.2021
4762 Clouds -26 1026 95 10000 6.26 101 07:32 20.12.2021
4763 Clouds -26 1026 94 10000 5.98 100 06:39 20.12.2021
4764 Clouds -27 1024 95 10000 4.88 101 00:20 20.12.2021
4765 Clouds -27 1024 94 10000 4.85 102 22:56 19.12.2021
4766 Clouds -27 1024 94 10000 4.85 102 22:32 19.12.2021
4767 Clouds -27 1024 94 10000 4.99 101 21:32 19.12.2021
4768 Clouds -27 1023 94 10000 5.21 102 20:42 19.12.2021
4769 Clouds -27 1023 95 10000 5.54 101 20:23 19.12.2021
4770 Clouds -27 1023 95 10000 5.54 101 19:41 19.12.2021
4771 Clouds -27 1023 96 10000 5.93 100 18:42 19.12.2021
4772 Clouds -27 1022 97 9714 6.13 100 17:53 19.12.2021
4773 Clouds -27 1022 97 9714 6.13 100 17:30 19.12.2021
4774 Clouds -26 1022 97 8858 6.49 101 16:41 19.12.2021
4775 Clouds -26 1022 97 8757 6.78 98 15:55 19.12.2021
4776 Clouds -27 1022 97 7923 7.05 97 15:24 19.12.2021
4777 Clouds -27 1022 97 7923 7.05 97 14:45 19.12.2021
4778 Clouds -27 1022 97 6739 7.38 96 13:32 19.12.2021
4779 Clouds -26 1022 98 4978 7.62 93 12:59 19.12.2021
4780 Clouds -26 1022 98 3884 7.5 92 12:29 19.12.2021
4781 Clouds -26 1022 98 3884 7.5 92 11:37 19.12.2021
4782 Clouds -26 1021 99 3524 7.52 91 10:49 19.12.2021
4783 Clouds -25 1021 100 3539 7.59 90 10:22 19.12.2021
4784 Clouds -25 1021 99 3895 7.61 88 08:46 19.12.2021
4785 Clouds -25 1021 99 4200 7.58 89 06:30 19.12.2021
4786 Clouds -25 1020 97 4641 6.4 96 01:51 19.12.2021
4787 Clouds -24 1020 96 4733 6.3 96 00:54 19.12.2021
4788 Clouds -22 1019 94 3025 6.05 89 22:59 18.12.2021
4789 Clouds -21 1019 94 2015 5.85 88 22:24 18.12.2021
4790 Clouds -21 1019 94 2015 5.85 88 21:43 18.12.2021
4791 Clouds -21 1019 96 2096 5.12 84 21:22 18.12.2021
4792 Clouds -20 1019 96 3015 5.01 79 20:25 18.12.2021
4793 Clouds -20 1019 96 3015 5.01 79 19:34 18.12.2021
4794 Clouds -18 1019 95 5463 4.63 96 18:24 18.12.2021
4795 Clouds -18 1019 95 5463 4.63 96 17:49 18.12.2021
4796 Clouds -17 1019 94 7800 4.61 92 16:36 18.12.2021
4797 Clouds -17 1019 93 10000 4.43 87 16:18 18.12.2021
4798 Clouds -17 1020 93 9042 3.65 82 14:54 18.12.2021
4799 Clouds -17 1021 94 6681 2.97 83 13:44 18.12.2021
4800 Clouds -21 1022 100 2748 2.19 115 11:55 18.12.2021
4801 Clouds -21 1022 100 3741 2.92 112 09:54 18.12.2021
4802 Clouds -21 1022 100 3741 2.92 112 09:30 18.12.2021
4803 Clouds -21 1022 100 4358 2.95 118 08:36 18.12.2021
4804 Clouds -21 1022 100 4358 2.95 118 08:36 18.12.2021
4805 Clouds -22 1022 100 4008 3.93 107 06:27 18.12.2021
4806 Clouds -23 1023 99 7580 4.48 104 00:58 18.12.2021
4807 Clouds -23 1023 98 9578 4.88 102 23:47 17.12.2021
4808 Clouds -23 1023 96 10000 5.38 100 22:37 17.12.2021
4809 Clouds -22 1023 95 10000 6.21 97 21:29 17.12.2021
4810 Clouds -22 1023 95 10000 6.21 97 20:43 17.12.2021
4811 Clouds -22 1023 95 10000 6.46 96 19:51 17.12.2021
4812 Clouds -21 1022 95 10000 6.64 97 18:39 17.12.2021
4813 Clouds -21 1022 95 10000 6.76 97 17:47 17.12.2021
4814 Clouds -21 1022 95 10000 6.83 96 16:50 17.12.2021
4815 Clouds -21 1022 96 10000 7.02 96 16:26 17.12.2021
4816 Clouds -20 1021 97 7769 7.12 96 15:27 17.12.2021
4817 Clouds -20 1021 97 7769 7.12 96 14:42 17.12.2021
4818 Clouds -20 1021 99 4267 6.87 96 13:35 17.12.2021
4819 Clouds -20 1020 100 2798 7.22 95 12:28 17.12.2021
4820 Clouds -19 1020 100 2620 7.45 94 10:41 17.12.2021
4821 Clouds -19 1019 100 2603 7.45 92 09:47 17.12.2021
4822 Clouds -19 1019 100 2603 7.45 92 09:47 17.12.2021
4823 Clouds -18 1019 100 2860 7.47 89 08:31 17.12.2021
4824 Clouds -17 1018 99 3098 7.83 89 07:21 17.12.2021
4825 Clouds -16 1016 97 3531 8 89 04:40 17.12.2021
4826 Clouds -15 1014 96 4850 7.92 93 23:58 16.12.2021
4827 Clouds -14 1013 95 6326 7.78 94 22:24 16.12.2021
4828 Clouds -14 1013 95 6326 7.78 94 21:51 16.12.2021
4829 Clouds -14 1013 95 6326 7.78 94 21:30 16.12.2021
4830 Clouds -14 1013 94 2528 7.57 96 20:31 16.12.2021
4831 Clouds -13 1012 94 750 7.53 98 19:51 16.12.2021
4832 Clouds -11 1011 94 445 6.39 101 18:41 16.12.2021
4833 Snow -10 1010 95 373 6.11 101 17:57 16.12.2021
4834 Snow -10 1010 95 373 6.11 101 17:31 16.12.2021
4835 Snow -8 1010 95 322 5.69 109 16:23 16.12.2021
4836 Snow -8 1010 95 304 5.68 113 15:20 16.12.2021
4837 Snow -8 1009 95 214 5.67 116 13:43 16.12.2021
4838 Snow -7 1009 95 209 4.16 115 11:46 16.12.2021
4839 Snow -7 1009 96 221 3.64 115 11:18 16.12.2021
4840 Snow -8 1009 96 294 3.38 115 10:27 16.12.2021
4841 Snow -8 1009 95 493 3.33 118 08:37 16.12.2021
4842 Snow -9 1009 95 332 3.52 128 06:22 16.12.2021
4843 Snow -9 1010 95 234 3.7 134 02:54 16.12.2021
4844 Clouds -10 1011 95 309 3.21 131 23:35 15.12.2021
4845 Clouds -10 1012 94 924 3.05 134 22:48 15.12.2021
4846 Clouds -12 1012 94 2634 3 146 21:57 15.12.2021
4847 Clouds -13 1012 94 10000 3.09 150 21:28 15.12.2021
4848 Clouds -13 1012 94 10000 3.09 150 20:31 15.12.2021
4849 Clouds -13 1013 95 8707 2.92 152 19:52 15.12.2021
4850 Clouds -14 1013 95 10000 2.87 155 18:39 15.12.2021
4851 Clouds -14 1013 95 10000 2.85 159 17:55 15.12.2021
4852 Clouds -14 1013 95 10000 2.85 159 17:37 15.12.2021
4853 Clouds -14 1014 95 10000 2.93 161 16:35 15.12.2021
4854 Clouds -14 1014 95 10000 2.79 166 15:47 15.12.2021
4855 Clouds -14 1014 95 10000 2.67 155 15:28 15.12.2021
4856 Clouds -15 1014 95 10000 2.67 157 14:42 15.12.2021
4857 Clouds -15 1015 97 10000 2.71 149 12:46 15.12.2021
4858 Clouds -14 1015 96 10000 2.75 132 10:44 15.12.2021
4859 Clouds -14 1015 97 10000 2.99 135 08:55 15.12.2021
4860 Clouds -14 1015 97 10000 3.11 137 07:44 15.12.2021
4861 Clouds -7 1013 97 2584 0.45 116 01:39 15.12.2021
4862 Clouds -6 1012 95 1769 0.98 73 23:42 14.12.2021
4863 Clouds -6 1011 95 1879 0.93 57 22:49 14.12.2021
4864 Clouds -6 1011 95 1814 0.85 20 22:25 14.12.2021
4865 Clouds -6 1010 95 1467 0.73 341 20:57 14.12.2021
4866 Clouds -7 1009 95 1795 0.72 287 19:44 14.12.2021
4867 Clouds -7 1009 94 2766 0.83 260 19:20 14.12.2021
4868 Clouds -7 1009 94 3651 0.97 251 18:29 14.12.2021
4869 Clouds -7 1009 94 3651 0.97 251 17:33 14.12.2021
4870 Clouds -7 1009 93 3351 1.49 231 16:42 14.12.2021
4871 Clouds -9 1008 94 2419 2.4 226 15:37 14.12.2021
4872 Clouds -9 1008 95 817 3.3 227 13:32 14.12.2021
4873 Snow -9 1007 94 482 5.01 225 12:21 14.12.2021
4874 Clouds -9 1006 94 478 5.99 225 11:24 14.12.2021
4875 Snow -9 1006 93 490 6.66 225 10:24 14.12.2021
4876 Snow -9 1006 93 490 6.66 225 09:51 14.12.2021
4877 Clouds -9 1006 92 1008 7.85 224 08:28 14.12.2021
4878 Clouds -9 1006 92 1008 7.85 224 07:59 14.12.2021
4879 Clouds -10 1006 92 1732 8.31 224 05:38 14.12.2021
4880 Clouds -8 1009 91 754 9.32 226 22:59 13.12.2021
4881 Clouds -9 1010 91 812 9.23 222 21:53 13.12.2021
4882 Clouds -9 1010 91 812 9.23 222 21:34 13.12.2021
4883 Snow -9 1011 91 713 9.27 219 20:45 13.12.2021
4884 Snow -9 1011 91 340 9.3 215 19:57 13.12.2021
4885 Snow -9 1012 92 299 9.4 210 19:19 13.12.2021
4886 Snow -10 1014 91 381 9.58 203 17:26 13.12.2021
4887 Snow -10 1015 91 386 9.17 202 15:56 13.12.2021
4888 Snow -10 1015 91 386 9.17 202 15:38 13.12.2021
4889 Clouds -9 1017 89 10000 8.42 195 13:49 13.12.2021
4890 Clouds -9 1018 90 10000 8.18 197 13:18 13.12.2021
4891 Clouds -9 1020 90 10000 7.63 195 12:22 13.12.2021
4892 Clouds -9 1020 90 10000 7.63 195 11:36 13.12.2021
4893 Clouds -10 1020 90 10000 6.81 193 10:53 13.12.2021
4894 Clouds -11 1021 91 10000 6.28 194 10:21 13.12.2021
4895 Clouds -12 1023 93 10000 4.56 188 08:28 13.12.2021
4896 Clouds -13 1024 93 10000 3.98 187 05:37 13.12.2021
4897 Clouds -13 1025 92 10000 3.54 187 03:31 13.12.2021
4898 Clouds -13 1026 95 10000 2.83 194 23:39 12.12.2021
4899 Clouds -12 1026 96 10000 2.8 185 21:52 12.12.2021
4900 Clouds -12 1026 96 10000 2.65 186 20:45 12.12.2021
4901 Clouds -12 1026 96 10000 2.57 183 19:30 12.12.2021
4902 Clouds -13 1026 96 10000 2.12 201 17:46 12.12.2021
4903 Clouds -13 1025 96 10000 1.96 203 16:28 12.12.2021
4904 Clouds -13 1025 96 10000 1.96 203 15:51 12.12.2021
4905 Clouds -13 1025 96 10000 1.96 204 15:26 12.12.2021
4906 Clouds -13 1025 96 10000 1.96 204 14:37 12.12.2021
4907 Clouds -13 1024 96 10000 1.99 211 13:34 12.12.2021
4908 Clouds -13 1024 97 10000 2.04 205 12:32 12.12.2021
4909 Clouds -13 1023 97 10000 2.04 203 11:44 12.12.2021
4910 Clouds -13 1023 97 10000 2.13 208 11:25 12.12.2021
4911 Clouds -13 1023 97 10000 2.13 208 10:39 12.12.2021
4912 Clouds -13 1023 97 10000 2.47 213 09:44 12.12.2021
4913 Clouds -12 1022 96 10000 2.5 210 08:38 12.12.2021
4914 Clouds -13 1022 97 6313 3.25 201 06:34 12.12.2021
4915 Clouds -12 1021 98 4459 3.41 204 05:22 12.12.2021
4916 Clouds -9 1020 93 10000 3.21 203 03:58 12.12.2021
4917 Clouds -7 1020 93 9648 3.32 216 00:36 12.12.2021
4918 Clouds -5 1020 94 2696 3.35 229 22:24 11.12.2021
4919 Clouds -5 1020 94 2696 3.35 229 21:52 11.12.2021
4920 Clouds -5 1019 92 5043 3.31 243 21:21 11.12.2021
4921 Clouds -5 1019 93 8808 3.02 242 19:37 11.12.2021
4922 Clouds -6 1020 94 3773 3.73 217 18:53 11.12.2021
4923 Clouds -6 1020 94 3773 3.73 217 18:30 11.12.2021
4924 Clouds -6 1020 95 2109 3.55 214 17:37 11.12.2021
4925 Clouds -8 1021 94 3783 4.01 215 15:55 11.12.2021
4926 Clouds -8 1021 94 3783 4.01 215 15:35 11.12.2021
4927 Clouds -7 1021 94 545 4.4 223 13:46 11.12.2021
4928 Clouds -8 1021 100 141 4.43 231 11:55 11.12.2021
4929 Clouds -11 1021 99 1468 4.15 227 09:57 11.12.2021
4930 Clouds -11 1021 99 1468 4.15 227 09:34 11.12.2021
4931 Clouds -10 1019 99 7285 2.9 263 03:25 11.12.2021
4932 Clouds -6 1018 95 2132 2.96 304 00:44 11.12.2021
4933 Clouds -6 1018 96 893 2.36 317 23:39 10.12.2021
4934 Snow -6 1017 96 206 2.18 12 22:27 10.12.2021
4935 Snow -6 1017 96 206 2.18 12 21:37 10.12.2021
4936 Snow -6 1016 96 168 3.95 11 19:55 10.12.2021
4937 Snow -6 1015 95 219 4.9 1 19:18 10.12.2021
4938 Snow -9 1016 96 209 2.96 293 17:23 10.12.2021
4939 Snow -9 1016 96 209 2.96 293 16:32 10.12.2021
4940 Snow -10 1016 96 240 2.94 285 15:42 10.12.2021
4941 Clouds -11 1016 95 271 2.63 274 15:23 10.12.2021
4942 Snow -11 1016 95 414 2.47 272 13:53 10.12.2021
4943 Snow -11 1016 95 414 2.47 272 13:31 10.12.2021
4944 Snow -12 1016 95 275 2.23 262 12:47 10.12.2021
4945 Snow -12 1016 94 304 2.01 259 11:34 10.12.2021
4946 Snow -12 1016 94 236 2.07 255 10:50 10.12.2021
4947 Snow -12 1016 94 262 2.04 244 09:33 10.12.2021
4948 Clouds -13 1017 93 1036 2.54 216 07:24 10.12.2021
4949 Clouds -14 1019 92 10000 4.13 218 02:53 10.12.2021
4950 Clouds -14 1019 92 10000 4.59 213 01:32 10.12.2021
4951 Clouds -15 1019 93 10000 5.87 217 23:39 09.12.2021
4952 Clouds -15 1019 90 10000 6.3 217 22:41 09.12.2021
4953 Clouds -14 1019 88 10000 6.8 220 22:21 09.12.2021
4954 Clouds -14 1019 87 10000 6.77 220 21:38 09.12.2021
4955 Clouds -13 1019 86 10000 7.43 219 20:34 09.12.2021
4956 Clouds -12 1020 92 10000 8.62 220 19:22 09.12.2021
4957 Clouds -12 1020 92 10000 8.62 220 18:59 09.12.2021
4958 Clouds -10 1019 92 4349 8.64 221 17:58 09.12.2021
4959 Snow -8 1019 93 689 8.87 222 17:28 09.12.2021
4960 Snow -8 1019 93 689 8.87 222 16:57 09.12.2021
4961 Snow -7 1019 93 538 7.74 225 16:20 09.12.2021
4962 Snow -5 1018 94 376 7.06 230 14:58 09.12.2021
4963 Snow -5 1019 95 198 7.07 232 13:51 09.12.2021
4964 Snow -4 1018 95 181 6.82 244 12:47 09.12.2021
4965 Snow -3 1018 97 211 3.85 252 11:25 09.12.2021
4966 Snow -4 1018 97 642 2.73 253 10:20 09.12.2021
4967 Clouds -4 1017 97 10000 4.55 266 06:53 09.12.2021
4968 Clouds -2 1016 94 10000 5.25 283 03:50 09.12.2021
4969 Snow -1 1014 96 241 8.86 281 00:24 09.12.2021
4970 Snow -1 1014 96 241 8.86 281 23:32 08.12.2021
4971 Snow -1 1014 96 193 9.86 279 22:56 08.12.2021
4972 Snow -1 1014 96 180 10.42 278 21:50 08.12.2021
4973 Snow -1 1014 96 180 10.42 278 21:32 08.12.2021
4974 Snow -1 1013 94 371 11.03 277 20:31 08.12.2021
4975 Snow -1 1013 94 536 11.7 277 19:55 08.12.2021
4976 Snow -1 1013 94 604 11.9 278 18:57 08.12.2021
4977 Snow -1 1012 92 2164 11.85 280 18:22 08.12.2021
4978 Snow -1 1012 91 3207 12.12 281 16:44 08.12.2021
4979 Clouds -1 1012 89 6622 12.56 281 15:40 08.12.2021
4980 Clouds -1 1012 90 3991 12.98 280 15:21 08.12.2021
4981 Snow -1 1011 91 1917 14.27 277 13:21 08.12.2021
4982 Clouds -1 1012 89 3077 15 272 10:42 08.12.2021
4983 Clouds -2 1012 87 9343 14.55 268 09:32 08.12.2021
4984 Clouds -2 1013 79 10000 13.9 263 07:50 08.12.2021
4985 Clouds -7 1015 91 1913 12.09 240 05:22 08.12.2021
4986 Clouds -7 1018 92 1222 11.13 241 00:21 08.12.2021
4987 Clouds -6 1019 91 740 10.51 246 22:48 07.12.2021
4988 Clouds -6 1019 86 10000 8.07 256 21:25 07.12.2021
4989 Clouds -9 1020 93 6406 7.02 249 20:25 07.12.2021
4990 Clouds -10 1020 92 10000 6.3 242 18:59 07.12.2021
4991 Clouds -11 1020 94 10000 5.67 244 18:20 07.12.2021
4992 Clouds -12 1020 95 4785 5.69 243 17:23 07.12.2021
4993 Clouds -12 1020 95 4785 5.69 243 16:41 07.12.2021
4994 Clouds -12 1020 92 10000 5.87 246 15:59 07.12.2021
4995 Clouds -10 1020 84 10000 5.6 260 14:37 07.12.2021
4996 Snow -7 1019 85 6170 6.64 292 13:29 07.12.2021
4997 Clouds -8 1018 81 1222 4.09 297 12:21 07.12.2021
4998 Clouds -9 1018 75 10000 4.06 318 10:45 07.12.2021
4999 Clouds -8 1017 73 10000 4.58 336 09:20 07.12.2021
5000 Clouds -8 1016 76 10000 4.61 357 06:40 07.12.2021
5001 Clouds -8 1015 76 10000 5.34 2 05:47 07.12.2021
5002 Clouds -8 1013 79 10000 6.07 358 02:35 07.12.2021
5003 Clouds -8 1010 72 10000 6.04 10 23:21 06.12.2021
5004 Clouds -8 1010 72 10000 6.04 10 22:40 06.12.2021
5005 Clouds -8 1009 77 10000 6.49 10 21:59 06.12.2021
5006 Clouds -8 1008 82 2694 6.55 3 21:21 06.12.2021
5007 Clouds -8 1008 82 2694 6.55 3 20:32 06.12.2021
5008 Clouds -7 1006 81 7204 7.74 352 19:24 06.12.2021
5009 Clouds -7 1006 81 5542 7.72 346 18:31 06.12.2021
5010 Clouds -7 1005 76 10000 8.08 340 17:53 06.12.2021
5011 Clouds -7 1005 76 10000 8.08 340 17:30 06.12.2021
5012 Snow -6 1003 76 10000 7.79 338 15:51 06.12.2021
5013 Snow -7 1002 94 443 5.19 327 13:53 06.12.2021
5014 Clouds -7 1001 82 10000 6.8 290 12:40 06.12.2021
5015 Clouds -7 1001 78 10000 7.44 285 11:54 06.12.2021
5016 Clouds -7 1000 85 10000 7.87 274 09:37 06.12.2021
5017 Clouds -5 999 82 10000 7.7 278 07:18 06.12.2021
5018 Clouds -4 1002 91 2487 10.76 240 00:38 06.12.2021
5019 Clouds -4 1004 86 10000 9.7 244 21:54 05.12.2021
5020 Clouds -4 1005 83 10000 8.55 242 21:25 05.12.2021
5021 Clouds -7 1006 89 10000 7.76 229 20:20 05.12.2021
5022 Clouds -7 1006 89 10000 7.76 229 19:57 05.12.2021
5023 Clouds -8 1006 90 10000 7.83 223 19:22 05.12.2021
5024 Clouds -8 1007 91 10000 7.42 222 18:25 05.12.2021
5025 Clouds -8 1007 91 10000 7.42 222 17:49 05.12.2021
5026 Clouds -8 1008 90 10000 6.38 228 16:57 05.12.2021
5027 Clouds -9 1008 92 10000 6.18 231 16:28 05.12.2021
5028 Clouds -9 1008 92 10000 6.18 231 15:58 05.12.2021
5029 Clouds -9 1008 92 10000 6.29 234 14:45 05.12.2021
5030 Snow -9 1008 93 1862 6.57 234 14:27 05.12.2021
5031 Snow -9 1008 93 1862 6.57 234 13:31 05.12.2021
5032 Snow -10 1008 94 194 7.52 233 12:41 05.12.2021
5033 Snow -11 1008 94 242 8.32 225 12:23 05.12.2021
5034 Snow -11 1008 94 242 8.32 225 11:37 05.12.2021
5035 Clouds -14 1009 94 5359 8.15 220 10:21 05.12.2021
5036 Clouds -14 1009 95 7443 8.41 218 08:50 05.12.2021
5037 Clouds -13 1009 97 5010 7.37 218 04:56 05.12.2021
5038 Clouds -15 1009 99 7459 8.18 207 01:23 05.12.2021
5039 Clouds -15 1009 97 1899 10.7 202 22:32 04.12.2021
5040 Clouds -15 1009 97 4261 11.8 202 21:36 04.12.2021
5041 Clouds -15 1008 95 10000 12.67 203 20:40 04.12.2021
5042 Clouds -15 1008 94 10000 13.49 204 19:33 04.12.2021
5043 Clouds -15 1009 93 8916 12.6 197 18:43 04.12.2021
5044 Snow -15 1009 94 1093 12.76 195 17:47 04.12.2021
5045 Snow -15 1010 97 239 12 193 17:20 04.12.2021
5046 Snow -15 1010 97 239 12 193 16:46 04.12.2021
5047 Snow -15 1011 96 416 10.95 198 16:27 04.12.2021
5048 Clouds -16 1014 95 561 8.46 213 12:44 04.12.2021
5049 Clouds -16 1014 94 10000 7.21 218 11:34 04.12.2021
5050 Clouds -16 1015 95 10000 6.16 224 10:57 04.12.2021
5051 Clouds -16 1015 95 10000 6.18 221 09:40 04.12.2021
5052 Clouds -17 1015 99 754 5.61 211 08:28 04.12.2021
5053 Snow -17 1014 98 220 3.77 175 04:43 04.12.2021
5054 Snow -16 1011 96 585 1.76 117 00:49 04.12.2021
5055 Snow -16 1010 92 397 3.7 103 23:33 03.12.2021
5056 Snow -15 1009 92 321 7.49 83 22:51 03.12.2021
5057 Snow -13 1007 83 2286 9.17 29 21:54 03.12.2021
5058 Clouds -14 1006 81 3294 7.8 11 21:20 03.12.2021
5059 Clouds -14 1006 81 3294 7.8 11 20:42 03.12.2021
5060 Snow -13 1005 80 2838 9.32 9 19:21 03.12.2021
5061 Snow -13 1004 82 2826 6.61 0 18:22 03.12.2021
5062 Snow -13 1004 82 2826 6.61 0 17:30 03.12.2021
5063 Snow -13 1002 91 1483 2.59 53 13:35 03.12.2021
5064 Snow -13 1001 93 450 5.44 63 12:21 03.12.2021
5065 Snow -13 1001 92 416 6.18 64 11:19 03.12.2021
5066 Snow -13 1000 93 464 7.11 66 09:21 03.12.2021
5067 Snow -13 1000 94 292 7.41 69 07:44 03.12.2021
5068 Clouds -14 999 94 379 7.79 72 06:41 03.12.2021
5069 Clouds -13 998 89 5005 9.41 58 00:49 03.12.2021
5070 Clouds -13 998 90 6483 9.44 59 23:48 02.12.2021
5071 Clouds -13 998 88 10000 9.47 59 22:54 02.12.2021
5072 Clouds -13 997 87 10000 9.15 59 21:41 02.12.2021
5073 Clouds -13 997 89 10000 8.88 61 20:46 02.12.2021
5074 Clouds -13 997 94 3134 8.68 62 20:22 02.12.2021
5075 Clouds -14 998 95 2771 8.36 66 18:50 02.12.2021
5076 Clouds -14 998 96 2406 8.61 69 16:53 02.12.2021
5077 Clouds -14 998 96 2161 8.77 69 15:41 02.12.2021
5078 Clouds -14 998 97 1856 8.75 70 14:53 02.12.2021
5079 Clouds -14 998 97 1983 8.84 71 13:39 02.12.2021
5080 Clouds -14 997 97 2067 8.74 72 12:46 02.12.2021
5081 Clouds -14 998 97 1923 8.55 73 11:45 02.12.2021
5082 Clouds -15 998 97 4622 8.84 79 09:27 02.12.2021
5083 Clouds -15 999 96 7378 8.46 83 07:20 02.12.2021
5084 Clouds -16 1003 88 10000 7.73 95 01:28 02.12.2021
5085 Clouds -16 1003 88 10000 7.73 95 00:35 02.12.2021
5086 Clouds -16 1003 88 10000 7.29 99 22:32 01.12.2021
5087 Clouds -15 1004 87 10000 7 96 21:44 01.12.2021
5088 Clouds -15 1005 83 10000 6.68 99 20:24 01.12.2021
5089 Clouds -15 1005 83 10000 6.68 99 19:46 01.12.2021
5090 Clouds -16 1006 83 10000 6.13 102 18:55 01.12.2021
5091 Clouds -16 1006 81 10000 5.74 97 17:31 01.12.2021
5092 Clouds -16 1006 80 10000 5.44 103 16:36 01.12.2021
5093 Clouds -16 1006 83 10000 4.98 101 14:39 01.12.2021
5094 Clouds -16 1007 86 10000 4.75 104 13:37 01.12.2021
5095 Clouds -16 1007 88 10000 4.26 98 10:45 01.12.2021
5096 Clouds -16 1007 86 10000 4.35 101 10:27 01.12.2021
5097 Clouds -16 1008 85 10000 3.96 102 08:53 01.12.2021
5098 Clouds -15 1008 83 10000 4.03 106 08:26 01.12.2021
5099 Clouds -15 1008 83 10000 4.03 106 07:31 01.12.2021
5100 Clouds -16 1010 90 10000 2.37 140 03:59 01.12.2021
5101 Clouds -16 1010 86 10000 2.67 153 03:28 01.12.2021
5102 Clouds -16 1011 89 10000 2.21 125 00:45 01.12.2021
5103 Clouds -16 1012 87 10000 1.7 156 23:33 30.11.2021
5104 Clouds -16 1012 87 10000 1.7 156 23:33 30.11.2021
5105 Clouds -16 1013 88 10000 2.72 202 22:34 30.11.2021
5106 Clouds -16 1013 90 10000 3.85 207 20:47 30.11.2021
5107 Clouds -15 1014 91 10000 4.18 213 20:27 30.11.2021
5108 Clouds -15 1014 91 10000 4.18 213 19:47 30.11.2021
5109 Clouds -16 1014 94 10000 5.83 212 18:57 30.11.2021
5110 Clouds -17 1015 98 10000 5.57 213 17:47 30.11.2021
5111 Clouds -17 1015 99 9195 5.03 210 16:25 30.11.2021
5112 Clouds -16 1016 98 10000 4.54 216 14:35 30.11.2021
5113 Clouds -16 1016 95 10000 4.49 221 13:48 30.11.2021
5114 Clouds -16 1016 93 10000 4.5 226 13:22 30.11.2021
5115 Clouds -16 1016 90 10000 4.48 226 12:41 30.11.2021
5116 Clouds -12 1015 88 10000 4.42 261 11:26 30.11.2021
5117 Clouds -12 1015 88 10000 4.42 261 10:37 30.11.2021
5118 Snow -9 1014 95 156 3.38 285 08:59 30.11.2021
5119 Snow -9 1014 95 156 3.38 285 08:40 30.11.2021
5120 Snow -9 1014 94 304 2.51 285 08:19 30.11.2021
5121 Clouds -13 1014 91 10000 2.68 234 06:39 30.11.2021
5122 Clouds -14 1011 95 1778 2.2 238 01:52 30.11.2021
5123 Clouds -14 1011 96 4053 2 236 01:28 30.11.2021
5124 Clouds -14 1010 95 1308 3.1 233 23:51 29.11.2021
5125 Clouds -14 1010 95 2479 2.87 223 23:20 29.11.2021
5126 Clouds -14 1010 95 2479 2.87 223 22:42 29.11.2021
5127 Clouds -14 1009 95 528 2.49 213 22:24 29.11.2021
5128 Clouds -16 1009 96 414 2.48 203 21:21 29.11.2021
5129 Clouds -16 1009 96 414 2.48 203 20:55 29.11.2021
5130 Clouds -18 1009 99 4539 2.73 183 20:22 29.11.2021
5131 Clouds -18 1009 99 4539 2.73 183 19:43 29.11.2021
5132 Clouds -18 1008 99 6106 2.6 166 19:25 29.11.2021
5133 Clouds -18 1009 100 4994 2.45 165 18:45 29.11.2021
5134 Clouds -18 1009 99 3309 1.33 132 17:22 29.11.2021
5135 Clouds -18 1009 99 3309 1.33 132 16:54 29.11.2021
5136 Clouds -18 1008 99 4059 1.04 129 16:25 29.11.2021
5137 Clouds -18 1008 98 6104 1.71 129 14:52 29.11.2021
5138 Clouds -18 1008 98 6208 1.9 118 14:29 29.11.2021
5139 Clouds -18 1008 99 6040 1.74 104 13:23 29.11.2021
5140 Clouds -18 1008 99 2597 1.9 100 12:20 29.11.2021
5141 Clouds -18 1008 99 2597 1.9 100 11:31 29.11.2021
5142 Clouds -20 1008 100 1970 1.73 116 10:27 29.11.2021
5143 Clouds -20 1009 100 7103 2.5 131 07:48 29.11.2021
5144 Clouds -20 1010 100 7483 3.23 113 05:54 29.11.2021
5145 Clouds -19 1012 99 8983 3.03 110 01:31 29.11.2021
5146 Clouds -19 1012 100 7765 2.41 119 00:35 29.11.2021
5147 Clouds -19 1013 99 7906 2.4 118 23:41 28.11.2021
5148 Clouds -19 1013 100 8582 2.1 127 22:29 28.11.2021
5149 Clouds -19 1013 100 8582 2.1 127 21:41 28.11.2021
5150 Clouds -19 1014 100 9086 2.12 137 20:44 28.11.2021
5151 Clouds -19 1014 99 9086 2 137 19:53 28.11.2021
5152 Clouds -19 1014 99 10000 1.55 139 18:42 28.11.2021
5153 Clouds -19 1015 96 10000 2.29 162 18:23 28.11.2021
5154 Clouds -19 1015 96 10000 2.29 162 17:46 28.11.2021
5155 Clouds -18 1015 95 10000 2.32 171 17:18 28.11.2021
5156 Clouds -18 1015 95 10000 2.81 177 16:28 28.11.2021
5157 Clouds -18 1015 95 10000 2.81 177 16:28 28.11.2021
5158 Clouds -18 1015 95 10000 2.81 177 15:51 28.11.2021
5159 Clouds -18 1015 94 10000 3.05 180 14:56 28.11.2021
5160 Clouds -17 1016 94 10000 3.04 183 14:29 28.11.2021
5161 Clouds -17 1016 94 10000 2.9 181 12:54 28.11.2021
5162 Clouds -16 1016 94 2498 2.78 185 11:51 28.11.2021
5163 Clouds -16 1016 94 1130 2.97 189 10:37 28.11.2021
5164 Clouds -16 1015 95 581 2.9 193 09:56 28.11.2021
5165 Clouds -16 1015 95 581 2.9 193 09:36 28.11.2021
5166 Clouds -17 1011 97 3549 4.83 218 00:53 28.11.2021
5167 Clouds -15 1011 93 10000 3.82 219 22:58 27.11.2021
5168 Clouds -16 1009 95 10000 2.8 215 20:28 27.11.2021
5169 Clouds -16 1008 97 9084 2.7 217 18:44 27.11.2021
5170 Clouds -16 1007 96 10000 2.31 174 16:19 27.11.2021
5171 Clouds -16 1007 96 10000 2.31 174 15:32 27.11.2021
5172 Clouds -16 1006 95 4844 1.91 159 13:41 27.11.2021
5173 Clouds -16 1005 96 3712 2.78 158 12:27 27.11.2021
5174 Clouds -16 1005 96 2844 2.92 150 10:30 27.11.2021
5175 Clouds -15 1004 95 3036 3.29 138 09:25 27.11.2021
5176 Clouds -15 1004 96 2625 3.17 136 07:44 27.11.2021
5177 Clouds -14 1003 96 4002 3.1 142 04:55 27.11.2021
5178 Clouds -14 1003 98 1927 4.23 201 00:31 27.11.2021
5179 Clouds -12 1002 97 2606 4.41 215 22:52 26.11.2021
5180 Clouds -12 1002 96 1821 4.33 214 22:24 26.11.2021
5181 Clouds -12 1002 96 1821 4.33 214 21:34 26.11.2021
5182 Clouds -12 1002 96 1821 4.33 214 21:34 26.11.2021
5183 Clouds -11 1002 94 3902 3.79 215 20:45 26.11.2021
5184 Clouds -11 1002 94 4213 3.56 224 19:56 26.11.2021
5185 Clouds -10 1002 93 4806 3.45 232 19:28 26.11.2021
5186 Clouds -10 1002 89 10000 3.16 233 17:55 26.11.2021
5187 Snow -9 1002 91 2761 3.47 244 17:21 26.11.2021
5188 Snow -9 1002 94 355 3.83 248 15:46 26.11.2021
5189 Clouds -10 1001 87 10000 4.64 247 13:35 26.11.2021
5190 Clouds -9 1001 85 6034 4.79 260 11:58 26.11.2021
5191 Snow -8 1000 85 1586 4.67 270 10:37 26.11.2021
5192 Snow -7 1000 80 840 4.28 290 08:57 26.11.2021
5193 Snow -6 999 76 993 4.02 299 08:21 26.11.2021
5194 Snow -6 998 75 1013 3.84 306 07:25 26.11.2021
5195 Snow -7 998 79 615 2.98 288 06:26 26.11.2021
5196 Snow -7 997 73 1753 2.71 312 03:59 26.11.2021
5197 Snow -6 997 73 2526 2.99 350 01:55 26.11.2021
5198 Snow -7 996 92 315 1.06 279 22:48 25.11.2021
5199 Clouds -8 995 82 2550 0.9 43 21:26 25.11.2021
5200 Clouds -7 994 81 4181 1.95 54 20:27 25.11.2021
5201 Snow -6 994 84 861 2.78 29 18:47 25.11.2021
5202 Snow -6 994 90 634 3.27 332 17:47 25.11.2021
5203 Snow -6 994 90 378 5.63 316 17:25 25.11.2021
5204 Snow -6 994 90 378 5.63 316 16:33 25.11.2021
5205 Snow -6 993 88 693 6.94 310 15:33 25.11.2021
5206 Snow -6 993 82 1325 7.25 319 13:50 25.11.2021
5207 Snow -6 993 84 797 7.37 316 12:27 25.11.2021
5208 Snow -6 993 84 797 7.37 316 11:50 25.11.2021
5209 Snow -6 992 84 746 7.21 323 09:28 25.11.2021
5210 Snow -7 991 84 1370 6.32 320 06:18 25.11.2021
5211 Clouds -6 991 81 1886 7.58 329 02:50 25.11.2021
5212 Snow -6 990 88 460 9.3 334 23:28 24.11.2021
5213 Snow -6 990 89 392 9.02 338 22:25 24.11.2021
5214 Snow -6 990 89 392 9.02 338 21:37 24.11.2021
5215 Snow -6 990 89 377 8.7 341 20:53 24.11.2021
5216 Snow -6 989 90 322 7.93 344 20:26 24.11.2021
5217 Snow -6 990 89 367 8.51 342 18:31 24.11.2021
5218 Snow -6 990 87 574 8.33 346 17:58 24.11.2021
5219 Snow -6 989 86 985 8.53 347 15:47 24.11.2021
5220 Snow -6 989 86 827 8.81 347 14:53 24.11.2021
5221 Snow -6 990 85 981 8.42 352 14:20 24.11.2021
5222 Snow -6 990 88 446 7.76 357 12:47 24.11.2021
5223 Snow -6 989 87 459 6.14 14 11:21 24.11.2021
5224 Snow -6 989 87 459 6.14 14 10:49 24.11.2021
5225 Snow -6 989 85 1028 5.84 19 10:23 24.11.2021
5226 Snow -6 988 84 1691 5.94 21 07:55 24.11.2021
5227 Snow -6 988 86 640 6.32 14 06:55 24.11.2021
5228 Snow -7 987 86 698 6.26 24 03:55 24.11.2021
5229 Snow -7 987 87 502 6.52 29 00:53 24.11.2021
5230 Snow -7 987 85 809 6.8 30 22:40 23.11.2021
5231 Snow -8 987 87 566 6.9 31 22:20 23.11.2021
5232 Snow -8 987 87 566 6.9 31 21:44 23.11.2021
5233 Snow -8 986 88 376 6.9 32 19:43 23.11.2021
5234 Snow -8 987 87 481 7.11 32 18:43 23.11.2021
5235 Snow -8 987 87 514 7.04 32 18:22 23.11.2021
5236 Snow -8 987 88 427 7.03 32 17:19 23.11.2021
5237 Snow -8 987 88 427 7.03 32 16:34 23.11.2021
5238 Snow -8 987 88 438 7.16 33 15:22 23.11.2021
5239 Snow -8 987 87 544 7.11 29 14:26 23.11.2021
5240 Snow -8 987 87 489 6.96 28 11:48 23.11.2021
5241 Snow -8 987 87 515 7.01 31 10:22 23.11.2021
5242 Snow -8 987 86 577 7.21 30 09:22 23.11.2021
5243 Snow -9 987 86 555 7.38 24 06:46 23.11.2021
5244 Snow -9 987 86 716 7.79 28 03:54 23.11.2021
5245 Snow -9 987 85 786 7.93 29 02:57 23.11.2021
5246 Snow -9 988 86 868 8.6 38 23:21 22.11.2021
5247 Snow -9 988 86 868 8.6 38 23:21 22.11.2021
5248 Snow -9 988 86 868 8.6 38 22:53 22.11.2021
5249 Clouds -9 988 85 955 8.83 40 22:27 22.11.2021
5250 Clouds -9 988 85 955 8.83 40 21:42 22.11.2021
5251 Snow -8 988 85 1078 9.01 43 20:52 22.11.2021
5252 Snow -8 988 85 1267 9.16 46 19:57 22.11.2021
5253 Snow -8 988 85 1097 9.36 47 19:19 22.11.2021
5254 Snow -8 989 84 1709 8.67 46 18:39 22.11.2021
5255 Clouds -8 989 84 1200 8.56 48 17:45 22.11.2021
5256 Snow -8 989 84 1156 8.12 59 16:22 22.11.2021
5257 Clouds -8 989 85 1064 7.97 70 14:20 22.11.2021
5258 Snow -8 989 85 1140 7.63 80 12:26 22.11.2021
5259 Clouds -8 989 86 849 7.64 85 10:43 22.11.2021
5260 Clouds -8 989 86 1225 7.75 89 09:43 22.11.2021
5261 Clouds -8 990 85 1559 7.81 90 08:40 22.11.2021
5262 Clouds -9 990 88 3837 8.49 97 06:22 22.11.2021
5263 Clouds -11 992 91 4449 7.33 103 23:35 21.11.2021
5264 Clouds -11 992 93 4217 6.97 102 22:51 21.11.2021
5265 Clouds -11 992 94 5563 5.94 103 22:18 21.11.2021
5266 Clouds -12 993 96 7726 5.47 110 20:42 21.11.2021
5267 Clouds -12 993 97 7716 5.35 112 19:59 21.11.2021
5268 Clouds -11 993 93 10000 4.77 125 18:25 21.11.2021
5269 Clouds -11 993 93 10000 4.77 125 17:39 21.11.2021
5270 Clouds -11 993 91 10000 4.64 131 16:42 21.11.2021
5271 Clouds -11 993 86 10000 3.82 138 14:46 21.11.2021
5272 Clouds -10 993 84 10000 3.73 141 13:47 21.11.2021
5273 Clouds -9 993 81 10000 3.7 147 12:38 21.11.2021
5274 Clouds -9 994 81 10000 3.91 140 11:57 21.11.2021
5275 Clouds -9 994 81 10000 3.91 140 11:35 21.11.2021
5276 Clouds -8 993 89 4962 3.74 151 10:19 21.11.2021
5277 Clouds -8 994 86 5766 3.81 143 08:56 21.11.2021
5278 Clouds -8 994 89 1012 4.1 145 08:26 21.11.2021
5279 Clouds -8 994 89 1012 4.1 145 07:49 21.11.2021
5280 Clouds -8 994 87 10000 4.16 143 06:18 21.11.2021
5281 Snow -8 994 87 8060 4.55 149 05:26 21.11.2021
5282 Clouds -7 993 89 2441 5.18 158 03:19 21.11.2021
5283 Clouds -7 993 89 2441 5.18 158 02:52 21.11.2021
5284 Snow -8 993 90 1146 5.52 161 00:59 21.11.2021
5285 Snow -8 993 91 833 5.55 162 23:59 20.11.2021
5286 Clouds -9 993 89 3363 5.19 153 21:49 20.11.2021
5287 Clouds -10 993 90 1827 5.35 149 21:28 20.11.2021
5288 Snow -10 993 92 427 5.92 144 19:22 20.11.2021
5289 Snow -10 993 92 427 5.92 144 18:45 20.11.2021
5290 Snow -10 993 92 311 6.59 144 18:19 20.11.2021
5291 Snow -10 993 93 293 6.85 142 17:18 20.11.2021
5292 Snow -11 993 92 388 7.02 138 14:49 20.11.2021
5293 Clouds -11 993 92 452 7.01 136 14:28 20.11.2021
5294 Clouds -11 993 92 452 7.01 136 13:32 20.11.2021
5295 Clouds -11 994 88 3001 6.83 139 11:20 20.11.2021
5296 Clouds -11 994 89 2268 6.87 139 09:53 20.11.2021
5297 Clouds -11 994 88 2232 7 140 08:25 20.11.2021
5298 Clouds -11 995 92 500 7.2 138 05:29 20.11.2021
5299 Clouds -11 995 92 500 7.2 138 04:51 20.11.2021
5300 Snow -12 996 93 283 8.57 135 03:24 20.11.2021
5301 Snow -12 997 95 234 8.21 131 00:42 20.11.2021
5302 Snow -12 997 95 244 7.85 130 23:43 19.11.2021
5303 Snow -12 998 95 245 7.79 130 22:52 19.11.2021
5304 Snow -13 999 95 323 7.61 130 21:22 19.11.2021
5305 Snow -13 999 95 323 7.61 130 20:37 19.11.2021
5306 Clouds -13 1000 93 631 7.63 125 19:56 19.11.2021
5307 Clouds -13 1000 93 631 7.63 125 19:34 19.11.2021
5308 Clouds -13 1001 84 7467 7.42 123 18:43 19.11.2021
5309 Clouds -14 1002 80 10000 7.46 126 17:38 19.11.2021
5310 Clouds -15 1003 86 10000 7.36 124 16:22 19.11.2021
5311 Clouds -17 1005 95 10000 7.71 125 14:19 19.11.2021
5312 Clouds -17 1007 97 10000 7.77 127 10:52 19.11.2021
5313 Clouds -17 1008 97 10000 7.47 129 09:58 19.11.2021
5314 Clouds -17 1009 98 10000 7.53 131 08:32 19.11.2021
5315 Clouds -18 1010 98 10000 6.89 133 04:55 19.11.2021
5316 Clouds -17 1012 96 10000 5.47 138 03:00 19.11.2021
5317 Clouds -17 1013 96 10000 4.16 149 23:53 18.11.2021
5318 Clouds -17 1014 97 10000 3.85 150 22:38 18.11.2021
5319 Clouds -17 1014 97 10000 3.34 164 20:56 18.11.2021
5320 Clouds -17 1014 97 10000 3.34 164 20:34 18.11.2021
5321 Clouds -17 1014 97 10000 3.3 171 19:59 18.11.2021
5322 Clouds -17 1014 97 10000 3.3 171 19:35 18.11.2021
5323 Clouds -16 1014 95 10000 3.5 179 18:35 18.11.2021
5324 Clouds -16 1014 95 10000 3.72 180 17:51 18.11.2021
5325 Clouds -16 1014 95 10000 3.87 185 16:45 18.11.2021
5326 Clouds -16 1015 95 10000 4.18 194 15:52 18.11.2021
5327 Clouds -16 1015 97 10000 4.49 208 14:19 18.11.2021
5328 Clouds -16 1015 97 10000 4.3 208 12:53 18.11.2021
5329 Clouds -15 1015 97 10000 4.5 210 11:44 18.11.2021
5330 Clouds -15 1015 97 10000 4.34 211 11:25 18.11.2021
5331 Clouds -15 1015 97 10000 4.17 215 10:21 18.11.2021
5332 Clouds -14 1015 94 10000 3.91 212 07:42 18.11.2021
5333 Clouds -18 1015 99 10000 3.63 213 06:20 18.11.2021
5334 Clouds -18 1015 99 10000 3.63 213 05:41 18.11.2021
5335 Clouds -17 1014 98 3979 3.56 215 01:25 18.11.2021
5336 Clouds -17 1014 97 3019 3.12 222 23:27 17.11.2021
5337 Clouds -17 1014 97 3019 3.12 222 22:39 17.11.2021
5338 Snow -15 1013 95 2058 3.41 227 22:18 17.11.2021
5339 Snow -15 1013 95 2058 3.41 227 21:35 17.11.2021
5340 Snow -11 1013 93 370 3.08 231 19:31 17.11.2021
5341 Snow -10 1013 92 441 1.59 188 17:35 17.11.2021
5342 Snow -9 1012 90 415 1.82 103 15:54 17.11.2021
5343 Snow -9 1011 81 1226 3.23 78 12:56 17.11.2021
5344 Snow -9 1011 81 1226 3.23 78 12:36 17.11.2021
5345 Snow -8 1011 79 2114 4.35 72 10:52 17.11.2021
5346 Snow -8 1010 79 1950 4.59 65 09:37 17.11.2021
5347 Snow -8 1009 82 673 4.53 63 07:46 17.11.2021
5348 Snow -8 1008 83 499 4.38 62 07:23 17.11.2021
5349 Snow -7 1006 73 3121 8.65 42 02:48 17.11.2021
5350 Snow -7 1005 66 1953 9.55 34 23:58 16.11.2021
5351 Snow -6 1003 57 3248 10.08 27 22:25 16.11.2021
5352 Snow -6 1003 56 3516 10.32 26 20:19 16.11.2021
5353 Snow -6 1003 56 3516 10.32 26 19:37 16.11.2021
5354 Snow -6 1002 56 5922 11.14 28 18:43 16.11.2021
5355 Snow -6 1002 59 3237 10.89 34 17:56 16.11.2021
5356 Snow -6 1001 59 5025 10.42 40 17:18 16.11.2021
5357 Clouds -6 1001 59 10000 10.28 44 16:20 16.11.2021
5358 Clouds -6 1001 59 10000 10.28 44 15:43 16.11.2021
5359 Snow -7 1000 72 7244 11.08 44 13:46 16.11.2021
5360 Snow -7 998 73 1026 5.65 73 10:27 16.11.2021
5361 Snow -7 998 73 1026 5.65 73 09:41 16.11.2021
5362 Snow -6 997 70 2303 6.62 59 07:47 16.11.2021
5363 Clouds -7 996 46 10000 5.11 34 07:28 16.11.2021
5364 Snow -8 998 77 3176 2.26 306 23:53 15.11.2021
5365 Snow -9 998 81 2041 3.97 288 22:41 15.11.2021
5366 Clouds -9 999 57 10000 4.81 304 22:19 15.11.2021
5367 Clouds -9 999 57 10000 4.81 304 21:31 15.11.2021
5368 Clouds -7 999 47 10000 4.21 328 20:59 15.11.2021
5369 Snow -7 1000 67 3996 6.69 357 19:26 15.11.2021
5370 Snow -7 1000 70 1840 5.46 356 17:35 15.11.2021
5371 Snow -7 1000 73 566 2.31 354 15:55 15.11.2021
5372 Snow -7 1000 73 566 2.31 354 15:35 15.11.2021
5373 Snow -6 1000 68 2649 5.56 352 14:32 15.11.2021
5374 Snow -5 1000 60 2336 8.72 320 12:38 15.11.2021
5375 Snow -6 1001 73 672 7.79 301 10:33 15.11.2021
5376 Snow -5 1001 62 3800 7.91 303 09:22 15.11.2021
5377 Snow -5 1001 67 2692 9.05 305 07:23 15.11.2021
5378 Snow -5 1002 65 1978 7.69 308 00:56 15.11.2021
5379 Snow -5 1003 68 4721 9.21 294 22:44 14.11.2021
5380 Snow -5 1003 68 5041 9.39 292 22:19 14.11.2021
5381 Snow -5 1004 68 10000 9.99 286 19:22 14.11.2021
5382 Snow -5 1004 68 10000 9.99 286 18:55 14.11.2021
5383 Snow -5 1004 68 10000 9.99 286 18:36 14.11.2021
5384 Snow -4 1004 64 10000 9.7 291 18:18 14.11.2021
5385 Snow -4 1004 64 10000 9.7 291 17:58 14.11.2021
5386 Snow -4 1004 64 10000 9.7 291 17:40 14.11.2021
5387 Snow -4 1004 64 10000 9.62 293 17:22 14.11.2021
5388 Snow -4 1004 64 10000 9.62 293 16:58 14.11.2021
5389 Snow -4 1004 64 10000 9.62 293 16:40 14.11.2021
5390 Snow -4 1004 67 10000 9.55 292 16:18 14.11.2021
5391 Snow -5 1004 67 10000 9 291 15:19 14.11.2021
5392 Snow -5 1004 67 10000 9 291 14:45 14.11.2021
5393 Clouds -5 1004 69 10000 8.53 287 14:20 14.11.2021
5394 Clouds -5 1004 69 10000 8.53 287 13:51 14.11.2021
5395 Snow -6 1004 71 10000 8.08 281 13:27 14.11.2021
5396 Clouds -7 1004 76 10000 7.35 269 12:22 14.11.2021
5397 Clouds -7 1005 77 10000 7.42 263 10:58 14.11.2021
5398 Clouds -7 1005 77 10000 7.42 263 10:36 14.11.2021
5399 Clouds -7 1005 75 10000 6.87 264 09:27 14.11.2021
5400 Clouds -7 1005 75 10000 6.87 264 08:51 14.11.2021
5401 Snow -6 1005 68 10000 9.06 289 04:47 14.11.2021
5402 Snow -5 1005 59 5256 4.59 319 22:50 13.11.2021
5403 Snow -5 1005 62 3690 3.99 326 21:59 13.11.2021
5404 Snow -5 1005 62 3690 3.99 326 21:35 13.11.2021
5405 Snow -6 1005 62 6987 4.14 342 20:43 13.11.2021
5406 Snow -5 1004 59 6726 5.6 342 18:56 13.11.2021
5407 Snow -5 1004 59 6726 5.6 342 18:32 13.11.2021
5408 Snow -5 1004 60 3592 6.18 340 17:38 13.11.2021
5409 Snow -5 1004 63 1875 6.55 317 15:53 13.11.2021
5410 Snow -5 1004 63 2458 7.22 309 14:43 13.11.2021
5411 Snow -4 1004 61 2650 7.68 309 13:47 13.11.2021
5412 Snow -4 1003 61 2779 8.69 308 12:43 13.11.2021
5413 Snow -4 1003 60 5538 7.68 310 11:48 13.11.2021
5414 Snow -4 1003 61 5542 7.41 312 11:21 13.11.2021
5415 Snow -4 1003 61 5542 7.41 312 10:33 13.11.2021
5416 Snow -4 1003 61 4482 6.75 318 09:47 13.11.2021
5417 Snow -4 1003 63 3585 6.39 327 09:22 13.11.2021
5418 Snow -4 1003 63 3585 6.39 327 08:48 13.11.2021
5419 Snow -4 1003 66 3886 6.76 337 07:47 13.11.2021
5420 Snow -4 1001 63 8939 8.64 349 04:42 13.11.2021
5421 Clouds -4 1000 64 5081 9.48 359 02:59 13.11.2021
5422 Snow -4 998 71 7543 9.96 358 23:35 12.11.2021
5423 Snow -3 997 72 7413 9.51 0 21:56 12.11.2021
5424 Clouds -3 996 74 7791 9.6 1 20:46 12.11.2021
5425 Clouds -3 996 73 10000 9.78 4 19:32 12.11.2021
5426 Clouds -2 995 75 9992 10.08 10 18:57 12.11.2021
5427 Clouds -2 994 73 10000 10.46 9 18:18 12.11.2021
5428 Snow -1 993 80 5163 8.33 357 15:55 12.11.2021
5429 Snow -5 991 94 503 4.14 256 13:28 12.11.2021
5430 Clouds -5 990 92 3834 7.61 227 11:24 12.11.2021
5431 Clouds -6 990 93 6934 9.08 222 10:20 12.11.2021
5432 Clouds -6 990 93 6934 9.08 222 10:20 12.11.2021
5433 Clouds -6 990 93 3951 9.48 220 08:55 12.11.2021
5434 Clouds -7 990 92 10000 9.15 215 06:37 12.11.2021
5435 Clouds -6 990 91 10000 10.58 210 00:21 12.11.2021
5436 Clouds -6 991 91 10000 10.87 209 23:27 11.11.2021
5437 Clouds -6 991 91 10000 11.1 209 22:21 11.11.2021
5438 Clouds -6 991 90 10000 11.28 208 21:26 11.11.2021
5439 Clouds -6 991 89 5033 11.27 207 19:56 11.11.2021
5440 Clouds -6 992 89 10000 11.39 208 18:27 11.11.2021
5441 Clouds -6 992 89 10000 11.39 208 17:41 11.11.2021
5442 Clouds -6 993 89 10000 11.5 204 15:41 11.11.2021
5443 Clouds -6 993 88 10000 11.43 202 14:39 11.11.2021
5444 Clouds -6 994 88 6008 11.27 198 14:21 11.11.2021
5445 Clouds -6 994 88 6008 11.27 198 13:35 11.11.2021
5446 Clouds -7 996 86 10000 10.78 194 12:27 11.11.2021
5447 Clouds -7 997 85 10000 11.37 193 09:58 11.11.2021
5448 Clouds -8 998 85 10000 11.74 192 09:23 11.11.2021
5449 Clouds -8 999 86 10000 11.92 191 07:33 11.11.2021
5450 Clouds -9 1006 83 10000 10.55 191 00:40 11.11.2021
5451 Clouds -9 1008 84 10000 10.07 197 22:46 10.11.2021
5452 Clouds -9 1009 85 10000 9.69 200 21:54 10.11.2021
5453 Clouds -9 1010 85 10000 9.31 202 20:56 10.11.2021
5454 Clouds -9 1010 85 10000 8.85 205 20:25 10.11.2021
5455 Clouds -9 1010 85 10000 8.85 205 19:45 10.11.2021
5456 Clouds -7 1011 83 10000 8.55 217 17:28 10.11.2021
5457 Clouds -6 1011 81 10000 7.62 224 15:47 10.11.2021
5458 Snow -4 1011 93 1049 6.48 225 14:25 10.11.2021
5459 Snow -4 1011 93 1049 6.48 225 13:37 10.11.2021
5460 Clouds -7 1012 90 10000 6.05 214 12:24 10.11.2021
5461 Clouds -6 1012 83 10000 5.15 231 09:21 10.11.2021
5462 Clouds -6 1012 83 10000 5.15 231 08:41 10.11.2021
5463 Clouds -7 1012 88 10000 5.47 233 06:45 10.11.2021
5464 Clouds -8 1012 88 10000 5.5 235 05:58 10.11.2021
5465 Clouds -8 1012 83 10000 5.43 242 01:57 10.11.2021
5466 Clouds -9 1012 84 10000 5.4 242 22:29 09.11.2021
5467 Clouds -8 1012 84 10000 5.41 244 20:43 09.11.2021
5468 Clouds -8 1012 82 10000 5.4 245 19:33 09.11.2021
5469 Clouds -7 1012 79 10000 4.94 247 18:50 09.11.2021
5470 Clouds -7 1012 83 10000 4.91 249 16:57 09.11.2021
5471 Clouds -7 1011 83 10000 4.23 246 15:36 09.11.2021
5472 Clouds -7 1011 77 10000 2.66 253 13:50 09.11.2021
5473 Clouds -9 1010 87 10000 2.68 242 12:47 09.11.2021
5474 Clouds -8 1009 88 10000 2.61 233 11:18 09.11.2021
5475 Clouds -7 1009 90 10000 2.86 226 09:59 09.11.2021
5476 Snow -7 1008 89 2263 2.76 224 09:21 09.11.2021
5477 Snow -7 1008 87 1341 2.29 224 07:53 09.11.2021
5478 Clouds -7 1004 72 10000 4.12 271 02:50 09.11.2021
5479 Clouds -7 1003 73 10000 4.9 266 01:55 09.11.2021
5480 Clouds -7 1003 73 10000 4.9 266 01:36 09.11.2021
5481 Clouds -7 1002 75 10000 5.23 257 23:31 08.11.2021
5482 Clouds -7 1002 76 10000 5.19 256 22:47 08.11.2021
5483 Clouds -7 1002 78 10000 5.36 254 21:45 08.11.2021
5484 Clouds -6 1001 72 10000 5.67 264 20:36 08.11.2021
5485 Clouds -6 1000 76 10000 5.54 259 19:40 08.11.2021
5486 Clouds -5 999 79 10000 5.46 251 17:44 08.11.2021
5487 Clouds -6 998 77 10000 5.46 254 15:56 08.11.2021
5488 Clouds -6 998 80 10000 5.35 254 14:57 08.11.2021
5489 Clouds -6 998 80 10000 5.35 254 14:33 08.11.2021
5490 Clouds -5 997 84 10000 6 232 13:18 08.11.2021
5491 Clouds -6 997 76 10000 5.76 234 11:55 08.11.2021
5492 Clouds -7 997 76 10000 5.45 244 10:50 08.11.2021
5493 Clouds -7 996 73 10000 6.59 256 09:26 08.11.2021
5494 Clouds -7 996 73 10000 6.59 256 08:42 08.11.2021
5495 Clouds -7 996 71 10000 6.52 264 06:56 08.11.2021
5496 Clouds -5 994 72 10000 9.42 286 03:35 08.11.2021
5497 Clouds -5 994 68 10000 7.61 275 01:35 08.11.2021
5498 Clouds -5 992 78 2483 8.26 286 23:25 07.11.2021
5499 Clouds -5 991 67 10000 8.89 287 21:26 07.11.2021
5500 Clouds -5 991 65 10000 9.11 293 20:28 07.11.2021
5501 Clouds -4 990 62 10000 9.91 298 18:47 07.11.2021
5502 Clouds -3 990 58 10000 9.16 305 17:43 07.11.2021
5503 Snow -4 989 84 1565 7.31 313 16:26 07.11.2021
5504 Snow -4 989 84 1565 7.31 313 15:41 07.11.2021
5505 Clouds -3 988 67 10000 6.45 288 14:27 07.11.2021
5506 Snow -2 987 80 3378 6.36 303 12:50 07.11.2021
5507 Snow -3 987 90 1077 4.72 298 11:41 07.11.2021
5508 Clouds -4 986 69 10000 1.92 312 08:59 07.11.2021
5509 Clouds -1 985 70 10000 5.82 22 03:40 07.11.2021
5510 Clouds -1 984 76 10000 6.95 26 02:25 07.11.2021
5511 Snow -1 983 88 2062 6.39 34 22:56 06.11.2021
5512 Snow -1 983 90 1319 6.71 35 21:59 06.11.2021
5513 Snow -1 983 94 579 6.48 34 21:22 06.11.2021
5514 Snow -1 982 97 155 7.5 44 20:29 06.11.2021
5515 Snow 0 982 99 49 2.38 354 17:32 06.11.2021
5516 Snow 0 982 99 48 1.63 294 16:35 06.11.2021
5517 Snow 0 983 99 44 3.17 227 13:45 06.11.2021
5518 Snow 0 984 99 45 3.86 219 12:58 06.11.2021
5519 Snow 1 985 99 34 4.46 205 11:24 06.11.2021
5520 Snow 0 988 99 44 3.85 189 08:49 06.11.2021
5521 Snow -3 994 95 185 4.53 153 04:50 06.11.2021
5522 Clouds -3 1001 87 10000 6.33 192 00:36 06.11.2021
5523 Clouds -3 1003 89 10000 7.38 205 23:29 05.11.2021
5524 Clouds -3 1003 89 10000 7.38 205 22:33 05.11.2021
5525 Clouds -2 1005 92 4873 5.21 208 20:41 05.11.2021
5526 Clouds -3 1006 86 10000 5.46 217 19:51 05.11.2021
5527 Clouds -3 1006 91 10000 5.19 211 18:51 05.11.2021
5528 Clouds -3 1007 90 10000 5.24 210 18:29 05.11.2021
5529 Clouds -4 1007 87 10000 4.4 207 16:45 05.11.2021
5530 Clouds -3 1008 85 10000 3.35 220 14:33 05.11.2021
5531 Clouds -2 1007 84 10000 0.79 186 12:27 05.11.2021
5532 Clouds -1 1006 83 10000 2.92 305 09:47 05.11.2021
5533 Clouds -1 1006 81 10000 4.33 288 08:31 05.11.2021
5534 Clouds -1 1003 79 10000 6.18 276 06:22 05.11.2021
5535 Clouds -1 1001 75 10000 6.9 285 02:38 05.11.2021
5536 Clouds -1 1001 76 10000 6.85 277 02:19 05.11.2021
5537 Clouds -1 1000 73 10000 7.4 283 23:57 04.11.2021
5538 Clouds 0 1000 73 10000 8.01 290 22:36 04.11.2021
5539 Clouds 0 999 74 10000 8.03 297 22:18 04.11.2021
5540 Clouds 1 998 78 10000 7.58 298 21:27 04.11.2021
5541 Clouds 1 998 80 10000 6.17 310 20:29 04.11.2021
5542 Clouds 1 998 80 10000 6.17 310 19:49 04.11.2021
5543 Clouds 1 998 82 10000 7.63 304 19:27 04.11.2021
5544 Snow 0 997 93 2218 8.15 314 18:29 04.11.2021
5545 Rain 2 995 97 587 9.79 286 17:26 04.11.2021
5546 Rain 2 995 97 60 12.49 260 15:46 04.11.2021
5547 Rain 2 995 97 49 14.09 252 13:45 04.11.2021
5548 Clouds 2 997 96 1705 15.07 243 10:35 04.11.2021
5549 Clouds 2 999 96 620 14.56 240 08:41 04.11.2021
5550 Clouds 2 999 95 521 14.01 238 07:36 04.11.2021
5551 Clouds 2 1001 94 10000 13.52 239 06:59 04.11.2021
5552 Clouds 2 1007 97 1224 12.28 244 23:18 03.11.2021
5553 Clouds 2 1007 97 1201 11.76 246 22:25 03.11.2021
5554 Clouds 2 1007 97 1201 11.76 246 21:37 03.11.2021
5555 Clouds 2 1007 97 1201 11.76 246 21:37 03.11.2021
5556 Clouds 2 1007 97 1538 11.53 248 20:44 03.11.2021
5557 Clouds 2 1008 97 1521 11.38 248 20:25 03.11.2021
5558 Clouds 2 1008 97 1521 11.38 248 19:33 03.11.2021
5559 Clouds 2 1008 97 1533 11.35 251 18:27 03.11.2021
5560 Clouds 2 1008 97 1533 11.35 251 17:42 03.11.2021
5561 Clouds 2 1008 97 1467 11.34 251 16:48 03.11.2021
5562 Clouds 2 1009 97 1446 11.25 251 15:49 03.11.2021
5563 Clouds 2 1009 97 455 11.32 250 15:29 03.11.2021
5564 Clouds 2 1009 97 397 11.71 249 13:29 03.11.2021
5565 Clouds 2 1010 97 336 11.8 249 11:34 03.11.2021
5566 Clouds 2 1010 97 735 11.9 248 10:50 03.11.2021
5567 Rain 1 1010 97 1438 12.02 245 09:40 03.11.2021
5568 Rain 1 1010 97 693 12.07 241 08:49 03.11.2021
5569 Snow 0 1010 96 311 12.56 237 07:40 03.11.2021
5570 Snow 0 1010 95 481 12.85 235 06:32 03.11.2021
5571 Clouds -2 1012 93 1053 12.55 225 04:22 03.11.2021
5572 Snow -6 1015 92 955 14.06 214 00:57 03.11.2021
5573 Clouds -7 1016 90 2943 14.14 216 22:52 02.11.2021
5574 Clouds -7 1017 88 10000 14.15 215 21:54 02.11.2021
5575 Clouds -7 1018 85 10000 14.34 212 20:36 02.11.2021
5576 Clouds -7 1020 83 10000 13.84 213 19:56 02.11.2021
5577 Clouds -8 1021 82 10000 13.35 214 19:26 02.11.2021
5578 Clouds -8 1021 82 10000 13.35 214 18:34 02.11.2021
5579 Clouds -7 1022 81 10000 13.36 213 17:44 02.11.2021
5580 Clouds -7 1023 81 10000 13.07 214 16:34 02.11.2021
5581 Clouds -7 1024 81 10000 12.44 213 15:49 02.11.2021
5582 Clouds -7 1025 83 10000 11.83 212 14:56 02.11.2021
5583 Clouds -5 1027 82 10000 10.47 213 13:29 02.11.2021
5584 Clouds -5 1027 82 10000 10.22 217 12:46 02.11.2021
5585 Clouds -5 1027 82 10000 10.22 217 12:46 02.11.2021
5586 Clouds -5 1027 82 10000 10.22 217 12:46 02.11.2021
5587 Clouds -5 1028 81 10000 9.22 217 11:38 02.11.2021
5588 Clouds -5 1029 80 10000 8.15 224 10:55 02.11.2021
5589 Clouds -5 1029 80 10000 8.15 224 10:32 02.11.2021
5590 Clouds -5 1029 79 10000 7.44 226 09:40 02.11.2021
5591 Clouds -4 1029 86 10000 5.56 222 07:45 02.11.2021
5592 Clouds -4 1029 78 10000 4.54 267 04:39 02.11.2021
5593 Clouds -4 1029 78 10000 5.57 287 03:20 02.11.2021
5594 Clouds -4 1028 84 8579 6.23 281 23:39 01.11.2021
5595 Clouds -5 1028 71 10000 5.02 294 21:29 01.11.2021
5596 Clouds -5 1028 71 10000 5.02 294 20:42 01.11.2021
5597 Clouds -5 1028 68 10000 5 302 19:58 01.11.2021
5598 Clouds -5 1028 68 10000 5 302 19:58 01.11.2021
5599 Clouds -5 1028 68 10000 5 302 19:38 01.11.2021
5600 Clouds -4 1026 68 10000 5.67 308 18:23 01.11.2021
5601 Clouds -4 1026 68 10000 5.67 308 17:36 01.11.2021
5602 Clouds -4 1026 67 10000 5.57 316 16:51 01.11.2021
5603 Clouds -3 1026 64 10000 5.46 324 15:57 01.11.2021
5604 Clouds -4 1026 62 10000 4.96 327 15:27 01.11.2021
5605 Clouds -4 1026 62 10000 4.96 327 14:45 01.11.2021
5606 Clouds -3 1026 61 10000 4.48 334 14:23 01.11.2021
5607 Clouds -6 1026 78 10000 5.02 280 13:50 01.11.2021
5608 Clouds -7 1025 83 10000 4.89 274 12:34 01.11.2021
5609 Clouds -7 1025 90 5074 5.69 271 11:27 01.11.2021
5610 Snow -7 1024 92 1067 5.65 265 09:47 01.11.2021
5611 Clouds -7 1023 89 9011 4.44 247 08:18 01.11.2021
5612 Clouds -7 1023 89 9011 4.44 247 07:40 01.11.2021
5613 Snow -5 1021 82 1536 5.28 80 03:48 01.11.2021
5614 Snow -3 1019 68 10000 8.05 27 01:37 01.11.2021
5615 Snow -3 1018 65 10000 7.11 2 22:32 31.10.2021
5616 Snow -3 1017 67 9094 4.06 343 20:50 31.10.2021
5617 Snow -3 1017 77 681 5.76 347 19:22 31.10.2021
5618 Snow -3 1017 77 681 5.76 347 18:40 31.10.2021
5619 Snow -4 1017 84 438 5.95 329 17:32 31.10.2021
5620 Clouds -7 1017 75 10000 5.69 291 15:50 31.10.2021
5621 Clouds -8 1017 76 10000 5.26 279 14:23 31.10.2021
5622 Clouds -8 1016 79 10000 6.16 279 12:49 31.10.2021
5623 Clouds -8 1016 81 10000 5.77 270 11:41 31.10.2021
5624 Clouds -9 1016 80 10000 5.54 262 10:43 31.10.2021
5625 Clouds -9 1016 76 10000 5.02 257 09:21 31.10.2021
5626 Clouds -9 1016 73 10000 5.04 261 08:19 31.10.2021
5627 Snow -4 1016 61 6007 3.22 337 01:37 31.10.2021
5628 Snow -4 1016 60 10000 3.81 346 22:47 30.10.2021
5629 Snow -4 1016 60 10000 3.69 347 21:35 30.10.2021
5630 Snow -4 1016 61 10000 3.57 349 20:44 30.10.2021
5631 Snow -5 1015 63 10000 2.9 19 18:45 30.10.2021
5632 Clouds -4 1015 61 10000 4.66 36 17:25 30.10.2021
5633 Clouds -4 1014 61 10000 5.72 43 14:54 30.10.2021
5634 Clouds -4 1013 62 10000 7.66 45 13:39 30.10.2021
5635 Clouds -4 1012 62 10000 8.15 48 13:21 30.10.2021
5636 Clouds -4 1012 62 10000 8.15 48 12:46 30.10.2021
5637 Clouds -4 1012 63 10000 8.44 48 11:42 30.10.2021
5638 Clouds -4 1011 66 7489 8.52 48 10:32 30.10.2021
5639 Snow -4 1010 72 5866 7.78 48 08:52 30.10.2021
5640 Clouds -4 1009 70 7695 7.84 45 07:19 30.10.2021
5641 Snow -4 1009 72 6584 7.73 43 05:39 30.10.2021
5642 Clouds -4 1008 72 7902 6.38 39 00:45 30.10.2021
5643 Clouds -4 1008 72 6444 6.55 33 22:43 29.10.2021
5644 Snow -4 1008 72 4484 6.67 30 22:20 29.10.2021
5645 Snow -4 1008 72 5924 7.05 30 20:45 29.10.2021
5646 Snow -4 1008 71 6802 7.54 19 19:56 29.10.2021
5647 Snow -4 1008 71 6540 7.57 17 18:33 29.10.2021
5648 Snow -4 1008 71 8794 8.05 16 16:51 29.10.2021
5649 Clouds -3 1007 60 10000 8.31 20 14:36 29.10.2021
5650 Clouds -3 1007 59 10000 8.68 22 11:44 29.10.2021
5651 Clouds -3 1006 60 10000 7.95 21 10:35 29.10.2021
5652 Clouds -3 1005 60 10000 9.19 22 08:35 29.10.2021
5653 Snow -3 1003 68 7860 7.43 31 00:37 29.10.2021
5654 Snow -3 1002 66 10000 7.31 30 23:19 28.10.2021
5655 Snow -3 1002 67 10000 7.05 30 21:56 28.10.2021
5656 Snow -3 1002 69 4828 6.91 32 20:32 28.10.2021
5657 Snow -4 1002 88 920 6.78 356 19:48 28.10.2021
5658 Clouds -5 1001 72 10000 3.95 7 18:20 28.10.2021
5659 Clouds -6 1001 74 10000 3.66 3 16:58 28.10.2021
5660 Clouds -7 1001 73 10000 3.31 7 15:24 28.10.2021
5661 Clouds -9 1000 81 10000 1.14 47 13:46 28.10.2021
5662 Clouds -10 1000 82 10000 0.52 95 13:22 28.10.2021
5663 Clouds -10 1000 82 10000 0.52 95 12:41 28.10.2021
5664 Clouds -10 1000 81 10000 1.18 191 10:57 28.10.2021
5665 Clouds -9 1000 81 10000 1.7 212 09:39 28.10.2021
5666 Clouds -9 1000 82 10000 2.22 209 08:59 28.10.2021
5667 Clouds -9 1000 82 10000 2.22 209 08:34 28.10.2021
5668 Clouds -9 1000 88 8743 1.99 187 07:20 28.10.2021
5669 Snow -7 1003 94 674 6.09 187 23:59 27.10.2021
5670 Snow -7 1003 93 943 5.72 185 22:31 27.10.2021
5671 Snow -6 1003 93 1494 5.45 187 21:33 27.10.2021
5672 Snow -6 1004 92 2506 5.2 188 20:53 27.10.2021
5673 Snow -6 1004 92 2506 5.2 188 20:33 27.10.2021
5674 Snow -6 1005 92 2264 5.21 194 19:40 27.10.2021
5675 Clouds -7 1005 92 10000 4.67 199 18:52 27.10.2021
5676 Clouds -7 1006 88 10000 3.87 211 16:27 27.10.2021
5677 Clouds -7 1006 88 10000 3.87 211 15:32 27.10.2021
5678 Clouds -7 1007 88 10000 4.02 217 14:40 27.10.2021
5679 Clouds -7 1008 85 10000 4.16 228 12:33 27.10.2021
5680 Clouds -5 1008 89 7620 4.28 238 10:58 27.10.2021
5681 Snow -5 1008 87 8824 3.66 247 09:51 27.10.2021
5682 Clouds -5 1008 85 10000 3.39 258 08:35 27.10.2021
5683 Clouds -5 1008 73 1874 1.38 269 07:22 27.10.2021
5684 Clouds -4 1008 66 9498 3.93 13 02:30 27.10.2021
5685 Clouds -3 1007 65 9288 5.46 22 00:57 27.10.2021
5686 Snow -3 1007 66 8637 6.05 24 00:28 27.10.2021
5687 Snow -3 1007 66 8637 6.05 24 00:28 27.10.2021
5688 Snow -3 1007 66 8637 6.05 24 23:41 26.10.2021
5689 Snow -3 1007 68 6393 6.6 26 22:38 26.10.2021
5690 Snow -3 1006 70 5343 7.12 27 21:59 26.10.2021
5691 Snow -3 1006 72 4846 7.61 26 20:36 26.10.2021
5692 Snow -3 1005 71 5345 8.22 29 19:30 26.10.2021
5693 Snow -3 1005 71 5345 8.22 29 19:30 26.10.2021
5694 Snow -3 1005 72 5205 8.61 28 18:41 26.10.2021
5695 Snow -3 1004 78 2922 8.88 25 16:28 26.10.2021
5696 Snow -3 1004 77 3131 9.26 22 14:30 26.10.2021
5697 Snow -3 1003 78 3335 8.99 23 11:34 26.10.2021
5698 Snow -3 1002 82 2008 9.38 23 10:20 26.10.2021
5699 Snow -3 1001 82 2981 7.9 2 07:25 26.10.2021
5700 Snow -2 1000 76 2995 8.91 355 03:39 26.10.2021
5701 Snow -2 1000 84 1698 8.59 291 23:50 25.10.2021
5702 Snow -3 1000 89 383 9.44 279 22:53 25.10.2021
5703 Snow -3 1000 91 412 9.54 275 22:18 25.10.2021
5704 Snow -3 1000 91 412 9.54 275 21:39 25.10.2021
5705 Snow -2 1001 77 10000 9.8 292 19:53 25.10.2021
5706 Snow -2 1001 72 10000 10.11 297 19:25 25.10.2021
5707 Snow -2 1001 72 10000 10.11 297 18:54 25.10.2021
5708 Snow -2 1001 73 3530 10.36 303 17:59 25.10.2021
5709 Snow -2 1001 80 924 9.38 307 15:45 25.10.2021
5710 Snow -3 1002 68 10000 7.98 286 14:20 25.10.2021
5711 Snow -2 1001 67 10000 7.83 301 12:24 25.10.2021
5712 Snow -2 1001 69 4603 7.6 311 10:20 25.10.2021
5713 Snow -3 1001 66 10000 5.87 292 08:28 25.10.2021
5714 Snow -2 1001 66 10000 6.51 303 05:59 25.10.2021
5715 Snow -1 1001 66 10000 8.27 319 00:54 25.10.2021
5716 Snow -1 1001 66 10000 8.27 319 00:35 25.10.2021
5717 Snow -1 1001 66 10000 8.37 316 23:46 24.10.2021
5718 Snow -1 1001 66 7543 8.66 313 22:43 24.10.2021
5719 Snow -1 1001 67 10000 9.16 313 22:21 24.10.2021
5720 Snow -1 1001 67 10000 9.16 313 21:38 24.10.2021
5721 Snow -1 1000 67 6265 9.61 315 20:42 24.10.2021
5722 Snow -1 1000 71 4874 9.05 323 19:54 24.10.2021
5723 Snow -1 1000 66 10000 7.85 320 18:49 24.10.2021
5724 Snow -1 1000 64 10000 7.8 323 17:54 24.10.2021
5725 Snow -1 999 65 10000 8.13 329 16:40 24.10.2021
5726 Snow -1 999 66 10000 8.45 329 15:25 24.10.2021
5727 Snow -1 998 66 7495 8.8 331 13:44 24.10.2021
5728 Snow -1 998 66 10000 9.08 333 12:40 24.10.2021
5729 Snow -1 997 67 7416 9.17 336 11:37 24.10.2021
5730 Snow -1 997 69 7399 9.79 339 10:43 24.10.2021
5731 Snow -1 995 71 6698 9.82 344 08:51 24.10.2021
5732 Snow -1 992 82 3400 10.33 356 03:30 24.10.2021
5733 Snow -1 989 85 2263 10.41 356 23:56 23.10.2021
5734 Snow -1 988 84 3091 10.43 356 22:55 23.10.2021
5735 Snow -1 987 85 2446 10.37 358 21:21 23.10.2021
5736 Snow 0 985 88 1318 9.56 13 19:37 23.10.2021
5737 Snow 0 985 88 1428 9.52 18 18:45 23.10.2021
5738 Snow 0 984 89 1313 8.14 18 17:46 23.10.2021
5739 Snow 0 983 89 1506 6.74 19 17:18 23.10.2021
5740 Snow 0 983 89 1540 6.27 23 15:58 23.10.2021
5741 Snow 0 982 93 841 8.72 43 13:47 23.10.2021
5742 Clouds -2 984 83 4851 3.68 138 02:20 23.10.2021
5743 Clouds -3 985 87 10000 3.63 137 23:41 22.10.2021
5744 Clouds -3 985 87 10000 3.18 142 21:39 22.10.2021
5745 Clouds -2 987 86 10000 3.52 156 19:43 22.10.2021
5746 Clouds -3 987 88 10000 4.64 157 18:27 22.10.2021
5747 Clouds -2 988 88 10000 4.9 151 16:44 22.10.2021
5748 Clouds -2 988 86 10000 4.54 150 14:45 22.10.2021
5749 Clouds -1 989 84 10000 5.01 156 12:41 22.10.2021
5750 Clouds -1 990 82 10000 5.56 147 10:57 22.10.2021
5751 Clouds -1 990 82 10000 5.56 147 10:33 22.10.2021
5752 Clouds -1 990 83 10000 5.59 142 09:34 22.10.2021
5753 Clouds -2 991 83 2032 6.93 137 07:40 22.10.2021
5754 Clouds -1 991 70 10000 6.89 127 07:21 22.10.2021
5755 Clouds -1 991 70 10000 6.89 127 07:21 22.10.2021
5756 Clouds -1 994 71 10000 4.25 141 00:54 22.10.2021
5757 Clouds -1 995 69 10000 4.05 152 23:50 21.10.2021
5758 Clouds -1 995 69 10000 4.49 168 22:43 21.10.2021
5759 Clouds -1 996 72 10000 5.11 193 21:28 21.10.2021
5760 Clouds -1 996 74 10000 5.62 197 20:23 21.10.2021
5761 Clouds -1 996 74 10000 5.48 193 19:51 21.10.2021
5762 Clouds -1 997 75 10000 6.01 197 19:24 21.10.2021
5763 Clouds -1 997 75 10000 6.01 197 18:32 21.10.2021
5764 Clouds -1 997 73 10000 5.65 201 17:51 21.10.2021
5765 Clouds 0 997 74 10000 5.76 211 16:47 21.10.2021
5766 Clouds 0 997 80 10000 5.85 227 15:29 21.10.2021
5767 Clouds 0 997 80 10000 5.85 227 14:53 21.10.2021
5768 Clouds 0 997 78 10000 6.49 237 13:57 21.10.2021
5769 Clouds 1 997 87 10000 6.43 264 11:49 21.10.2021
5770 Clouds 1 997 90 10000 4.94 206 09:33 21.10.2021
5771 Clouds 0 997 90 10000 4.77 194 07:48 21.10.2021
5772 Clouds 0 997 90 10000 4.36 181 06:35 21.10.2021
5773 Clouds -1 999 87 10000 3.22 184 00:35 21.10.2021
5774 Clouds -1 999 89 10000 4.42 199 22:29 20.10.2021
5775 Clouds -1 999 89 10000 4.42 199 21:47 20.10.2021
5776 Clouds 0 999 91 10000 4.85 203 20:58 20.10.2021
5777 Clouds 0 999 91 10000 4.85 203 20:38 20.10.2021
5778 Snow 0 999 96 817 4.77 201 20:18 20.10.2021
5779 Snow 0 999 97 256 3.18 198 19:20 20.10.2021
5780 Snow 0 999 97 299 2.63 200 18:29 20.10.2021
5781 Clouds 0 999 88 10000 2.05 112 16:27 20.10.2021
5782 Clouds 0 998 89 10000 1.45 115 13:46 20.10.2021
5783 Clouds 1 997 89 10000 2.01 49 09:53 20.10.2021
5784 Snow 1 996 98 538 2.26 255 05:30 20.10.2021
5785 Snow 0 996 99 66 2.59 251 01:48 20.10.2021
5786 Snow 0 996 99 74 2.34 251 00:33 20.10.2021
5787 Snow 0 996 98 289 2.26 236 22:30 19.10.2021
5788 Clouds 0 996 97 602 2.36 226 21:35 19.10.2021
5789 Snow 0 997 96 707 2.33 216 20:26 19.10.2021
5790 Snow 0 996 96 671 2.96 218 19:58 19.10.2021
5791 Snow 0 996 96 671 2.96 218 19:34 19.10.2021
5792 Snow 0 997 98 270 3.13 211 18:33 19.10.2021
5793 Clouds 1 997 98 151 3.42 211 17:24 19.10.2021
5794 Rain 1 997 97 71 3.62 215 15:28 19.10.2021
5795 Rain 1 997 97 71 3.62 215 14:37 19.10.2021
5796 Rain 1 997 98 58 3.92 209 13:50 19.10.2021
5797 Rain 1 997 97 38 4.84 202 12:20 19.10.2021
5798 Rain 1 997 98 33 4.38 200 11:23 19.10.2021
5799 Rain 1 997 98 32 3.19 189 09:43 19.10.2021
5800 Rain 2 997 98 34 3.44 193 08:56 19.10.2021
5801 Rain 2 996 98 34 5.07 206 02:18 19.10.2021
5802 Rain 2 996 97 62 4.32 227 23:58 18.10.2021
5803 Rain 2 996 97 62 4.32 227 23:39 18.10.2021
5804 Rain 2 996 98 591 3.96 217 22:56 18.10.2021
5805 Clouds 1 996 96 1358 4.37 217 22:18 18.10.2021
5806 Clouds 2 995 93 2885 5.29 221 20:48 18.10.2021
5807 Clouds 1 996 95 10000 5.71 214 20:24 18.10.2021
5808 Clouds 1 996 95 10000 5.71 214 19:32 18.10.2021
5809 Clouds 2 996 96 1390 5.31 218 18:59 18.10.2021
5810 Clouds 1 995 97 920 5.84 213 16:38 18.10.2021
5811 Clouds 2 995 95 422 5.49 221 14:47 18.10.2021
5812 Clouds 2 995 89 10000 7.02 217 12:20 18.10.2021
5813 Clouds 2 995 87 10000 6.59 217 10:22 18.10.2021
5814 Clouds 3 995 84 10000 6.15 220 09:25 18.10.2021
5815 Clouds 2 995 93 10000 5.44 232 01:23 18.10.2021
5816 Clouds 2 995 94 10000 5.7 226 22:56 17.10.2021
5817 Clouds 3 995 94 10000 5.51 222 21:45 17.10.2021
5818 Clouds 3 995 93 10000 5.51 222 20:57 17.10.2021
5819 Clouds 4 995 92 10000 6.02 227 20:25 17.10.2021
5820 Clouds 4 995 92 10000 6.1 228 19:38 17.10.2021
5821 Clouds 4 995 95 10000 6.37 224 18:35 17.10.2021
5822 Rain 4 995 97 240 6.06 202 16:57 17.10.2021
5823 Rain 3 996 97 45 5.42 185 14:42 17.10.2021
5824 Rain 3 997 97 40 5.23 184 14:22 17.10.2021
5825 Rain 3 997 97 40 5.23 184 13:33 17.10.2021
5826 Rain 2 997 97 54 4.99 181 11:54 17.10.2021
5827 Clouds 3 998 89 10000 6.05 200 10:20 17.10.2021
5828 Clouds 3 998 88 10000 6.33 211 09:22 17.10.2021
5829 Rain 3 998 96 2535 6.81 234 06:55 17.10.2021
5830 Clouds 3 997 97 1457 5.76 229 00:49 17.10.2021
5831 Clouds 3 997 96 2309 5.53 230 23:33 16.10.2021
5832 Rain 3 997 96 1611 6.17 229 21:28 16.10.2021
5833 Rain 3 997 96 1611 6.17 229 20:30 16.10.2021
5834 Rain 3 997 97 58 5.58 221 19:42 16.10.2021
5835 Rain 2 997 98 46 5.42 208 19:20 16.10.2021
5836 Rain 2 997 98 46 5.42 208 18:46 16.10.2021
5837 Rain 2 998 98 40 5.4 201 18:28 16.10.2021
5838 Rain 2 998 98 40 5.4 201 17:52 16.10.2021
5839 Rain 2 998 98 39 4.99 196 17:21 16.10.2021
5840 Rain 3 999 96 10000 4.01 194 13:54 16.10.2021
5841 Clouds 3 1001 88 10000 3.42 169 11:26 16.10.2021
5842 Clouds 3 1002 88 10000 3.47 159 09:48 16.10.2021
5843 Clouds 3 1004 89 10000 3.15 161 06:50 16.10.2021
5844 Clouds 3 1008 94 10000 4.82 160 01:24 16.10.2021
5845 Clouds 3 1008 94 10000 4.82 160 01:24 16.10.2021
5846 Clouds 3 1008 94 10000 4.85 160 23:40 15.10.2021
5847 Clouds 3 1010 95 10000 4.97 168 22:22 15.10.2021
5848 Clouds 3 1010 95 10000 4.97 168 21:51 15.10.2021
5849 Clouds 3 1010 95 10000 5.11 174 21:21 15.10.2021
5850 Clouds 3 1010 95 10000 5.11 174 20:45 15.10.2021
5851 Clouds 2 1011 93 10000 5.19 181 19:23 15.10.2021
5852 Clouds 2 1011 93 10000 5.19 181 18:38 15.10.2021
5853 Clouds 2 1013 92 10000 5.3 196 16:28 15.10.2021
5854 Clouds 2 1013 94 10000 5.55 203 15:22 15.10.2021
5855 Clouds 3 1013 92 10000 6.19 206 12:31 15.10.2021
5856 Clouds 3 1013 93 10000 6.29 214 11:20 15.10.2021
5857 Clouds 3 1013 93 10000 6.29 214 10:42 15.10.2021
5858 Clouds 3 1013 93 10000 6.69 217 08:58 15.10.2021
5859 Clouds 3 1012 89 10000 7.76 236 05:31 15.10.2021
5860 Clouds 3 1011 89 10000 6.57 245 00:44 15.10.2021
5861 Clouds 3 1011 90 10000 6.11 238 23:49 14.10.2021
5862 Clouds 3 1010 88 10000 6.38 258 22:49 14.10.2021
5863 Clouds 4 1009 89 10000 7.1 253 21:43 14.10.2021
5864 Clouds 4 1008 93 10000 7.29 259 20:23 14.10.2021
5865 Clouds 4 1008 93 10000 7.29 259 19:52 14.10.2021
5866 Clouds 3 1007 97 6353 7.25 271 19:26 14.10.2021
5867 Rain 3 1005 97 50 7.69 267 17:26 14.10.2021
5868 Rain 3 1005 97 50 7.69 267 16:46 14.10.2021
5869 Rain 3 1004 97 94 6.52 237 15:24 14.10.2021
5870 Rain 2 1005 98 46 6.24 244 14:40 14.10.2021
5871 Rain 2 1005 97 78 5.86 216 13:35 14.10.2021
5872 Rain 3 1007 97 1096 5.12 188 11:43 14.10.2021
5873 Rain 3 1009 97 1621 5.16 197 09:55 14.10.2021
5874 Rain 3 1010 97 10000 6.21 209 06:47 14.10.2021
5875 Rain 3 1013 95 10000 7.54 214 00:54 14.10.2021
5876 Clouds 3 1013 94 10000 7.97 214 22:51 13.10.2021
5877 Clouds 3 1013 94 10000 8.04 214 21:45 13.10.2021
5878 Clouds 2 1013 93 10000 8.01 212 21:27 13.10.2021
5879 Clouds 2 1014 93 10000 8 212 19:48 13.10.2021
5880 Clouds 3 1014 92 10000 8.18 214 18:49 13.10.2021
5881 Clouds 3 1014 92 10000 8.18 214 18:49 13.10.2021
5882 Clouds 3 1014 92 10000 8.34 213 17:49 13.10.2021
5883 Clouds 2 1013 92 10000 8.42 216 15:24 13.10.2021
5884 Clouds 2 1013 92 10000 8.42 216 14:44 13.10.2021
5885 Clouds 3 1014 92 10000 7.5 216 12:55 13.10.2021
5886 Clouds 3 1014 92 10000 7.48 219 11:55 13.10.2021
5887 Clouds 3 1013 94 10000 8.37 230 10:21 13.10.2021
5888 Clouds 3 1013 94 10000 7.28 222 07:58 13.10.2021
5889 Clouds 3 1012 95 10000 7.5 228 06:33 13.10.2021
5890 Rain 2 1011 96 1894 6.46 202 02:24 13.10.2021
5891 Clouds 2 1011 95 1270 7.95 206 23:55 12.10.2021
5892 Rain 1 1011 93 10000 6.89 199 23:29 12.10.2021
5893 Rain 1 1011 93 10000 6.89 199 22:43 12.10.2021
5894 Snow 0 1011 91 4639 6.91 176 21:19 12.10.2021
5895 Snow 0 1012 92 6396 6.7 179 20:33 12.10.2021
5896 Snow -1 1012 95 249 6.68 170 19:52 12.10.2021
5897 Snow -1 1013 93 406 7.14 163 18:27 12.10.2021
5898 Snow -1 1013 93 406 7.14 163 17:38 12.10.2021
5899 Snow -1 1013 92 495 6.92 159 16:36 12.10.2021
5900 Snow -1 1014 89 1496 6.91 156 15:43 12.10.2021
5901 Clouds -1 1015 75 10000 7.02 160 14:30 12.10.2021
5902 Clouds 0 1015 67 10000 6.58 155 13:42 12.10.2021
5903 Clouds -1 1015 66 10000 6.43 148 11:36 12.10.2021
5904 Clouds -1 1016 66 10000 6.23 152 09:41 12.10.2021
5905 Clouds -1 1016 67 10000 6.12 152 08:42 12.10.2021
5906 Clouds -2 1017 63 10000 5.19 154 06:49 12.10.2021
5907 Clouds -2 1017 67 10000 4.59 147 05:29 12.10.2021
5908 Clouds -2 1018 69 10000 4.32 146 04:29 12.10.2021
5909 Clouds -2 1019 75 10000 3.39 155 00:18 12.10.2021
5910 Clouds -2 1019 75 10000 3.39 155 00:18 12.10.2021
5911 Clouds -2 1019 75 10000 3.39 155 00:18 12.10.2021
5912 Clouds -2 1019 75 10000 3.39 155 23:37 11.10.2021
5913 Clouds -2 1019 76 10000 3.24 161 22:56 11.10.2021
5914 Clouds -2 1019 76 10000 3.28 167 21:41 11.10.2021
5915 Clouds -2 1019 73 10000 3.28 164 20:32 11.10.2021
5916 Clear -2 1019 72 10000 3.15 160 19:36 11.10.2021
5917 Clear -2 1019 70 10000 3.08 163 18:24 11.10.2021
5918 Clear -2 1019 70 10000 2.96 159 16:48 11.10.2021
5919 Clear -1 1019 69 10000 2.65 161 16:28 11.10.2021
5920 Clear -1 1019 69 10000 2.65 161 15:45 11.10.2021
5921 Clear -1 1019 68 10000 2.56 156 14:54 11.10.2021
5922 Clouds -1 1018 72 10000 1.79 162 14:22 11.10.2021
5923 Clouds -1 1018 72 10000 1.79 162 13:36 11.10.2021
5924 Clouds 0 1018 70 10000 2.12 182 11:25 11.10.2021
5925 Clouds 0 1018 70 10000 2.3 182 09:47 11.10.2021
5926 Clouds 0 1018 70 10000 2.51 187 08:41 11.10.2021
5927 Clouds -1 1017 75 10000 2.64 218 01:47 11.10.2021
5928 Clouds -1 1017 75 10000 2.75 223 01:20 11.10.2021
5929 Clouds -1 1017 75 10000 2.75 223 00:42 11.10.2021
5930 Clouds -1 1018 77 10000 3.25 233 23:35 10.10.2021
5931 Clouds -1 1018 79 10000 3.42 238 21:51 10.10.2021
5932 Clouds 0 1018 78 10000 3.3 239 21:26 10.10.2021
5933 Clouds 0 1018 78 10000 3.3 239 20:41 10.10.2021
5934 Clouds -1 1018 76 10000 1.97 222 20:20 10.10.2021
5935 Clouds -1 1018 76 10000 1.97 222 19:49 10.10.2021
5936 Clouds -1 1018 76 10000 1.97 222 19:31 10.10.2021
5937 Clouds 0 1018 72 10000 1.65 251 18:24 10.10.2021
5938 Clouds 0 1018 69 10000 1.6 286 15:54 10.10.2021
5939 Clouds 0 1018 69 10000 1.6 286 15:36 10.10.2021
5940 Snow 1 1018 71 6685 2.31 308 13:41 10.10.2021
5941 Rain 1 1018 69 6034 2.6 310 12:44 10.10.2021
5942 Rain 1 1018 69 10000 2.93 318 11:59 10.10.2021
5943 Rain 1 1018 70 7641 3.56 320 10:31 10.10.2021
5944 Rain 2 1017 65 8907 4.95 318 09:19 10.10.2021
5945 Rain 2 1017 65 8907 4.95 318 08:51 10.10.2021
5946 Rain 1 1017 69 7464 6 313 04:57 10.10.2021
5947 Rain 1 1017 67 6820 7.04 319 02:20 10.10.2021
5948 Rain 1 1017 68 5614 7.45 318 00:50 10.10.2021
5949 Rain 1 1017 66 7179 7.72 316 23:45 09.10.2021
5950 Rain 1 1017 64 10000 7.83 321 22:20 09.10.2021
5951 Rain 1 1017 64 10000 7.83 321 22:20 09.10.2021
5952 Rain 1 1017 64 10000 7.83 321 21:30 09.10.2021
5953 Rain 1 1017 64 10000 7.83 321 21:30 09.10.2021
5954 Rain 1 1017 63 10000 8.86 326 19:53 09.10.2021
5955 Rain 1 1017 63 10000 8.86 326 19:34 09.10.2021
5956 Rain 1 1017 61 5842 7.97 329 18:40 09.10.2021
5957 Clouds 1 1017 63 8997 7.47 329 17:51 09.10.2021
5958 Rain 1 1016 61 10000 9.05 337 16:20 09.10.2021
5959 Rain 1 1016 59 10000 9.43 339 13:49 09.10.2021
5960 Rain 1 1016 59 10000 9.43 339 13:31 09.10.2021
5961 Rain 2 1014 53 10000 9.2 347 12:23 09.10.2021
5962 Rain 2 1014 53 10000 10.1 353 10:44 09.10.2021
5963 Rain 1 1013 55 10000 10.65 353 10:18 09.10.2021
5964 Rain 1 1012 56 10000 10.71 351 08:33 09.10.2021
5965 Rain 1 1012 56 10000 10.97 353 07:50 09.10.2021
5966 Rain 1 1010 62 10000 11.7 358 06:22 09.10.2021
5967 Rain 1 1009 62 10000 12.01 359 04:31 09.10.2021
5968 Clouds 2 1007 60 10000 11.88 2 02:43 09.10.2021
5969 Rain 2 1004 74 5638 12.61 11 00:23 09.10.2021
5970 Rain 2 1004 74 5638 12.61 11 23:31 08.10.2021
5971 Rain 2 1002 77 4641 12.61 12 22:42 08.10.2021
5972 Clouds 2 1001 78 10000 12.49 10 21:43 08.10.2021
5973 Rain 2 998 96 439 10.24 342 19:47 08.10.2021
5974 Rain 2 998 90 10000 9.53 284 18:19 08.10.2021
5975 Clouds 2 998 79 10000 10.09 281 16:54 08.10.2021
5976 Clouds 2 999 75 10000 9.71 279 16:24 08.10.2021
5977 Clouds 3 999 71 10000 8.88 288 14:20 08.10.2021
5978 Clouds 3 999 71 10000 8.88 288 13:41 08.10.2021
5979 Clouds 3 999 71 10000 8.88 299 11:41 08.10.2021
5980 Clouds 4 998 71 10000 8.5 308 10:42 08.10.2021
5981 Clouds 4 998 73 10000 7.79 317 09:46 08.10.2021
5982 Rain 3 1000 98 161 3.04 336 03:36 08.10.2021
5983 Rain 5 1005 93 10000 4.22 273 23:22 07.10.2021
5984 Rain 5 1007 89 10000 6.41 267 21:47 07.10.2021
5985 Clouds 5 1007 86 10000 6.56 257 21:28 07.10.2021
5986 Clouds 5 1008 87 10000 6.78 258 20:28 07.10.2021
5987 Clouds 5 1008 87 10000 6.78 258 19:31 07.10.2021
5988 Clouds 5 1009 94 10000 7.7 266 18:27 07.10.2021
5989 Clouds 6 1009 95 10000 7.44 265 17:27 07.10.2021
5990 Rain 6 1009 96 6090 8.4 270 15:58 07.10.2021
5991 Clouds 6 1009 96 10000 8 257 14:48 07.10.2021
5992 Clouds 6 1009 96 2123 7.98 254 13:43 07.10.2021
5993 Rain 5 1009 96 1864 8.07 251 12:49 07.10.2021
5994 Rain 6 1010 96 2573 8.35 244 10:57 07.10.2021
5995 Rain 6 1011 96 9760 8.68 240 10:22 07.10.2021
5996 Rain 6 1011 96 9760 8.68 240 09:34 07.10.2021
5997 Rain 6 1011 96 1102 7.76 243 08:52 07.10.2021
5998 Rain 6 1013 97 363 8.23 242 07:57 07.10.2021
5999 Rain 6 1013 97 363 8.23 242 07:37 07.10.2021
6000 Clouds 6 1015 94 10000 8.09 260 04:24 07.10.2021
6001 Clouds 6 1015 92 10000 10.03 262 00:29 07.10.2021
6002 Clouds 6 1015 91 10000 10.09 265 22:55 06.10.2021
6003 Clouds 6 1015 92 10000 9.97 266 22:23 06.10.2021
6004 Clouds 6 1014 93 10000 10.32 270 20:51 06.10.2021
6005 Clouds 6 1014 94 10000 10.72 265 20:26 06.10.2021
6006 Rain 6 1014 92 10000 11.74 268 18:43 06.10.2021
6007 Clouds 6 1014 95 4654 11.87 259 16:58 06.10.2021
6008 Clouds 6 1014 95 4654 11.87 259 16:58 06.10.2021
6009 Rain 6 1014 95 10000 11.63 261 15:33 06.10.2021
6010 Rain 6 1013 95 9331 12 264 14:30 06.10.2021
6011 Rain 6 1013 95 5849 11.97 262 13:23 06.10.2021
6012 Rain 6 1013 95 5849 11.97 262 12:45 06.10.2021
6013 Clouds 6 1013 95 8463 12.12 261 12:22 06.10.2021
6014 Rain 6 1013 95 2010 13.2 262 10:36 06.10.2021
6015 Rain 6 1012 93 10000 14.32 252 09:39 06.10.2021
6016 Rain 5 1013 92 10000 13.68 245 08:57 06.10.2021
6017 Clouds 5 1014 91 10000 13.15 245 07:53 06.10.2021
6018 Rain 6 1016 93 10000 11.98 246 05:27 06.10.2021
6019 Rain 6 1016 93 10000 11.98 246 05:27 06.10.2021
6020 Clouds 6 1017 90 10000 12.99 251 01:23 06.10.2021
6021 Clouds 7 1018 88 10000 13.43 252 00:18 06.10.2021
6022 Clouds 7 1018 88 10000 13.43 252 23:45 05.10.2021
6023 Clouds 6 1018 88 10000 13.25 251 23:27 05.10.2021
6024 Clouds 6 1018 88 10000 13.08 248 22:28 05.10.2021
6025 Clouds 6 1018 88 10000 13.08 248 21:50 05.10.2021
6026 Clouds 6 1019 87 10000 12.6 248 20:48 05.10.2021
6027 Clouds 6 1019 86 10000 12.69 250 20:24 05.10.2021
6028 Clouds 6 1019 86 10000 12.69 250 19:47 05.10.2021
6029 Clouds 6 1020 91 10000 11.48 247 19:18 05.10.2021
6030 Clouds 6 1020 92 10000 11.71 249 16:58 05.10.2021
6031 Clouds 6 1021 89 10000 11.23 253 14:57 05.10.2021
6032 Clouds 6 1020 90 10000 11.43 252 13:42 05.10.2021
6033 Clouds 6 1020 90 10000 11.43 254 12:48 05.10.2021
6034 Clouds 6 1020 89 10000 11.65 255 12:19 05.10.2021
6035 Clouds 6 1020 90 10000 12.05 255 11:21 05.10.2021
6036 Clouds 6 1020 90 10000 12.61 256 09:27 05.10.2021
6037 Clouds 6 1019 89 10000 12.94 251 05:25 05.10.2021
6038 Clouds 6 1022 91 10000 11.66 242 23:54 04.10.2021
6039 Clouds 6 1022 91 10000 11.66 242 23:54 04.10.2021
6040 Clouds 6 1022 91 10000 11.17 244 22:39 04.10.2021
6041 Clouds 6 1023 92 10000 11.21 245 20:43 04.10.2021
6042 Clouds 6 1024 93 10000 10.62 245 18:34 04.10.2021
6043 Clouds 6 1024 93 10000 9.91 245 16:34 04.10.2021
6044 Clouds 6 1024 92 10000 9.71 247 15:31 04.10.2021
6045 Clouds 6 1024 92 10000 9.71 247 15:31 04.10.2021
6046 Clouds 5 1024 93 10000 10.36 249 14:43 04.10.2021
6047 Clouds 5 1024 93 10000 10.36 249 14:43 04.10.2021
6048 Clouds 5 1024 93 10000 10.38 248 13:57 04.10.2021
6049 Clouds 6 1025 90 10000 10.94 254 13:27 04.10.2021
6050 Clouds 5 1025 92 10000 10.22 250 12:28 04.10.2021
6051 Clouds 6 1025 91 10000 10.54 250 11:31 04.10.2021
6052 Clouds 6 1026 90 10000 10.93 251 10:23 04.10.2021
6053 Clouds 5 1026 93 10000 10.21 248 08:42 04.10.2021
6054 Clouds 5 1026 95 3644 10.34 248 07:37 04.10.2021
6055 Clouds 4 1027 90 10000 10.48 229 00:40 04.10.2021
6056 Clouds 3 1028 87 10000 9.68 232 22:41 03.10.2021
6057 Clouds 3 1029 85 10000 9.24 231 21:41 03.10.2021
6058 Clouds 3 1029 83 10000 9.03 228 21:22 03.10.2021
6059 Clouds 4 1030 81 10000 8.83 222 19:59 03.10.2021
6060 Clouds 4 1030 81 10000 8.83 222 19:30 03.10.2021
6061 Clouds 3 1030 78 10000 8.41 217 18:28 03.10.2021
6062 Clouds 3 1031 78 10000 8.33 212 17:28 03.10.2021
6063 Clouds 3 1031 75 10000 7.5 218 14:48 03.10.2021
6064 Clouds 3 1032 74 10000 7.16 223 14:24 03.10.2021
6065 Clouds 3 1032 73 10000 6.49 234 13:34 03.10.2021
6066 Clouds 4 1032 70 10000 6.9 237 12:29 03.10.2021
6067 Clouds 4 1032 66 10000 6.61 243 10:43 03.10.2021
6068 Clouds 4 1033 70 10000 5.74 228 08:53 03.10.2021
6069 Clouds 1 1032 88 10000 3 243 03:29 03.10.2021
6070 Clouds 2 1032 84 10000 2.37 200 22:43 02.10.2021
6071 Clouds 2 1031 83 10000 1.87 145 21:21 02.10.2021
6072 Clouds 2 1031 84 10000 2.88 133 19:50 02.10.2021
6073 Clouds 3 1031 83 10000 3.21 115 18:54 02.10.2021
6074 Clouds 3 1030 80 10000 3.13 93 17:57 02.10.2021
6075 Clouds 4 1030 78 10000 2.59 67 17:26 02.10.2021
6076 Clouds 4 1030 77 10000 2.6 37 15:38 02.10.2021
6077 Clouds 4 1027 76 10000 7.95 358 16:50 30.09.2021
6078 Clouds 4 1027 75 10000 8.19 1 15:36 30.09.2021
6079 Clouds 4 1026 70 10000 8.66 357 13:45 30.09.2021
6080 Clouds 4 1026 69 10000 8.75 355 11:37 30.09.2021
6081 Clouds 4 1025 69 10000 8.5 359 10:43 30.09.2021
6082 Clouds 4 1025 68 10000 8.44 3 09:33 30.09.2021
6083 Clouds 4 1024 72 10000 7.83 5 08:29 30.09.2021
6084 Clouds 4 1024 72 10000 7.83 5 07:33 30.09.2021
6085 Clouds 3 1022 68 10000 8.22 6 04:58 30.09.2021
6086 Clouds 4 1020 69 10000 9.32 14 01:20 30.09.2021
6087 Clouds 4 1019 74 10000 9.66 16 23:55 29.09.2021
6088 Clouds 5 1018 88 10000 7.05 10 22:28 29.09.2021
6089 Clouds 5 1017 91 10000 6.44 11 21:24 29.09.2021
6090 Clouds 6 1016 97 3582 6.21 9 20:24 29.09.2021
6091 Clouds 6 1016 97 3582 6.21 9 19:50 29.09.2021
6092 Clouds 6 1016 97 10000 4.61 280 18:29 29.09.2021
6093 Clouds 6 1016 97 10000 4.61 280 17:34 29.09.2021
6094 Clouds 6 1016 96 10000 5.43 260 16:46 29.09.2021
6095 Clouds 6 1016 95 10000 6.83 248 15:49 29.09.2021
6096 Clouds 6 1016 94 10000 7.76 246 14:39 29.09.2021
6097 Clouds 6 1017 92 10000 8.62 246 13:42 29.09.2021
6098 Clouds 6 1018 90 10000 9.69 243 12:50 29.09.2021
6099 Clouds 6 1018 86 10000 10.64 241 11:54 29.09.2021
6100 Clouds 6 1019 84 10000 10.88 241 10:44 29.09.2021
6101 Clouds 6 1019 84 10000 11.1 239 09:49 29.09.2021
6102 Clouds 6 1020 87 10000 11.15 239 08:49 29.09.2021
6103 Clouds 6 1020 89 10000 10.98 240 07:31 29.09.2021
6104 Clouds 5 1024 94 10000 6.53 255 03:29 29.09.2021
6105 Clouds 4 1026 93 10000 5.3 258 23:23 28.09.2021
6106 Clouds 4 1026 90 10000 5.13 252 22:22 28.09.2021
6107 Clouds 4 1026 90 10000 5.13 252 21:33 28.09.2021
6108 Clouds 4 1027 88 10000 4.78 256 20:35 28.09.2021
6109 Clouds 4 1027 89 10000 4.31 266 19:42 28.09.2021
6110 Clouds 4 1027 90 10000 4.39 273 18:44 28.09.2021
6111 Clouds 4 1027 89 10000 4.56 275 17:53 28.09.2021
6112 Clouds 5 1028 86 10000 3.72 288 15:44 28.09.2021
6113 Clouds 7 1027 65 10000 3.4 320 13:38 28.09.2021
6114 Clouds 7 1027 64 10000 3.69 335 12:30 28.09.2021
6115 Clouds 7 1026 65 10000 3.89 348 11:59 28.09.2021
6116 Clouds 7 1026 65 10000 3.89 348 11:40 28.09.2021
6117 Clouds 7 1026 69 10000 4.14 352 10:55 28.09.2021
6118 Clouds 7 1026 74 10000 4.34 353 09:53 28.09.2021
6119 Clouds 7 1025 80 10000 4.35 352 08:57 28.09.2021
6120 Clouds 7 1025 80 10000 4.35 352 08:34 28.09.2021
6121 Clouds 6 1025 90 10000 4.23 348 06:51 28.09.2021
6122 Clouds 6 1024 97 10000 3.63 327 05:27 28.09.2021
6123 Rain 5 1023 96 2148 7.52 218 01:22 28.09.2021
6124 Rain 4 1023 95 4374 8.47 217 00:24 28.09.2021
6125 Rain 4 1023 95 4374 8.47 217 23:31 27.09.2021
6126 Rain 4 1024 94 10000 9 216 22:46 27.09.2021
6127 Rain 4 1024 94 10000 9.55 213 21:44 27.09.2021
6128 Rain 4 1025 94 10000 9.59 215 20:39 27.09.2021
6129 Rain 4 1026 95 10000 9.57 216 19:50 27.09.2021
6130 Rain 4 1026 95 3090 9.47 218 19:24 27.09.2021
6131 Rain 4 1026 95 3090 9.47 218 18:48 27.09.2021
6132 Clouds 5 1028 81 10000 9.62 217 17:29 27.09.2021
6133 Clouds 5 1028 81 10000 9.62 217 16:48 27.09.2021
6134 Clouds 5 1028 70 10000 9.63 212 15:43 27.09.2021
6135 Clouds 5 1029 69 10000 9.62 213 14:56 27.09.2021
6136 Clouds 5 1029 68 10000 9.81 214 13:31 27.09.2021
6137 Clouds 5 1030 70 10000 8.9 213 11:23 27.09.2021
6138 Clouds 5 1030 70 10000 8.9 213 10:32 27.09.2021
6139 Clouds 4 1031 70 10000 8.9 213 08:48 27.09.2021
6140 Clouds 2 1030 76 10000 8.76 203 05:21 27.09.2021
6141 Clouds 2 1030 74 10000 8.48 201 02:59 27.09.2021
6142 Clouds 3 1030 68 10000 8.12 196 22:32 26.09.2021
6143 Clouds 4 1030 67 10000 8.31 195 21:50 26.09.2021
6144 Clouds 4 1029 66 10000 8.36 196 20:58 26.09.2021
6145 Clouds 4 1029 66 10000 8.34 196 20:21 26.09.2021
6146 Clouds 4 1029 66 10000 8.34 196 19:48 26.09.2021
6147 Clouds 4 1029 64 10000 8.25 195 18:45 26.09.2021
6148 Clouds 4 1028 62 10000 7.5 192 17:56 26.09.2021
6149 Clouds 4 1028 61 10000 6.33 185 17:22 26.09.2021
6150 Clouds 4 1028 61 10000 6.33 185 16:40 26.09.2021
6151 Clouds 5 1028 60 10000 5.36 183 15:59 26.09.2021
6152 Clouds 5 1028 59 10000 5.09 181 14:54 26.09.2021
6153 Clouds 6 1028 57 10000 5.86 184 13:55 26.09.2021
6154 Clouds 6 1028 55 10000 6.34 183 13:20 26.09.2021
6155 Clouds 6 1027 55 10000 6.54 181 12:24 26.09.2021
6156 Clouds 6 1027 55 10000 6.54 181 11:42 26.09.2021
6157 Clouds 6 1027 56 10000 7.48 185 10:25 26.09.2021
6158 Clouds 5 1026 59 10000 7.83 184 08:58 26.09.2021
6159 Clouds 4 1027 64 10000 8.55 188 06:36 26.09.2021
6160 Clouds 3 1025 75 10000 7.67 183 00:23 26.09.2021
6161 Clouds 3 1025 74 10000 7.79 182 23:26 25.09.2021
6162 Clouds 3 1025 74 10000 7.79 182 22:38 25.09.2021
6163 Clouds 4 1025 74 10000 7.74 179 21:55 25.09.2021
6164 Clouds 4 1025 74 10000 7.74 179 21:32 25.09.2021
6165 Clouds 4 1025 75 10000 7.32 178 20:48 25.09.2021
6166 Clouds 4 1025 75 10000 6.41 175 18:59 25.09.2021
6167 Clouds 5 1025 74 10000 6.75 168 18:24 25.09.2021
6168 Clouds 6 1025 70 10000 5.07 159 15:48 25.09.2021
6169 Clouds 8 1025 62 10000 5.04 168 13:57 25.09.2021
6170 Clouds 8 1025 62 10000 5.04 168 13:31 25.09.2021
6171 Clouds 8 1025 62 10000 4.45 163 12:27 25.09.2021
6172 Clouds 8 1025 62 10000 4.24 154 10:35 25.09.2021
6173 Clouds 8 1025 61 10000 4.84 148 09:40 25.09.2021
6174 Clouds 7 1025 62 10000 4.14 152 08:20 25.09.2021
6175 Clouds 5 1026 71 10000 3.73 167 05:51 25.09.2021
6176 Clouds 5 1026 83 10000 3.64 183 23:51 24.09.2021
6177 Clouds 5 1025 84 10000 3.58 185 21:49 24.09.2021
6178 Clouds 5 1025 84 10000 3.59 182 20:39 24.09.2021
6179 Clouds 5 1025 80 10000 3.51 192 19:48 24.09.2021
6180 Clouds 5 1025 80 10000 3.43 187 18:34 24.09.2021
6181 Clouds 5 1025 81 10000 3.28 192 17:54 24.09.2021
6182 Clouds 5 1025 81 10000 3.28 192 17:36 24.09.2021
6183 Clouds 5 1025 81 10000 3.07 196 17:18 24.09.2021
6184 Clouds 7 1025 72 10000 2.79 218 13:58 24.09.2021
6185 Clouds 8 1024 68 10000 3.38 223 13:18 24.09.2021
6186 Clouds 8 1024 68 10000 3.38 223 12:39 24.09.2021
6187 Clouds 8 1024 65 10000 3.8 227 12:20 24.09.2021
6188 Clouds 8 1024 65 10000 4.17 225 10:27 24.09.2021
6189 Clouds 7 1024 66 10000 4.53 222 08:54 24.09.2021
6190 Clouds 6 1024 70 10000 4.55 217 07:34 24.09.2021
6191 Clouds 5 1024 73 10000 4.07 218 06:46 24.09.2021
6192 Clouds 4 1023 79 10000 4.44 222 04:55 24.09.2021
6193 Clouds 4 1023 83 10000 4.61 239 00:26 24.09.2021
6194 Clouds 4 1023 84 10000 4.97 238 22:30 23.09.2021
6195 Clouds 4 1022 85 10000 5.33 237 21:56 23.09.2021
6196 Clouds 4 1022 87 10000 5.35 236 20:34 23.09.2021
6197 Clouds 4 1022 88 10000 5.43 237 19:46 23.09.2021
6198 Clouds 4 1022 88 10000 5.88 238 17:46 23.09.2021
6199 Clouds 5 1023 86 10000 5.97 237 15:30 23.09.2021
6200 Clouds 5 1023 83 10000 6 240 14:59 23.09.2021
6201 Clouds 6 1023 80 10000 6.49 244 13:45 23.09.2021
6202 Clouds 6 1023 78 10000 6.78 248 13:20 23.09.2021
6203 Clouds 6 1023 78 10000 6.78 248 12:52 23.09.2021
6204 Clouds 7 1023 76 10000 7.1 250 12:22 23.09.2021
6205 Clouds 7 1023 76 10000 7.1 250 11:32 23.09.2021
6206 Clouds 6 1023 78 10000 7.05 252 10:25 23.09.2021
6207 Clouds 6 1023 78 10000 7.05 252 09:51 23.09.2021
6208 Clouds 6 1022 86 10000 7.2 256 08:21 23.09.2021
6209 Clouds 3 1024 93 10000 5.62 255 03:50 23.09.2021
6210 Clouds 3 1024 90 10000 6.39 274 23:24 22.09.2021
6211 Clouds 3 1024 92 10000 6.64 277 22:29 22.09.2021
6212 Clouds 3 1024 92 10000 6.64 277 21:55 22.09.2021
6213 Clouds 3 1024 92 10000 6.64 277 21:33 22.09.2021
6214 Clouds 3 1024 92 10000 6.16 276 20:52 22.09.2021
6215 Clear 4 1024 94 10000 6.18 278 19:29 22.09.2021
6216 Clear 4 1024 94 10000 6.18 278 18:39 22.09.2021
6217 Clear 4 1024 92 10000 5.41 279 17:43 22.09.2021
6218 Clear 4 1024 90 10000 5.13 283 16:37 22.09.2021
6219 Clear 5 1024 80 10000 6.55 308 15:19 22.09.2021
6220 Clouds 5 1023 79 10000 7.35 307 13:48 22.09.2021
6221 Clouds 5 1023 76 10000 7.92 309 11:46 22.09.2021
6222 Clouds 6 1023 74 10000 7.79 308 10:44 22.09.2021
6223 Clouds 6 1022 73 10000 6.58 293 09:21 22.09.2021
6224 Clouds 6 1023 75 10000 5.89 289 08:22 22.09.2021
6225 Clouds 6 1023 79 10000 5.44 284 06:59 22.09.2021
6226 Clouds 6 1022 87 10000 4.82 267 05:53 22.09.2021
6227 Clouds 6 1022 87 10000 4.82 267 05:32 22.09.2021
6228 Clouds 6 1023 96 10000 4.28 242 03:44 22.09.2021
6229 Clouds 4 1024 87 10000 3.54 237 00:21 22.09.2021
6230 Clouds 4 1024 86 10000 3.33 245 22:52 21.09.2021
6231 Clouds 4 1024 86 10000 3.26 246 21:33 21.09.2021
6232 Clouds 4 1024 86 10000 2.39 253 20:24 21.09.2021
6233 Clouds 5 1024 87 10000 1.25 290 19:20 21.09.2021
6234 Clouds 5 1024 87 10000 2.02 313 17:20 21.09.2021
6235 Clouds 5 1024 87 10000 2.02 313 16:34 21.09.2021
6236 Clouds 5 1024 88 10000 2.2 332 15:38 21.09.2021
6237 Clouds 5 1024 87 10000 2.54 341 14:56 21.09.2021
6238 Clouds 6 1023 85 10000 3.32 352 13:56 21.09.2021
6239 Clouds 6 1024 85 10000 3.5 352 13:36 21.09.2021
6240 Clouds 6 1023 84 10000 4.31 1 11:44 21.09.2021
6241 Clouds 6 1022 85 10000 5.17 5 09:55 21.09.2021
6242 Clouds 6 1021 86 10000 6.11 2 08:27 21.09.2021
6243 Clouds 6 1020 87 10000 5.77 358 06:38 21.09.2021
6244 Clouds 6 1020 94 10000 7.64 316 23:58 20.09.2021
6245 Clouds 6 1020 93 10000 8.32 314 22:24 20.09.2021
6246 Clouds 6 1020 93 10000 8.32 314 21:37 20.09.2021
6247 Clouds 6 1020 92 10000 8.62 307 20:30 20.09.2021
6248 Clouds 6 1021 92 10000 8.62 311 19:29 20.09.2021
6249 Rain 6 1021 93 10000 8.53 301 17:40 20.09.2021
6250 Clouds 6 1021 89 10000 8.41 300 16:43 20.09.2021
6251 Clouds 6 1022 84 10000 8.34 299 15:49 20.09.2021
6252 Clouds 6 1022 84 10000 8.34 299 15:49 20.09.2021
6253 Clouds 6 1023 84 10000 7.76 295 15:23 20.09.2021
6254 Clouds 6 1023 83 10000 7.16 299 13:45 20.09.2021
6255 Clouds 6 1024 77 10000 7.63 299 12:35 20.09.2021
6256 Clouds 6 1024 77 10000 7.63 299 12:35 20.09.2021
6257 Clouds 5 1025 76 10000 7.24 290 11:25 20.09.2021
6258 Clouds 5 1025 74 10000 6.38 284 09:59 20.09.2021
6259 Clouds 5 1025 74 10000 6.38 284 09:36 20.09.2021
6260 Clouds 4 1026 73 10000 6.1 277 09:18 20.09.2021
6261 Clouds 4 1026 74 10000 5.3 299 06:55 20.09.2021
6262 Clouds 4 1026 76 10000 6.87 9 23:49 19.09.2021
6263 Clouds 4 1026 78 10000 7.05 17 22:26 19.09.2021
6264 Clouds 4 1026 78 10000 7.05 17 22:26 19.09.2021
6265 Clouds 4 1026 78 10000 7.05 17 21:40 19.09.2021
6266 Clouds 4 1025 77 10000 7.37 23 20:34 19.09.2021
6267 Clouds 4 1025 78 10000 8.24 29 19:23 19.09.2021
6268 Clouds 4 1024 78 10000 8.92 32 18:29 19.09.2021
6269 Clouds 4 1024 78 10000 9.53 33 17:23 19.09.2021
6270 Clouds 4 1024 77 10000 9.54 33 15:55 19.09.2021
6271 Clouds 4 1023 77 10000 9.64 34 15:29 19.09.2021
6272 Clouds 4 1023 77 10000 9.64 34 14:46 19.09.2021
6273 Clouds 4 1023 74 10000 11.1 31 13:21 19.09.2021
6274 Clouds 4 1023 74 10000 11.1 31 12:50 19.09.2021
6275 Clouds 4 1022 73 10000 11.03 31 11:27 19.09.2021
6276 Clouds 4 1022 73 10000 11.03 31 10:35 19.09.2021
6277 Clouds 4 1022 75 10000 11.33 32 09:39 19.09.2021
6278 Clouds 4 1021 75 10000 11.68 32 08:31 19.09.2021
6279 Clouds 4 1020 76 10000 12.47 34 05:55 19.09.2021
6280 Clouds 4 1018 71 10000 13.81 32 23:37 18.09.2021
6281 Clouds 4 1018 67 10000 13.31 33 21:59 18.09.2021
6282 Clouds 4 1018 67 10000 13.42 33 20:51 18.09.2021
6283 Clouds 4 1018 72 10000 13.6 33 20:31 18.09.2021
6284 Clouds 4 1018 70 10000 13.61 32 19:39 18.09.2021
6285 Clouds 4 1018 69 10000 13.61 33 19:20 18.09.2021
6286 Clouds 4 1018 69 10000 13.61 33 18:32 18.09.2021
6287 Clouds 4 1018 68 10000 13.62 35 17:29 18.09.2021
6288 Clouds 3 1018 73 10000 13.46 34 15:50 18.09.2021
6289 Clouds 4 1018 74 10000 12.9 32 13:46 18.09.2021
6290 Clouds 3 1018 75 10000 12.9 33 13:27 18.09.2021
6291 Clouds 3 1018 75 10000 12.9 33 12:49 18.09.2021
6292 Clouds 3 1018 77 10000 12.92 31 11:40 18.09.2021
6293 Clouds 3 1018 77 10000 12.65 32 10:31 18.09.2021
6294 Clouds 3 1018 77 10000 12.36 37 09:27 18.09.2021
6295 Clouds 3 1018 77 10000 12.36 37 08:48 18.09.2021
6296 Clouds 3 1018 78 10000 12 40 02:50 18.09.2021
6297 Clouds 3 1019 77 10000 11.76 41 00:41 18.09.2021
6298 Rain 3 1018 76 10000 11.67 41 23:47 17.09.2021
6299 Clouds 4 1018 75 10000 11.42 42 22:33 17.09.2021
6300 Rain 4 1018 77 10000 10.74 44 21:55 17.09.2021
6301 Clouds 4 1019 77 10000 10.99 44 20:45 17.09.2021
6302 Rain 4 1019 80 10000 10.19 41 18:54 17.09.2021
6303 Clouds 5 1019 79 10000 10.65 43 16:51 17.09.2021
6304 Rain 5 1019 79 10000 10.96 42 16:18 17.09.2021
6305 Clouds 5 1019 80 10000 10.73 36 12:37 17.09.2021
6306 Clouds 5 1019 81 10000 11.17 36 10:41 17.09.2021
6307 Rain 5 1019 82 10000 11.46 39 08:25 17.09.2021
6308 Rain 5 1019 81 10000 11.5 40 06:50 17.09.2021
6309 Rain 5 1019 86 10000 11.19 44 00:59 17.09.2021
6310 Rain 5 1019 87 10000 10.27 46 22:54 16.09.2021
6311 Rain 6 1018 87 10000 9.25 48 22:24 16.09.2021
6312 Rain 6 1018 87 10000 9.25 48 21:40 16.09.2021
6313 Rain 6 1018 85 10000 8.47 45 21:20 16.09.2021
6314 Rain 5 1019 83 10000 7.93 43 20:18 16.09.2021
6315 Clouds 5 1019 74 10000 8.67 50 18:19 16.09.2021
6316 Rain 5 1019 73 10000 8.97 52 17:29 16.09.2021
6317 Clouds 6 1019 68 10000 8.48 48 14:53 16.09.2021
6318 Clouds 6 1019 67 10000 8.57 48 13:48 16.09.2021
6319 Clouds 6 1019 63 10000 8.68 51 12:48 16.09.2021
6320 Clouds 6 1019 66 10000 8.55 54 12:28 16.09.2021
6321 Clouds 6 1018 72 10000 8.5 60 11:25 16.09.2021
6322 Clouds 6 1018 72 10000 8.5 60 10:31 16.09.2021
6323 Clouds 6 1018 72 10000 8.5 60 10:30 16.09.2021
6324 Clouds 6 1018 72 10000 8.5 60 10:30 16.09.2021
6325 Clouds 6 1018 74 10000 8.16 62 09:53 16.09.2021
6326 Clouds 6 1018 75 10000 7.53 61 08:41 16.09.2021
6327 Clouds 6 1018 77 10000 6.94 63 07:22 16.09.2021
6328 Clouds 6 1018 77 10000 6.94 63 06:39 16.09.2021
6329 Clouds 5 1017 76 10000 8.07 70 04:34 16.09.2021
6330 Clouds 7 1016 83 10000 6.89 77 01:26 16.09.2021
6331 Clouds 7 1016 83 10000 6.89 77 01:26 16.09.2021
6332 Clouds 7 1016 83 10000 5.21 77 23:35 15.09.2021
6333 Clouds 6 1015 86 10000 4.54 80 22:46 15.09.2021
6334 Clouds 6 1015 88 10000 4.33 78 21:41 15.09.2021
6335 Clouds 6 1015 89 10000 4.47 77 21:23 15.09.2021
6336 Clouds 6 1015 91 10000 4.6 73 19:51 15.09.2021
6337 Clouds 7 1015 90 10000 4.94 67 19:19 15.09.2021
6338 Clouds 7 1015 89 10000 4.87 68 17:49 15.09.2021
6339 Clouds 7 1015 88 10000 5.09 73 16:48 15.09.2021
6340 Clouds 7 1014 88 10000 5.54 74 15:30 15.09.2021
6341 Clouds 7 1014 88 10000 5.87 72 14:44 15.09.2021
6342 Clouds 7 1013 89 10000 5.56 69 13:51 15.09.2021
6343 Clouds 7 1013 89 10000 5.45 67 13:29 15.09.2021
6344 Clouds 7 1013 89 10000 5.45 67 12:34 15.09.2021
6345 Clouds 7 1013 89 10000 5.32 62 11:51 15.09.2021
6346 Clouds 7 1012 88 10000 4.99 62 11:18 15.09.2021
6347 Clouds 7 1012 88 10000 4.99 62 10:35 15.09.2021
6348 Clouds 7 1012 89 10000 4.72 67 09:23 15.09.2021
6349 Clouds 7 1011 91 10000 4.58 63 07:30 15.09.2021
6350 Clouds 7 1011 91 10000 4.58 63 07:30 15.09.2021
6351 Clouds 6 1010 96 10000 5.36 54 04:19 15.09.2021
6352 Clouds 7 1008 95 10000 5.83 42 22:38 14.09.2021
6353 Clouds 6 1008 96 10000 6.02 34 21:38 14.09.2021
6354 Clouds 6 1008 91 10000 5.99 25 20:25 14.09.2021
6355 Clouds 6 1008 93 10000 5.98 24 19:41 14.09.2021
6356 Clouds 7 1008 85 10000 5.87 31 17:34 14.09.2021
6357 Clouds 6 1008 87 10000 6.41 22 16:56 14.09.2021
6358 Clouds 6 1008 89 10000 7.31 13 15:27 14.09.2021
6359 Clouds 6 1008 89 10000 7.31 10 14:28 14.09.2021
6360 Clouds 6 1008 89 10000 7.76 6 11:50 14.09.2021
6361 Clouds 6 1008 90 10000 7.71 5 10:49 14.09.2021
6362 Clouds 6 1009 90 10000 7.59 4 09:50 14.09.2021
6363 Clouds 6 1008 90 10000 7.43 5 08:24 14.09.2021
6364 Clouds 6 1008 87 10000 8.03 6 05:38 14.09.2021
6365 Clouds 5 1009 82 10000 6.42 15 23:34 13.09.2021
6366 Clouds 5 1009 81 10000 5.56 19 22:29 13.09.2021
6367 Clouds 5 1009 81 10000 5.56 19 21:59 13.09.2021
6368 Clouds 5 1009 81 10000 5.56 19 21:33 13.09.2021
6369 Clouds 5 1009 82 10000 4.78 22 19:41 13.09.2021
6370 Clouds 5 1009 82 10000 4.37 22 18:45 13.09.2021
6371 Clouds 5 1009 81 10000 4.02 27 17:39 13.09.2021
6372 Clouds 5 1009 81 10000 3.68 26 16:49 13.09.2021
6373 Clouds 6 1008 78 10000 3.59 25 14:47 13.09.2021
6374 Clouds 6 1008 70 10000 2.83 24 11:45 13.09.2021
6375 Clouds 6 1008 69 10000 2.79 22 10:50 13.09.2021
6376 Clouds 6 1007 68 10000 2.08 13 08:41 13.09.2021
6377 Clouds 3 1006 83 10000 2.71 198 00:38 13.09.2021
6378 Clouds 4 1005 78 10000 2.64 201 22:51 12.09.2021
6379 Clouds 5 1005 75 10000 2.86 203 22:23 12.09.2021
6380 Clouds 5 1005 75 10000 3.07 198 21:21 12.09.2021
6381 Clouds 5 1005 74 10000 2.97 201 20:19 12.09.2021
6382 Clouds 5 1005 79 10000 3.42 201 19:37 12.09.2021
6383 Clouds 5 1005 79 10000 3.42 197 19:18 12.09.2021
6384 Clouds 5 1005 79 10000 3.52 193 18:18 12.09.2021
6385 Clouds 5 1005 76 10000 4.14 196 15:58 12.09.2021
6386 Clouds 6 1005 74 10000 4.36 202 14:47 12.09.2021
6387 Clouds 7 1004 67 10000 5.03 220 12:43 12.09.2021
6388 Clouds 7 1004 67 10000 5.41 225 10:32 12.09.2021
6389 Clouds 7 1004 69 10000 4.81 221 08:39 12.09.2021
6390 Clouds 7 1004 71 10000 4.3 220 07:30 12.09.2021
6391 Clouds 3 1003 87 10000 3.47 232 00:47 12.09.2021
6392 Clouds 3 1003 87 10000 3.71 233 22:58 11.09.2021
6393 Clouds 3 1003 86 10000 3.69 233 21:39 11.09.2021
6394 Clouds 4 1003 87 10000 3.79 253 19:41 11.09.2021
6395 Clouds 4 1003 86 10000 4.08 259 18:28 11.09.2021
6396 Clouds 5 1003 83 10000 3.55 254 17:28 11.09.2021
6397 Clouds 5 1002 79 10000 2.63 270 15:36 11.09.2021
6398 Rain 7 1002 69 10000 4.83 279 13:23 11.09.2021
6399 Clouds 7 1002 68 10000 4.15 281 11:42 11.09.2021
6400 Clouds 7 1001 68 10000 3.85 284 10:35 11.09.2021
6401 Clouds 6 1001 72 10000 4.56 291 08:51 11.09.2021
6402 Clouds 6 1001 75 10000 4.81 287 07:43 11.09.2021
6403 Clouds 4 1000 87 10000 5.02 269 04:23 11.09.2021
6404 Clouds 4 998 88 10000 3.12 266 22:43 10.09.2021
6405 Clouds 4 998 88 10000 3.12 289 21:57 10.09.2021
6406 Clouds 4 998 88 10000 3.12 289 21:38 10.09.2021
6407 Clouds 5 998 89 10000 4.08 304 19:31 10.09.2021
6408 Clouds 6 998 91 10000 4.94 336 17:56 10.09.2021
6409 Clouds 7 997 85 10000 2.86 263 16:27 10.09.2021
6410 Clouds 8 996 76 10000 3.6 259 13:26 10.09.2021
6411 Clouds 8 994 77 10000 3.41 250 10:52 10.09.2021
6412 Clouds 6 994 90 10000 3.48 205 07:52 10.09.2021
6413 Rain 6 993 93 10000 3.08 208 07:21 10.09.2021
6414 Rain 5 992 94 9838 3.32 180 00:24 10.09.2021
6415 Rain 6 991 90 10000 3.65 176 21:49 09.09.2021
6416 Rain 6 992 89 10000 3.91 160 20:48 09.09.2021
6417 Rain 6 992 83 10000 4.78 134 20:27 09.09.2021
6418 Rain 6 992 85 10000 4.11 151 18:46 09.09.2021
6419 Rain 5 993 90 10000 4.69 157 17:47 09.09.2021
6420 Rain 5 993 90 10000 5.48 165 16:28 09.09.2021
6421 Rain 5 993 91 10000 5.8 176 15:24 09.09.2021
6422 Rain 4 993 96 1364 6.45 180 12:24 09.09.2021
6423 Rain 5 993 86 10000 6.78 184 11:22 09.09.2021
6424 Clouds 6 992 82 10000 7.74 191 09:35 09.09.2021
6425 Clouds 6 993 85 10000 8.74 202 07:43 09.09.2021
6426 Clouds 6 992 90 10000 9.39 205 05:47 09.09.2021
6427 Rain 4 991 97 62 8.45 186 23:55 08.09.2021
6428 Rain 3 992 97 56 8.76 184 21:48 08.09.2021
6429 Rain 3 992 97 46 8.63 185 20:48 08.09.2021
6430 Rain 3 993 97 47 9.08 189 19:46 08.09.2021
6431 Rain 3 993 96 49 9.08 191 18:47 08.09.2021
6432 Rain 4 993 96 45 9.01 191 18:25 08.09.2021
6433 Rain 4 993 96 45 9.01 191 17:39 08.09.2021
6434 Rain 4 994 96 104 9.96 190 15:21 08.09.2021
6435 Rain 4 995 96 47 9.56 184 13:33 08.09.2021
6436 Rain 4 995 96 44 9.7 183 12:41 08.09.2021
6437 Rain 4 995 96 43 9.79 181 12:22 08.09.2021
6438 Rain 4 995 97 60 9.97 182 11:26 08.09.2021
6439 Rain 4 995 97 60 9.97 182 10:31 08.09.2021
6440 Rain 4 995 96 51 9.07 185 09:37 08.09.2021
6441 Rain 4 995 96 130 9.15 191 07:44 08.09.2021
6442 Rain 4 995 96 116 9.61 194 06:40 08.09.2021
6443 Rain 4 994 96 922 9.85 193 23:18 07.09.2021
6444 Clouds 4 994 96 116 10.3 193 22:19 07.09.2021
6445 Clouds 4 995 96 73 9.89 190 20:40 07.09.2021
6446 Rain 4 995 96 56 9.69 191 18:52 07.09.2021
6447 Rain 4 995 96 73 10.47 195 18:24 07.09.2021
6448 Rain 4 995 96 871 11.6 201 17:22 07.09.2021
6449 Rain 5 995 94 10000 11.94 201 15:56 07.09.2021
6450 Rain 5 994 95 1498 11.56 207 14:47 07.09.2021
6451 Rain 6 994 90 10000 10.63 214 13:50 07.09.2021
6452 Rain 6 993 87 10000 10.41 207 11:58 07.09.2021
6453 Rain 6 992 88 10000 10.96 208 10:48 07.09.2021
6454 Rain 6 992 89 10000 11.05 205 09:40 07.09.2021
6455 Rain 6 991 93 8888 9.89 192 07:46 07.09.2021
6456 Clouds 6 990 85 10000 10.64 204 06:19 07.09.2021
6457 Rain 5 990 96 1034 7.75 174 02:38 07.09.2021
6458 Rain 5 990 97 268 7.03 160 00:55 07.09.2021
6459 Rain 5 991 94 1694 7.47 159 23:46 06.09.2021
6460 Rain 5 991 96 217 6.94 157 23:28 06.09.2021
6461 Rain 5 991 96 217 6.94 157 22:49 06.09.2021
6462 Rain 5 991 96 190 7.05 157 21:52 06.09.2021
6463 Rain 5 991 91 10000 7.26 157 19:44 06.09.2021
6464 Rain 5 991 92 10000 7.77 153 19:18 06.09.2021
6465 Rain 5 991 92 10000 7.77 153 18:33 06.09.2021
6466 Rain 5 992 94 2127 7.22 151 17:37 06.09.2021
6467 Rain 5 992 96 1352 7.73 148 16:19 06.09.2021
6468 Rain 5 992 96 1352 7.73 148 16:19 06.09.2021
6469 Rain 6 992 91 10000 8.87 148 14:37 06.09.2021
6470 Rain 7 993 82 10000 9.39 149 12:48 06.09.2021
6471 Rain 9 992 69 10000 8.73 140 11:43 06.09.2021
6472 Clouds 9 992 67 10000 7.96 131 09:59 06.09.2021
6473 Clouds 8 994 69 10000 7.64 133 07:35 06.09.2021
6474 Clouds 6 994 85 10000 6.02 129 02:54 06.09.2021
6475 Clouds 6 993 84 10000 6.13 134 23:20 05.09.2021
6476 Clouds 6 993 84 10000 6.13 134 22:32 05.09.2021
6477 Clouds 7 993 82 10000 5.78 138 21:55 05.09.2021
6478 Clouds 7 993 85 10000 5.68 124 21:19 05.09.2021
6479 Clouds 7 993 89 10000 3.25 91 19:23 05.09.2021
6480 Clouds 8 993 89 10000 1.74 152 17:51 05.09.2021
6481 Clouds 9 991 85 10000 6.16 212 15:42 05.09.2021
6482 Rain 10 990 90 3807 4.63 184 14:56 05.09.2021
6483 Clouds 7 990 99 201 6.2 70 12:43 05.09.2021
6484 Rain 6 990 98 936 9.14 60 11:22 05.09.2021
6485 Rain 6 990 98 936 9.14 60 10:34 05.09.2021
6486 Rain 6 991 98 1246 11.04 62 09:32 05.09.2021
6487 Rain 6 992 97 1114 13.34 62 08:26 05.09.2021
6488 Clouds 6 999 90 10000 7.95 92 03:21 05.09.2021
6489 Clouds 6 1001 93 10000 5.51 81 00:34 05.09.2021
6490 Clouds 6 1002 90 10000 4.28 81 23:52 04.09.2021
6491 Clouds 6 1002 88 10000 2.91 83 22:55 04.09.2021
6492 Clouds 6 1002 88 10000 2.91 83 22:34 04.09.2021
6493 Clouds 7 1003 91 10000 1.01 163 19:58 04.09.2021
6494 Clouds 7 1003 91 10000 1.01 163 19:32 04.09.2021
6495 Clouds 8 1001 89 10000 1.69 207 16:48 04.09.2021
6496 Clouds 8 999 83 10000 5 239 14:28 04.09.2021
6497 Clouds 6 995 91 10000 7.03 279 11:22 04.09.2021
6498 Rain 6 993 92 10000 8.5 297 09:39 04.09.2021
6499 Rain 6 990 97 6645 7.79 348 07:28 04.09.2021
6500 Rain 7 994 90 10000 4.86 120 00:48 04.09.2021
6501 Rain 7 995 85 10000 3.65 119 23:32 03.09.2021
6502 Clouds 7 995 83 10000 3.44 131 22:57 03.09.2021
6503 Clouds 7 996 83 10000 3.34 149 21:37 03.09.2021
6504 Clouds 7 996 84 10000 3.78 166 20:53 03.09.2021
6505 Clouds 8 998 82 10000 4.8 172 19:57 03.09.2021
6506 Clouds 8 998 83 10000 4.55 175 19:29 03.09.2021
6507 Clouds 8 998 84 10000 4.8 182 17:58 03.09.2021
6508 Clouds 8 998 83 10000 5.84 193 16:44 03.09.2021
6509 Clouds 8 997 82 10000 6.93 208 15:34 03.09.2021
6510 Clouds 9 996 75 10000 8.71 223 12:59 03.09.2021
6511 Clouds 9 995 75 10000 8.54 228 10:43 03.09.2021
6512 Clouds 9 993 76 10000 8.49 242 09:19 03.09.2021
6513 Clouds 9 992 79 10000 8 239 07:51 03.09.2021
6514 Clouds 8 991 91 10000 8.07 234 06:21 03.09.2021
6515 Clouds 9 989 96 4837 6.88 190 23:54 02.09.2021
6516 Rain 9 989 95 10000 6.87 178 21:42 02.09.2021
6517 Rain 8 990 93 10000 5.42 156 20:24 02.09.2021
6518 Rain 7 991 92 10000 6.24 139 17:33 02.09.2021
6519 Rain 6 993 93 10000 7.2 118 16:20 02.09.2021
6520 Rain 6 994 93 10000 7.68 108 14:36 02.09.2021
6521 Rain 6 997 90 10000 7.13 104 12:58 02.09.2021
6522 Rain 7 998 85 10000 6.62 110 11:40 02.09.2021
6523 Rain 7 999 78 10000 6.49 117 10:37 02.09.2021
6524 Clouds 8 1000 68 10000 6.75 108 08:40 02.09.2021
6525 Clouds 7 1003 70 10000 6.25 131 07:20 02.09.2021
6526 Clouds 6 1005 83 10000 5.07 142 02:58 02.09.2021
6527 Clouds 6 1005 83 10000 5.07 142 02:35 02.09.2021
6528 Clouds 6 1006 85 10000 5.34 140 01:34 02.09.2021
6529 Clouds 5 1007 87 10000 5.42 161 23:40 01.09.2021
6530 Clouds 5 1007 86 10000 5.66 162 22:42 01.09.2021
6531 Clouds 5 1007 87 10000 4.89 153 21:41 01.09.2021
6532 Clouds 5 1008 88 10000 4.97 148 20:53 01.09.2021
6533 Clouds 5 1009 90 10000 4.6 150 19:22 01.09.2021
6534 Clouds 6 1010 89 10000 4.53 150 17:41 01.09.2021
6535 Clouds 6 1010 87 10000 4.53 154 16:47 01.09.2021
6536 Clouds 7 1010 85 10000 4.94 159 15:47 01.09.2021
6537 Rain 6 1011 90 10000 4.8 190 12:41 01.09.2021
6538 Rain 6 1011 91 10000 5.05 204 11:45 01.09.2021
6539 Rain 7 1011 96 10000 4.69 201 08:56 01.09.2021
6540 Rain 6 1011 96 5860 6.02 198 07:52 01.09.2021
6541 Rain 6 1011 90 10000 6.54 189 05:39 01.09.2021
6542 Clouds 5 1013 83 10000 4.15 180 22:43 31.08.2021
6543 Clouds 5 1014 85 10000 3.75 187 21:33 31.08.2021
6544 Clouds 4 1015 89 10000 3.6 204 19:46 31.08.2021
6545 Clouds 4 1015 89 10000 3.59 213 18:30 31.08.2021
6546 Clouds 5 1015 86 10000 3.35 221 17:38 31.08.2021
6547 Clouds 6 1016 82 10000 3.1 236 17:20 31.08.2021
6548 Clouds 6 1016 79 10000 3.49 256 16:24 31.08.2021
6549 Clouds 6 1016 79 10000 3.49 256 16:24 31.08.2021
6550 Clouds 6 1017 69 10000 1.34 284 13:40 31.08.2021
6551 Clouds 6 1017 67 10000 1.67 327 11:36 31.08.2021
6552 Clouds 6 1017 68 10000 2.34 329 10:55 31.08.2021
6553 Clouds 6 1017 69 10000 3.06 326 09:45 31.08.2021
6554 Clouds 6 1018 69 10000 3.11 327 08:39 31.08.2021
6555 Clouds 6 1018 69 10000 3.27 321 07:35 31.08.2021
6556 Clouds 5 1018 76 10000 3.88 335 03:40 31.08.2021
6557 Clouds 5 1018 78 10000 5.5 347 23:35 30.08.2021
6558 Clouds 5 1018 78 10000 6.02 351 21:45 30.08.2021
6559 Clouds 5 1018 79 10000 6.44 355 21:27 30.08.2021
6560 Clouds 5 1018 80 10000 6.76 359 20:20 30.08.2021
6561 Clouds 5 1018 80 10000 6.87 2 19:29 30.08.2021
6562 Clouds 5 1018 80 10000 6.87 2 18:34 30.08.2021
6563 Clouds 5 1018 81 10000 7.23 2 17:45 30.08.2021
6564 Clouds 6 1018 84 10000 8.14 1 16:22 30.08.2021
6565 Clouds 6 1018 84 10000 8.14 1 15:39 30.08.2021
6566 Clouds 6 1017 82 10000 8.99 360 13:43 30.08.2021
6567 Clouds 6 1016 86 10000 9.43 359 12:24 30.08.2021
6568 Clouds 6 1014 88 10000 9.95 2 09:30 30.08.2021
6569 Clouds 6 1008 96 10000 8.56 352 22:28 29.08.2021
6570 Clouds 6 1008 96 10000 8.56 352 21:32 29.08.2021
6571 Clouds 6 1007 97 3657 6.99 339 19:59 29.08.2021
6572 Clouds 6 1007 96 10000 6.57 338 19:19 29.08.2021
6573 Clouds 6 1007 97 10000 6.54 336 17:47 29.08.2021
6574 Rain 6 1006 97 4006 9.03 321 15:47 29.08.2021
6575 Clouds 7 1006 91 10000 9.06 314 14:18 29.08.2021
6576 Clouds 7 1006 91 10000 9.06 314 13:33 29.08.2021
6577 Clouds 7 1006 89 10000 8.72 317 12:31 29.08.2021
6578 Clouds 7 1006 90 10000 8.76 321 11:48 29.08.2021
6579 Clouds 7 1005 92 10000 8.56 322 10:52 29.08.2021
6580 Clouds 7 1005 92 10000 8.56 322 10:33 29.08.2021
6581 Clouds 7 1005 92 10000 8.96 324 09:54 29.08.2021
6582 Clouds 6 1004 95 10000 9.66 315 06:55 29.08.2021
6583 Rain 6 1002 92 10000 6.81 291 00:20 29.08.2021
6584 Rain 6 1002 93 10000 7.17 278 20:55 28.08.2021
6585 Clouds 6 1002 89 10000 7.59 272 19:53 28.08.2021
6586 Rain 7 1002 89 10000 8.23 267 18:27 28.08.2021
6587 Rain 7 1002 89 10000 8.23 267 17:48 28.08.2021
6588 Rain 8 1003 92 10000 8.73 269 16:58 28.08.2021
6589 Rain 8 1003 93 10000 9.06 262 15:32 28.08.2021
6590 Rain 8 1004 91 10000 10.29 263 14:19 28.08.2021
6591 Rain 8 1004 91 10000 10.29 263 13:43 28.08.2021
6592 Rain 8 1005 90 10000 11.11 262 12:41 28.08.2021
6593 Rain 9 1006 91 10000 11.53 258 11:51 28.08.2021
6594 Rain 9 1007 89 10000 11.97 251 10:29 28.08.2021
6595 Clouds 10 1007 84 10000 12.46 251 08:36 28.08.2021
6596 Rain 8 1010 93 10000 10.76 263 05:22 28.08.2021
6597 Rain 8 1013 96 1632 10.16 257 21:59 27.08.2021
6598 Rain 7 1013 95 2061 11.35 239 20:56 27.08.2021
6599 Rain 7 1014 95 10000 10.4 233 19:59 27.08.2021
6600 Rain 7 1016 93 10000 9.5 237 18:39 27.08.2021
6601 Clouds 7 1017 90 10000 8.67 241 18:20 27.08.2021
6602 Clouds 7 1018 88 10000 8.04 251 16:47 27.08.2021
6603 Clouds 7 1019 84 10000 7.13 259 15:21 27.08.2021
6604 Clouds 7 1019 84 10000 7.13 259 14:36 27.08.2021
6605 Clouds 8 1020 72 10000 6.58 287 12:28 27.08.2021
6606 Clouds 8 1021 74 10000 6.18 282 11:23 27.08.2021
6607 Clouds 8 1021 74 10000 6.18 282 10:41 27.08.2021
6608 Clouds 7 1021 78 10000 6 300 09:19 27.08.2021
6609 Clouds 7 1021 78 10000 6 300 08:38 27.08.2021
6610 Clouds 7 1021 77 10000 5.05 332 05:51 27.08.2021
6611 Rain 6 1020 83 10000 7.15 2 00:49 27.08.2021
6612 Rain 6 1020 85 10000 6.88 2 00:28 27.08.2021
6613 Rain 6 1020 87 10000 6.98 3 22:28 26.08.2021
6614 Rain 6 1020 87 10000 6.98 3 21:48 26.08.2021
6615 Clouds 6 1020 87 10000 6.02 15 19:53 26.08.2021
6616 Clouds 7 1020 89 10000 5.74 21 18:34 26.08.2021
6617 Rain 7 1020 90 10000 5.08 33 17:26 26.08.2021
6618 Rain 7 1020 90 10000 5.08 33 16:30 26.08.2021
6619 Clouds 7 1020 90 10000 5.46 37 14:47 26.08.2021
6620 Clouds 7 1021 85 10000 5.48 43 13:21 26.08.2021
6621 Clouds 7 1021 85 10000 5.48 43 12:33 26.08.2021
6622 Clouds 8 1021 85 10000 5.79 52 11:38 26.08.2021
6623 Clouds 7 1020 87 10000 6.17 68 08:51 26.08.2021
6624 Rain 8 1020 86 10000 5.8 81 08:19 26.08.2021
6625 Clouds 7 1020 89 10000 4.78 86 23:44 25.08.2021
6626 Clouds 6 1020 91 10000 4.66 81 22:41 25.08.2021
6627 Clouds 6 1021 90 10000 4.08 89 22:23 25.08.2021
6628 Clouds 6 1021 90 10000 4.06 93 20:57 25.08.2021
6629 Clouds 6 1021 90 10000 4.06 93 20:30 25.08.2021
6630 Clouds 6 1021 90 10000 4.75 101 19:42 25.08.2021
6631 Clouds 7 1021 90 10000 4.95 84 17:53 25.08.2021
6632 Clouds 7 1021 88 10000 4.13 87 15:59 25.08.2021
6633 Clouds 7 1021 88 10000 4.13 87 15:33 25.08.2021
6634 Clouds 7 1021 86 10000 4.3 84 14:46 25.08.2021
6635 Rain 8 1021 84 10000 4.21 74 13:54 25.08.2021
6636 Rain 8 1021 81 10000 1.93 47 12:20 25.08.2021
6637 Rain 8 1021 79 10000 0.36 347 11:20 25.08.2021
6638 Rain 8 1021 83 10000 0.51 218 09:59 25.08.2021
6639 Rain 8 1021 83 10000 0.51 218 09:36 25.08.2021
6640 Rain 8 1021 82 10000 0.78 195 08:36 25.08.2021
6641 Clouds 8 1020 80 10000 1.94 189 07:21 25.08.2021
6642 Clouds 6 1019 93 10000 4.12 298 01:21 25.08.2021
6643 Clouds 6 1019 93 10000 4.7 298 23:31 24.08.2021
6644 Clouds 6 1018 94 10000 5.66 295 21:20 24.08.2021
6645 Clouds 6 1017 93 10000 5.86 297 20:18 24.08.2021
6646 Clouds 6 1017 93 10000 5.86 297 19:43 24.08.2021
6647 Clouds 6 1017 93 10000 6.6 304 17:55 24.08.2021
6648 Rain 6 1016 93 10000 6.95 306 17:22 24.08.2021
6649 Rain 6 1016 93 10000 6.95 306 17:22 24.08.2021
6650 Clouds 6 1016 93 10000 7.25 309 16:18 24.08.2021
6651 Clouds 7 1015 88 10000 8.11 315 13:51 24.08.2021
6652 Clouds 7 1014 88 10000 8.19 317 12:45 24.08.2021
6653 Clouds 7 1013 89 10000 7.89 324